﻿<?xml version="1.0" encoding="utf-8"?><gpx creator="Garmin Desktop App" version="1.1" xsi:schemaLocation="http://www.topografix.com/GPX/1/1 http://www.topografix.com/GPX/1/1/gpx.xsd http://www.garmin.com/xmlschemas/WaypointExtension/v1 http://www8.garmin.com/xmlschemas/WaypointExtensionv1.xsd http://www.garmin.com/xmlschemas/TrackPointExtension/v1 http://www.garmin.com/xmlschemas/TrackPointExtensionv1.xsd http://www.garmin.com/xmlschemas/GpxExtensions/v3 http://www8.garmin.com/xmlschemas/GpxExtensionsv3.xsd http://www.garmin.com/xmlschemas/ActivityExtension/v1 http://www8.garmin.com/xmlschemas/ActivityExtensionv1.xsd http://www.garmin.com/xmlschemas/AdventuresExtensions/v1 http://www8.garmin.com/xmlschemas/AdventuresExtensionv1.xsd http://www.garmin.com/xmlschemas/PressureExtension/v1 http://www.garmin.com/xmlschemas/PressureExtensionv1.xsd http://www.garmin.com/xmlschemas/TripExtensions/v1 http://www.garmin.com/xmlschemas/TripExtensionsv1.xsd http://www.garmin.com/xmlschemas/TripMetaDataExtensions/v1 http://www.garmin.com/xmlschemas/TripMetaDataExtensionsv1.xsd http://www.garmin.com/xmlschemas/ViaPointTransportationModeExtensions/v1 http://www.garmin.com/xmlschemas/ViaPointTransportationModeExtensionsv1.xsd http://www.garmin.com/xmlschemas/CreationTimeExtension/v1 http://www.garmin.com/xmlschemas/CreationTimeExtensionsv1.xsd http://www.garmin.com/xmlschemas/AccelerationExtension/v1 http://www.garmin.com/xmlschemas/AccelerationExtensionv1.xsd http://www.garmin.com/xmlschemas/PowerExtension/v1 http://www.garmin.com/xmlschemas/PowerExtensionv1.xsd http://www.garmin.com/xmlschemas/VideoExtension/v1 http://www.garmin.com/xmlschemas/VideoExtensionv1.xsd" xmlns="http://www.topografix.com/GPX/1/1" xmlns:xsi="http://www.w3.org/2001/XMLSchema-instance" xmlns:wptx1="http://www.garmin.com/xmlschemas/WaypointExtension/v1" xmlns:gpxtrx="http://www.garmin.com/xmlschemas/GpxExtensions/v3" xmlns:gpxtpx="http://www.garmin.com/xmlschemas/TrackPointExtension/v1" xmlns:gpxx="http://www.garmin.com/xmlschemas/GpxExtensions/v3" xmlns:trp="http://www.garmin.com/xmlschemas/TripExtensions/v1" xmlns:adv="http://www.garmin.com/xmlschemas/AdventuresExtensions/v1" xmlns:prs="http://www.garmin.com/xmlschemas/PressureExtension/v1" xmlns:tmd="http://www.garmin.com/xmlschemas/TripMetaDataExtensions/v1" xmlns:vptm="http://www.garmin.com/xmlschemas/ViaPointTransportationModeExtensions/v1" xmlns:ctx="http://www.garmin.com/xmlschemas/CreationTimeExtension/v1" xmlns:gpxacc="http://www.garmin.com/xmlschemas/AccelerationExtension/v1" xmlns:gpxpx="http://www.garmin.com/xmlschemas/PowerExtension/v1" xmlns:vidx1="http://www.garmin.com/xmlschemas/VideoExtension/v1">

  <metadata>
    <link href="http://www.garmin.com">
      <text>Garmin International</text>
    </link>
    <time>2021-01-15T19:44:27Z</time>
    <bounds maxlat="46.220277864485979" maxlon="10.909314192831516" minlat="46.18154626339674" minlon="10.851064911112189" />
  </metadata>

  <trk>
    <name>sentiero benini2018-09-09</name>
    <extensions>
      <gpxx:TrackExtension>
        <gpxx:DisplayColor>Yellow</gpxx:DisplayColor>
      </gpxx:TrackExtension>
    </extensions>
    <trkseg>
      <trkpt lat="46.1919423379004" lon="10.882423287257552">
        <ele>2280.3800000000001</ele>
        <time>2018-09-09T05:03:02Z</time>
      </trkpt>
      <trkpt lat="46.191936722025275" lon="10.882442900910974">
        <ele>2278.9400000000001</ele>
        <time>2018-09-09T05:03:21Z</time>
      </trkpt>
      <trkpt lat="46.191904032602906" lon="10.882398057729006">
        <ele>2278.46</ele>
        <time>2018-09-09T05:03:43Z</time>
      </trkpt>
      <trkpt lat="46.191902607679367" lon="10.882386993616819">
        <ele>2278.9400000000001</ele>
        <time>2018-09-09T05:03:56Z</time>
      </trkpt>
      <trkpt lat="46.191900093108416" lon="10.882397387176752">
        <ele>2278.9400000000001</ele>
        <time>2018-09-09T05:04:19Z</time>
      </trkpt>
      <trkpt lat="46.19190176948905" lon="10.882400404661894">
        <ele>2278.9400000000001</ele>
        <time>2018-09-09T05:04:32Z</time>
      </trkpt>
      <trkpt lat="46.191887520253658" lon="10.882336031645536">
        <ele>2278.9400000000001</ele>
        <time>2018-09-09T05:04:57Z</time>
      </trkpt>
      <trkpt lat="46.191896321251988" lon="10.88229957036674">
        <ele>2278.9400000000001</ele>
        <time>2018-09-09T05:05:15Z</time>
      </trkpt>
      <trkpt lat="46.19190277531743" lon="10.882292948663235">
        <ele>2279.4200000000001</ele>
        <time>2018-09-09T05:05:35Z</time>
      </trkpt>
      <trkpt lat="46.191891208291054" lon="10.882278364151716">
        <ele>2279.4200000000001</ele>
        <time>2018-09-09T05:05:53Z</time>
      </trkpt>
      <trkpt lat="46.191899925470352" lon="10.882283225655556">
        <ele>2279.4200000000001</ele>
        <time>2018-09-09T05:06:09Z</time>
      </trkpt>
      <trkpt lat="46.191896656528115" lon="10.882272999733686">
        <ele>2279.9000000000001</ele>
        <time>2018-09-09T05:06:31Z</time>
      </trkpt>
      <trkpt lat="46.191890789195895" lon="10.882262689992785">
        <ele>2279.9000000000001</ele>
        <time>2018-09-09T05:06:48Z</time>
      </trkpt>
      <trkpt lat="46.191905708983541" lon="10.882223881781101">
        <ele>2279.9000000000001</ele>
        <time>2018-09-09T05:07:08Z</time>
      </trkpt>
      <trkpt lat="46.191887771710753" lon="10.882298229262233">
        <ele>2279.9000000000001</ele>
        <time>2018-09-09T05:07:28Z</time>
      </trkpt>
      <trkpt lat="46.191908307373524" lon="10.882326811552048">
        <ele>2280.3800000000001</ele>
        <time>2018-09-09T05:07:47Z</time>
      </trkpt>
      <trkpt lat="46.19192817248404" lon="10.882334355264902">
        <ele>2280.3800000000001</ele>
        <time>2018-09-09T05:08:06Z</time>
      </trkpt>
      <trkpt lat="46.191929262131453" lon="10.882310047745705">
        <ele>2280.3800000000001</ele>
        <time>2018-09-09T05:08:27Z</time>
      </trkpt>
      <trkpt lat="46.191924652084708" lon="10.882314322516322">
        <ele>2280.3800000000001</ele>
        <time>2018-09-09T05:08:46Z</time>
      </trkpt>
      <trkpt lat="46.19190813973546" lon="10.882310634478927">
        <ele>2280.8699999999999</ele>
        <time>2018-09-09T05:09:05Z</time>
      </trkpt>
      <trkpt lat="46.191919455304742" lon="10.882246177643538">
        <ele>2280.8699999999999</ele>
        <time>2018-09-09T05:09:22Z</time>
      </trkpt>
      <trkpt lat="46.191954659298062" lon="10.882257409393787">
        <ele>2280.8699999999999</ele>
        <time>2018-09-09T05:09:40Z</time>
      </trkpt>
      <trkpt lat="46.19195600040257" lon="10.882351957261562">
        <ele>2281.8299999999999</ele>
        <time>2018-09-09T05:09:59Z</time>
      </trkpt>
      <trkpt lat="46.191951893270016" lon="10.882349777966738">
        <ele>2282.3099999999999</ele>
        <time>2018-09-09T05:10:09Z</time>
      </trkpt>
      <trkpt lat="46.191925825551152" lon="10.882378611713648">
        <ele>2282.3099999999999</ele>
        <time>2018-09-09T05:10:22Z</time>
      </trkpt>
      <trkpt lat="46.191920209676027" lon="10.88239093311131">
        <ele>2282.3099999999999</ele>
        <time>2018-09-09T05:10:39Z</time>
      </trkpt>
      <trkpt lat="46.191930184140801" lon="10.882381293922663">
        <ele>2282.3099999999999</ele>
        <time>2018-09-09T05:10:51Z</time>
      </trkpt>
      <trkpt lat="46.191927334293723" lon="10.882395207881927">
        <ele>2282.3099999999999</ele>
        <time>2018-09-09T05:11:08Z</time>
      </trkpt>
      <trkpt lat="46.191921886056662" lon="10.882516913115978">
        <ele>2282.3099999999999</ele>
        <time>2018-09-09T05:11:19Z</time>
      </trkpt>
      <trkpt lat="46.191898919641972" lon="10.882589416578412">
        <ele>2282.3099999999999</ele>
        <time>2018-09-09T05:11:27Z</time>
      </trkpt>
      <trkpt lat="46.191888777539134" lon="10.882571982219815">
        <ele>2282.3099999999999</ele>
        <time>2018-09-09T05:11:41Z</time>
      </trkpt>
      <trkpt lat="46.191897829994559" lon="10.882602911442518">
        <ele>2282.3099999999999</ele>
        <time>2018-09-09T05:11:52Z</time>
      </trkpt>
      <trkpt lat="46.191891459748149" lon="10.882603665813804">
        <ele>2282.3099999999999</ele>
        <time>2018-09-09T05:12:06Z</time>
      </trkpt>
      <trkpt lat="46.191885843873024" lon="10.882596792653203">
        <ele>2282.3099999999999</ele>
        <time>2018-09-09T05:12:21Z</time>
      </trkpt>
      <trkpt lat="46.19190520606935" lon="10.882649682462215">
        <ele>2282.3099999999999</ele>
        <time>2018-09-09T05:12:31Z</time>
      </trkpt>
      <trkpt lat="46.191898668184876" lon="10.882642893120646">
        <ele>2282.3099999999999</ele>
        <time>2018-09-09T05:12:39Z</time>
      </trkpt>
      <trkpt lat="46.191882658749819" lon="10.882612047716975">
        <ele>2282.3099999999999</ele>
        <time>2018-09-09T05:12:53Z</time>
      </trkpt>
      <trkpt lat="46.191883329302073" lon="10.882587656378746">
        <ele>2282.3099999999999</ele>
        <time>2018-09-09T05:13:07Z</time>
      </trkpt>
      <trkpt lat="46.191876707598567" lon="10.882578017190099">
        <ele>2282.3099999999999</ele>
        <time>2018-09-09T05:13:24Z</time>
      </trkpt>
      <trkpt lat="46.191877042874694" lon="10.882596205919981">
        <ele>2281.8299999999999</ele>
        <time>2018-09-09T05:13:36Z</time>
      </trkpt>
      <trkpt lat="46.191865056753159" lon="10.882582375779748">
        <ele>2281.8299999999999</ele>
        <time>2018-09-09T05:13:50Z</time>
      </trkpt>
      <trkpt lat="46.191861620172858" lon="10.882587069645524">
        <ele>2281.8299999999999</ele>
        <time>2018-09-09T05:14:12Z</time>
      </trkpt>
      <trkpt lat="46.19186706840992" lon="10.882583633065224">
        <ele>2282.3099999999999</ele>
        <time>2018-09-09T05:14:21Z</time>
      </trkpt>
      <trkpt lat="46.191904870793223" lon="10.882598888128996">
        <ele>2282.3099999999999</ele>
        <time>2018-09-09T05:14:25Z</time>
      </trkpt>
      <trkpt lat="46.191922975704074" lon="10.882617998868227">
        <ele>2282.3099999999999</ele>
        <time>2018-09-09T05:14:27Z</time>
      </trkpt>
      <trkpt lat="46.191969327628613" lon="10.882635097950697">
        <ele>2281.8299999999999</ele>
        <time>2018-09-09T05:14:38Z</time>
      </trkpt>
      <trkpt lat="46.192011572420597" lon="10.882671726867557">
        <ele>2280.8699999999999</ele>
        <time>2018-09-09T05:14:45Z</time>
      </trkpt>
      <trkpt lat="46.191997826099396" lon="10.882699219509959">
        <ele>2280.8699999999999</ele>
        <time>2018-09-09T05:14:47Z</time>
      </trkpt>
      <trkpt lat="46.191991623491049" lon="10.882714474573731">
        <ele>2280.8699999999999</ele>
        <time>2018-09-09T05:14:48Z</time>
      </trkpt>
      <trkpt lat="46.191963208839297" lon="10.882824277505279">
        <ele>2281.3499999999999</ele>
        <time>2018-09-09T05:14:56Z</time>
      </trkpt>
      <trkpt lat="46.191974943503737" lon="10.882905162870884">
        <ele>2282.79</ele>
        <time>2018-09-09T05:15:05Z</time>
      </trkpt>
      <trkpt lat="46.191979888826609" lon="10.883042793720961">
        <ele>2284.71</ele>
        <time>2018-09-09T05:15:17Z</time>
      </trkpt>
      <trkpt lat="46.191989192739129" lon="10.883081015199423">
        <ele>2284.71</ele>
        <time>2018-09-09T05:15:20Z</time>
      </trkpt>
      <trkpt lat="46.192001346498728" lon="10.88320012204349">
        <ele>2286.1500000000001</ele>
        <time>2018-09-09T05:15:33Z</time>
      </trkpt>
      <trkpt lat="46.191959772258997" lon="10.883287880569696">
        <ele>2288.0799999999999</ele>
        <time>2018-09-09T05:15:44Z</time>
      </trkpt>
      <trkpt lat="46.191893052309752" lon="10.883391564711928">
        <ele>2289.52</ele>
        <time>2018-09-09T05:15:56Z</time>
      </trkpt>
      <trkpt lat="46.191897662356496" lon="10.88339751586318">
        <ele>2289.52</ele>
        <time>2018-09-09T05:15:59Z</time>
      </trkpt>
      <trkpt lat="46.191917443647981" lon="10.883532464504242">
        <ele>2290.48</ele>
        <time>2018-09-09T05:16:10Z</time>
      </trkpt>
      <trkpt lat="46.191918281838298" lon="10.883561046794057">
        <ele>2290.96</ele>
        <time>2018-09-09T05:16:14Z</time>
      </trkpt>
      <trkpt lat="46.191887939348817" lon="10.883673029020429">
        <ele>2292.4000000000001</ele>
        <time>2018-09-09T05:16:26Z</time>
      </trkpt>
      <trkpt lat="46.19186514057219" lon="10.883729439228773">
        <ele>2293.3600000000001</ele>
        <time>2018-09-09T05:16:37Z</time>
      </trkpt>
      <trkpt lat="46.191827254369855" lon="10.883818790316582">
        <ele>2293.8400000000001</ele>
        <time>2018-09-09T05:16:47Z</time>
      </trkpt>
      <trkpt lat="46.19180697016418" lon="10.883847707882524">
        <ele>2294.3200000000002</ele>
        <time>2018-09-09T05:16:50Z</time>
      </trkpt>
      <trkpt lat="46.191786015406251" lon="10.883972682058811">
        <ele>2293.8400000000001</ele>
        <time>2018-09-09T05:17:02Z</time>
      </trkpt>
      <trkpt lat="46.191732371225953" lon="10.884092543274164">
        <ele>2294.8000000000002</ele>
        <time>2018-09-09T05:17:14Z</time>
      </trkpt>
      <trkpt lat="46.19167847558856" lon="10.884229587391019">
        <ele>2296.25</ele>
        <time>2018-09-09T05:17:27Z</time>
      </trkpt>
      <trkpt lat="46.191696329042315" lon="10.884317262098193">
        <ele>2297.6900000000001</ele>
        <time>2018-09-09T05:17:38Z</time>
      </trkpt>
      <trkpt lat="46.191714685410261" lon="10.884395549073815">
        <ele>2299.1300000000001</ele>
        <time>2018-09-09T05:17:51Z</time>
      </trkpt>
      <trkpt lat="46.191768832504749" lon="10.884502921253443">
        <ele>2300.5700000000002</ele>
        <time>2018-09-09T05:18:02Z</time>
      </trkpt>
      <trkpt lat="46.19176983833313" lon="10.884528318420053">
        <ele>2300.5700000000002</ele>
        <time>2018-09-09T05:18:10Z</time>
      </trkpt>
      <trkpt lat="46.191754583269358" lon="10.884684892371297">
        <ele>2301.5300000000002</ele>
        <time>2018-09-09T05:18:21Z</time>
      </trkpt>
      <trkpt lat="46.191751230508089" lon="10.884801736101508">
        <ele>2302.4899999999998</ele>
        <time>2018-09-09T05:18:33Z</time>
      </trkpt>
      <trkpt lat="46.191760366782546" lon="10.884945234283805">
        <ele>2304.4200000000001</ele>
        <time>2018-09-09T05:18:48Z</time>
      </trkpt>
      <trkpt lat="46.191803449764848" lon="10.88507934473455">
        <ele>2305.8600000000001</ele>
        <time>2018-09-09T05:19:00Z</time>
      </trkpt>
      <trkpt lat="46.191722061485052" lon="10.885174730792642">
        <ele>2307.7800000000002</ele>
        <time>2018-09-09T05:19:15Z</time>
      </trkpt>
      <trkpt lat="46.191710578277707" lon="10.885294675827026">
        <ele>2309.2199999999998</ele>
        <time>2018-09-09T05:19:26Z</time>
      </trkpt>
      <trkpt lat="46.191683756187558" lon="10.885413195937872">
        <ele>2310.6700000000001</ele>
        <time>2018-09-09T05:19:39Z</time>
      </trkpt>
      <trkpt lat="46.191646540537477" lon="10.885506821796298">
        <ele>2312.1100000000001</ele>
        <time>2018-09-09T05:19:50Z</time>
      </trkpt>
      <trkpt lat="46.191638745367527" lon="10.88552207686007">
        <ele>2313.0700000000002</ele>
        <time>2018-09-09T05:19:53Z</time>
      </trkpt>
      <trkpt lat="46.191615611314774" lon="10.885621402412653">
        <ele>2314.0300000000002</ele>
        <time>2018-09-09T05:20:03Z</time>
      </trkpt>
      <trkpt lat="46.191591136157513" lon="10.885721817612648">
        <ele>2315.9499999999998</ele>
        <time>2018-09-09T05:20:15Z</time>
      </trkpt>
      <trkpt lat="46.191575126722455" lon="10.885855676606297">
        <ele>2316.9099999999999</ele>
        <time>2018-09-09T05:20:28Z</time>
      </trkpt>
      <trkpt lat="46.191559452563524" lon="10.885926922783256">
        <ele>2317.8800000000001</ele>
        <time>2018-09-09T05:20:35Z</time>
      </trkpt>
      <trkpt lat="46.191533552482724" lon="10.886057009920478">
        <ele>2319.3200000000002</ele>
        <time>2018-09-09T05:20:47Z</time>
      </trkpt>
      <trkpt lat="46.191534474492073" lon="10.886150887235999">
        <ele>2319.8000000000002</ele>
        <time>2018-09-09T05:20:56Z</time>
      </trkpt>
      <trkpt lat="46.191532295197248" lon="10.886238226667047">
        <ele>2320.7600000000002</ele>
        <time>2018-09-09T05:21:05Z</time>
      </trkpt>
      <trkpt lat="46.191520895808935" lon="10.886329002678394">
        <ele>2322.6799999999998</ele>
        <time>2018-09-09T05:21:13Z</time>
      </trkpt>
      <trkpt lat="46.191506814211607" lon="10.886438051238656">
        <ele>2323.1599999999999</ele>
        <time>2018-09-09T05:21:24Z</time>
      </trkpt>
      <trkpt lat="46.191483596339822" lon="10.88651055470109">
        <ele>2323.1599999999999</ele>
        <time>2018-09-09T05:21:30Z</time>
      </trkpt>
      <trkpt lat="46.191422492265701" lon="10.886643659323454">
        <ele>2323.1599999999999</ele>
        <time>2018-09-09T05:21:41Z</time>
      </trkpt>
      <trkpt lat="46.191414278000593" lon="10.886795539408922">
        <ele>2322.6799999999998</ele>
        <time>2018-09-09T05:21:51Z</time>
      </trkpt>
      <trkpt lat="46.191412266343832" lon="10.886848932132125">
        <ele>2322.6799999999998</ele>
        <time>2018-09-09T05:21:56Z</time>
      </trkpt>
      <trkpt lat="46.191351413726807" lon="10.88700751774013">
        <ele>2322.6799999999998</ele>
        <time>2018-09-09T05:22:08Z</time>
      </trkpt>
      <trkpt lat="46.19133347645402" lon="10.887063927948475">
        <ele>2323.1599999999999</ele>
        <time>2018-09-09T05:22:12Z</time>
      </trkpt>
      <trkpt lat="46.191333141177893" lon="10.88712184689939">
        <ele>2323.1599999999999</ele>
        <time>2018-09-09T05:22:21Z</time>
      </trkpt>
      <trkpt lat="46.191304475069046" lon="10.887225614860654">
        <ele>2324.6100000000001</ele>
        <time>2018-09-09T05:22:31Z</time>
      </trkpt>
      <trkpt lat="46.191251836717129" lon="10.887257717549801">
        <ele>2325.5700000000002</ele>
        <time>2018-09-09T05:22:37Z</time>
      </trkpt>
      <trkpt lat="46.191255524754524" lon="10.887368777766824">
        <ele>2326.0500000000002</ele>
        <time>2018-09-09T05:22:48Z</time>
      </trkpt>
      <trkpt lat="46.191251585260034" lon="10.887508168816566">
        <ele>2327.0100000000002</ele>
        <time>2018-09-09T05:23:00Z</time>
      </trkpt>
      <trkpt lat="46.191213028505445" lon="10.887600369751453">
        <ele>2327.9699999999998</ele>
        <time>2018-09-09T05:23:09Z</time>
      </trkpt>
      <trkpt lat="46.191214956343174" lon="10.887660216540098">
        <ele>2328.4499999999998</ele>
        <time>2018-09-09T05:23:15Z</time>
      </trkpt>
      <trkpt lat="46.191217135637999" lon="10.887729953974485">
        <ele>2328.4499999999998</ele>
        <time>2018-09-09T05:23:20Z</time>
      </trkpt>
      <trkpt lat="46.191185284405947" lon="10.887855514883995">
        <ele>2328.4499999999998</ele>
        <time>2018-09-09T05:23:30Z</time>
      </trkpt>
      <trkpt lat="46.191187212243676" lon="10.887864148244262">
        <ele>2328.9299999999998</ele>
        <time>2018-09-09T05:23:31Z</time>
      </trkpt>
      <trkpt lat="46.191210513934493" lon="10.887937573716044">
        <ele>2329.8899999999999</ele>
        <time>2018-09-09T05:23:39Z</time>
      </trkpt>
      <trkpt lat="46.191247310489416" lon="10.888061625882983">
        <ele>2330.8499999999999</ele>
        <time>2018-09-09T05:23:48Z</time>
      </trkpt>
      <trkpt lat="46.191285196691751" lon="10.888103367760777">
        <ele>2331.3299999999999</ele>
        <time>2018-09-09T05:23:53Z</time>
      </trkpt>
      <trkpt lat="46.191263655200601" lon="10.888260444626212">
        <ele>2331.8099999999999</ele>
        <time>2018-09-09T05:24:05Z</time>
      </trkpt>
      <trkpt lat="46.191270695999265" lon="10.888375947251916">
        <ele>2333.2600000000002</ele>
        <time>2018-09-09T05:24:14Z</time>
      </trkpt>
      <trkpt lat="46.191265750676394" lon="10.888394387438893">
        <ele>2333.2600000000002</ele>
        <time>2018-09-09T05:24:16Z</time>
      </trkpt>
      <trkpt lat="46.19125041179359" lon="10.888430932536721">
        <ele>2333.7399999999998</ele>
        <time>2018-09-09T05:24:19Z</time>
      </trkpt>
      <trkpt lat="46.191224092617631" lon="10.888520451262593">
        <ele>2334.6999999999998</ele>
        <time>2018-09-09T05:24:29Z</time>
      </trkpt>
      <trkpt lat="46.191223254427314" lon="10.888528749346733">
        <ele>2335.1799999999998</ele>
        <time>2018-09-09T05:24:34Z</time>
      </trkpt>
      <trkpt lat="46.191177321597934" lon="10.888540064916015">
        <ele>2335.1799999999998</ele>
        <time>2018-09-09T05:24:38Z</time>
      </trkpt>
      <trkpt lat="46.191069865599275" lon="10.888646934181452">
        <ele>2334.2199999999998</ele>
        <time>2018-09-09T05:24:50Z</time>
      </trkpt>
      <trkpt lat="46.191017143428326" lon="10.88870351202786">
        <ele>2333.7399999999998</ele>
        <time>2018-09-09T05:25:00Z</time>
      </trkpt>
      <trkpt lat="46.191039606928825" lon="10.888714911416173">
        <ele>2333.7399999999998</ele>
        <time>2018-09-09T05:25:03Z</time>
      </trkpt>
      <trkpt lat="46.191056203097105" lon="10.888769645243883">
        <ele>2334.6999999999998</ele>
        <time>2018-09-09T05:25:07Z</time>
      </trkpt>
      <trkpt lat="46.190995769575238" lon="10.888873999938369">
        <ele>2335.1799999999998</ele>
        <time>2018-09-09T05:25:17Z</time>
      </trkpt>
      <trkpt lat="46.19090398773551" lon="10.888997800648212">
        <ele>2335.1799999999998</ele>
        <time>2018-09-09T05:25:27Z</time>
      </trkpt>
      <trkpt lat="46.190841291099787" lon="10.889095617458224">
        <ele>2335.6599999999999</ele>
        <time>2018-09-09T05:25:36Z</time>
      </trkpt>
      <trkpt lat="46.190822096541524" lon="10.889199301600456">
        <ele>2336.6199999999999</ele>
        <time>2018-09-09T05:25:46Z</time>
      </trkpt>
      <trkpt lat="46.190794939175248" lon="10.889291921630502">
        <ele>2338.0599999999999</ele>
        <time>2018-09-09T05:25:55Z</time>
      </trkpt>
      <trkpt lat="46.190760992467403" lon="10.889348834753036">
        <ele>2339.02</ele>
        <time>2018-09-09T05:26:03Z</time>
      </trkpt>
      <trkpt lat="46.190739199519157" lon="10.889457883313298">
        <ele>2339.9899999999998</ele>
        <time>2018-09-09T05:26:15Z</time>
      </trkpt>
      <trkpt lat="46.190692093223333" lon="10.889535835012794">
        <ele>2341.9099999999999</ele>
        <time>2018-09-09T05:26:27Z</time>
      </trkpt>
      <trkpt lat="46.190638113766909" lon="10.88959040120244">
        <ele>2342.8699999999999</ele>
        <time>2018-09-09T05:26:36Z</time>
      </trkpt>
      <trkpt lat="46.190536944195628" lon="10.889630550518632">
        <ele>2342.8699999999999</ele>
        <time>2018-09-09T05:26:48Z</time>
      </trkpt>
      <trkpt lat="46.190498052164912" lon="10.889730965718627">
        <ele>2344.79</ele>
        <time>2018-09-09T05:27:00Z</time>
      </trkpt>
      <trkpt lat="46.190443905070424" lon="10.889806905761361">
        <ele>2346.23</ele>
        <time>2018-09-09T05:27:11Z</time>
      </trkpt>
      <trkpt lat="46.190388668328524" lon="10.889896005392075">
        <ele>2348.1599999999999</ele>
        <time>2018-09-09T05:27:22Z</time>
      </trkpt>
      <trkpt lat="46.190322451293468" lon="10.889985943213105">
        <ele>2350.0799999999999</ele>
        <time>2018-09-09T05:27:34Z</time>
      </trkpt>
      <trkpt lat="46.190318176522851" lon="10.890015698969364">
        <ele>2346.7199999999998</ele>
        <time>2018-09-09T05:27:37Z</time>
      </trkpt>
      <trkpt lat="46.19031666778028" lon="10.89002282358706">
        <ele>2351.04</ele>
        <time>2018-09-09T05:27:38Z</time>
      </trkpt>
      <trkpt lat="46.190248019993305" lon="10.890044448897243">
        <ele>2351.52</ele>
        <time>2018-09-09T05:27:48Z</time>
      </trkpt>
      <trkpt lat="46.190176773816347" lon="10.890106726437807">
        <ele>2352.96</ele>
        <time>2018-09-09T05:28:00Z</time>
      </trkpt>
      <trkpt lat="46.190159171819687" lon="10.890151653438807">
        <ele>2354.8899999999999</ele>
        <time>2018-09-09T05:28:12Z</time>
      </trkpt>
      <trkpt lat="46.190144503489137" lon="10.890248296782374">
        <ele>2356.8099999999999</ele>
        <time>2018-09-09T05:28:24Z</time>
      </trkpt>
      <trkpt lat="46.190100163221359" lon="10.890346029773355">
        <ele>2357.77</ele>
        <time>2018-09-09T05:28:36Z</time>
      </trkpt>
      <trkpt lat="46.190100330859423" lon="10.890417695045471">
        <ele>2359.21</ele>
        <time>2018-09-09T05:28:44Z</time>
      </trkpt>
      <trkpt lat="46.190093290060759" lon="10.890441751107574">
        <ele>2359.21</ele>
        <time>2018-09-09T05:28:47Z</time>
      </trkpt>
      <trkpt lat="46.190074430778623" lon="10.890453569591045">
        <ele>2359.6900000000001</ele>
        <time>2018-09-09T05:28:49Z</time>
      </trkpt>
      <trkpt lat="46.189970998093486" lon="10.890520540997386">
        <ele>2361.6199999999999</ele>
        <time>2018-09-09T05:29:02Z</time>
      </trkpt>
      <trkpt lat="46.189945181831717" lon="10.890605198219419">
        <ele>2362.5799999999999</ele>
        <time>2018-09-09T05:29:13Z</time>
      </trkpt>
      <trkpt lat="46.189893130213022" lon="10.890666302293539">
        <ele>2364.98</ele>
        <time>2018-09-09T05:29:25Z</time>
      </trkpt>
      <trkpt lat="46.189876450225711" lon="10.890772752463818">
        <ele>2365.9400000000001</ele>
        <time>2018-09-09T05:29:35Z</time>
      </trkpt>
      <trkpt lat="46.189874857664108" lon="10.89085791260004">
        <ele>2366.9000000000001</ele>
        <time>2018-09-09T05:29:46Z</time>
      </trkpt>
      <trkpt lat="46.189812077209353" lon="10.890940641984344">
        <ele>2367.8600000000001</ele>
        <time>2018-09-09T05:29:57Z</time>
      </trkpt>
      <trkpt lat="46.18981534615159" lon="10.891007697209716">
        <ele>2370.27</ele>
        <time>2018-09-09T05:30:07Z</time>
      </trkpt>
      <trkpt lat="46.189730353653431" lon="10.891101658344269">
        <ele>2371.23</ele>
        <time>2018-09-09T05:30:20Z</time>
      </trkpt>
      <trkpt lat="46.189682241529226" lon="10.89115547016263">
        <ele>2372.1900000000001</ele>
        <time>2018-09-09T05:30:28Z</time>
      </trkpt>
      <trkpt lat="46.189648546278477" lon="10.891241887584329">
        <ele>2373.1500000000001</ele>
        <time>2018-09-09T05:30:38Z</time>
      </trkpt>
      <trkpt lat="46.189657934010029" lon="10.891286144033074">
        <ele>2373.6300000000001</ele>
        <time>2018-09-09T05:30:48Z</time>
      </trkpt>
      <trkpt lat="46.189655922353268" lon="10.891288071870804">
        <ele>2373.6300000000001</ele>
        <time>2018-09-09T05:30:51Z</time>
      </trkpt>
      <trkpt lat="46.189666064456105" lon="10.89140416122973">
        <ele>2374.5900000000001</ele>
        <time>2018-09-09T05:31:02Z</time>
      </trkpt>
      <trkpt lat="46.189636643975973" lon="10.891472557559609">
        <ele>2376.04</ele>
        <time>2018-09-09T05:31:11Z</time>
      </trkpt>
      <trkpt lat="46.189624909311533" lon="10.891497451812029">
        <ele>2379.4000000000001</ele>
        <time>2018-09-09T05:31:19Z</time>
      </trkpt>
      <trkpt lat="46.189623903483152" lon="10.891505917534232">
        <ele>2378.4400000000001</ele>
        <time>2018-09-09T05:31:20Z</time>
      </trkpt>
      <trkpt lat="46.189595824107528" lon="10.891556041315198">
        <ele>2379.4000000000001</ele>
        <time>2018-09-09T05:31:27Z</time>
      </trkpt>
      <trkpt lat="46.189599931240082" lon="10.891596609726548">
        <ele>2381.3200000000002</ele>
        <time>2018-09-09T05:31:36Z</time>
      </trkpt>
      <trkpt lat="46.189583921805024" lon="10.891638100147247">
        <ele>2381.8000000000002</ele>
        <time>2018-09-09T05:31:41Z</time>
      </trkpt>
      <trkpt lat="46.189579227939248" lon="10.891689145937562">
        <ele>2382.7600000000002</ele>
        <time>2018-09-09T05:31:51Z</time>
      </trkpt>
      <trkpt lat="46.189598254859447" lon="10.89169979095459">
        <ele>2383.25</ele>
        <time>2018-09-09T05:32:00Z</time>
      </trkpt>
      <trkpt lat="46.189593393355608" lon="10.891700042411685">
        <ele>2382.7600000000002</ele>
        <time>2018-09-09T05:32:10Z</time>
      </trkpt>
      <trkpt lat="46.189533714205027" lon="10.891676740720868">
        <ele>2382.7600000000002</ele>
        <time>2018-09-09T05:32:24Z</time>
      </trkpt>
      <trkpt lat="46.189514268189669" lon="10.891685960814357">
        <ele>2382.7600000000002</ele>
        <time>2018-09-09T05:32:37Z</time>
      </trkpt>
      <trkpt lat="46.189555926248431" lon="10.89169685728848">
        <ele>2382.7600000000002</ele>
        <time>2018-09-09T05:32:56Z</time>
      </trkpt>
      <trkpt lat="46.189613258466125" lon="10.891654696315527">
        <ele>2382.7600000000002</ele>
        <time>2018-09-09T05:33:07Z</time>
      </trkpt>
      <trkpt lat="46.189636141061783" lon="10.891692414879799">
        <ele>2382.7600000000002</ele>
        <time>2018-09-09T05:33:15Z</time>
      </trkpt>
      <trkpt lat="46.189624238759279" lon="10.891687637194991">
        <ele>2383.25</ele>
        <time>2018-09-09T05:33:22Z</time>
      </trkpt>
      <trkpt lat="46.18962817825377" lon="10.891708508133888">
        <ele>2383.73</ele>
        <time>2018-09-09T05:33:31Z</time>
      </trkpt>
      <trkpt lat="46.189637985080481" lon="10.891730217263103">
        <ele>2383.73</ele>
        <time>2018-09-09T05:33:44Z</time>
      </trkpt>
      <trkpt lat="46.189580066129565" lon="10.891712112352252">
        <ele>2383.25</ele>
        <time>2018-09-09T05:33:55Z</time>
      </trkpt>
      <trkpt lat="46.189572522416711" lon="10.891704568639398">
        <ele>2383.73</ele>
        <time>2018-09-09T05:34:03Z</time>
      </trkpt>
      <trkpt lat="46.189566822722554" lon="10.891752177849412">
        <ele>2384.21</ele>
        <time>2018-09-09T05:34:13Z</time>
      </trkpt>
      <trkpt lat="46.189563134685159" lon="10.891785202547908">
        <ele>2384.6900000000001</ele>
        <time>2018-09-09T05:34:22Z</time>
      </trkpt>
      <trkpt lat="46.18955684825778" lon="10.891828872263432">
        <ele>2385.6500000000001</ele>
        <time>2018-09-09T05:34:30Z</time>
      </trkpt>
      <trkpt lat="46.189517620950937" lon="10.891901291906834">
        <ele>2387.0900000000001</ele>
        <time>2018-09-09T05:34:39Z</time>
      </trkpt>
      <trkpt lat="46.189488703384995" lon="10.891934400424361">
        <ele>2388.0500000000002</ele>
        <time>2018-09-09T05:34:45Z</time>
      </trkpt>
      <trkpt lat="46.18944838643074" lon="10.891998941078782">
        <ele>2389.4899999999998</ele>
        <time>2018-09-09T05:34:55Z</time>
      </trkpt>
      <trkpt lat="46.189399268478155" lon="10.89206624776125">
        <ele>2390.9400000000001</ele>
        <time>2018-09-09T05:35:05Z</time>
      </trkpt>
      <trkpt lat="46.189366998150945" lon="10.892158532515168">
        <ele>2392.3800000000001</ele>
        <time>2018-09-09T05:35:15Z</time>
      </trkpt>
      <trkpt lat="46.189372697845101" lon="10.892234556376934">
        <ele>2393.8200000000002</ele>
        <time>2018-09-09T05:35:26Z</time>
      </trkpt>
      <trkpt lat="46.189375715330243" lon="10.892308987677097">
        <ele>2395.2600000000002</ele>
        <time>2018-09-09T05:35:36Z</time>
      </trkpt>
      <trkpt lat="46.189314611256123" lon="10.892353998497128">
        <ele>2396.2199999999998</ele>
        <time>2018-09-09T05:35:46Z</time>
      </trkpt>
      <trkpt lat="46.189282173290849" lon="10.892416276037693">
        <ele>2397.1799999999998</ele>
        <time>2018-09-09T05:35:56Z</time>
      </trkpt>
      <trkpt lat="46.189219476655126" lon="10.892508141696453">
        <ele>2398.1500000000001</ele>
        <time>2018-09-09T05:36:07Z</time>
      </trkpt>
      <trkpt lat="46.189196342602372" lon="10.892532616853714">
        <ele>2398.1500000000001</ele>
        <time>2018-09-09T05:36:16Z</time>
      </trkpt>
      <trkpt lat="46.18914932012558" lon="10.892606293782592">
        <ele>2399.1100000000001</ele>
        <time>2018-09-09T05:36:24Z</time>
      </trkpt>
      <trkpt lat="46.189104141667485" lon="10.892670163884759">
        <ele>2400.0700000000002</ele>
        <time>2018-09-09T05:36:32Z</time>
      </trkpt>
      <trkpt lat="46.189039433375001" lon="10.892754485830665">
        <ele>2401.0300000000002</ele>
        <time>2018-09-09T05:36:43Z</time>
      </trkpt>
      <trkpt lat="46.1889773234725" lon="10.892827240750194">
        <ele>2401.5100000000002</ele>
        <time>2018-09-09T05:36:52Z</time>
      </trkpt>
      <trkpt lat="46.188918314874172" lon="10.892934612929821">
        <ele>2402.4699999999998</ele>
        <time>2018-09-09T05:37:03Z</time>
      </trkpt>
      <trkpt lat="46.188889732584357" lon="10.893027149140835">
        <ele>2403.9099999999999</ele>
        <time>2018-09-09T05:37:13Z</time>
      </trkpt>
      <trkpt lat="46.188856707885861" lon="10.893113985657692">
        <ele>2406.3200000000002</ele>
        <time>2018-09-09T05:37:23Z</time>
      </trkpt>
      <trkpt lat="46.188820581883192" lon="10.893169641494751">
        <ele>2405.3600000000001</ele>
        <time>2018-09-09T05:37:30Z</time>
      </trkpt>
      <trkpt lat="46.188728967681527" lon="10.893257902935147">
        <ele>2406.8000000000002</ele>
        <time>2018-09-09T05:37:43Z</time>
      </trkpt>
      <trkpt lat="46.188693679869175" lon="10.893354546278715">
        <ele>2407.7600000000002</ele>
        <time>2018-09-09T05:37:53Z</time>
      </trkpt>
      <trkpt lat="46.18863919749856" lon="10.89343492873013">
        <ele>2408.7199999999998</ele>
        <time>2018-09-09T05:38:04Z</time>
      </trkpt>
      <trkpt lat="46.18857960216701" lon="10.893491506576538">
        <ele>2409.1999999999998</ele>
        <time>2018-09-09T05:38:13Z</time>
      </trkpt>
      <trkpt lat="46.188552025705576" lon="10.893576079979539">
        <ele>2410.6399999999999</ele>
        <time>2018-09-09T05:38:24Z</time>
      </trkpt>
      <trkpt lat="46.188524113968015" lon="10.893632071092725">
        <ele>2411.5999999999999</ele>
        <time>2018-09-09T05:38:30Z</time>
      </trkpt>
      <trkpt lat="46.188482120633125" lon="10.89371589012444">
        <ele>2412.0900000000001</ele>
        <time>2018-09-09T05:38:41Z</time>
      </trkpt>
      <trkpt lat="46.188436774536967" lon="10.893781771883368">
        <ele>2414.0100000000002</ele>
        <time>2018-09-09T05:38:53Z</time>
      </trkpt>
      <trkpt lat="46.188421351835132" lon="10.893851509317756">
        <ele>2415.4499999999998</ele>
        <time>2018-09-09T05:39:03Z</time>
      </trkpt>
      <trkpt lat="46.188363265246153" lon="10.893853101879358">
        <ele>2415.4499999999998</ele>
        <time>2018-09-09T05:39:17Z</time>
      </trkpt>
      <trkpt lat="46.188330072909594" lon="10.893938932567835">
        <ele>2417.3699999999999</ele>
        <time>2018-09-09T05:39:24Z</time>
      </trkpt>
      <trkpt lat="46.188304256647825" lon="10.89406181126833">
        <ele>2417.3699999999999</ele>
        <time>2018-09-09T05:39:36Z</time>
      </trkpt>
      <trkpt lat="46.188298389315605" lon="10.894117131829262">
        <ele>2417.8499999999999</ele>
        <time>2018-09-09T05:39:42Z</time>
      </trkpt>
      <trkpt lat="46.188289672136307" lon="10.894210254773498">
        <ele>2419.3000000000002</ele>
        <time>2018-09-09T05:39:51Z</time>
      </trkpt>
      <trkpt lat="46.188273662701249" lon="10.894240513443947">
        <ele>2419.3000000000002</ele>
        <time>2018-09-09T05:39:54Z</time>
      </trkpt>
      <trkpt lat="46.188193699344993" lon="10.894330451264977">
        <ele>2420.2600000000002</ele>
        <time>2018-09-09T05:40:06Z</time>
      </trkpt>
      <trkpt lat="46.188206020742655" lon="10.894429692998528">
        <ele>2421.6999999999998</ele>
        <time>2018-09-09T05:40:15Z</time>
      </trkpt>
      <trkpt lat="46.18819260969758" lon="10.894456179812551">
        <ele>2422.1799999999998</ele>
        <time>2018-09-09T05:40:18Z</time>
      </trkpt>
      <trkpt lat="46.188166122883558" lon="10.894524240866303">
        <ele>2423.6199999999999</ele>
        <time>2018-09-09T05:40:27Z</time>
      </trkpt>
      <trkpt lat="46.188149191439152" lon="10.894552487879992">
        <ele>2423.6199999999999</ele>
        <time>2018-09-09T05:40:30Z</time>
      </trkpt>
      <trkpt lat="46.188144581392407" lon="10.894609233364463">
        <ele>2425.0599999999999</ele>
        <time>2018-09-09T05:40:37Z</time>
      </trkpt>
      <trkpt lat="46.188142653554678" lon="10.894665475934744">
        <ele>2425.0599999999999</ele>
        <time>2018-09-09T05:40:43Z</time>
      </trkpt>
      <trkpt lat="46.18808314204216" lon="10.894744852557778">
        <ele>2425.54</ele>
        <time>2018-09-09T05:40:53Z</time>
      </trkpt>
      <trkpt lat="46.188057577237487" lon="10.894798412919044">
        <ele>2426.02</ele>
        <time>2018-09-09T05:41:00Z</time>
      </trkpt>
      <trkpt lat="46.188046848401427" lon="10.894823893904686">
        <ele>2426.02</ele>
        <time>2018-09-09T05:41:02Z</time>
      </trkpt>
      <trkpt lat="46.188062019646168" lon="10.894951969385147">
        <ele>2426.02</ele>
        <time>2018-09-09T05:41:10Z</time>
      </trkpt>
      <trkpt lat="46.1880171764642" lon="10.894991531968117">
        <ele>2426.9899999999998</ele>
        <time>2018-09-09T05:41:20Z</time>
      </trkpt>
      <trkpt lat="46.188011225312948" lon="10.895077530294657">
        <ele>2428.9099999999999</ele>
        <time>2018-09-09T05:41:30Z</time>
      </trkpt>
      <trkpt lat="46.18801130913198" lon="10.895105861127377">
        <ele>2430.3499999999999</ele>
        <time>2018-09-09T05:41:41Z</time>
      </trkpt>
      <trkpt lat="46.1879688128829" lon="10.895159337669611">
        <ele>2431.3099999999999</ele>
        <time>2018-09-09T05:41:55Z</time>
      </trkpt>
      <trkpt lat="46.187964119017124" lon="10.895219687372446">
        <ele>2432.75</ele>
        <time>2018-09-09T05:42:05Z</time>
      </trkpt>
      <trkpt lat="46.187946768477559" lon="10.895271906629205">
        <ele>2433.23</ele>
        <time>2018-09-09T05:42:13Z</time>
      </trkpt>
      <trkpt lat="46.187930172309279" lon="10.895336363464594">
        <ele>2434.1999999999998</ele>
        <time>2018-09-09T05:42:22Z</time>
      </trkpt>
      <trkpt lat="46.187866721302271" lon="10.895413141697645">
        <ele>2435.1599999999999</ele>
        <time>2018-09-09T05:42:34Z</time>
      </trkpt>
      <trkpt lat="46.187851885333657" lon="10.8954500220716">
        <ele>2435.6399999999999</ele>
        <time>2018-09-09T05:42:38Z</time>
      </trkpt>
      <trkpt lat="46.187816513702273" lon="10.895515820011497">
        <ele>2437.0799999999999</ele>
        <time>2018-09-09T05:42:47Z</time>
      </trkpt>
      <trkpt lat="46.187809053808451" lon="10.895590418949723">
        <ele>2439</ele>
        <time>2018-09-09T05:42:59Z</time>
      </trkpt>
      <trkpt lat="46.187769491225481" lon="10.895645907148719">
        <ele>2440.4400000000001</ele>
        <time>2018-09-09T05:43:09Z</time>
      </trkpt>
      <trkpt lat="46.18777384981513" lon="10.895655211061239">
        <ele>2441.4099999999999</ele>
        <time>2018-09-09T05:43:19Z</time>
      </trkpt>
      <trkpt lat="46.187770748510957" lon="10.895643979310989">
        <ele>2440.4400000000001</ele>
        <time>2018-09-09T05:43:29Z</time>
      </trkpt>
      <trkpt lat="46.187748368829489" lon="10.895689157769084">
        <ele>2440.4400000000001</ele>
        <time>2018-09-09T05:43:53Z</time>
      </trkpt>
      <trkpt lat="46.187761444598436" lon="10.895665436983109">
        <ele>2441.4099999999999</ele>
        <time>2018-09-09T05:44:02Z</time>
      </trkpt>
      <trkpt lat="46.187763707712293" lon="10.895678177475929">
        <ele>2440.9200000000001</ele>
        <time>2018-09-09T05:44:09Z</time>
      </trkpt>
      <trkpt lat="46.187750631943345" lon="10.895733246579766">
        <ele>2442.3699999999999</ele>
        <time>2018-09-09T05:44:20Z</time>
      </trkpt>
      <trkpt lat="46.187719032168388" lon="10.895697958767414">
        <ele>2442.8499999999999</ele>
        <time>2018-09-09T05:44:36Z</time>
      </trkpt>
      <trkpt lat="46.187704782932997" lon="10.895816730335355">
        <ele>2445.25</ele>
        <time>2018-09-09T05:44:49Z</time>
      </trkpt>
      <trkpt lat="46.18770738132298" lon="10.895927120000124">
        <ele>2447.1700000000001</ele>
        <time>2018-09-09T05:45:00Z</time>
      </trkpt>
      <trkpt lat="46.187672764062881" lon="10.89599241502583">
        <ele>2450.0599999999999</ele>
        <time>2018-09-09T05:45:13Z</time>
      </trkpt>
      <trkpt lat="46.187640996649861" lon="10.896030971780419">
        <ele>2450.54</ele>
        <time>2018-09-09T05:45:18Z</time>
      </trkpt>
      <trkpt lat="46.187562625855207" lon="10.896076150238514">
        <ele>2452.46</ele>
        <time>2018-09-09T05:45:28Z</time>
      </trkpt>
      <trkpt lat="46.187528343871236" lon="10.896105151623487">
        <ele>2452.9400000000001</ele>
        <time>2018-09-09T05:45:37Z</time>
      </trkpt>
      <trkpt lat="46.187520967796445" lon="10.896138846874237">
        <ele>2454.3800000000001</ele>
        <time>2018-09-09T05:45:46Z</time>
      </trkpt>
      <trkpt lat="46.187512166798115" lon="10.896188216283917">
        <ele>2456.3099999999999</ele>
        <time>2018-09-09T05:45:56Z</time>
      </trkpt>
      <trkpt lat="46.187501018866897" lon="10.896255690604448">
        <ele>2456.79</ele>
        <time>2018-09-09T05:46:08Z</time>
      </trkpt>
      <trkpt lat="46.187449218705297" lon="10.896327355876565">
        <ele>2458.71</ele>
        <time>2018-09-09T05:46:21Z</time>
      </trkpt>
      <trkpt lat="46.187441674992442" lon="10.896354848518968">
        <ele>2458.23</ele>
        <time>2018-09-09T05:46:34Z</time>
      </trkpt>
      <trkpt lat="46.187424575909972" lon="10.896439254283905">
        <ele>2460.6300000000001</ele>
        <time>2018-09-09T05:46:46Z</time>
      </trkpt>
      <trkpt lat="46.187424240633845" lon="10.8964101690799">
        <ele>2460.6300000000001</ele>
        <time>2018-09-09T05:46:56Z</time>
      </trkpt>
      <trkpt lat="46.187420804053545" lon="10.896466076374054">
        <ele>2462.0700000000002</ele>
        <time>2018-09-09T05:47:07Z</time>
      </trkpt>
      <trkpt lat="46.187392640858889" lon="10.896525336429477">
        <ele>2464</ele>
        <time>2018-09-09T05:47:17Z</time>
      </trkpt>
      <trkpt lat="46.187347881495953" lon="10.896601108834147">
        <ele>2465.9200000000001</ele>
        <time>2018-09-09T05:47:27Z</time>
      </trkpt>
      <trkpt lat="46.187341595068574" lon="10.89661150239408">
        <ele>2466.8800000000001</ele>
        <time>2018-09-09T05:47:29Z</time>
      </trkpt>
      <trkpt lat="46.187318963930011" lon="10.896644107997417">
        <ele>2467.3600000000001</ele>
        <time>2018-09-09T05:47:40Z</time>
      </trkpt>
      <trkpt lat="46.187275713309646" lon="10.896694902330637">
        <ele>2468.8000000000002</ele>
        <time>2018-09-09T05:47:51Z</time>
      </trkpt>
      <trkpt lat="46.187261966988444" lon="10.896742343902588">
        <ele>2469.2800000000002</ele>
        <time>2018-09-09T05:48:02Z</time>
      </trkpt>
      <trkpt lat="46.187252076342702" lon="10.896754581481218">
        <ele>2469.7600000000002</ele>
        <time>2018-09-09T05:48:16Z</time>
      </trkpt>
      <trkpt lat="46.187241766601801" lon="10.896709989756346">
        <ele>2469.7600000000002</ele>
        <time>2018-09-09T05:48:28Z</time>
      </trkpt>
      <trkpt lat="46.187230702489614" lon="10.896761370822787">
        <ele>2471.21</ele>
        <time>2018-09-09T05:48:40Z</time>
      </trkpt>
      <trkpt lat="46.187156522646546" lon="10.896848291158676">
        <ele>2474.0900000000001</ele>
        <time>2018-09-09T05:48:53Z</time>
      </trkpt>
      <trkpt lat="46.187110505998135" lon="10.89687192812562">
        <ele>2475.5300000000002</ele>
        <time>2018-09-09T05:49:01Z</time>
      </trkpt>
      <trkpt lat="46.187092484906316" lon="10.896912915632129">
        <ele>2477.4499999999998</ele>
        <time>2018-09-09T05:49:10Z</time>
      </trkpt>
      <trkpt lat="46.187096424400806" lon="10.896936133503914">
        <ele>2477.4499999999998</ele>
        <time>2018-09-09T05:49:26Z</time>
      </trkpt>
      <trkpt lat="46.187094831839204" lon="10.896929763257504">
        <ele>2478.9000000000001</ele>
        <time>2018-09-09T05:49:30Z</time>
      </trkpt>
      <trkpt lat="46.187108075246215" lon="10.896930266171694">
        <ele>2477.4499999999998</ele>
        <time>2018-09-09T05:49:38Z</time>
      </trkpt>
      <trkpt lat="46.187075469642878" lon="10.896900594234467">
        <ele>2476.4899999999998</ele>
        <time>2018-09-09T05:49:57Z</time>
      </trkpt>
      <trkpt lat="46.187082258984447" lon="10.896889194846153">
        <ele>2476.9699999999998</ele>
        <time>2018-09-09T05:50:20Z</time>
      </trkpt>
      <trkpt lat="46.187054179608822" lon="10.896881315857172">
        <ele>2476.9699999999998</ele>
        <time>2018-09-09T05:50:42Z</time>
      </trkpt>
      <trkpt lat="46.187075302004814" lon="10.896880310028791">
        <ele>2476.9699999999998</ele>
        <time>2018-09-09T05:51:09Z</time>
      </trkpt>
      <trkpt lat="46.187073877081275" lon="10.896893385797739">
        <ele>2478.4200000000001</ele>
        <time>2018-09-09T05:51:30Z</time>
      </trkpt>
      <trkpt lat="46.187073038890958" lon="10.896893804892898">
        <ele>2478.4200000000001</ele>
        <time>2018-09-09T05:51:31Z</time>
      </trkpt>
      <trkpt lat="46.187058119103312" lon="10.89689246378839">
        <ele>2476.9699999999998</ele>
        <time>2018-09-09T05:51:54Z</time>
      </trkpt>
      <trkpt lat="46.187030877918005" lon="10.896849883720279">
        <ele>2476.9699999999998</ele>
        <time>2018-09-09T05:52:16Z</time>
      </trkpt>
      <trkpt lat="46.187029452994466" lon="10.896853907033801">
        <ele>2476.9699999999998</ele>
        <time>2018-09-09T05:52:41Z</time>
      </trkpt>
      <trkpt lat="46.187060885131359" lon="10.8968885242939">
        <ele>2476.9699999999998</ele>
        <time>2018-09-09T05:53:13Z</time>
      </trkpt>
      <trkpt lat="46.187070105224848" lon="10.896873855963349">
        <ele>2478.4200000000001</ele>
        <time>2018-09-09T05:53:32Z</time>
      </trkpt>
      <trkpt lat="46.187093993648887" lon="10.896883998066187">
        <ele>2476.9699999999998</ele>
        <time>2018-09-09T05:53:58Z</time>
      </trkpt>
      <trkpt lat="46.187064321711659" lon="10.896902522072196">
        <ele>2477.4499999999998</ele>
        <time>2018-09-09T05:54:26Z</time>
      </trkpt>
      <trkpt lat="46.18707706220448" lon="10.896884500980377">
        <ele>2477.4499999999998</ele>
        <time>2018-09-09T05:54:56Z</time>
      </trkpt>
      <trkpt lat="46.187056442722678" lon="10.896864384412766">
        <ele>2477.4499999999998</ele>
        <time>2018-09-09T05:55:18Z</time>
      </trkpt>
      <trkpt lat="46.187068177387118" lon="10.896878801286221">
        <ele>2476.9699999999998</ele>
        <time>2018-09-09T05:55:36Z</time>
      </trkpt>
      <trkpt lat="46.187057113274932" lon="10.896901097148657">
        <ele>2478.9000000000001</ele>
        <time>2018-09-09T05:55:40Z</time>
      </trkpt>
      <trkpt lat="46.187058622017503" lon="10.896894140169024">
        <ele>2477.4499999999998</ele>
        <time>2018-09-09T05:55:42Z</time>
      </trkpt>
      <trkpt lat="46.187069350853562" lon="10.896882321685553">
        <ele>2477.4499999999998</ele>
        <time>2018-09-09T05:56:01Z</time>
      </trkpt>
      <trkpt lat="46.187046049162745" lon="10.896895481273532">
        <ele>2477.4499999999998</ele>
        <time>2018-09-09T05:56:20Z</time>
      </trkpt>
      <trkpt lat="46.187100363895297" lon="10.896936887875199">
        <ele>2477.9400000000001</ele>
        <time>2018-09-09T05:56:43Z</time>
      </trkpt>
      <trkpt lat="46.187099358066916" lon="10.896934121847153">
        <ele>2477.9400000000001</ele>
        <time>2018-09-09T05:57:04Z</time>
      </trkpt>
      <trkpt lat="46.187081756070256" lon="10.896900007501245">
        <ele>2477.9400000000001</ele>
        <time>2018-09-09T05:57:22Z</time>
      </trkpt>
      <trkpt lat="46.187078822404146" lon="10.896901935338974">
        <ele>2477.9400000000001</ele>
        <time>2018-09-09T05:57:43Z</time>
      </trkpt>
      <trkpt lat="46.187041522935033" lon="10.896913083270192">
        <ele>2478.4200000000001</ele>
        <time>2018-09-09T05:58:08Z</time>
      </trkpt>
      <trkpt lat="46.187041774392128" lon="10.89692666195333">
        <ele>2477.9400000000001</ele>
        <time>2018-09-09T05:58:34Z</time>
      </trkpt>
      <trkpt lat="46.187031464651227" lon="10.896872850134969">
        <ele>2478.4200000000001</ele>
        <time>2018-09-09T05:59:05Z</time>
      </trkpt>
      <trkpt lat="46.187029536813498" lon="10.896893134340644">
        <ele>2478.4200000000001</ele>
        <time>2018-09-09T05:59:28Z</time>
      </trkpt>
      <trkpt lat="46.187032973393798" lon="10.896905204281211">
        <ele>2478.4200000000001</ele>
        <time>2018-09-09T05:59:53Z</time>
      </trkpt>
      <trkpt lat="46.18701696395874" lon="10.896901013329625">
        <ele>2478.4200000000001</ele>
        <time>2018-09-09T06:00:18Z</time>
      </trkpt>
      <trkpt lat="46.187015455216169" lon="10.896870922297239">
        <ele>2479.3800000000001</ele>
        <time>2018-09-09T06:00:38Z</time>
      </trkpt>
      <trkpt lat="46.187047390267253" lon="10.896889865398407">
        <ele>2479.8600000000001</ele>
        <time>2018-09-09T06:00:57Z</time>
      </trkpt>
      <trkpt lat="46.187074044719338" lon="10.896894223988056">
        <ele>2479.3800000000001</ele>
        <time>2018-09-09T06:01:15Z</time>
      </trkpt>
      <trkpt lat="46.187046132981777" lon="10.896856002509594">
        <ele>2479.3800000000001</ele>
        <time>2018-09-09T06:01:36Z</time>
      </trkpt>
      <trkpt lat="46.187064405530691" lon="10.896881483495235">
        <ele>2479.8600000000001</ele>
        <time>2018-09-09T06:01:54Z</time>
      </trkpt>
      <trkpt lat="46.187058873474598" lon="10.896904785186052">
        <ele>2480.3400000000001</ele>
        <time>2018-09-09T06:02:21Z</time>
      </trkpt>
      <trkpt lat="46.187062226235867" lon="10.89690025895834">
        <ele>2480.8200000000002</ele>
        <time>2018-09-09T06:02:32Z</time>
      </trkpt>
      <trkpt lat="46.187035068869591" lon="10.896911239251494">
        <ele>2481.3000000000002</ele>
        <time>2018-09-09T06:02:42Z</time>
      </trkpt>
      <trkpt lat="46.187035655602813" lon="10.896951304748654">
        <ele>2481.3000000000002</ele>
        <time>2018-09-09T06:02:56Z</time>
      </trkpt>
      <trkpt lat="46.187025681138039" lon="10.896931439638138">
        <ele>2481.3000000000002</ele>
        <time>2018-09-09T06:03:10Z</time>
      </trkpt>
      <trkpt lat="46.187016544863582" lon="10.89698969386518">
        <ele>2482.7399999999998</ele>
        <time>2018-09-09T06:03:21Z</time>
      </trkpt>
      <trkpt lat="46.187010845169425" lon="10.897046271711588">
        <ele>2484.6599999999999</ele>
        <time>2018-09-09T06:03:33Z</time>
      </trkpt>
      <trkpt lat="46.186990393325686" lon="10.89711332693696">
        <ele>2486.1100000000001</ele>
        <time>2018-09-09T06:03:44Z</time>
      </trkpt>
      <trkpt lat="46.18699399754405" lon="10.897160936146975">
        <ele>2488.0300000000002</ele>
        <time>2018-09-09T06:03:53Z</time>
      </trkpt>
      <trkpt lat="46.187032386660576" lon="10.89714651927352">
        <ele>2489.9499999999998</ele>
        <time>2018-09-09T06:04:02Z</time>
      </trkpt>
      <trkpt lat="46.187071111053228" lon="10.897115841507912">
        <ele>2489.9499999999998</ele>
        <time>2018-09-09T06:04:12Z</time>
      </trkpt>
      <trkpt lat="46.187085276469588" lon="10.897092958912253">
        <ele>2491.3899999999999</ele>
        <time>2018-09-09T06:04:22Z</time>
      </trkpt>
      <trkpt lat="46.187106901779771" lon="10.897098239511251">
        <ele>2493.3200000000002</ele>
        <time>2018-09-09T06:04:35Z</time>
      </trkpt>
      <trkpt lat="46.187111428007483" lon="10.89715582318604">
        <ele>2494.7600000000002</ele>
        <time>2018-09-09T06:04:46Z</time>
      </trkpt>
      <trkpt lat="46.187083097174764" lon="10.89716462418437">
        <ele>2496.6799999999998</ele>
        <time>2018-09-09T06:04:58Z</time>
      </trkpt>
      <trkpt lat="46.187067842110991" lon="10.897183148190379">
        <ele>2496.6799999999998</ele>
        <time>2018-09-09T06:05:16Z</time>
      </trkpt>
      <trkpt lat="46.187074547633529" lon="10.897202678024769">
        <ele>2497.6399999999999</ele>
        <time>2018-09-09T06:05:28Z</time>
      </trkpt>
      <trkpt lat="46.187058370560408" lon="10.897267637774348">
        <ele>2499.0799999999999</ele>
        <time>2018-09-09T06:05:36Z</time>
      </trkpt>
      <trkpt lat="46.187027525156736" lon="10.897374423220754">
        <ele>2501.0100000000002</ele>
        <time>2018-09-09T06:05:49Z</time>
      </trkpt>
      <trkpt lat="46.187030710279942" lon="10.897378781810403">
        <ele>2502.9299999999998</ele>
        <time>2018-09-09T06:06:00Z</time>
      </trkpt>
      <trkpt lat="46.187028447166085" lon="10.89735028333962">
        <ele>2502.4499999999998</ele>
        <time>2018-09-09T06:06:18Z</time>
      </trkpt>
      <trkpt lat="46.187001038342714" lon="10.897357994690537">
        <ele>2502.4499999999998</ele>
        <time>2018-09-09T06:06:26Z</time>
      </trkpt>
      <trkpt lat="46.186992740258574" lon="10.897363862022758">
        <ele>2502.4499999999998</ele>
        <time>2018-09-09T06:06:39Z</time>
      </trkpt>
      <trkpt lat="46.1869758926332" lon="10.897334776818752">
        <ele>2501.0100000000002</ele>
        <time>2018-09-09T06:06:44Z</time>
      </trkpt>
      <trkpt lat="46.186941778287292" lon="10.897333435714245">
        <ele>2501.4899999999998</ele>
        <time>2018-09-09T06:06:55Z</time>
      </trkpt>
      <trkpt lat="46.186914620921016" lon="10.897338800132275">
        <ele>2501.4899999999998</ele>
        <time>2018-09-09T06:07:13Z</time>
      </trkpt>
      <trkpt lat="46.186972120776772" lon="10.897381715476513">
        <ele>2501.9699999999998</ele>
        <time>2018-09-09T06:07:32Z</time>
      </trkpt>
      <trkpt lat="46.186980083584785" lon="10.897375261411071">
        <ele>2503.4099999999999</ele>
        <time>2018-09-09T06:07:41Z</time>
      </trkpt>
      <trkpt lat="46.186984777450562" lon="10.897395713254809">
        <ele>2502.4499999999998</ele>
        <time>2018-09-09T06:07:54Z</time>
      </trkpt>
      <trkpt lat="46.186996763572097" lon="10.897372914478183">
        <ele>2502.4499999999998</ele>
        <time>2018-09-09T06:08:08Z</time>
      </trkpt>
      <trkpt lat="46.187034482136369" lon="10.897346260026097">
        <ele>2503.4099999999999</ele>
        <time>2018-09-09T06:08:19Z</time>
      </trkpt>
      <trkpt lat="46.187039176002145" lon="10.897316336631775">
        <ele>2504.3699999999999</ele>
        <time>2018-09-09T06:08:30Z</time>
      </trkpt>
      <trkpt lat="46.187083600088954" lon="10.89733419008553">
        <ele>2506.77</ele>
        <time>2018-09-09T06:08:42Z</time>
      </trkpt>
      <trkpt lat="46.187074212357402" lon="10.897410046309233">
        <ele>2507.2600000000002</ele>
        <time>2018-09-09T06:08:56Z</time>
      </trkpt>
      <trkpt lat="46.187111008912325" lon="10.897395042702556">
        <ele>2509.1799999999998</ele>
        <time>2018-09-09T06:09:07Z</time>
      </trkpt>
      <trkpt lat="46.187125090509653" lon="10.897379368543625">
        <ele>2509.1799999999998</ele>
        <time>2018-09-09T06:09:23Z</time>
      </trkpt>
      <trkpt lat="46.187092736363411" lon="10.897464528679848">
        <ele>2511.0999999999999</ele>
        <time>2018-09-09T06:09:33Z</time>
      </trkpt>
      <trkpt lat="46.187057448551059" lon="10.897520519793034">
        <ele>2512.54</ele>
        <time>2018-09-09T06:09:44Z</time>
      </trkpt>
      <trkpt lat="46.187023166567087" lon="10.897575337439775">
        <ele>2513.98</ele>
        <time>2018-09-09T06:09:53Z</time>
      </trkpt>
      <trkpt lat="46.187000116333365" lon="10.897603752091527">
        <ele>2514.9499999999998</ele>
        <time>2018-09-09T06:10:00Z</time>
      </trkpt>
      <trkpt lat="46.186987375840545" lon="10.897648092359304">
        <ele>2516.3899999999999</ele>
        <time>2018-09-09T06:10:12Z</time>
      </trkpt>
      <trkpt lat="46.187032051384449" lon="10.897614229470491">
        <ele>2518.3099999999999</ele>
        <time>2018-09-09T06:10:22Z</time>
      </trkpt>
      <trkpt lat="46.187049737200141" lon="10.897598471492529">
        <ele>2519.27</ele>
        <time>2018-09-09T06:10:31Z</time>
      </trkpt>
      <trkpt lat="46.187040265649557" lon="10.897627808153629">
        <ele>2520.23</ele>
        <time>2018-09-09T06:10:40Z</time>
      </trkpt>
      <trkpt lat="46.187060717493296" lon="10.897646835073829">
        <ele>2520.71</ele>
        <time>2018-09-09T06:10:52Z</time>
      </trkpt>
      <trkpt lat="46.187022747471929" lon="10.897655636072159">
        <ele>2522.1599999999999</ele>
        <time>2018-09-09T06:11:06Z</time>
      </trkpt>
      <trkpt lat="46.187027860432863" lon="10.897682709619403">
        <ele>2522.6399999999999</ele>
        <time>2018-09-09T06:11:18Z</time>
      </trkpt>
      <trkpt lat="46.186980921775103" lon="10.897752195596695">
        <ele>2524.5599999999999</ele>
        <time>2018-09-09T06:11:30Z</time>
      </trkpt>
      <trkpt lat="46.186937419697642" lon="10.897793099284172">
        <ele>2526.48</ele>
        <time>2018-09-09T06:11:42Z</time>
      </trkpt>
      <trkpt lat="46.18688159622252" lon="10.897816065698862">
        <ele>2526.48</ele>
        <time>2018-09-09T06:11:54Z</time>
      </trkpt>
      <trkpt lat="46.186850918456912" lon="10.897859819233418">
        <ele>2528.4000000000001</ele>
        <time>2018-09-09T06:12:04Z</time>
      </trkpt>
      <trkpt lat="46.186841195449233" lon="10.897856801748276">
        <ele>2529.8499999999999</ele>
        <time>2018-09-09T06:12:17Z</time>
      </trkpt>
      <trkpt lat="46.186821078881621" lon="10.897946991026402">
        <ele>2530.3299999999999</ele>
        <time>2018-09-09T06:12:25Z</time>
      </trkpt>
      <trkpt lat="46.186764920130372" lon="10.89802117086947">
        <ele>2532.25</ele>
        <time>2018-09-09T06:12:37Z</time>
      </trkpt>
      <trkpt lat="46.186724854633212" lon="10.898110354319215">
        <ele>2534.1700000000001</ele>
        <time>2018-09-09T06:12:51Z</time>
      </trkpt>
      <trkpt lat="46.18667003698647" lon="10.898148408159614">
        <ele>2536.0999999999999</ele>
        <time>2018-09-09T06:13:03Z</time>
      </trkpt>
      <trkpt lat="46.186647992581129" lon="10.898127788677812">
        <ele>2536.5799999999999</ele>
        <time>2018-09-09T06:13:05Z</time>
      </trkpt>
      <trkpt lat="46.186591414734721" lon="10.898247649893165">
        <ele>2537.54</ele>
        <time>2018-09-09T06:13:18Z</time>
      </trkpt>
      <trkpt lat="46.186573058366776" lon="10.898302467539907">
        <ele>2538.5</ele>
        <time>2018-09-09T06:13:24Z</time>
      </trkpt>
      <trkpt lat="46.186521425843239" lon="10.898370947688818">
        <ele>2537.54</ele>
        <time>2018-09-09T06:13:35Z</time>
      </trkpt>
      <trkpt lat="46.186477923765779" lon="10.898417886346579">
        <ele>2538.5</ele>
        <time>2018-09-09T06:13:45Z</time>
      </trkpt>
      <trkpt lat="46.186451269313693" lon="10.898511093109846">
        <ele>2539.9400000000001</ele>
        <time>2018-09-09T06:13:56Z</time>
      </trkpt>
      <trkpt lat="46.186398295685649" lon="10.898568257689476">
        <ele>2540.9000000000001</ele>
        <time>2018-09-09T06:14:06Z</time>
      </trkpt>
      <trkpt lat="46.186395110562444" lon="10.898570353165269">
        <ele>2541.3800000000001</ele>
        <time>2018-09-09T06:14:22Z</time>
      </trkpt>
      <trkpt lat="46.186387483030558" lon="10.898645371198654">
        <ele>2543.3099999999999</ele>
        <time>2018-09-09T06:14:32Z</time>
      </trkpt>
      <trkpt lat="46.18635093793273" lon="10.898710079491138">
        <ele>2545.71</ele>
        <time>2018-09-09T06:14:44Z</time>
      </trkpt>
      <trkpt lat="46.186326965689659" lon="10.898768501356244">
        <ele>2548.1100000000001</ele>
        <time>2018-09-09T06:14:56Z</time>
      </trkpt>
      <trkpt lat="46.186336940154433" lon="10.898806387558579">
        <ele>2550.0300000000002</ele>
        <time>2018-09-09T06:15:07Z</time>
      </trkpt>
      <trkpt lat="46.186309112235904" lon="10.898854667320848">
        <ele>2551.48</ele>
        <time>2018-09-09T06:15:16Z</time>
      </trkpt>
      <trkpt lat="46.186313219368458" lon="10.898895403370261">
        <ele>2552.9200000000001</ele>
        <time>2018-09-09T06:15:25Z</time>
      </trkpt>
      <trkpt lat="46.186309196054935" lon="10.898907221853733">
        <ele>2554.8400000000001</ele>
        <time>2018-09-09T06:15:37Z</time>
      </trkpt>
      <trkpt lat="46.186303663998842" lon="10.89895105920732">
        <ele>2556.2800000000002</ele>
        <time>2018-09-09T06:15:46Z</time>
      </trkpt>
      <trkpt lat="46.186289750039577" lon="10.898972097784281">
        <ele>2557.73</ele>
        <time>2018-09-09T06:15:56Z</time>
      </trkpt>
      <trkpt lat="46.186298048123717" lon="10.899013169109821">
        <ele>2559.1700000000001</ele>
        <time>2018-09-09T06:16:07Z</time>
      </trkpt>
      <trkpt lat="46.186297545209527" lon="10.899048708379269">
        <ele>2561.0900000000001</ele>
        <time>2018-09-09T06:16:18Z</time>
      </trkpt>
      <trkpt lat="46.186277428641915" lon="10.89909179136157">
        <ele>2563.0100000000002</ele>
        <time>2018-09-09T06:16:31Z</time>
      </trkpt>
      <trkpt lat="46.186301736161113" lon="10.899106292054057">
        <ele>2564.4499999999998</ele>
        <time>2018-09-09T06:16:41Z</time>
      </trkpt>
      <trkpt lat="46.186261083930731" lon="10.899148620665073">
        <ele>2566.3800000000001</ele>
        <time>2018-09-09T06:16:53Z</time>
      </trkpt>
      <trkpt lat="46.186251444742084" lon="10.899194972589612">
        <ele>2567.8200000000002</ele>
        <time>2018-09-09T06:17:03Z</time>
      </trkpt>
      <trkpt lat="46.186239458620548" lon="10.899234199896455">
        <ele>2569.2600000000002</ele>
        <time>2018-09-09T06:17:13Z</time>
      </trkpt>
      <trkpt lat="46.186231998726726" lon="10.899197487160563">
        <ele>2569.7399999999998</ele>
        <time>2018-09-09T06:17:26Z</time>
      </trkpt>
      <trkpt lat="46.18623124435544" lon="10.899259177967906">
        <ele>2570.2199999999998</ele>
        <time>2018-09-09T06:17:34Z</time>
      </trkpt>
      <trkpt lat="46.18623023852706" lon="10.899330088868737">
        <ele>2573.1100000000001</ele>
        <time>2018-09-09T06:17:46Z</time>
      </trkpt>
      <trkpt lat="46.186211463063955" lon="10.899403933435678">
        <ele>2575.0300000000002</ele>
        <time>2018-09-09T06:17:58Z</time>
      </trkpt>
      <trkpt lat="46.186195118352771" lon="10.899459421634674">
        <ele>2576.4699999999998</ele>
        <time>2018-09-09T06:18:08Z</time>
      </trkpt>
      <trkpt lat="46.186195369809866" lon="10.899515748023987">
        <ele>2578.8699999999999</ele>
        <time>2018-09-09T06:18:21Z</time>
      </trkpt>
      <trkpt lat="46.186197716742754" lon="10.899567799642682">
        <ele>2581.2800000000002</ele>
        <time>2018-09-09T06:18:30Z</time>
      </trkpt>
      <trkpt lat="46.186207104474306" lon="10.899545922875404">
        <ele>2582.2399999999998</ele>
        <time>2018-09-09T06:18:41Z</time>
      </trkpt>
      <trkpt lat="46.186227891594172" lon="10.89958188124001">
        <ele>2584.1599999999999</ele>
        <time>2018-09-09T06:18:50Z</time>
      </trkpt>
      <trkpt lat="46.186207607388496" lon="10.899630831554532">
        <ele>2585.1199999999999</ele>
        <time>2018-09-09T06:19:01Z</time>
      </trkpt>
      <trkpt lat="46.186191095039248" lon="10.899684811010957">
        <ele>2586.5599999999999</ele>
        <time>2018-09-09T06:19:11Z</time>
      </trkpt>
      <trkpt lat="46.186175253242254" lon="10.899731582030654">
        <ele>2588.0100000000002</ele>
        <time>2018-09-09T06:19:19Z</time>
      </trkpt>
      <trkpt lat="46.186165949329734" lon="10.899764522910118">
        <ele>2589.4499999999998</ele>
        <time>2018-09-09T06:19:29Z</time>
      </trkpt>
      <trkpt lat="46.186146335676312" lon="10.899803331121802">
        <ele>2591.3699999999999</ele>
        <time>2018-09-09T06:19:40Z</time>
      </trkpt>
      <trkpt lat="46.186135690659285" lon="10.899847252294421">
        <ele>2593.77</ele>
        <time>2018-09-09T06:19:52Z</time>
      </trkpt>
      <trkpt lat="46.186096547171474" lon="10.899890167638659">
        <ele>2594.7399999999998</ele>
        <time>2018-09-09T06:20:05Z</time>
      </trkpt>
      <trkpt lat="46.186108700931072" lon="10.899948589503765">
        <ele>2596.6599999999999</ele>
        <time>2018-09-09T06:20:15Z</time>
      </trkpt>
      <trkpt lat="46.186059666797519" lon="10.899982284754515">
        <ele>2598.5799999999999</ele>
        <time>2018-09-09T06:20:28Z</time>
      </trkpt>
      <trkpt lat="46.186059666797519" lon="10.900013130158186">
        <ele>2599.54</ele>
        <time>2018-09-09T06:20:38Z</time>
      </trkpt>
      <trkpt lat="46.186053548008204" lon="10.900058476254344">
        <ele>2601.46</ele>
        <time>2018-09-09T06:20:51Z</time>
      </trkpt>
      <trkpt lat="46.186077687889338" lon="10.900051519274712">
        <ele>2602.4299999999998</ele>
        <time>2018-09-09T06:21:00Z</time>
      </trkpt>
      <trkpt lat="46.18607978336513" lon="10.900042969733477">
        <ele>2602.9099999999999</ele>
        <time>2018-09-09T06:21:03Z</time>
      </trkpt>
      <trkpt lat="46.186084980145097" lon="10.900005670264363">
        <ele>2603.8699999999999</ele>
        <time>2018-09-09T06:21:12Z</time>
      </trkpt>
      <trkpt lat="46.186061259359121" lon="10.900049591436982">
        <ele>2603.3899999999999</ele>
        <time>2018-09-09T06:21:29Z</time>
      </trkpt>
      <trkpt lat="46.186075592413545" lon="10.900112204253674">
        <ele>2605.3099999999999</ele>
        <time>2018-09-09T06:21:41Z</time>
      </trkpt>
      <trkpt lat="46.186057236045599" lon="10.900127626955509">
        <ele>2606.27</ele>
        <time>2018-09-09T06:21:52Z</time>
      </trkpt>
      <trkpt lat="46.186046255752444" lon="10.900059230625629">
        <ele>2606.27</ele>
        <time>2018-09-09T06:22:10Z</time>
      </trkpt>
      <trkpt lat="46.186055056750774" lon="10.900064008310437">
        <ele>2606.27</ele>
        <time>2018-09-09T06:22:27Z</time>
      </trkpt>
      <trkpt lat="46.186044830828905" lon="10.900071803480387">
        <ele>2606.27</ele>
        <time>2018-09-09T06:22:44Z</time>
      </trkpt>
      <trkpt lat="46.186057990416884" lon="10.900056129321456">
        <ele>2606.75</ele>
        <time>2018-09-09T06:22:58Z</time>
      </trkpt>
      <trkpt lat="46.186043238267303" lon="10.900110527873039">
        <ele>2606.75</ele>
        <time>2018-09-09T06:23:10Z</time>
      </trkpt>
      <trkpt lat="46.18605530820787" lon="10.900111617520452">
        <ele>2606.75</ele>
        <time>2018-09-09T06:23:24Z</time>
      </trkpt>
      <trkpt lat="46.186046088114381" lon="10.900100469589233">
        <ele>2606.75</ele>
        <time>2018-09-09T06:23:35Z</time>
      </trkpt>
      <trkpt lat="46.186027228832245" lon="10.900120586156845">
        <ele>2606.75</ele>
        <time>2018-09-09T06:23:53Z</time>
      </trkpt>
      <trkpt lat="46.186022870242596" lon="10.900178924202919">
        <ele>2608.1900000000001</ele>
        <time>2018-09-09T06:24:03Z</time>
      </trkpt>
      <trkpt lat="46.186012644320726" lon="10.900231562554836">
        <ele>2610.5999999999999</ele>
        <time>2018-09-09T06:24:12Z</time>
      </trkpt>
      <trkpt lat="46.18598205037415" lon="10.900297779589891">
        <ele>2613</ele>
        <time>2018-09-09T06:24:25Z</time>
      </trkpt>
      <trkpt lat="46.185971321538091" lon="10.900374390184879">
        <ele>2614.9200000000001</ele>
        <time>2018-09-09T06:24:36Z</time>
      </trkpt>
      <trkpt lat="46.185971489176154" lon="10.900376988574862">
        <ele>2615.8800000000001</ele>
        <time>2018-09-09T06:24:47Z</time>
      </trkpt>
      <trkpt lat="46.185957659035921" lon="10.900408001616597">
        <ele>2617.3299999999999</ele>
        <time>2018-09-09T06:24:55Z</time>
      </trkpt>
      <trkpt lat="46.185927065089345" lon="10.900441193953156">
        <ele>2618.77</ele>
        <time>2018-09-09T06:25:04Z</time>
      </trkpt>
      <trkpt lat="46.185898901894689" lon="10.900481594726443">
        <ele>2619.25</ele>
        <time>2018-09-09T06:25:13Z</time>
      </trkpt>
      <trkpt lat="46.18587895296514" lon="10.900533897802234">
        <ele>2622.1300000000001</ele>
        <time>2018-09-09T06:25:26Z</time>
      </trkpt>
      <trkpt lat="46.185845760628581" lon="10.900569604709744">
        <ele>2623.0900000000001</ele>
        <time>2018-09-09T06:25:36Z</time>
      </trkpt>
      <trkpt lat="46.185857830569148" lon="10.900571532547474">
        <ele>2624.54</ele>
        <time>2018-09-09T06:25:44Z</time>
      </trkpt>
      <trkpt lat="46.185830589383841" lon="10.900624841451645">
        <ele>2626.46</ele>
        <time>2018-09-09T06:25:55Z</time>
      </trkpt>
      <trkpt lat="46.185783566907048" lon="10.900652334094048">
        <ele>2627.4200000000001</ele>
        <time>2018-09-09T06:26:04Z</time>
      </trkpt>
      <trkpt lat="46.185758672654629" lon="10.900683011859655">
        <ele>2629.3400000000001</ele>
        <time>2018-09-09T06:26:16Z</time>
      </trkpt>
      <trkpt lat="46.185735203325748" lon="10.90072819031775">
        <ele>2631.27</ele>
        <time>2018-09-09T06:26:27Z</time>
      </trkpt>
      <trkpt lat="46.185653898864985" lon="10.90075065381825">
        <ele>2633.1900000000001</ele>
        <time>2018-09-09T06:26:40Z</time>
      </trkpt>
      <trkpt lat="46.185660772025585" lon="10.900801029056311">
        <ele>2635.1100000000001</ele>
        <time>2018-09-09T06:26:53Z</time>
      </trkpt>
      <trkpt lat="46.185655491426587" lon="10.900830114260316">
        <ele>2637.5100000000002</ele>
        <time>2018-09-09T06:27:05Z</time>
      </trkpt>
      <trkpt lat="46.185641326010227" lon="10.900898678228259">
        <ele>2638.48</ele>
        <time>2018-09-09T06:27:15Z</time>
      </trkpt>
      <trkpt lat="46.185594387352467" lon="10.900911334902048">
        <ele>2640.4000000000001</ele>
        <time>2018-09-09T06:27:26Z</time>
      </trkpt>
      <trkpt lat="46.185618275776505" lon="10.900937737897038">
        <ele>2641.8400000000001</ele>
        <time>2018-09-09T06:27:37Z</time>
      </trkpt>
      <trkpt lat="46.185633698478341" lon="10.900940839201212">
        <ele>2643.2800000000002</ele>
        <time>2018-09-09T06:27:47Z</time>
      </trkpt>
      <trkpt lat="46.185641828924417" lon="10.900997081771493">
        <ele>2644.2399999999998</ele>
        <time>2018-09-09T06:27:56Z</time>
      </trkpt>
      <trkpt lat="46.185617186129093" lon="10.901021473109722">
        <ele>2645.6900000000001</ele>
        <time>2018-09-09T06:28:11Z</time>
      </trkpt>
      <trkpt lat="46.185611234977841" lon="10.901022143661976">
        <ele>2645.6900000000001</ele>
        <time>2018-09-09T06:28:12Z</time>
      </trkpt>
      <trkpt lat="46.185577623546124" lon="10.90104628354311">
        <ele>2647.6100000000001</ele>
        <time>2018-09-09T06:28:23Z</time>
      </trkpt>
      <trkpt lat="46.185571672394872" lon="10.901024406775832">
        <ele>2647.6100000000001</ele>
        <time>2018-09-09T06:28:38Z</time>
      </trkpt>
      <trkpt lat="46.185566894710064" lon="10.900979060679674">
        <ele>2647.6100000000001</ele>
        <time>2018-09-09T06:28:54Z</time>
      </trkpt>
      <trkpt lat="46.185558512806892" lon="10.900927344337106">
        <ele>2647.6100000000001</ele>
        <time>2018-09-09T06:29:08Z</time>
      </trkpt>
      <trkpt lat="46.185580473393202" lon="10.900981072336435">
        <ele>2647.6100000000001</ele>
        <time>2018-09-09T06:29:25Z</time>
      </trkpt>
      <trkpt lat="46.185593130066991" lon="10.901010157540441">
        <ele>2647.6100000000001</ele>
        <time>2018-09-09T06:29:36Z</time>
      </trkpt>
      <trkpt lat="46.18558675982058" lon="10.901036476716399">
        <ele>2647.6100000000001</ele>
        <time>2018-09-09T06:29:49Z</time>
      </trkpt>
      <trkpt lat="46.185581143945456" lon="10.901067825034261">
        <ele>2647.6100000000001</ele>
        <time>2018-09-09T06:30:03Z</time>
      </trkpt>
      <trkpt lat="46.185571337118745" lon="10.901065478101373">
        <ele>2648.0900000000001</ele>
        <time>2018-09-09T06:30:17Z</time>
      </trkpt>
      <trkpt lat="46.185548286885023" lon="10.90104091912508">
        <ele>2648.0900000000001</ele>
        <time>2018-09-09T06:30:33Z</time>
      </trkpt>
      <trkpt lat="46.185553148388863" lon="10.90103161521256">
        <ele>2647.6100000000001</ele>
        <time>2018-09-09T06:30:47Z</time>
      </trkpt>
      <trkpt lat="46.185566810891032" lon="10.901027843356133">
        <ele>2648.0900000000001</ele>
        <time>2018-09-09T06:31:03Z</time>
      </trkpt>
      <trkpt lat="46.185564296320081" lon="10.901001188904047">
        <ele>2648.0900000000001</ele>
        <time>2018-09-09T06:31:17Z</time>
      </trkpt>
      <trkpt lat="46.185561697930098" lon="10.900986101478338">
        <ele>2648.0900000000001</ele>
        <time>2018-09-09T06:31:31Z</time>
      </trkpt>
      <trkpt lat="46.185546861961484" lon="10.901006553322077">
        <ele>2647.6100000000001</ele>
        <time>2018-09-09T06:31:42Z</time>
      </trkpt>
      <trkpt lat="46.185571672394872" lon="10.901040583848953">
        <ele>2647.1300000000001</ele>
        <time>2018-09-09T06:31:56Z</time>
      </trkpt>
      <trkpt lat="46.18558868765831" lon="10.901039997115731">
        <ele>2647.6100000000001</ele>
        <time>2018-09-09T06:32:18Z</time>
      </trkpt>
      <trkpt lat="46.185604780912399" lon="10.90108634904027">
        <ele>2648.0900000000001</ele>
        <time>2018-09-09T06:32:32Z</time>
      </trkpt>
      <trkpt lat="46.185570582747459" lon="10.901033459231257">
        <ele>2648.5700000000002</ele>
        <time>2018-09-09T06:32:39Z</time>
      </trkpt>
      <trkpt lat="46.185551639646292" lon="10.90101795271039">
        <ele>2648.5700000000002</ele>
        <time>2018-09-09T06:32:51Z</time>
      </trkpt>
      <trkpt lat="46.185557590797544" lon="10.901009906083345">
        <ele>2648.5700000000002</ele>
        <time>2018-09-09T06:33:11Z</time>
      </trkpt>
      <trkpt lat="46.185548873618245" lon="10.901011414825916">
        <ele>2648.5700000000002</ele>
        <time>2018-09-09T06:33:27Z</time>
      </trkpt>
      <trkpt lat="46.185550382360816" lon="10.901006804779172">
        <ele>2648.5700000000002</ele>
        <time>2018-09-09T06:33:40Z</time>
      </trkpt>
      <trkpt lat="46.185546107590199" lon="10.901005463674664">
        <ele>2648.5700000000002</ele>
        <time>2018-09-09T06:34:01Z</time>
      </trkpt>
      <trkpt lat="46.185550885275006" lon="10.90098325163126">
        <ele>2649.0500000000002</ele>
        <time>2018-09-09T06:34:15Z</time>
      </trkpt>
      <trkpt lat="46.185551472008228" lon="10.900993142277002">
        <ele>2648.5700000000002</ele>
        <time>2018-09-09T06:34:28Z</time>
      </trkpt>
      <trkpt lat="46.185560943558812" lon="10.901001775637269">
        <ele>2649.0500000000002</ele>
        <time>2018-09-09T06:34:43Z</time>
      </trkpt>
      <trkpt lat="46.185553567484021" lon="10.901006888598204">
        <ele>2649.0500000000002</ele>
        <time>2018-09-09T06:34:56Z</time>
      </trkpt>
      <trkpt lat="46.185557255521417" lon="10.901021640747786">
        <ele>2648.5700000000002</ele>
        <time>2018-09-09T06:35:13Z</time>
      </trkpt>
      <trkpt lat="46.185568990185857" lon="10.901009738445282">
        <ele>2648.5700000000002</ele>
        <time>2018-09-09T06:35:27Z</time>
      </trkpt>
      <trkpt lat="46.185601595789194" lon="10.901021808385849">
        <ele>2649.0500000000002</ele>
        <time>2018-09-09T06:35:39Z</time>
      </trkpt>
      <trkpt lat="46.185596818104386" lon="10.901048379018903">
        <ele>2650.4899999999998</ele>
        <time>2018-09-09T06:35:49Z</time>
      </trkpt>
      <trkpt lat="46.185579719021916" lon="10.901083750650287">
        <ele>2650.4899999999998</ele>
        <time>2018-09-09T06:36:07Z</time>
      </trkpt>
      <trkpt lat="46.185632357373834" lon="10.901053156703711">
        <ele>2650.9699999999998</ele>
        <time>2018-09-09T06:36:21Z</time>
      </trkpt>
      <trkpt lat="46.185682229697704" lon="10.90101795271039">
        <ele>2652.4200000000001</ele>
        <time>2018-09-09T06:36:30Z</time>
      </trkpt>
      <trkpt lat="46.18570595048368" lon="10.901009738445282">
        <ele>2653.3800000000001</ele>
        <time>2018-09-09T06:36:41Z</time>
      </trkpt>
      <trkpt lat="46.185703687369823" lon="10.900997752323747">
        <ele>2654.8200000000002</ele>
        <time>2018-09-09T06:36:51Z</time>
      </trkpt>
      <trkpt lat="46.185701843351126" lon="10.901058772578835">
        <ele>2656.2600000000002</ele>
        <time>2018-09-09T06:37:05Z</time>
      </trkpt>
      <trkpt lat="46.185704609379172" lon="10.901076626032591">
        <ele>2657.2199999999998</ele>
        <time>2018-09-09T06:37:18Z</time>
      </trkpt>
      <trkpt lat="46.185702513903379" lon="10.901099760085344">
        <ele>2657.6999999999998</ele>
        <time>2018-09-09T06:37:31Z</time>
      </trkpt>
      <trkpt lat="46.185713242739439" lon="10.901130437850952">
        <ele>2659.1399999999999</ele>
        <time>2018-09-09T06:37:42Z</time>
      </trkpt>
      <trkpt lat="46.18569765239954" lon="10.901181483641267">
        <ele>2660.1100000000001</ele>
        <time>2018-09-09T06:37:54Z</time>
      </trkpt>
      <trkpt lat="46.185658592730761" lon="10.901180058717728">
        <ele>2661.5500000000002</ele>
        <time>2018-09-09T06:38:07Z</time>
      </trkpt>
      <trkpt lat="46.185648450627923" lon="10.901178298518062">
        <ele>2661.5500000000002</ele>
        <time>2018-09-09T06:38:21Z</time>
      </trkpt>
      <trkpt lat="46.185664795339108" lon="10.901187434792519">
        <ele>2662.9899999999998</ele>
        <time>2018-09-09T06:38:34Z</time>
      </trkpt>
      <trkpt lat="46.18571718223393" lon="10.901217442005873">
        <ele>2663.4699999999998</ele>
        <time>2018-09-09T06:38:45Z</time>
      </trkpt>
      <trkpt lat="46.185729252174497" lon="10.901202689856291">
        <ele>2664.9099999999999</ele>
        <time>2018-09-09T06:38:58Z</time>
      </trkpt>
      <trkpt lat="46.185537977144122" lon="10.901172682642937">
        <ele>2665.3899999999999</ele>
        <time>2018-09-09T06:39:11Z</time>
      </trkpt>
      <trkpt lat="46.185579719021916" lon="10.901178801432252">
        <ele>2665.3899999999999</ele>
        <time>2018-09-09T06:39:41Z</time>
      </trkpt>
      <trkpt lat="46.185733275488019" lon="10.901119876652956">
        <ele>2665.3899999999999</ele>
        <time>2018-09-09T06:39:54Z</time>
      </trkpt>
      <trkpt lat="46.185756241902709" lon="10.901091881096363">
        <ele>2663.9499999999998</ele>
        <time>2018-09-09T06:40:02Z</time>
      </trkpt>
      <trkpt lat="46.18576068431139" lon="10.901102023199201">
        <ele>2663.9499999999998</ele>
        <time>2018-09-09T06:40:11Z</time>
      </trkpt>
      <trkpt lat="46.185750290751457" lon="10.901128510013223">
        <ele>2664.4299999999998</ele>
        <time>2018-09-09T06:40:23Z</time>
      </trkpt>
      <trkpt lat="46.185749536380172" lon="10.901161786168814">
        <ele>2664.4299999999998</ele>
        <time>2018-09-09T06:40:44Z</time>
      </trkpt>
      <trkpt lat="46.185746351256967" lon="10.901161786168814">
        <ele>2664.4299999999998</ele>
        <time>2018-09-09T06:41:00Z</time>
      </trkpt>
      <trkpt lat="46.185786081478" lon="10.901108477264643">
        <ele>2663.9499999999998</ele>
        <time>2018-09-09T06:41:15Z</time>
      </trkpt>
      <trkpt lat="46.185796726495028" lon="10.901082409545779">
        <ele>2663.4699999999998</ele>
        <time>2018-09-09T06:41:23Z</time>
      </trkpt>
      <trkpt lat="46.185784740373492" lon="10.901051815599203">
        <ele>2662.9899999999998</ele>
        <time>2018-09-09T06:41:34Z</time>
      </trkpt>
      <trkpt lat="46.185757163912058" lon="10.901050055399537">
        <ele>2664.4299999999998</ele>
        <time>2018-09-09T06:41:46Z</time>
      </trkpt>
      <trkpt lat="46.185639146715403" lon="10.901081822812557">
        <ele>2664.9099999999999</ele>
        <time>2018-09-09T06:42:01Z</time>
      </trkpt>
      <trkpt lat="46.185554070398211" lon="10.901067489758134">
        <ele>2666.3499999999999</ele>
        <time>2018-09-09T06:42:14Z</time>
      </trkpt>
      <trkpt lat="46.185564128682017" lon="10.90106874704361">
        <ele>2667.8000000000002</ele>
        <time>2018-09-09T06:42:33Z</time>
      </trkpt>
      <trkpt lat="46.185815837234259" lon="10.901038739830256">
        <ele>2669.7199999999998</ele>
        <time>2018-09-09T06:42:45Z</time>
      </trkpt>
      <trkpt lat="46.185815837234259" lon="10.901039661839604">
        <ele>2670.1999999999998</ele>
        <time>2018-09-09T06:43:00Z</time>
      </trkpt>
      <trkpt lat="46.185799827799201" lon="10.901080733165145">
        <ele>2670.1999999999998</ele>
        <time>2018-09-09T06:43:12Z</time>
      </trkpt>
      <trkpt lat="46.18576412089169" lon="10.901094479486346">
        <ele>2670.6799999999998</ele>
        <time>2018-09-09T06:43:28Z</time>
      </trkpt>
      <trkpt lat="46.185856657102704" lon="10.901116188615561">
        <ele>2670.1999999999998</ele>
        <time>2018-09-09T06:43:45Z</time>
      </trkpt>
      <trkpt lat="46.185826063156128" lon="10.901067741215229">
        <ele>2671.6399999999999</ele>
        <time>2018-09-09T06:43:59Z</time>
      </trkpt>
      <trkpt lat="46.18585841730237" lon="10.901060197502375">
        <ele>2671.6399999999999</ele>
        <time>2018-09-09T06:44:11Z</time>
      </trkpt>
      <trkpt lat="46.185845341533422" lon="10.901103615760803">
        <ele>2671.6399999999999</ele>
        <time>2018-09-09T06:44:27Z</time>
      </trkpt>
      <trkpt lat="46.185842324048281" lon="10.901067489758134">
        <ele>2672.1199999999999</ele>
        <time>2018-09-09T06:44:40Z</time>
      </trkpt>
      <trkpt lat="46.18584617972374" lon="10.901031531393528">
        <ele>2671.6399999999999</ele>
        <time>2018-09-09T06:44:50Z</time>
      </trkpt>
      <trkpt lat="46.185827571898699" lon="10.901003452017903">
        <ele>2672.1199999999999</ele>
        <time>2018-09-09T06:45:09Z</time>
      </trkpt>
      <trkpt lat="46.185833187773824" lon="10.901018287986517">
        <ele>2672.1199999999999</ele>
        <time>2018-09-09T06:45:22Z</time>
      </trkpt>
      <trkpt lat="46.185831259936094" lon="10.900975205004215">
        <ele>2672.1199999999999</ele>
        <time>2018-09-09T06:45:38Z</time>
      </trkpt>
      <trkpt lat="46.185857327654958" lon="10.900932289659977">
        <ele>2672.1199999999999</ele>
        <time>2018-09-09T06:45:52Z</time>
      </trkpt>
      <trkpt lat="46.185868894681334" lon="10.900901528075337">
        <ele>2671.6399999999999</ele>
        <time>2018-09-09T06:46:03Z</time>
      </trkpt>
      <trkpt lat="46.185883898288012" lon="10.900870263576508">
        <ele>2670.6799999999998</ele>
        <time>2018-09-09T06:46:15Z</time>
      </trkpt>
      <trkpt lat="46.185897393152118" lon="10.900856852531433">
        <ele>2670.1999999999998</ele>
        <time>2018-09-09T06:46:26Z</time>
      </trkpt>
      <trkpt lat="46.185903260484338" lon="10.900846626609564">
        <ele>2668.7600000000002</ele>
        <time>2018-09-09T06:46:38Z</time>
      </trkpt>
      <trkpt lat="46.185904936864972" lon="10.900846039876342">
        <ele>2668.7600000000002</ele>
        <time>2018-09-09T06:46:48Z</time>
      </trkpt>
      <trkpt lat="46.185904517769814" lon="10.900856349617243">
        <ele>2668.2800000000002</ele>
        <time>2018-09-09T06:47:01Z</time>
      </trkpt>
      <trkpt lat="46.185922203585505" lon="10.900858696550131">
        <ele>2667.3099999999999</ele>
        <time>2018-09-09T06:47:17Z</time>
      </trkpt>
      <trkpt lat="46.185934022068977" lon="10.900838831439614">
        <ele>2666.3499999999999</ele>
        <time>2018-09-09T06:47:33Z</time>
      </trkpt>
      <trkpt lat="46.185937207192183" lon="10.900880992412567">
        <ele>2666.3499999999999</ele>
        <time>2018-09-09T06:47:50Z</time>
      </trkpt>
      <trkpt lat="46.185945337638259" lon="10.900879316031933">
        <ele>2666.3499999999999</ele>
        <time>2018-09-09T06:48:06Z</time>
      </trkpt>
      <trkpt lat="46.185952881351113" lon="10.90088015422225">
        <ele>2666.3499999999999</ele>
        <time>2018-09-09T06:48:24Z</time>
      </trkpt>
      <trkpt lat="46.185925807803869" lon="10.900867246091366">
        <ele>2665.8699999999999</ele>
        <time>2018-09-09T06:48:38Z</time>
      </trkpt>
      <trkpt lat="46.185835283249617" lon="10.900701032951474">
        <ele>2668.7600000000002</ele>
        <time>2018-09-09T06:49:44Z</time>
      </trkpt>
      <trkpt lat="46.185937374830246" lon="10.900696171447635">
        <ele>2669.7199999999998</ele>
        <time>2018-09-09T06:49:58Z</time>
      </trkpt>
      <trkpt lat="46.185979284346104" lon="10.90081075206399">
        <ele>2669.2399999999998</ele>
        <time>2018-09-09T06:50:11Z</time>
      </trkpt>
      <trkpt lat="46.185970148071647" lon="10.900838663801551">
        <ele>2669.7199999999998</ele>
        <time>2018-09-09T06:50:27Z</time>
      </trkpt>
      <trkpt lat="46.185967298224568" lon="10.900808572769165">
        <ele>2669.7199999999998</ele>
        <time>2018-09-09T06:50:42Z</time>
      </trkpt>
      <trkpt lat="46.185977440327406" lon="10.900799855589867">
        <ele>2669.2399999999998</ele>
        <time>2018-09-09T06:50:55Z</time>
      </trkpt>
      <trkpt lat="46.185989174991846" lon="10.900770099833608">
        <ele>2668.7600000000002</ele>
        <time>2018-09-09T06:51:05Z</time>
      </trkpt>
      <trkpt lat="46.18601624853909" lon="10.900770351290703">
        <ele>2670.1999999999998</ele>
        <time>2018-09-09T06:51:13Z</time>
      </trkpt>
      <trkpt lat="46.186007782816887" lon="10.900780828669667">
        <ele>2670.1999999999998</ele>
        <time>2018-09-09T06:51:28Z</time>
      </trkpt>
      <trkpt lat="46.186004094779491" lon="10.900789126753807">
        <ele>2670.1999999999998</ele>
        <time>2018-09-09T06:51:48Z</time>
      </trkpt>
      <trkpt lat="46.186011219397187" lon="10.900761047378182">
        <ele>2670.6799999999998</ele>
        <time>2018-09-09T06:52:00Z</time>
      </trkpt>
      <trkpt lat="46.186017254367471" lon="10.900750989094377">
        <ele>2672.1199999999999</ele>
        <time>2018-09-09T06:52:15Z</time>
      </trkpt>
      <trkpt lat="46.186025971546769" lon="10.900745708495378">
        <ele>2672.1199999999999</ele>
        <time>2018-09-09T06:52:29Z</time>
      </trkpt>
      <trkpt lat="46.186027396470308" lon="10.90071888640523">
        <ele>2673.5599999999999</ele>
        <time>2018-09-09T06:52:41Z</time>
      </trkpt>
      <trkpt lat="46.185997305437922" lon="10.900750989094377">
        <ele>2674.04</ele>
        <time>2018-09-09T06:52:56Z</time>
      </trkpt>
      <trkpt lat="46.185976266860962" lon="10.900822067633271">
        <ele>2674.04</ele>
        <time>2018-09-09T06:53:14Z</time>
      </trkpt>
      <trkpt lat="46.185764539986849" lon="10.900845034047961">
        <ele>2675.4899999999998</ele>
        <time>2018-09-09T06:53:33Z</time>
      </trkpt>
      <trkpt lat="46.18601281195879" lon="10.900724250823259">
        <ele>2677.4099999999999</ele>
        <time>2018-09-09T06:53:49Z</time>
      </trkpt>
      <trkpt lat="46.186045249924064" lon="10.900675300508738">
        <ele>2677.4099999999999</ele>
        <time>2018-09-09T06:54:05Z</time>
      </trkpt>
      <trkpt lat="46.186036951839924" lon="10.900666415691376">
        <ele>2677.4099999999999</ele>
        <time>2018-09-09T06:54:19Z</time>
      </trkpt>
      <trkpt lat="46.18605044670403" lon="10.900651328265667">
        <ele>2678.3699999999999</ele>
        <time>2018-09-09T06:54:30Z</time>
      </trkpt>
      <trkpt lat="46.186053799465299" lon="10.900639593601227">
        <ele>2679.3299999999999</ele>
        <time>2018-09-09T06:54:44Z</time>
      </trkpt>
      <trkpt lat="46.186066539958119" lon="10.900618890300393">
        <ele>2680.77</ele>
        <time>2018-09-09T06:54:56Z</time>
      </trkpt>
      <trkpt lat="46.186069305986166" lon="10.900619477033615">
        <ele>2681.25</ele>
        <time>2018-09-09T06:55:08Z</time>
      </trkpt>
      <trkpt lat="46.186076765879989" lon="10.900623416528106">
        <ele>2681.73</ele>
        <time>2018-09-09T06:55:18Z</time>
      </trkpt>
      <trkpt lat="46.186095541343093" lon="10.9005908947438">
        <ele>2682.6999999999998</ele>
        <time>2018-09-09T06:55:27Z</time>
      </trkpt>
      <trkpt lat="46.18611398153007" lon="10.900566838681698">
        <ele>2683.6599999999999</ele>
        <time>2018-09-09T06:55:39Z</time>
      </trkpt>
      <trkpt lat="46.186140635982156" lon="10.900505315512419">
        <ele>2685.0999999999999</ele>
        <time>2018-09-09T06:55:51Z</time>
      </trkpt>
      <trkpt lat="46.186133092269301" lon="10.900558121502399">
        <ele>2685.0999999999999</ele>
        <time>2018-09-09T06:56:03Z</time>
      </trkpt>
      <trkpt lat="46.186134181916714" lon="10.900634061545134">
        <ele>2685.5799999999999</ele>
        <time>2018-09-09T06:56:23Z</time>
      </trkpt>
      <trkpt lat="46.186141725629568" lon="10.900677060708404">
        <ele>2685.5799999999999</ele>
        <time>2018-09-09T06:56:44Z</time>
      </trkpt>
      <trkpt lat="46.186142396181822" lon="10.900686616078019">
        <ele>2685.5799999999999</ele>
        <time>2018-09-09T06:57:03Z</time>
      </trkpt>
      <trkpt lat="46.186175839975476" lon="10.900542279705405">
        <ele>2686.54</ele>
        <time>2018-09-09T06:57:24Z</time>
      </trkpt>
      <trkpt lat="46.186209786683321" lon="10.900495257228613">
        <ele>2687.02</ele>
        <time>2018-09-09T06:57:34Z</time>
      </trkpt>
      <trkpt lat="46.186241302639246" lon="10.900468183681369">
        <ele>2688.9400000000001</ele>
        <time>2018-09-09T06:57:45Z</time>
      </trkpt>
      <trkpt lat="46.186272986233234" lon="10.900408085435629">
        <ele>2689.4299999999998</ele>
        <time>2018-09-09T06:57:56Z</time>
      </trkpt>
      <trkpt lat="46.186285559087992" lon="10.900383107364178">
        <ele>2691.3499999999999</ele>
        <time>2018-09-09T06:58:06Z</time>
      </trkpt>
      <trkpt lat="46.186323361471295" lon="10.900341868400574">
        <ele>2693.27</ele>
        <time>2018-09-09T06:58:16Z</time>
      </trkpt>
      <trkpt lat="46.186352530494332" lon="10.900268275290728">
        <ele>2690.8699999999999</ele>
        <time>2018-09-09T06:58:31Z</time>
      </trkpt>
      <trkpt lat="46.186390919610858" lon="10.900184791535139">
        <ele>2689.9099999999999</ele>
        <time>2018-09-09T06:58:46Z</time>
      </trkpt>
      <trkpt lat="46.186436600983143" lon="10.900124944746494">
        <ele>2689.9099999999999</ele>
        <time>2018-09-09T06:58:59Z</time>
      </trkpt>
      <trkpt lat="46.186476582661271" lon="10.900014722719789">
        <ele>2689.9099999999999</ele>
        <time>2018-09-09T06:59:12Z</time>
      </trkpt>
      <trkpt lat="46.186470380052924" lon="10.899997036904097">
        <ele>2691.3499999999999</ele>
        <time>2018-09-09T06:59:26Z</time>
      </trkpt>
      <trkpt lat="46.186467446386814" lon="10.899982871487737">
        <ele>2691.8299999999999</ele>
        <time>2018-09-09T06:59:40Z</time>
      </trkpt>
      <trkpt lat="46.186486473307014" lon="10.90000499971211">
        <ele>2694.23</ele>
        <time>2018-09-09T06:59:52Z</time>
      </trkpt>
      <trkpt lat="46.18649703450501" lon="10.900008855387568">
        <ele>2693.75</ele>
        <time>2018-09-09T07:00:03Z</time>
      </trkpt>
      <trkpt lat="46.18648974224925" lon="10.899995109066367">
        <ele>2694.71</ele>
        <time>2018-09-09T07:00:16Z</time>
      </trkpt>
      <trkpt lat="46.186484042555094" lon="10.899982452392578">
        <ele>2696.6399999999999</ele>
        <time>2018-09-09T07:00:30Z</time>
      </trkpt>
      <trkpt lat="46.186486976221204" lon="10.899961497634649">
        <ele>2696.1500000000001</ele>
        <time>2018-09-09T07:00:47Z</time>
      </trkpt>
      <trkpt lat="46.186489909887314" lon="10.899985637515783">
        <ele>2697.5999999999999</ele>
        <time>2018-09-09T07:01:00Z</time>
      </trkpt>
      <trkpt lat="46.186489658430219" lon="10.89997180737555">
        <ele>2698.5599999999999</ele>
        <time>2018-09-09T07:01:11Z</time>
      </trkpt>
      <trkpt lat="46.186493597924709" lon="10.899969292804599">
        <ele>2699.52</ele>
        <time>2018-09-09T07:01:21Z</time>
      </trkpt>
      <trkpt lat="46.186503740027547" lon="10.900015393272042">
        <ele>2701.9200000000001</ele>
        <time>2018-09-09T07:01:36Z</time>
      </trkpt>
      <trkpt lat="46.186535591259599" lon="10.900080520659685">
        <ele>2702.4000000000001</ele>
        <time>2018-09-09T07:01:49Z</time>
      </trkpt>
      <trkpt lat="46.186562413349748" lon="10.90009443461895">
        <ele>2702.4000000000001</ele>
        <time>2018-09-09T07:02:04Z</time>
      </trkpt>
      <trkpt lat="46.186614632606506" lon="10.900069624185562">
        <ele>2703.8499999999999</ele>
        <time>2018-09-09T07:02:19Z</time>
      </trkpt>
      <trkpt lat="46.186623768880963" lon="10.900072976946831">
        <ele>2705.29</ele>
        <time>2018-09-09T07:02:33Z</time>
      </trkpt>
      <trkpt lat="46.186653189361095" lon="10.900097452104092">
        <ele>2705.77</ele>
        <time>2018-09-09T07:02:46Z</time>
      </trkpt>
      <trkpt lat="46.18666123598814" lon="10.900102984160185">
        <ele>2707.21</ele>
        <time>2018-09-09T07:02:59Z</time>
      </trkpt>
      <trkpt lat="46.186637682840228" lon="10.90008077211678">
        <ele>2708.6500000000001</ele>
        <time>2018-09-09T07:03:17Z</time>
      </trkpt>
      <trkpt lat="46.186620751395822" lon="10.900050513446331">
        <ele>2709.6100000000001</ele>
        <time>2018-09-09T07:03:26Z</time>
      </trkpt>
      <trkpt lat="46.186616560444236" lon="10.900050345808268">
        <ele>2710.0900000000001</ele>
        <time>2018-09-09T07:03:40Z</time>
      </trkpt>
      <trkpt lat="46.186579596251249" lon="10.899970130994916">
        <ele>2712.02</ele>
        <time>2018-09-09T07:03:52Z</time>
      </trkpt>
      <trkpt lat="46.186569118872285" lon="10.899949427694082">
        <ele>2712.5</ele>
        <time>2018-09-09T07:04:09Z</time>
      </trkpt>
      <trkpt lat="46.186567107215524" lon="10.899936435744166">
        <ele>2713.46</ele>
        <time>2018-09-09T07:04:20Z</time>
      </trkpt>
      <trkpt lat="46.186588816344738" lon="10.899964096024632">
        <ele>2713.9400000000001</ele>
        <time>2018-09-09T07:04:36Z</time>
      </trkpt>
      <trkpt lat="46.18658990599215" lon="10.899980021640658">
        <ele>2713.9400000000001</ele>
        <time>2018-09-09T07:04:54Z</time>
      </trkpt>
      <trkpt lat="46.18658009916544" lon="10.89993174187839">
        <ele>2713.9400000000001</ele>
        <time>2018-09-09T07:05:04Z</time>
      </trkpt>
      <trkpt lat="46.18657766841352" lon="10.899888407438993">
        <ele>2714.4200000000001</ele>
        <time>2018-09-09T07:05:12Z</time>
      </trkpt>
      <trkpt lat="46.186589319258928" lon="10.899877678602934">
        <ele>2715.8600000000001</ele>
        <time>2018-09-09T07:05:24Z</time>
      </trkpt>
      <trkpt lat="46.186614632606506" lon="10.899875080212951">
        <ele>2716.8200000000002</ele>
        <time>2018-09-09T07:05:39Z</time>
      </trkpt>
      <trkpt lat="46.186624774709344" lon="10.899880528450012">
        <ele>2716.8200000000002</ele>
        <time>2018-09-09T07:05:47Z</time>
      </trkpt>
      <trkpt lat="46.186616728082299" lon="10.899927299469709">
        <ele>2716.8200000000002</ele>
        <time>2018-09-09T07:06:03Z</time>
      </trkpt>
      <trkpt lat="46.186608262360096" lon="10.899862004444003">
        <ele>2717.7800000000002</ele>
        <time>2018-09-09T07:06:17Z</time>
      </trkpt>
      <trkpt lat="46.186632569879293" lon="10.899866111576557">
        <ele>2718.75</ele>
        <time>2018-09-09T07:06:30Z</time>
      </trkpt>
      <trkpt lat="46.186631815508008" lon="10.899845575913787">
        <ele>2719.23</ele>
        <time>2018-09-09T07:06:40Z</time>
      </trkpt>
      <trkpt lat="46.186637682840228" lon="10.899809869006276">
        <ele>2720.1900000000001</ele>
        <time>2018-09-09T07:06:53Z</time>
      </trkpt>
      <trkpt lat="46.186651177704334" lon="10.899804756045341">
        <ele>2720.6700000000001</ele>
        <time>2018-09-09T07:07:04Z</time>
      </trkpt>
      <trkpt lat="46.18665000423789" lon="10.899783801287413">
        <ele>2722.1100000000001</ele>
        <time>2018-09-09T07:07:17Z</time>
      </trkpt>
      <trkpt lat="46.186668528243899" lon="10.899767288938165">
        <ele>2723.5500000000002</ele>
        <time>2018-09-09T07:07:27Z</time>
      </trkpt>
      <trkpt lat="46.186672551557422" lon="10.899787908419967">
        <ele>2724.0300000000002</ele>
        <time>2018-09-09T07:07:39Z</time>
      </trkpt>
      <trkpt lat="46.186709348112345" lon="10.899827722460032">
        <ele>2724.9899999999998</ele>
        <time>2018-09-09T07:07:52Z</time>
      </trkpt>
      <trkpt lat="46.186700128018856" lon="10.899742394685745">
        <ele>2726.4400000000001</ele>
        <time>2018-09-09T07:08:01Z</time>
      </trkpt>
      <trkpt lat="46.186723010614514" lon="10.899696964770555">
        <ele>2727.4000000000001</ele>
        <time>2018-09-09T07:08:10Z</time>
      </trkpt>
      <trkpt lat="46.186756370589137" lon="10.899669723585248">
        <ele>2728.3600000000001</ele>
        <time>2018-09-09T07:08:20Z</time>
      </trkpt>
      <trkpt lat="46.186751089990139" lon="10.899708196520805">
        <ele>2729.3200000000002</ele>
        <time>2018-09-09T07:08:29Z</time>
      </trkpt>
      <trkpt lat="46.186793921515346" lon="10.899658156558871">
        <ele>2729.3200000000002</ele>
        <time>2018-09-09T07:08:41Z</time>
      </trkpt>
      <trkpt lat="46.186790317296982" lon="10.899672824889421">
        <ele>2729.3200000000002</ele>
        <time>2018-09-09T07:08:53Z</time>
      </trkpt>
      <trkpt lat="46.186874052509665" lon="10.899584898725152">
        <ele>2731.2399999999998</ele>
        <time>2018-09-09T07:09:05Z</time>
      </trkpt>
      <trkpt lat="46.186874555423856" lon="10.899610379710793">
        <ele>2731.2399999999998</ele>
        <time>2018-09-09T07:09:20Z</time>
      </trkpt>
      <trkpt lat="46.186882182955742" lon="10.899636782705784">
        <ele>2731.2399999999998</ele>
        <time>2018-09-09T07:09:48Z</time>
      </trkpt>
      <trkpt lat="46.186920069158077" lon="10.899543492123485">
        <ele>2730.7600000000002</ele>
        <time>2018-09-09T07:10:01Z</time>
      </trkpt>
      <trkpt lat="46.186967929825187" lon="10.899465456604958">
        <ele>2729.3200000000002</ele>
        <time>2018-09-09T07:10:12Z</time>
      </trkpt>
      <trkpt lat="46.187027944251895" lon="10.899374764412642">
        <ele>2730.7600000000002</ele>
        <time>2018-09-09T07:10:23Z</time>
      </trkpt>
      <trkpt lat="46.187087204307318" lon="10.899334447458386">
        <ele>2731.7199999999998</ele>
        <time>2018-09-09T07:10:33Z</time>
      </trkpt>
      <trkpt lat="46.1871019564569" lon="10.899330591782928">
        <ele>2732.6799999999998</ele>
        <time>2018-09-09T07:10:36Z</time>
      </trkpt>
      <trkpt lat="46.187115618959069" lon="10.89927451685071">
        <ele>2731.7199999999998</ele>
        <time>2018-09-09T07:10:48Z</time>
      </trkpt>
      <trkpt lat="46.187120815739036" lon="10.899217436090112">
        <ele>2730.7600000000002</ele>
        <time>2018-09-09T07:10:57Z</time>
      </trkpt>
      <trkpt lat="46.18714596144855" lon="10.899233613163233">
        <ele>2731.2399999999998</ele>
        <time>2018-09-09T07:11:08Z</time>
      </trkpt>
      <trkpt lat="46.187185607850552" lon="10.899199582636356">
        <ele>2733.1700000000001</ele>
        <time>2018-09-09T07:11:19Z</time>
      </trkpt>
      <trkpt lat="46.187206730246544" lon="10.899118445813656">
        <ele>2732.6799999999998</ele>
        <time>2018-09-09T07:11:30Z</time>
      </trkpt>
      <trkpt lat="46.187229948118329" lon="10.899086343124509">
        <ele>2732.6799999999998</ele>
        <time>2018-09-09T07:11:34Z</time>
      </trkpt>
      <trkpt lat="46.187313012778759" lon="10.899027418345213">
        <ele>2733.1700000000001</ele>
        <time>2018-09-09T07:11:46Z</time>
      </trkpt>
      <trkpt lat="46.187364896759391" lon="10.899001099169254">
        <ele>2732.1999999999998</ele>
        <time>2018-09-09T07:11:57Z</time>
      </trkpt>
      <trkpt lat="46.187399933114648" lon="10.898955753073096">
        <ele>2734.6100000000001</ele>
        <time>2018-09-09T07:12:13Z</time>
      </trkpt>
      <trkpt lat="46.187451984733343" lon="10.898916944861412">
        <ele>2735.5700000000002</ele>
        <time>2018-09-09T07:12:24Z</time>
      </trkpt>
      <trkpt lat="46.187492301687598" lon="10.898917196318507">
        <ele>2737.0100000000002</ele>
        <time>2018-09-09T07:12:32Z</time>
      </trkpt>
      <trkpt lat="46.187515016645193" lon="10.898823067545891">
        <ele>2736.5300000000002</ele>
        <time>2018-09-09T07:12:42Z</time>
      </trkpt>
      <trkpt lat="46.187508227303624" lon="10.898752072826028">
        <ele>2734.6100000000001</ele>
        <time>2018-09-09T07:12:53Z</time>
      </trkpt>
      <trkpt lat="46.187511831521988" lon="10.898744110018015">
        <ele>2734.1300000000001</ele>
        <time>2018-09-09T07:12:55Z</time>
      </trkpt>
      <trkpt lat="46.187570672482252" lon="10.89876489713788">
        <ele>2732.6799999999998</ele>
        <time>2018-09-09T07:13:05Z</time>
      </trkpt>
      <trkpt lat="46.187573187053204" lon="10.898835556581616">
        <ele>2732.6799999999998</ele>
        <time>2018-09-09T07:13:19Z</time>
      </trkpt>
      <trkpt lat="46.187561033293605" lon="10.898814518004656">
        <ele>2732.6799999999998</ele>
        <time>2018-09-09T07:13:33Z</time>
      </trkpt>
      <trkpt lat="46.187560362741351" lon="10.898804375901818">
        <ele>2731.7199999999998</ele>
        <time>2018-09-09T07:13:41Z</time>
      </trkpt>
      <trkpt lat="46.187564637511969" lon="10.898792892694473">
        <ele>2731.7199999999998</ele>
        <time>2018-09-09T07:14:00Z</time>
      </trkpt>
      <trkpt lat="46.187571259215474" lon="10.898828515782952">
        <ele>2732.6799999999998</ele>
        <time>2018-09-09T07:14:22Z</time>
      </trkpt>
      <trkpt lat="46.187582155689597" lon="10.89883279055357">
        <ele>2732.6799999999998</ele>
        <time>2018-09-09T07:14:36Z</time>
      </trkpt>
      <trkpt lat="46.187575869262218" lon="10.898839244619012">
        <ele>2733.1700000000001</ele>
        <time>2018-09-09T07:14:51Z</time>
      </trkpt>
      <trkpt lat="46.18759254924953" lon="10.898845866322517">
        <ele>2732.6799999999998</ele>
        <time>2018-09-09T07:15:08Z</time>
      </trkpt>
      <trkpt lat="46.187572767958045" lon="10.898840418085456">
        <ele>2732.6799999999998</ele>
        <time>2018-09-09T07:15:33Z</time>
      </trkpt>
      <trkpt lat="46.187568325549364" lon="10.898821810260415">
        <ele>2732.6799999999998</ele>
        <time>2018-09-09T07:15:48Z</time>
      </trkpt>
      <trkpt lat="46.187575785443187" lon="10.898823235183954">
        <ele>2732.6799999999998</ele>
        <time>2018-09-09T07:16:05Z</time>
      </trkpt>
      <trkpt lat="46.187582574784756" lon="10.898817116394639">
        <ele>2732.6799999999998</ele>
        <time>2018-09-09T07:16:24Z</time>
      </trkpt>
      <trkpt lat="46.187573438510299" lon="10.898825749754906">
        <ele>2733.1700000000001</ele>
        <time>2018-09-09T07:16:38Z</time>
      </trkpt>
      <trkpt lat="46.187561871483922" lon="10.898826671764255">
        <ele>2733.1700000000001</ele>
        <time>2018-09-09T07:17:02Z</time>
      </trkpt>
      <trkpt lat="46.187561703845859" lon="10.898838993161917">
        <ele>2733.1700000000001</ele>
        <time>2018-09-09T07:17:19Z</time>
      </trkpt>
      <trkpt lat="46.187558434903622" lon="10.898866737261415">
        <ele>2732.6799999999998</ele>
        <time>2018-09-09T07:17:39Z</time>
      </trkpt>
      <trkpt lat="46.187568828463554" lon="10.89885575696826">
        <ele>2732.6799999999998</ele>
        <time>2018-09-09T07:17:52Z</time>
      </trkpt>
      <trkpt lat="46.187574360519648" lon="10.898850057274103">
        <ele>2732.6799999999998</ele>
        <time>2018-09-09T07:18:15Z</time>
      </trkpt>
      <trkpt lat="46.187586849555373" lon="10.898848799988627">
        <ele>2732.6799999999998</ele>
        <time>2018-09-09T07:18:37Z</time>
      </trkpt>
      <trkpt lat="46.18759648874402" lon="10.898831449449062">
        <ele>2732.6799999999998</ele>
        <time>2018-09-09T07:18:54Z</time>
      </trkpt>
      <trkpt lat="46.187600344419479" lon="10.898835053667426">
        <ele>2732.6799999999998</ele>
        <time>2018-09-09T07:19:09Z</time>
      </trkpt>
      <trkpt lat="46.187603948637843" lon="10.898828180506825">
        <ele>2732.6799999999998</ele>
        <time>2018-09-09T07:19:29Z</time>
      </trkpt>
      <trkpt lat="46.18755835108459" lon="10.898823402822018">
        <ele>2732.6799999999998</ele>
        <time>2018-09-09T07:19:40Z</time>
      </trkpt>
      <trkpt lat="46.187605038285255" lon="10.898836646229029">
        <ele>2732.6799999999998</ele>
        <time>2018-09-09T07:19:59Z</time>
      </trkpt>
      <trkpt lat="46.187622724100947" lon="10.898759448900819">
        <ele>2732.6799999999998</ele>
        <time>2018-09-09T07:20:11Z</time>
      </trkpt>
      <trkpt lat="46.1876130849123" lon="10.898715276271105">
        <ele>2731.2399999999998</ele>
        <time>2018-09-09T07:20:21Z</time>
      </trkpt>
      <trkpt lat="46.187628675252199" lon="10.898761712014675">
        <ele>2730.7600000000002</ele>
        <time>2018-09-09T07:20:33Z</time>
      </trkpt>
      <trkpt lat="46.187652563676238" lon="10.898699685931206">
        <ele>2728.8400000000001</ele>
        <time>2018-09-09T07:20:43Z</time>
      </trkpt>
      <trkpt lat="46.18769958615303" lon="10.898739583790302">
        <ele>2728.3600000000001</ele>
        <time>2018-09-09T07:20:53Z</time>
      </trkpt>
      <trkpt lat="46.18771375156939" lon="10.898680742830038">
        <ele>2726.9200000000001</ele>
        <time>2018-09-09T07:21:05Z</time>
      </trkpt>
      <trkpt lat="46.187752895057201" lon="10.898659201338887">
        <ele>2724.9899999999998</ele>
        <time>2018-09-09T07:21:17Z</time>
      </trkpt>
      <trkpt lat="46.187788853421807" lon="10.898636486381292">
        <ele>2723.5500000000002</ele>
        <time>2018-09-09T07:21:29Z</time>
      </trkpt>
      <trkpt lat="46.18785347789526" lon="10.898595163598657">
        <ele>2721.6300000000001</ele>
        <time>2018-09-09T07:21:41Z</time>
      </trkpt>
      <trkpt lat="46.187911564484239" lon="10.898613268509507">
        <ele>2719.71</ele>
        <time>2018-09-09T07:21:51Z</time>
      </trkpt>
      <trkpt lat="46.187958586961031" lon="10.898624584078789">
        <ele>2718.75</ele>
        <time>2018-09-09T07:22:02Z</time>
      </trkpt>
      <trkpt lat="46.187998568639159" lon="10.898570185527205">
        <ele>2717.3000000000002</ele>
        <time>2018-09-09T07:22:13Z</time>
      </trkpt>
      <trkpt lat="46.188050620257854" lon="10.898528192192316">
        <ele>2715.3800000000001</ele>
        <time>2018-09-09T07:22:25Z</time>
      </trkpt>
      <trkpt lat="46.188062354922295" lon="10.898603042587638">
        <ele>2717.3000000000002</ele>
        <time>2018-09-09T07:22:35Z</time>
      </trkpt>
      <trkpt lat="46.188103761523962" lon="10.898658530786633">
        <ele>2719.71</ele>
        <time>2018-09-09T07:22:47Z</time>
      </trkpt>
      <trkpt lat="46.188132679089904" lon="10.89870722964406">
        <ele>2720.1900000000001</ele>
        <time>2018-09-09T07:23:00Z</time>
      </trkpt>
      <trkpt lat="46.188147515058517" lon="10.898709408938885">
        <ele>2720.6700000000001</ele>
        <time>2018-09-09T07:23:09Z</time>
      </trkpt>
      <trkpt lat="46.188129661604762" lon="10.898768082261086">
        <ele>2722.1100000000001</ele>
        <time>2018-09-09T07:23:21Z</time>
      </trkpt>
      <trkpt lat="46.188185233622789" lon="10.898772021755576">
        <ele>2722.5900000000001</ele>
        <time>2018-09-09T07:23:32Z</time>
      </trkpt>
      <trkpt lat="46.188215743750334" lon="10.898785097524524">
        <ele>2721.6300000000001</ele>
        <time>2018-09-09T07:23:41Z</time>
      </trkpt>
      <trkpt lat="46.188303250819445" lon="10.898846201598644">
        <ele>2721.6300000000001</ele>
        <time>2018-09-09T07:23:54Z</time>
      </trkpt>
      <trkpt lat="46.188316913321614" lon="10.898854499682784">
        <ele>2721.1500000000001</ele>
        <time>2018-09-09T07:24:03Z</time>
      </trkpt>
      <trkpt lat="46.188388494774699" lon="10.898933541029692">
        <ele>2722.1100000000001</ele>
        <time>2018-09-09T07:24:14Z</time>
      </trkpt>
      <trkpt lat="46.188412802293897" lon="10.899023814126849">
        <ele>2723.0700000000002</ele>
        <time>2018-09-09T07:24:25Z</time>
      </trkpt>
      <trkpt lat="46.188471391797066" lon="10.899097071960568">
        <ele>2723.5500000000002</ele>
        <time>2018-09-09T07:24:36Z</time>
      </trkpt>
      <trkpt lat="46.188517240807414" lon="10.899209138005972">
        <ele>2724.0300000000002</ele>
        <time>2018-09-09T07:24:48Z</time>
      </trkpt>
      <trkpt lat="46.188555294647813" lon="10.899301590397954">
        <ele>2725.48</ele>
        <time>2018-09-09T07:25:00Z</time>
      </trkpt>
      <trkpt lat="46.188587648794055" lon="10.899378284811974">
        <ele>2726.4400000000001</ele>
        <time>2018-09-09T07:25:10Z</time>
      </trkpt>
      <trkpt lat="46.188625199720263" lon="10.899454979225993">
        <ele>2725.96</ele>
        <time>2018-09-09T07:25:20Z</time>
      </trkpt>
      <trkpt lat="46.188643639907241" lon="10.899551035836339">
        <ele>2727.4000000000001</ele>
        <time>2018-09-09T07:25:31Z</time>
      </trkpt>
      <trkpt lat="46.188651267439127" lon="10.899620354175568">
        <ele>2728.8400000000001</ele>
        <time>2018-09-09T07:25:42Z</time>
      </trkpt>
      <trkpt lat="46.188650093972683" lon="10.89972261339426">
        <ele>2730.7600000000002</ele>
        <time>2018-09-09T07:25:56Z</time>
      </trkpt>
      <trkpt lat="46.188651015982032" lon="10.899776676669717">
        <ele>2732.1999999999998</ele>
        <time>2018-09-09T07:26:07Z</time>
      </trkpt>
      <trkpt lat="46.188642466440797" lon="10.899838702753186">
        <ele>2733.1700000000001</ele>
        <time>2018-09-09T07:26:19Z</time>
      </trkpt>
      <trkpt lat="46.1886543687433" lon="10.899927550926805">
        <ele>2734.6100000000001</ele>
        <time>2018-09-09T07:26:32Z</time>
      </trkpt>
      <trkpt lat="46.188654033467174" lon="10.900033665820956">
        <ele>2736.5300000000002</ele>
        <time>2018-09-09T07:26:46Z</time>
      </trkpt>
      <trkpt lat="46.188604412600398" lon="10.900023858994246">
        <ele>2737.9699999999998</ele>
        <time>2018-09-09T07:26:57Z</time>
      </trkpt>
      <trkpt lat="46.188624026253819" lon="10.900082364678383">
        <ele>2738.9299999999998</ele>
        <time>2018-09-09T07:27:08Z</time>
      </trkpt>
      <trkpt lat="46.188619248569012" lon="10.90007540769875">
        <ele>2738.9299999999998</ele>
        <time>2018-09-09T07:27:23Z</time>
      </trkpt>
      <trkpt lat="46.188630312681198" lon="10.900104828178883">
        <ele>2739.4099999999999</ele>
        <time>2018-09-09T07:27:32Z</time>
      </trkpt>
      <trkpt lat="46.188628049567342" lon="10.900097787380219">
        <ele>2738.9299999999998</ele>
        <time>2018-09-09T07:27:33Z</time>
      </trkpt>
      <trkpt lat="46.188614387065172" lon="10.900093847885728">
        <ele>2738.4499999999998</ele>
        <time>2018-09-09T07:27:46Z</time>
      </trkpt>
      <trkpt lat="46.188611453399062" lon="10.900089908391237">
        <ele>2738.4499999999998</ele>
        <time>2018-09-09T07:28:02Z</time>
      </trkpt>
      <trkpt lat="46.188586978241801" lon="10.900104911997914">
        <ele>2738.4499999999998</ele>
        <time>2018-09-09T07:28:10Z</time>
      </trkpt>
      <trkpt lat="46.188597623258829" lon="10.900104492902756">
        <ele>2738.9299999999998</ele>
        <time>2018-09-09T07:28:16Z</time>
      </trkpt>
      <trkpt lat="46.188587816432118" lon="10.90011740103364">
        <ele>2739.4099999999999</ele>
        <time>2018-09-09T07:28:34Z</time>
      </trkpt>
      <trkpt lat="46.188611453399062" lon="10.900102145969868">
        <ele>2739.4099999999999</ele>
        <time>2018-09-09T07:28:47Z</time>
      </trkpt>
      <trkpt lat="46.188595946878195" lon="10.900086639449">
        <ele>2738.9299999999998</ele>
        <time>2018-09-09T07:29:02Z</time>
      </trkpt>
      <trkpt lat="46.188592510297894" lon="10.900097452104092">
        <ele>2738.9299999999998</ele>
        <time>2018-09-09T07:29:16Z</time>
      </trkpt>
      <trkpt lat="46.188597120344639" lon="10.900125112384558">
        <ele>2739.4099999999999</ele>
        <time>2018-09-09T07:29:39Z</time>
      </trkpt>
      <trkpt lat="46.188604915514588" lon="10.900117484852672">
        <ele>2739.4099999999999</ele>
        <time>2018-09-09T07:29:57Z</time>
      </trkpt>
      <trkpt lat="46.188632994890213" lon="10.900106923654675">
        <ele>2739.4099999999999</ele>
        <time>2018-09-09T07:30:19Z</time>
      </trkpt>
      <trkpt lat="46.188638191670179" lon="10.900144809857011">
        <ele>2739.8899999999999</ele>
        <time>2018-09-09T07:30:35Z</time>
      </trkpt>
      <trkpt lat="46.188635090366006" lon="10.900226114317775">
        <ele>2740.8600000000001</ele>
        <time>2018-09-09T07:30:47Z</time>
      </trkpt>
      <trkpt lat="46.188642801716924" lon="10.900321500375867">
        <ele>2742.3000000000002</ele>
        <time>2018-09-09T07:30:59Z</time>
      </trkpt>
      <trkpt lat="46.188620422035456" lon="10.900393836200237">
        <ele>2744.2199999999998</ele>
        <time>2018-09-09T07:31:13Z</time>
      </trkpt>
      <trkpt lat="46.188578344881535" lon="10.900457035750151">
        <ele>2746.6199999999999</ele>
        <time>2018-09-09T07:31:27Z</time>
      </trkpt>
      <trkpt lat="46.188544649630785" lon="10.900521241128445">
        <ele>2748.5500000000002</ele>
        <time>2018-09-09T07:31:40Z</time>
      </trkpt>
      <trkpt lat="46.188545487821102" lon="10.90057966299355">
        <ele>2750.4699999999998</ele>
        <time>2018-09-09T07:31:52Z</time>
      </trkpt>
      <trkpt lat="46.188538447022438" lon="10.900661302730441">
        <ele>2752.3899999999999</ele>
        <time>2018-09-09T07:32:06Z</time>
      </trkpt>
      <trkpt lat="46.188525874167681" lon="10.90074822306633">
        <ele>2754.3099999999999</ele>
        <time>2018-09-09T07:32:21Z</time>
      </trkpt>
      <trkpt lat="46.188505254685879" lon="10.900772446766496">
        <ele>2756.2399999999998</ele>
        <time>2018-09-09T07:32:34Z</time>
      </trkpt>
      <trkpt lat="46.18844230659306" lon="10.900813518092036">
        <ele>2758.1599999999999</ele>
        <time>2018-09-09T07:32:49Z</time>
      </trkpt>
      <trkpt lat="46.188426800072193" lon="10.900851991027594">
        <ele>2759.5999999999999</ele>
        <time>2018-09-09T07:33:00Z</time>
      </trkpt>
      <trkpt lat="46.188434595242143" lon="10.900874957442284">
        <ele>2761.52</ele>
        <time>2018-09-09T07:33:14Z</time>
      </trkpt>
      <trkpt lat="46.188444988802075" lon="10.900890631601214">
        <ele>2763.4499999999998</ele>
        <time>2018-09-09T07:33:28Z</time>
      </trkpt>
      <trkpt lat="46.188448509201407" lon="10.900987610220909">
        <ele>2765.3699999999999</ele>
        <time>2018-09-09T07:33:43Z</time>
      </trkpt>
      <trkpt lat="46.18844423443079" lon="10.901062376797199">
        <ele>2767.29</ele>
        <time>2018-09-09T07:33:59Z</time>
      </trkpt>
      <trkpt lat="46.188412047922611" lon="10.901153152808547">
        <ele>2769.21</ele>
        <time>2018-09-09T07:34:12Z</time>
      </trkpt>
      <trkpt lat="46.188421016559005" lon="10.901186009868979">
        <ele>2769.6999999999998</ele>
        <time>2018-09-09T07:34:25Z</time>
      </trkpt>
      <trkpt lat="46.18846477009356" lon="10.901208221912384">
        <ele>2769.21</ele>
        <time>2018-09-09T07:34:43Z</time>
      </trkpt>
      <trkpt lat="46.188457813113928" lon="10.90130084194243">
        <ele>2769.6999999999998</ele>
        <time>2018-09-09T07:34:52Z</time>
      </trkpt>
      <trkpt lat="46.188444821164012" lon="10.901399161666632">
        <ele>2772.0999999999999</ele>
        <time>2018-09-09T07:35:05Z</time>
      </trkpt>
      <trkpt lat="46.18841540068388" lon="10.901456996798515">
        <ele>2773.54</ele>
        <time>2018-09-09T07:35:15Z</time>
      </trkpt>
      <trkpt lat="46.188374329358339" lon="10.901533775031567">
        <ele>2776.4200000000001</ele>
        <time>2018-09-09T07:35:28Z</time>
      </trkpt>
      <trkpt lat="46.188345579430461" lon="10.901587167754769">
        <ele>2777.8699999999999</ele>
        <time>2018-09-09T07:35:39Z</time>
      </trkpt>
      <trkpt lat="46.188328312709928" lon="10.901643577963114">
        <ele>2780.27</ele>
        <time>2018-09-09T07:35:51Z</time>
      </trkpt>
      <trkpt lat="46.188319763168693" lon="10.901741478592157">
        <ele>2781.71</ele>
        <time>2018-09-09T07:36:08Z</time>
      </trkpt>
      <trkpt lat="46.188324373215437" lon="10.901801325380802">
        <ele>2783.6300000000001</ele>
        <time>2018-09-09T07:36:20Z</time>
      </trkpt>
      <trkpt lat="46.188341556116939" lon="10.901893777772784">
        <ele>2784.1199999999999</ele>
        <time>2018-09-09T07:36:33Z</time>
      </trkpt>
      <trkpt lat="46.188378101214767" lon="10.90198346413672">
        <ele>2784.1199999999999</ele>
        <time>2018-09-09T07:36:44Z</time>
      </trkpt>
      <trkpt lat="46.188393607735634" lon="10.902087315917015">
        <ele>2785.5599999999999</ele>
        <time>2018-09-09T07:36:57Z</time>
      </trkpt>
      <trkpt lat="46.188447335734963" lon="10.902219414710999">
        <ele>2786.52</ele>
        <time>2018-09-09T07:37:10Z</time>
      </trkpt>
      <trkpt lat="46.188428727909923" lon="10.90231865644455">
        <ele>2788.4400000000001</ele>
        <time>2018-09-09T07:37:24Z</time>
      </trkpt>
      <trkpt lat="46.188440546393394" lon="10.902428040280938">
        <ele>2790.8400000000001</ele>
        <time>2018-09-09T07:37:39Z</time>
      </trkpt>
      <trkpt lat="46.188417915254831" lon="10.902472967281938">
        <ele>2792.29</ele>
        <time>2018-09-09T07:37:51Z</time>
      </trkpt>
      <trkpt lat="46.188421435654163" lon="10.902554774656892">
        <ele>2791.3299999999999</ele>
        <time>2018-09-09T07:38:02Z</time>
      </trkpt>
      <trkpt lat="46.188434176146984" lon="10.902445558458567">
        <ele>2789.8800000000001</ele>
        <time>2018-09-09T07:38:12Z</time>
      </trkpt>
      <trkpt lat="46.188460160046816" lon="10.902500376105309">
        <ele>2787.96</ele>
        <time>2018-09-09T07:38:21Z</time>
      </trkpt>
      <trkpt lat="46.188467284664512" lon="10.902585620060563">
        <ele>2788.4400000000001</ele>
        <time>2018-09-09T07:38:34Z</time>
      </trkpt>
      <trkpt lat="46.188417077064514" lon="10.902631301432848">
        <ele>2787.96</ele>
        <time>2018-09-09T07:38:44Z</time>
      </trkpt>
      <trkpt lat="46.188393272459507" lon="10.902619147673249">
        <ele>2787.96</ele>
        <time>2018-09-09T07:38:55Z</time>
      </trkpt>
      <trkpt lat="46.188422525301576" lon="10.902610262855887">
        <ele>2787.96</ele>
        <time>2018-09-09T07:39:07Z</time>
      </trkpt>
      <trkpt lat="46.188468374311924" lon="10.902600372210145">
        <ele>2787.48</ele>
        <time>2018-09-09T07:39:20Z</time>
      </trkpt>
      <trkpt lat="46.188487401232123" lon="10.902687627822161">
        <ele>2789.4000000000001</ele>
        <time>2018-09-09T07:39:31Z</time>
      </trkpt>
      <trkpt lat="46.188555881381035" lon="10.902765328064561">
        <ele>2789.4000000000001</ele>
        <time>2018-09-09T07:39:46Z</time>
      </trkpt>
      <trkpt lat="46.188574153929949" lon="10.902835736051202">
        <ele>2791.8099999999999</ele>
        <time>2018-09-09T07:39:57Z</time>
      </trkpt>
      <trkpt lat="46.188575495034456" lon="10.902794077992439">
        <ele>2791.8099999999999</ele>
        <time>2018-09-09T07:40:11Z</time>
      </trkpt>
      <trkpt lat="46.18858739733696" lon="10.902787707746029">
        <ele>2792.29</ele>
        <time>2018-09-09T07:40:24Z</time>
      </trkpt>
      <trkpt lat="46.18858982808888" lon="10.902800699695945">
        <ele>2793.25</ele>
        <time>2018-09-09T07:40:37Z</time>
      </trkpt>
      <trkpt lat="46.188595527783036" lon="10.902797766029835">
        <ele>2793.25</ele>
        <time>2018-09-09T07:40:39Z</time>
      </trkpt>
      <trkpt lat="46.188613381236792" lon="10.902811260893941">
        <ele>2795.1700000000001</ele>
        <time>2018-09-09T07:40:51Z</time>
      </trkpt>
      <trkpt lat="46.188631067052484" lon="10.902819978073239">
        <ele>2796.6100000000001</ele>
        <time>2018-09-09T07:41:03Z</time>
      </trkpt>
      <trkpt lat="46.188641292974353" lon="10.90284344740212">
        <ele>2798.54</ele>
        <time>2018-09-09T07:41:18Z</time>
      </trkpt>
      <trkpt lat="46.188691081479192" lon="10.902839759364724">
        <ele>2800.46</ele>
        <time>2018-09-09T07:41:29Z</time>
      </trkpt>
      <trkpt lat="46.18873743340373" lon="10.902902539819479">
        <ele>2801.4200000000001</ele>
        <time>2018-09-09T07:41:41Z</time>
      </trkpt>
      <trkpt lat="46.188697619363666" lon="10.902878902852535">
        <ele>2800.9400000000001</ele>
        <time>2018-09-09T07:42:03Z</time>
      </trkpt>
      <trkpt lat="46.188733326271176" lon="10.902942689135671">
        <ele>2800.9400000000001</ele>
        <time>2018-09-09T07:42:22Z</time>
      </trkpt>
      <trkpt lat="46.188787976279855" lon="10.902915950864553">
        <ele>2802.3800000000001</ele>
        <time>2018-09-09T07:42:38Z</time>
      </trkpt>
      <trkpt lat="46.188766350969672" lon="10.902906563133001">
        <ele>2800.9400000000001</ele>
        <time>2018-09-09T07:42:57Z</time>
      </trkpt>
      <trkpt lat="46.188767775893211" lon="10.902892732992768">
        <ele>2800.46</ele>
        <time>2018-09-09T07:43:12Z</time>
      </trkpt>
      <trkpt lat="46.188735505566001" lon="10.902946293354034">
        <ele>2800.46</ele>
        <time>2018-09-09T07:43:30Z</time>
      </trkpt>
      <trkpt lat="46.188845224678516" lon="10.902926595881581">
        <ele>2800.9400000000001</ele>
        <time>2018-09-09T07:43:51Z</time>
      </trkpt>
      <trkpt lat="46.188783282414079" lon="10.90292751789093">
        <ele>2800.9400000000001</ele>
        <time>2018-09-09T07:44:10Z</time>
      </trkpt>
      <trkpt lat="46.188713880255818" lon="10.902929194271564">
        <ele>2800.9400000000001</ele>
        <time>2018-09-09T07:44:33Z</time>
      </trkpt>
      <trkpt lat="46.188823515549302" lon="10.902958866208792">
        <ele>2800.9400000000001</ele>
        <time>2018-09-09T07:44:52Z</time>
      </trkpt>
      <trkpt lat="46.188703486695886" lon="10.903025502339005">
        <ele>2800.9400000000001</ele>
        <time>2018-09-09T07:45:17Z</time>
      </trkpt>
      <trkpt lat="46.188660655170679" lon="10.903092892840505">
        <ele>2802.3800000000001</ele>
        <time>2018-09-09T07:45:31Z</time>
      </trkpt>
      <trkpt lat="46.188650177791715" lon="10.903124744072556">
        <ele>2804.7800000000002</ele>
        <time>2018-09-09T07:45:46Z</time>
      </trkpt>
      <trkpt lat="46.188620086759329" lon="10.903230691328645">
        <ele>2807.1900000000001</ele>
        <time>2018-09-09T07:46:02Z</time>
      </trkpt>
      <trkpt lat="46.188632408156991" lon="10.903299758210778">
        <ele>2810.0700000000002</ele>
        <time>2018-09-09T07:46:18Z</time>
      </trkpt>
      <trkpt lat="46.188608100637794" lon="10.903345104306936">
        <ele>2811.9899999999998</ele>
        <time>2018-09-09T07:46:31Z</time>
      </trkpt>
      <trkpt lat="46.188592510297894" lon="10.903359521180391">
        <ele>2815.3600000000001</ele>
        <time>2018-09-09T07:46:40Z</time>
      </trkpt>
      <trkpt lat="46.188615057617426" lon="10.903393803164363">
        <ele>2816.3200000000002</ele>
        <time>2018-09-09T07:46:54Z</time>
      </trkpt>
      <trkpt lat="46.188690075650811" lon="10.903386846184731">
        <ele>2816.8000000000002</ele>
        <time>2018-09-09T07:47:03Z</time>
      </trkpt>
      <trkpt lat="46.188705833628774" lon="10.903452727943659">
        <ele>2817.7600000000002</ele>
        <time>2018-09-09T07:47:15Z</time>
      </trkpt>
      <trkpt lat="46.188778337091208" lon="10.903514418751001">
        <ele>2820.1599999999999</ele>
        <time>2018-09-09T07:47:31Z</time>
      </trkpt>
      <trkpt lat="46.188782276585698" lon="10.903501762077212">
        <ele>2820.6500000000001</ele>
        <time>2018-09-09T07:47:43Z</time>
      </trkpt>
      <trkpt lat="46.188753778114915" lon="10.903566051274538">
        <ele>2823.0500000000002</ele>
        <time>2018-09-09T07:47:56Z</time>
      </trkpt>
      <trkpt lat="46.18865336291492" lon="10.903588263317943">
        <ele>2824.9699999999998</ele>
        <time>2018-09-09T07:48:10Z</time>
      </trkpt>
      <trkpt lat="46.18861866183579" lon="10.903609804809093">
        <ele>2826.8899999999999</ele>
        <time>2018-09-09T07:48:24Z</time>
      </trkpt>
      <trkpt lat="46.188634922727942" lon="10.903580551967025">
        <ele>2827.8499999999999</ele>
        <time>2018-09-09T07:48:34Z</time>
      </trkpt>
      <trkpt lat="46.188686890527606" lon="10.903626149520278">
        <ele>2828.8200000000002</ele>
        <time>2018-09-09T07:48:45Z</time>
      </trkpt>
      <trkpt lat="46.18861572816968" lon="10.903659844771028">
        <ele>2829.7800000000002</ele>
        <time>2018-09-09T07:48:57Z</time>
      </trkpt>
      <trkpt lat="46.188629390671849" lon="10.903745675459504">
        <ele>2831.6999999999998</ele>
        <time>2018-09-09T07:49:10Z</time>
      </trkpt>
      <trkpt lat="46.18860156275332" lon="10.903772246092558">
        <ele>2832.1799999999998</ele>
        <time>2018-09-09T07:49:23Z</time>
      </trkpt>
      <trkpt lat="46.188598461449146" lon="10.90378163382411">
        <ele>2832.1799999999998</ele>
        <time>2018-09-09T07:49:43Z</time>
      </trkpt>
      <trkpt lat="46.18858546949923" lon="10.90376746840775">
        <ele>2832.1799999999998</ele>
        <time>2018-09-09T07:50:03Z</time>
      </trkpt>
      <trkpt lat="46.188596785068512" lon="10.903733437880874">
        <ele>2831.6999999999998</ele>
        <time>2018-09-09T07:50:24Z</time>
      </trkpt>
      <trkpt lat="46.188600976020098" lon="10.903737545013428">
        <ele>2832.1799999999998</ele>
        <time>2018-09-09T07:50:44Z</time>
      </trkpt>
      <trkpt lat="46.188600054010749" lon="10.903739640489221">
        <ele>2832.1799999999998</ele>
        <time>2018-09-09T07:51:06Z</time>
      </trkpt>
      <trkpt lat="46.188586642965674" lon="10.90373327024281">
        <ele>2831.6999999999998</ele>
        <time>2018-09-09T07:51:22Z</time>
      </trkpt>
      <trkpt lat="46.188617404550314" lon="10.903737880289555">
        <ele>2831.6999999999998</ele>
        <time>2018-09-09T07:51:36Z</time>
      </trkpt>
      <trkpt lat="46.188623858615756" lon="10.903722289949656">
        <ele>2832.1799999999998</ele>
        <time>2018-09-09T07:51:49Z</time>
      </trkpt>
      <trkpt lat="46.188637772575021" lon="10.90372103266418">
        <ele>2831.6999999999998</ele>
        <time>2018-09-09T07:52:04Z</time>
      </trkpt>
      <trkpt lat="46.188628720119596" lon="10.903726648539305">
        <ele>2832.1799999999998</ele>
        <time>2018-09-09T07:52:20Z</time>
      </trkpt>
      <trkpt lat="46.188613129779696" lon="10.903775850310922">
        <ele>2832.1799999999998</ele>
        <time>2018-09-09T07:52:33Z</time>
      </trkpt>
      <trkpt lat="46.188590917736292" lon="10.903845001012087">
        <ele>2833.1399999999999</ele>
        <time>2018-09-09T07:52:45Z</time>
      </trkpt>
      <trkpt lat="46.188597204163671" lon="10.903977854177356">
        <ele>2833.6199999999999</ele>
        <time>2018-09-09T07:52:57Z</time>
      </trkpt>
      <trkpt lat="46.188598796725273" lon="10.903987912461162">
        <ele>2833.6199999999999</ele>
        <time>2018-09-09T07:52:58Z</time>
      </trkpt>
      <trkpt lat="46.18860692717135" lon="10.904093775898218">
        <ele>2835.0599999999999</ele>
        <time>2018-09-09T07:53:08Z</time>
      </trkpt>
      <trkpt lat="46.188661493360996" lon="10.904086735099554">
        <ele>2835.5500000000002</ele>
        <time>2018-09-09T07:53:20Z</time>
      </trkpt>
      <trkpt lat="46.188643891364336" lon="10.904155466705561">
        <ele>2834.5799999999999</ele>
        <time>2018-09-09T07:53:36Z</time>
      </trkpt>
      <trkpt lat="46.188615309074521" lon="10.904309609904885">
        <ele>2836.0300000000002</ele>
        <time>2018-09-09T07:53:49Z</time>
      </trkpt>
      <trkpt lat="46.1885766685009" lon="10.904413713142276">
        <ele>2838.9099999999999</ele>
        <time>2018-09-09T07:54:02Z</time>
      </trkpt>
      <trkpt lat="46.188526125624776" lon="10.904475320130587">
        <ele>2841.79</ele>
        <time>2018-09-09T07:54:15Z</time>
      </trkpt>
      <trkpt lat="46.188474660739303" lon="10.904557462781668">
        <ele>2844.1999999999998</ele>
        <time>2018-09-09T07:54:29Z</time>
      </trkpt>
      <trkpt lat="46.188506511971354" lon="10.904629463329911">
        <ele>2845.6399999999999</ele>
        <time>2018-09-09T07:54:39Z</time>
      </trkpt>
      <trkpt lat="46.188513888046145" lon="10.904690651223063">
        <ele>2847.0799999999999</ele>
        <time>2018-09-09T07:54:50Z</time>
      </trkpt>
      <trkpt lat="46.188526377081871" lon="10.904774134978652">
        <ele>2848.04</ele>
        <time>2018-09-09T07:55:00Z</time>
      </trkpt>
      <trkpt lat="46.188535680994391" lon="10.90482241474092">
        <ele>2849</ele>
        <time>2018-09-09T07:55:11Z</time>
      </trkpt>
      <trkpt lat="46.188543140888214" lon="10.904859714210033">
        <ele>2851.4099999999999</ele>
        <time>2018-09-09T07:55:25Z</time>
      </trkpt>
      <trkpt lat="46.188568286597729" lon="10.904859211295843">
        <ele>2851.8899999999999</ele>
        <time>2018-09-09T07:55:35Z</time>
      </trkpt>
      <trkpt lat="46.188608519732952" lon="10.904882177710533">
        <ele>2851.8899999999999</ele>
        <time>2018-09-09T07:55:48Z</time>
      </trkpt>
      <trkpt lat="46.18856443092227" lon="10.90487128123641">
        <ele>2850.9299999999998</ele>
        <time>2018-09-09T07:55:58Z</time>
      </trkpt>
      <trkpt lat="46.188571974635124" lon="10.904871197417378">
        <ele>2850.9299999999998</ele>
        <time>2018-09-09T07:56:19Z</time>
      </trkpt>
      <trkpt lat="46.188570884987712" lon="10.904894331470132">
        <ele>2852.3699999999999</ele>
        <time>2018-09-09T07:56:46Z</time>
      </trkpt>
      <trkpt lat="46.188568538054824" lon="10.904895337298512">
        <ele>2850.9299999999998</ele>
        <time>2018-09-09T07:57:08Z</time>
      </trkpt>
      <trkpt lat="46.188592677935958" lon="10.904871700331569">
        <ele>2851.8899999999999</ele>
        <time>2018-09-09T07:57:31Z</time>
      </trkpt>
      <trkpt lat="46.188581027090549" lon="10.904875304549932">
        <ele>2852.3699999999999</ele>
        <time>2018-09-09T07:57:41Z</time>
      </trkpt>
      <trkpt lat="46.188585553318262" lon="10.904871867969632">
        <ele>2852.3699999999999</ele>
        <time>2018-09-09T07:58:00Z</time>
      </trkpt>
      <trkpt lat="46.188561748713255" lon="10.90485610999167">
        <ele>2852.3699999999999</ele>
        <time>2018-09-09T07:58:21Z</time>
      </trkpt>
      <trkpt lat="46.188600808382034" lon="10.904882429167628">
        <ele>2853.3299999999999</ele>
        <time>2018-09-09T07:58:32Z</time>
      </trkpt>
      <trkpt lat="46.188617236912251" lon="10.904852338135242">
        <ele>2852.3699999999999</ele>
        <time>2018-09-09T07:58:41Z</time>
      </trkpt>
      <trkpt lat="46.188612040132284" lon="10.90487957932055">
        <ele>2853.8099999999999</ele>
        <time>2018-09-09T07:58:53Z</time>
      </trkpt>
      <trkpt lat="46.188606088981032" lon="10.904872538521886">
        <ele>2855.25</ele>
        <time>2018-09-09T07:59:05Z</time>
      </trkpt>
      <trkpt lat="46.18858153000474" lon="10.904940515756607">
        <ele>2856.6900000000001</ele>
        <time>2018-09-09T07:59:17Z</time>
      </trkpt>
      <trkpt lat="46.188589157536626" lon="10.905013186857104">
        <ele>2857.1799999999998</ele>
        <time>2018-09-09T07:59:31Z</time>
      </trkpt>
      <trkpt lat="46.188596282154322" lon="10.904984688386321">
        <ele>2857.6599999999999</ele>
        <time>2018-09-09T07:59:46Z</time>
      </trkpt>
      <trkpt lat="46.188596282154322" lon="10.904951579868793">
        <ele>2858.6199999999999</ele>
        <time>2018-09-09T07:59:56Z</time>
      </trkpt>
      <trkpt lat="46.188617572188377" lon="10.904949819669127">
        <ele>2859.5799999999999</ele>
        <time>2018-09-09T08:00:09Z</time>
      </trkpt>
      <trkpt lat="46.188639784231782" lon="10.904940431937575">
        <ele>2859.5799999999999</ele>
        <time>2018-09-09T08:00:23Z</time>
      </trkpt>
      <trkpt lat="46.188663337379694" lon="10.904988208785653">
        <ele>2861.5</ele>
        <time>2018-09-09T08:00:33Z</time>
      </trkpt>
      <trkpt lat="46.188675910234451" lon="10.904995417222381">
        <ele>2862.9400000000001</ele>
        <time>2018-09-09T08:00:43Z</time>
      </trkpt>
      <trkpt lat="46.188692841678858" lon="10.905042942613363">
        <ele>2864.3899999999999</ele>
        <time>2018-09-09T08:00:54Z</time>
      </trkpt>
      <trkpt lat="46.188709270209074" lon="10.905135730281472">
        <ele>2864.8699999999999</ele>
        <time>2018-09-09T08:01:07Z</time>
      </trkpt>
      <trkpt lat="46.18874036706984" lon="10.905216699466109">
        <ele>2865.3499999999999</ele>
        <time>2018-09-09T08:01:18Z</time>
      </trkpt>
      <trkpt lat="46.188744809478521" lon="10.905298758298159">
        <ele>2866.3099999999999</ele>
        <time>2018-09-09T08:01:28Z</time>
      </trkpt>
      <trkpt lat="46.188753945752978" lon="10.905336560681462">
        <ele>2866.79</ele>
        <time>2018-09-09T08:01:32Z</time>
      </trkpt>
      <trkpt lat="46.18875939399004" lon="10.905474191531539">
        <ele>2867.75</ele>
        <time>2018-09-09T08:01:46Z</time>
      </trkpt>
      <trkpt lat="46.188750509172678" lon="10.905479891225696">
        <ele>2868.71</ele>
        <time>2018-09-09T08:01:58Z</time>
      </trkpt>
      <trkpt lat="46.18878579698503" lon="10.905499001964927">
        <ele>2868.71</ele>
        <time>2018-09-09T08:02:13Z</time>
      </trkpt>
      <trkpt lat="46.188866933807731" lon="10.905532613396645">
        <ele>2867.75</ele>
        <time>2018-09-09T08:02:25Z</time>
      </trkpt>
      <trkpt lat="46.188960559666157" lon="10.905599165707827">
        <ele>2867.75</ele>
        <time>2018-09-09T08:02:39Z</time>
      </trkpt>
      <trkpt lat="46.188978832215071" lon="10.905692875385284">
        <ele>2869.1900000000001</ele>
        <time>2018-09-09T08:02:51Z</time>
      </trkpt>
      <trkpt lat="46.189014539122581" lon="10.905777616426349">
        <ele>2869.6700000000001</ele>
        <time>2018-09-09T08:03:03Z</time>
      </trkpt>
      <trkpt lat="46.189075475558639" lon="10.905812568962574">
        <ele>2867.75</ele>
        <time>2018-09-09T08:03:14Z</time>
      </trkpt>
      <trkpt lat="46.18913859128952" lon="10.905875433236361">
        <ele>2865.8299999999999</ele>
        <time>2018-09-09T08:03:25Z</time>
      </trkpt>
      <trkpt lat="46.189144626259804" lon="10.905915917828679">
        <ele>2865.8299999999999</ele>
        <time>2018-09-09T08:03:37Z</time>
      </trkpt>
      <trkpt lat="46.189115373417735" lon="10.905918097123504">
        <ele>2865.8299999999999</ele>
        <time>2018-09-09T08:03:52Z</time>
      </trkpt>
      <trkpt lat="46.189118307083845" lon="10.90592815540731">
        <ele>2865.8299999999999</ele>
        <time>2018-09-09T08:04:06Z</time>
      </trkpt>
      <trkpt lat="46.189108332619071" lon="10.905932933092117">
        <ele>2866.3099999999999</ele>
        <time>2018-09-09T08:04:24Z</time>
      </trkpt>
      <trkpt lat="46.189142195507884" lon="10.905929831787944">
        <ele>2865.3499999999999</ele>
        <time>2018-09-09T08:04:30Z</time>
      </trkpt>
      <trkpt lat="46.18920455686748" lon="10.905945003032684">
        <ele>2863.4200000000001</ele>
        <time>2018-09-09T08:04:40Z</time>
      </trkpt>
      <trkpt lat="46.189201371744275" lon="10.906013147905469">
        <ele>2864.3899999999999</ele>
        <time>2018-09-09T08:04:50Z</time>
      </trkpt>
      <trkpt lat="46.18927638977766" lon="10.905953636392951">
        <ele>2861.98</ele>
        <time>2018-09-09T08:05:01Z</time>
      </trkpt>
      <trkpt lat="46.189351659268141" lon="10.905901920050383">
        <ele>2861.02</ele>
        <time>2018-09-09T08:05:12Z</time>
      </trkpt>
      <trkpt lat="46.189453918486834" lon="10.90589152649045">
        <ele>2861.02</ele>
        <time>2018-09-09T08:05:22Z</time>
      </trkpt>
      <trkpt lat="46.189521560445428" lon="10.906034102663398">
        <ele>2861.02</ele>
        <time>2018-09-09T08:05:32Z</time>
      </trkpt>
      <trkpt lat="46.18960571475327" lon="10.905980877578259">
        <ele>2859.0999999999999</ele>
        <time>2018-09-09T08:05:42Z</time>
      </trkpt>
      <trkpt lat="46.18971954099834" lon="10.905957827344537">
        <ele>2855.73</ele>
        <time>2018-09-09T08:05:55Z</time>
      </trkpt>
      <trkpt lat="46.189792212098837" lon="10.905981631949544">
        <ele>2854.29</ele>
        <time>2018-09-09T08:06:06Z</time>
      </trkpt>
      <trkpt lat="46.189848370850086" lon="10.905924802646041">
        <ele>2852.8499999999999</ele>
        <time>2018-09-09T08:06:20Z</time>
      </trkpt>
      <trkpt lat="46.189935626462102" lon="10.905905272811651">
        <ele>2849.9699999999998</ele>
        <time>2018-09-09T08:06:33Z</time>
      </trkpt>
      <trkpt lat="46.190058337524533" lon="10.905771078541875">
        <ele>2849.48</ele>
        <time>2018-09-09T08:06:49Z</time>
      </trkpt>
      <trkpt lat="46.190100833773613" lon="10.905770407989621">
        <ele>2849.48</ele>
        <time>2018-09-09T08:06:59Z</time>
      </trkpt>
      <trkpt lat="46.190167972818017" lon="10.905918516218662">
        <ele>2848.04</ele>
        <time>2018-09-09T08:07:17Z</time>
      </trkpt>
      <trkpt lat="46.190028330311179" lon="10.905938716605306">
        <ele>2847.5599999999999</ele>
        <time>2018-09-09T08:07:31Z</time>
      </trkpt>
      <trkpt lat="46.190074933692813" lon="10.905810808762908">
        <ele>2848.04</ele>
        <time>2018-09-09T08:07:47Z</time>
      </trkpt>
      <trkpt lat="46.190118938684464" lon="10.90571123175323">
        <ele>2847.0799999999999</ele>
        <time>2018-09-09T08:07:59Z</time>
      </trkpt>
      <trkpt lat="46.190164033323526" lon="10.905749788507819">
        <ele>2845.1599999999999</ele>
        <time>2018-09-09T08:08:10Z</time>
      </trkpt>
      <trkpt lat="46.190204517915845" lon="10.905789854004979">
        <ele>2843.2399999999998</ele>
        <time>2018-09-09T08:08:24Z</time>
      </trkpt>
      <trkpt lat="46.190195884555578" lon="10.905949026346207">
        <ele>2842.2800000000002</ele>
        <time>2018-09-09T08:08:41Z</time>
      </trkpt>
      <trkpt lat="46.190173253417015" lon="10.905985152348876">
        <ele>2843.2399999999998</ele>
        <time>2018-09-09T08:08:52Z</time>
      </trkpt>
      <trkpt lat="46.190199572592974" lon="10.905901668593287">
        <ele>2843.2399999999998</ele>
        <time>2018-09-09T08:09:08Z</time>
      </trkpt>
      <trkpt lat="46.190276686102152" lon="10.905876187607646">
        <ele>2842.7600000000002</ele>
        <time>2018-09-09T08:09:21Z</time>
      </trkpt>
      <trkpt lat="46.190247349441051" lon="10.905841067433357">
        <ele>2842.7600000000002</ele>
        <time>2018-09-09T08:09:35Z</time>
      </trkpt>
      <trkpt lat="46.190259167924523" lon="10.905932346358895">
        <ele>2844.1999999999998</ele>
        <time>2018-09-09T08:09:55Z</time>
      </trkpt>
      <trkpt lat="46.190225724130869" lon="10.905871409922838">
        <ele>2845.1599999999999</ele>
        <time>2018-09-09T08:10:10Z</time>
      </trkpt>
      <trkpt lat="46.190195884555578" lon="10.905834194272757">
        <ele>2845.1599999999999</ele>
        <time>2018-09-09T08:10:26Z</time>
      </trkpt>
      <trkpt lat="46.190223796293139" lon="10.905829919502139">
        <ele>2846.5999999999999</ele>
        <time>2018-09-09T08:10:44Z</time>
      </trkpt>
      <trkpt lat="46.190237291157246" lon="10.905888257548213">
        <ele>2846.5999999999999</ele>
        <time>2018-09-09T08:10:58Z</time>
      </trkpt>
      <trkpt lat="46.190236369147897" lon="10.905858585610986">
        <ele>2846.5999999999999</ele>
        <time>2018-09-09T08:11:12Z</time>
      </trkpt>
      <trkpt lat="46.190237626433372" lon="10.905747273936868">
        <ele>2846.5999999999999</ele>
        <time>2018-09-09T08:11:38Z</time>
      </trkpt>
      <trkpt lat="46.190235866233706" lon="10.905852215364575">
        <ele>2846.5999999999999</ele>
        <time>2018-09-09T08:11:52Z</time>
      </trkpt>
      <trkpt lat="46.190218599513173" lon="10.905866045504808">
        <ele>2847.0799999999999</ele>
        <time>2018-09-09T08:12:02Z</time>
      </trkpt>
      <trkpt lat="46.19021113961935" lon="10.905878199264407">
        <ele>2847.0799999999999</ele>
        <time>2018-09-09T08:12:22Z</time>
      </trkpt>
      <trkpt lat="46.190209127962589" lon="10.90588272549212">
        <ele>2847.0799999999999</ele>
        <time>2018-09-09T08:12:41Z</time>
      </trkpt>
      <trkpt lat="46.190209547057748" lon="10.905865961685777">
        <ele>2847.0799999999999</ele>
        <time>2018-09-09T08:12:58Z</time>
      </trkpt>
      <trkpt lat="46.1902189347893" lon="10.905889514833689">
        <ele>2847.0799999999999</ele>
        <time>2018-09-09T08:13:17Z</time>
      </trkpt>
      <trkpt lat="46.190239889547229" lon="10.905816592276096">
        <ele>2846.5999999999999</ele>
        <time>2018-09-09T08:13:31Z</time>
      </trkpt>
      <trkpt lat="46.190332844853401" lon="10.905768647789955">
        <ele>2844.1999999999998</ele>
        <time>2018-09-09T08:13:43Z</time>
      </trkpt>
      <trkpt lat="46.190377352759242" lon="10.905715255066752">
        <ele>2843.2399999999998</ele>
        <time>2018-09-09T08:13:49Z</time>
      </trkpt>
      <trkpt lat="46.190460082143545" lon="10.905606374144554">
        <ele>2843.7199999999998</ele>
        <time>2018-09-09T08:14:01Z</time>
      </trkpt>
      <trkpt lat="46.190486652776599" lon="10.905543174594641">
        <ele>2846.1199999999999</ele>
        <time>2018-09-09T08:14:14Z</time>
      </trkpt>
      <trkpt lat="46.190520767122507" lon="10.905525153502822">
        <ele>2846.1199999999999</ele>
        <time>2018-09-09T08:14:25Z</time>
      </trkpt>
      <trkpt lat="46.19058103300631" lon="10.905555663630366">
        <ele>2843.7199999999998</ele>
        <time>2018-09-09T08:14:35Z</time>
      </trkpt>
      <trkpt lat="46.190623445436358" lon="10.905548119917512">
        <ele>2842.2800000000002</ele>
        <time>2018-09-09T08:14:49Z</time>
      </trkpt>
      <trkpt lat="46.190631072968245" lon="10.905552059412003">
        <ele>2841.79</ele>
        <time>2018-09-09T08:15:04Z</time>
      </trkpt>
      <trkpt lat="46.190640041604638" lon="10.905548287555575">
        <ele>2841.3099999999999</ele>
        <time>2018-09-09T08:15:23Z</time>
      </trkpt>
      <trkpt lat="46.190656637772918" lon="10.905536636710167">
        <ele>2841.3099999999999</ele>
        <time>2018-09-09T08:15:41Z</time>
      </trkpt>
      <trkpt lat="46.190675580874085" lon="10.905534038320184">
        <ele>2840.3499999999999</ele>
        <time>2018-09-09T08:15:52Z</time>
      </trkpt>
      <trkpt lat="46.190732577815652" lon="10.905555998906493">
        <ele>2839.8699999999999</ele>
        <time>2018-09-09T08:16:05Z</time>
      </trkpt>
      <trkpt lat="46.190758645534515" lon="10.905519789084792">
        <ele>2839.8699999999999</ele>
        <time>2018-09-09T08:16:18Z</time>
      </trkpt>
      <trkpt lat="46.190777085721493" lon="10.90551576577127">
        <ele>2839.8699999999999</ele>
        <time>2018-09-09T08:16:38Z</time>
      </trkpt>
      <trkpt lat="46.190835507586598" lon="10.905526326969266">
        <ele>2839.8699999999999</ele>
        <time>2018-09-09T08:16:52Z</time>
      </trkpt>
      <trkpt lat="46.190772224217653" lon="10.905631855130196">
        <ele>2839.8699999999999</ele>
        <time>2018-09-09T08:17:07Z</time>
      </trkpt>
      <trkpt lat="46.190876998007298" lon="10.905661359429359">
        <ele>2837.9499999999998</ele>
        <time>2018-09-09T08:17:22Z</time>
      </trkpt>
      <trkpt lat="46.190977161750197" lon="10.905679045245051">
        <ele>2836.0300000000002</ele>
        <time>2018-09-09T08:17:36Z</time>
      </trkpt>
      <trkpt lat="46.191032230854034" lon="10.905795972794294">
        <ele>2835.0599999999999</ele>
        <time>2018-09-09T08:17:48Z</time>
      </trkpt>
      <trkpt lat="46.191078666597605" lon="10.905878199264407">
        <ele>2834.5799999999999</ele>
        <time>2018-09-09T08:18:07Z</time>
      </trkpt>
      <trkpt lat="46.191134909167886" lon="10.905833020806313">
        <ele>2835.0599999999999</ele>
        <time>2018-09-09T08:18:21Z</time>
      </trkpt>
      <trkpt lat="46.191234067082405" lon="10.905812988057733">
        <ele>2837.4699999999998</ele>
        <time>2018-09-09T08:18:35Z</time>
      </trkpt>
      <trkpt lat="46.191244879737496" lon="10.905760265886784">
        <ele>2839.8699999999999</ele>
        <time>2018-09-09T08:18:48Z</time>
      </trkpt>
      <trkpt lat="46.191275892779231" lon="10.905759008601308">
        <ele>2841.3099999999999</ele>
        <time>2018-09-09T08:18:59Z</time>
      </trkpt>
      <trkpt lat="46.191270360723138" lon="10.905767725780606">
        <ele>2843.2399999999998</ele>
        <time>2018-09-09T08:19:09Z</time>
      </trkpt>
      <trkpt lat="46.191245801746845" lon="10.905689690262079">
        <ele>2844.6799999999998</ele>
        <time>2018-09-09T08:19:19Z</time>
      </trkpt>
      <trkpt lat="46.19126214645803" lon="10.905752973631024">
        <ele>2845.1599999999999</ele>
        <time>2018-09-09T08:19:29Z</time>
      </trkpt>
      <trkpt lat="46.191223924979568" lon="10.905777616426349">
        <ele>2846.1199999999999</ele>
        <time>2018-09-09T08:19:49Z</time>
      </trkpt>
      <trkpt lat="46.191232809796929" lon="10.905833188444376">
        <ele>2846.5999999999999</ele>
        <time>2018-09-09T08:20:03Z</time>
      </trkpt>
      <trkpt lat="46.191274467855692" lon="10.905919019132853">
        <ele>2847.0799999999999</ele>
        <time>2018-09-09T08:20:17Z</time>
      </trkpt>
      <trkpt lat="46.191269773989916" lon="10.905938465148211">
        <ele>2848.52</ele>
        <time>2018-09-09T08:20:36Z</time>
      </trkpt>
      <trkpt lat="46.191275725141168" lon="10.905915247276425">
        <ele>2849</ele>
        <time>2018-09-09T08:20:52Z</time>
      </trkpt>
      <trkpt lat="46.191268181428313" lon="10.905777029693127">
        <ele>2850.9299999999998</ele>
        <time>2018-09-09T08:21:07Z</time>
      </trkpt>
      <trkpt lat="46.191292321309447" lon="10.905763618648052">
        <ele>2852.3699999999999</ele>
        <time>2018-09-09T08:21:24Z</time>
      </trkpt>
      <trkpt lat="46.191309755668044" lon="10.905844001099467">
        <ele>2853.3299999999999</ele>
        <time>2018-09-09T08:21:39Z</time>
      </trkpt>
      <trkpt lat="46.191276060417295" lon="10.905910385772586">
        <ele>2853.8099999999999</ele>
        <time>2018-09-09T08:21:59Z</time>
      </trkpt>
      <trkpt lat="46.19131444953382" lon="10.905876187607646">
        <ele>2854.77</ele>
        <time>2018-09-09T08:22:17Z</time>
      </trkpt>
      <trkpt lat="46.19132568128407" lon="10.905736796557903">
        <ele>2855.73</ele>
        <time>2018-09-09T08:22:36Z</time>
      </trkpt>
      <trkpt lat="46.191359711810946" lon="10.905893538147211">
        <ele>2856.21</ele>
        <time>2018-09-09T08:22:54Z</time>
      </trkpt>
      <trkpt lat="46.191416205838323" lon="10.905946176499128">
        <ele>2856.21</ele>
        <time>2018-09-09T08:23:05Z</time>
      </trkpt>
      <trkpt lat="46.19142685085535" lon="10.905898902565241">
        <ele>2857.6599999999999</ele>
        <time>2018-09-09T08:23:24Z</time>
      </trkpt>
      <trkpt lat="46.191392065957189" lon="10.905933268368244">
        <ele>2858.6199999999999</ele>
        <time>2018-09-09T08:23:41Z</time>
      </trkpt>
      <trkpt lat="46.191415367648005" lon="10.905968807637691">
        <ele>2858.6199999999999</ele>
        <time>2018-09-09T08:24:02Z</time>
      </trkpt>
      <trkpt lat="46.191379241645336" lon="10.905950032174587">
        <ele>2858.6199999999999</ele>
        <time>2018-09-09T08:24:22Z</time>
      </trkpt>
      <trkpt lat="46.191377649083734" lon="10.905924299731851">
        <ele>2859.0999999999999</ele>
        <time>2018-09-09T08:24:42Z</time>
      </trkpt>
      <trkpt lat="46.191332302987576" lon="10.905771246179938">
        <ele>2861.5</ele>
        <time>2018-09-09T08:25:00Z</time>
      </trkpt>
      <trkpt lat="46.191344540566206" lon="10.905829919502139">
        <ele>2861.02</ele>
        <time>2018-09-09T08:25:15Z</time>
      </trkpt>
      <trkpt lat="46.191380163654685" lon="10.905779460445046">
        <ele>2862.46</ele>
        <time>2018-09-09T08:25:34Z</time>
      </trkpt>
      <trkpt lat="46.191444704309106" lon="10.905821789056063">
        <ele>2862.46</ele>
        <time>2018-09-09T08:25:52Z</time>
      </trkpt>
      <trkpt lat="46.191415619105101" lon="10.905749117955565">
        <ele>2863.9000000000001</ele>
        <time>2018-09-09T08:26:10Z</time>
      </trkpt>
      <trkpt lat="46.191432802006602" lon="10.905808545649052">
        <ele>2863.9000000000001</ele>
        <time>2018-09-09T08:26:24Z</time>
      </trkpt>
      <trkpt lat="46.191427018493414" lon="10.905903512611985">
        <ele>2864.8699999999999</ele>
        <time>2018-09-09T08:26:36Z</time>
      </trkpt>
      <trkpt lat="46.191429449245334" lon="10.905921868979931">
        <ele>2864.8699999999999</ele>
        <time>2018-09-09T08:26:48Z</time>
      </trkpt>
      <trkpt lat="46.191462893038988" lon="10.905989427119493">
        <ele>2864.8699999999999</ele>
        <time>2018-09-09T08:27:00Z</time>
      </trkpt>
      <trkpt lat="46.191481417044997" lon="10.905948523432016">
        <ele>2865.3499999999999</ele>
        <time>2018-09-09T08:27:19Z</time>
      </trkpt>
      <trkpt lat="46.1914571095258" lon="10.905917510390282">
        <ele>2865.8299999999999</ele>
        <time>2018-09-09T08:27:30Z</time>
      </trkpt>
      <trkpt lat="46.191459456458688" lon="10.905975261703134">
        <ele>2865.3499999999999</ele>
        <time>2018-09-09T08:27:47Z</time>
      </trkpt>
      <trkpt lat="46.191465072333813" lon="10.905962772667408">
        <ele>2865.3499999999999</ele>
        <time>2018-09-09T08:28:00Z</time>
      </trkpt>
      <trkpt lat="46.191442357376218" lon="10.905947433784604">
        <ele>2865.8299999999999</ele>
        <time>2018-09-09T08:28:17Z</time>
      </trkpt>
      <trkpt lat="46.191479153931141" lon="10.905982805415988">
        <ele>2866.3099999999999</ele>
        <time>2018-09-09T08:28:32Z</time>
      </trkpt>
      <trkpt lat="46.191497510299087" lon="10.90596335940063">
        <ele>2867.27</ele>
        <time>2018-09-09T08:28:46Z</time>
      </trkpt>
      <trkpt lat="46.191493822261691" lon="10.905958665534854">
        <ele>2868.71</ele>
        <time>2018-09-09T08:28:56Z</time>
      </trkpt>
      <trkpt lat="46.191514693200588" lon="10.905965957790613">
        <ele>2869.6700000000001</ele>
        <time>2018-09-09T08:29:08Z</time>
      </trkpt>
      <trkpt lat="46.191531037911773" lon="10.905882390215993">
        <ele>2871.1100000000001</ele>
        <time>2018-09-09T08:29:25Z</time>
      </trkpt>
      <trkpt lat="46.191533301025629" lon="10.905884150415659">
        <ele>2871.5999999999999</ele>
        <time>2018-09-09T08:29:39Z</time>
      </trkpt>
      <trkpt lat="46.191545454785228" lon="10.905886413529515">
        <ele>2872.5599999999999</ele>
        <time>2018-09-09T08:29:52Z</time>
      </trkpt>
      <trkpt lat="46.191554758697748" lon="10.90590326115489">
        <ele>2872.0799999999999</ele>
        <time>2018-09-09T08:30:07Z</time>
      </trkpt>
      <trkpt lat="46.191547214984894" lon="10.905897812917829">
        <ele>2872.0799999999999</ele>
        <time>2018-09-09T08:30:18Z</time>
      </trkpt>
      <trkpt lat="46.191528020426631" lon="10.90592916123569">
        <ele>2871.5999999999999</ele>
        <time>2018-09-09T08:30:38Z</time>
      </trkpt>
      <trkpt lat="46.191536486148834" lon="10.905938381329179">
        <ele>2872.0799999999999</ele>
        <time>2018-09-09T08:30:55Z</time>
      </trkpt>
      <trkpt lat="46.191540760919452" lon="10.905922874808311">
        <ele>2872.0799999999999</ele>
        <time>2018-09-09T08:31:13Z</time>
      </trkpt>
      <trkpt lat="46.191554674878716" lon="10.905877528712153">
        <ele>2874.48</ele>
        <time>2018-09-09T08:31:25Z</time>
      </trkpt>
      <trkpt lat="46.191561883315444" lon="10.905881635844707">
        <ele>2874.96</ele>
        <time>2018-09-09T08:31:38Z</time>
      </trkpt>
      <trkpt lat="46.191566158086061" lon="10.905869733542204">
        <ele>2876.4000000000001</ele>
        <time>2018-09-09T08:31:50Z</time>
      </trkpt>
      <trkpt lat="46.191599015146494" lon="10.905872499570251">
        <ele>2879.29</ele>
        <time>2018-09-09T08:32:04Z</time>
      </trkpt>
      <trkpt lat="46.191629692912102" lon="10.905887586995959">
        <ele>2879.29</ele>
        <time>2018-09-09T08:32:21Z</time>
      </trkpt>
      <trkpt lat="46.191643187776208" lon="10.905880462378263">
        <ele>2880.25</ele>
        <time>2018-09-09T08:32:33Z</time>
      </trkpt>
      <trkpt lat="46.19163597933948" lon="10.90590326115489">
        <ele>2880.73</ele>
        <time>2018-09-09T08:32:46Z</time>
      </trkpt>
      <trkpt lat="46.191633716225624" lon="10.905888928100467">
        <ele>2881.21</ele>
        <time>2018-09-09T08:32:59Z</time>
      </trkpt>
      <trkpt lat="46.191627848893404" lon="10.905926311388612">
        <ele>2881.21</ele>
        <time>2018-09-09T08:33:18Z</time>
      </trkpt>
      <trkpt lat="46.191676631569862" lon="10.905881635844707">
        <ele>2881.21</ele>
        <time>2018-09-09T08:33:43Z</time>
      </trkpt>
      <trkpt lat="46.191695490851998" lon="10.905876690521836">
        <ele>2880.73</ele>
        <time>2018-09-09T08:34:00Z</time>
      </trkpt>
      <trkpt lat="46.191696664318442" lon="10.905872918665409">
        <ele>2880.73</ele>
        <time>2018-09-09T08:34:27Z</time>
      </trkpt>
      <trkpt lat="46.191669758409262" lon="10.905845509842038">
        <ele>2881.21</ele>
        <time>2018-09-09T08:34:44Z</time>
      </trkpt>
      <trkpt lat="46.191647294908762" lon="10.905842576175928">
        <ele>2881.21</ele>
        <time>2018-09-09T08:34:58Z</time>
      </trkpt>
      <trkpt lat="46.191661292687058" lon="10.905829500406981">
        <ele>2881.6900000000001</ele>
        <time>2018-09-09T08:35:09Z</time>
      </trkpt>
      <trkpt lat="46.191676380112767" lon="10.905814580619335">
        <ele>2884.0900000000001</ele>
        <time>2018-09-09T08:35:25Z</time>
      </trkpt>
      <trkpt lat="46.191670428961515" lon="10.90577476657927">
        <ele>2884.5700000000002</ele>
        <time>2018-09-09T08:35:37Z</time>
      </trkpt>
      <trkpt lat="46.191648300737143" lon="10.90577476657927">
        <ele>2886.02</ele>
        <time>2018-09-09T08:35:52Z</time>
      </trkpt>
      <trkpt lat="46.191668249666691" lon="10.905735706910491">
        <ele>2887.9400000000001</ele>
        <time>2018-09-09T08:36:10Z</time>
      </trkpt>
      <trkpt lat="46.191699178889394" lon="10.90576060116291">
        <ele>2889.8600000000001</ele>
        <time>2018-09-09T08:36:25Z</time>
      </trkpt>
      <trkpt lat="46.191744608804584" lon="10.905846012756228">
        <ele>2892.7399999999998</ele>
        <time>2018-09-09T08:36:35Z</time>
      </trkpt>
      <trkpt lat="46.191729353740811" lon="10.9058837313205">
        <ele>2892.7399999999998</ele>
        <time>2018-09-09T08:36:47Z</time>
      </trkpt>
      <trkpt lat="46.191706638783216" lon="10.905884904786944">
        <ele>2893.23</ele>
        <time>2018-09-09T08:37:13Z</time>
      </trkpt>
      <trkpt lat="46.191729186102748" lon="10.905879959464073">
        <ele>2893.23</ele>
        <time>2018-09-09T08:37:29Z</time>
      </trkpt>
      <trkpt lat="46.191734885796905" lon="10.905907871201634">
        <ele>2893.23</ele>
        <time>2018-09-09T08:37:47Z</time>
      </trkpt>
      <trkpt lat="46.191776040941477" lon="10.905867805704474">
        <ele>2894.6700000000001</ele>
        <time>2018-09-09T08:38:02Z</time>
      </trkpt>
      <trkpt lat="46.191768581047654" lon="10.905927317216992">
        <ele>2896.1100000000001</ele>
        <time>2018-09-09T08:38:11Z</time>
      </trkpt>
      <trkpt lat="46.191789703443646" lon="10.90604935772717">
        <ele>2898.0300000000002</ele>
        <time>2018-09-09T08:38:26Z</time>
      </trkpt>
      <trkpt lat="46.19177327491343" lon="10.906061427667737">
        <ele>2898.9899999999998</ele>
        <time>2018-09-09T08:38:38Z</time>
      </trkpt>
      <trkpt lat="46.191763635724783" lon="10.906048603355885">
        <ele>2898.9899999999998</ele>
        <time>2018-09-09T08:38:56Z</time>
      </trkpt>
      <trkpt lat="46.1917903739959" lon="10.906028402969241">
        <ele>2898.9899999999998</ele>
        <time>2018-09-09T08:39:08Z</time>
      </trkpt>
      <trkpt lat="46.191746033728123" lon="10.905966712161899">
        <ele>2898.9899999999998</ele>
        <time>2018-09-09T08:39:25Z</time>
      </trkpt>
      <trkpt lat="46.19177034124732" lon="10.905976938083768">
        <ele>2898.9899999999998</ele>
        <time>2018-09-09T08:39:40Z</time>
      </trkpt>
      <trkpt lat="46.191771933808923" lon="10.906012393534184">
        <ele>2898.9899999999998</ele>
        <time>2018-09-09T08:40:03Z</time>
      </trkpt>
      <trkpt lat="46.191791882738471" lon="10.906000072136521">
        <ele>2898.9899999999998</ele>
        <time>2018-09-09T08:40:16Z</time>
      </trkpt>
      <trkpt lat="46.191765815019608" lon="10.905990684404969">
        <ele>2898.9899999999998</ele>
        <time>2018-09-09T08:40:37Z</time>
      </trkpt>
      <trkpt lat="46.191778304055333" lon="10.905993953347206">
        <ele>2899.4699999999998</ele>
        <time>2018-09-09T08:40:54Z</time>
      </trkpt>
      <trkpt lat="46.191780567169189" lon="10.905997473746538">
        <ele>2899.4699999999998</ele>
        <time>2018-09-09T08:41:11Z</time>
      </trkpt>
      <trkpt lat="46.191781405359507" lon="10.905973836779594">
        <ele>2899.4699999999998</ele>
        <time>2018-09-09T08:41:24Z</time>
      </trkpt>
      <trkpt lat="46.191785512492061" lon="10.90598682872951">
        <ele>2899.4699999999998</ele>
        <time>2018-09-09T08:41:43Z</time>
      </trkpt>
      <trkpt lat="46.191808730363846" lon="10.906068468466401">
        <ele>2899.4699999999998</ele>
        <time>2018-09-09T08:41:56Z</time>
      </trkpt>
      <trkpt lat="46.191812753677368" lon="10.90606595389545">
        <ele>2899.9499999999998</ele>
        <time>2018-09-09T08:42:16Z</time>
      </trkpt>
      <trkpt lat="46.191783919930458" lon="10.906038042157888">
        <ele>2899.4699999999998</ele>
        <time>2018-09-09T08:42:31Z</time>
      </trkpt>
      <trkpt lat="46.191787524148822" lon="10.906019015237689">
        <ele>2899.4699999999998</ele>
        <time>2018-09-09T08:42:39Z</time>
      </trkpt>
      <trkpt lat="46.191791547462344" lon="10.906047178432345">
        <ele>2899.4699999999998</ele>
        <time>2018-09-09T08:42:55Z</time>
      </trkpt>
      <trkpt lat="46.191797079518437" lon="10.906044663861394">
        <ele>2899.4699999999998</ele>
        <time>2018-09-09T08:43:14Z</time>
      </trkpt>
      <trkpt lat="46.191799677908421" lon="10.906058745458722">
        <ele>2899.4699999999998</ele>
        <time>2018-09-09T08:43:29Z</time>
      </trkpt>
      <trkpt lat="46.191804120317101" lon="10.906031671911478">
        <ele>2899.4699999999998</ele>
        <time>2018-09-09T08:43:46Z</time>
      </trkpt>
      <trkpt lat="46.191777298226953" lon="10.906000742688775">
        <ele>2899.4699999999998</ele>
        <time>2018-09-09T08:43:59Z</time>
      </trkpt>
      <trkpt lat="46.19176497682929" lon="10.905995294451714">
        <ele>2899.4699999999998</ele>
        <time>2018-09-09T08:44:17Z</time>
      </trkpt>
      <trkpt lat="46.191774448379874" lon="10.906011471524835">
        <ele>2899.4699999999998</ele>
        <time>2018-09-09T08:44:40Z</time>
      </trkpt>
      <trkpt lat="46.191793894395232" lon="10.906015411019325">
        <ele>2899.4699999999998</ele>
        <time>2018-09-09T08:44:57Z</time>
      </trkpt>
      <trkpt lat="46.191772436723113" lon="10.906012058258057">
        <ele>2899.4699999999998</ele>
        <time>2018-09-09T08:45:11Z</time>
      </trkpt>
      <trkpt lat="46.191795906051993" lon="10.906077018007636">
        <ele>2899.4699999999998</ele>
        <time>2018-09-09T08:45:21Z</time>
      </trkpt>
      <trkpt lat="46.191802527755499" lon="10.906128650531173">
        <ele>2899.9499999999998</ele>
        <time>2018-09-09T08:45:28Z</time>
      </trkpt>
      <trkpt lat="46.191814849153161" lon="10.906168883666396">
        <ele>2899.9499999999998</ele>
        <time>2018-09-09T08:45:39Z</time>
      </trkpt>
      <trkpt lat="46.191805126145482" lon="10.906164860352874">
        <ele>2900.4400000000001</ele>
        <time>2018-09-09T08:45:53Z</time>
      </trkpt>
      <trkpt lat="46.191789116710424" lon="10.906172739341855">
        <ele>2899.9499999999998</ele>
        <time>2018-09-09T08:46:12Z</time>
      </trkpt>
      <trkpt lat="46.19180697016418" lon="10.906196711584926">
        <ele>2899.9499999999998</ele>
        <time>2018-09-09T08:46:28Z</time>
      </trkpt>
      <trkpt lat="46.191816609352827" lon="10.906195119023323">
        <ele>2899.9499999999998</ele>
        <time>2018-09-09T08:46:42Z</time>
      </trkpt>
      <trkpt lat="46.191817363724113" lon="10.90619495138526">
        <ele>2899.9499999999998</ele>
        <time>2018-09-09T08:46:59Z</time>
      </trkpt>
      <trkpt lat="46.19183236733079" lon="10.906196879222989">
        <ele>2899.9499999999998</ele>
        <time>2018-09-09T08:47:14Z</time>
      </trkpt>
      <trkpt lat="46.191911827772856" lon="10.906217498704791">
        <ele>2898.0300000000002</ele>
        <time>2018-09-09T08:47:27Z</time>
      </trkpt>
      <trkpt lat="46.191980391740799" lon="10.906234597787261">
        <ele>2895.1500000000001</ele>
        <time>2018-09-09T08:47:38Z</time>
      </trkpt>
      <trkpt lat="46.192038143053651" lon="10.906207943335176">
        <ele>2894.6700000000001</ele>
        <time>2018-09-09T08:47:49Z</time>
      </trkpt>
      <trkpt lat="46.192104946821928" lon="10.906282290816307">
        <ele>2893.71</ele>
        <time>2018-09-09T08:48:00Z</time>
      </trkpt>
      <trkpt lat="46.192092122510076" lon="10.906341886147857">
        <ele>2895.6300000000001</ele>
        <time>2018-09-09T08:48:10Z</time>
      </trkpt>
      <trkpt lat="46.192082315683365" lon="10.906379017978907">
        <ele>2896.5900000000001</ele>
        <time>2018-09-09T08:48:22Z</time>
      </trkpt>
      <trkpt lat="46.19206253439188" lon="10.906450180336833">
        <ele>2897.0700000000002</ele>
        <time>2018-09-09T08:48:30Z</time>
      </trkpt>
      <trkpt lat="46.192075023427606" lon="10.906512793153524">
        <ele>2898.9899999999998</ele>
        <time>2018-09-09T08:48:39Z</time>
      </trkpt>
      <trkpt lat="46.19210897013545" lon="10.906531065702438">
        <ele>2899.4699999999998</ele>
        <time>2018-09-09T08:48:50Z</time>
      </trkpt>
      <trkpt lat="46.192128248512745" lon="10.906543890014291">
        <ele>2899.4699999999998</ele>
        <time>2018-09-09T08:48:59Z</time>
      </trkpt>
      <trkpt lat="46.192131265997887" lon="10.906631564721465">
        <ele>2898.9899999999998</ele>
        <time>2018-09-09T08:49:10Z</time>
      </trkpt>
      <trkpt lat="46.192098911851645" lon="10.90661471709609">
        <ele>2898.9899999999998</ele>
        <time>2018-09-09T08:49:27Z</time>
      </trkpt>
      <trkpt lat="46.192099247127771" lon="10.906615387648344">
        <ele>2898.9899999999998</ele>
        <time>2018-09-09T08:49:44Z</time>
      </trkpt>
      <trkpt lat="46.192127326503396" lon="10.90666014701128">
        <ele>2898.9899999999998</ele>
        <time>2018-09-09T08:49:57Z</time>
      </trkpt>
      <trkpt lat="46.192152723670006" lon="10.906709600239992">
        <ele>2898.0300000000002</ele>
        <time>2018-09-09T08:50:06Z</time>
      </trkpt>
      <trkpt lat="46.192193040624261" lon="10.906776068732142">
        <ele>2898.5100000000002</ele>
        <time>2018-09-09T08:50:16Z</time>
      </trkpt>
      <trkpt lat="46.19225506670773" lon="10.906802220270038">
        <ele>2897.5500000000002</ele>
        <time>2018-09-09T08:50:26Z</time>
      </trkpt>
      <trkpt lat="46.192344501614571" lon="10.906795347109437">
        <ele>2895.6300000000001</ele>
        <time>2018-09-09T08:50:37Z</time>
      </trkpt>
      <trkpt lat="46.1924172565341" lon="10.906799957156181">
        <ele>2894.6700000000001</ele>
        <time>2018-09-09T08:50:45Z</time>
      </trkpt>
      <trkpt lat="46.19249009527266" lon="10.906816469505429">
        <ele>2891.3000000000002</ele>
        <time>2018-09-09T08:50:56Z</time>
      </trkpt>
      <trkpt lat="46.1925242934376" lon="10.906893666833639">
        <ele>2889.8600000000001</ele>
        <time>2018-09-09T08:51:05Z</time>
      </trkpt>
      <trkpt lat="46.192601658403873" lon="10.906852344051003">
        <ele>2888.4200000000001</ele>
        <time>2018-09-09T08:51:16Z</time>
      </trkpt>
      <trkpt lat="46.192625463008881" lon="10.906808925792575">
        <ele>2888.4200000000001</ele>
        <time>2018-09-09T08:51:33Z</time>
      </trkpt>
      <trkpt lat="46.192635018378496" lon="10.906817056238651">
        <ele>2887.9400000000001</ele>
        <time>2018-09-09T08:51:50Z</time>
      </trkpt>
      <trkpt lat="46.192713975906372" lon="10.906755784526467">
        <ele>2884.5700000000002</ele>
        <time>2018-09-09T08:52:01Z</time>
      </trkpt>
      <trkpt lat="46.192812547087669" lon="10.906725944951177">
        <ele>2881.6900000000001</ele>
        <time>2018-09-09T08:52:14Z</time>
      </trkpt>
      <trkpt lat="46.192901059985161" lon="10.90670658275485">
        <ele>2878.8099999999999</ele>
        <time>2018-09-09T08:52:26Z</time>
      </trkpt>
      <trkpt lat="46.192935844883323" lon="10.906655034050345">
        <ele>2876.8800000000001</ele>
        <time>2018-09-09T08:52:38Z</time>
      </trkpt>
      <trkpt lat="46.19298211298883" lon="10.906616477295756">
        <ele>2875.4400000000001</ele>
        <time>2018-09-09T08:52:52Z</time>
      </trkpt>
      <trkpt lat="46.193037182092667" lon="10.906630977988243">
        <ele>2873.52</ele>
        <time>2018-09-09T08:53:02Z</time>
      </trkpt>
      <trkpt lat="46.193109266459942" lon="10.906605748459697">
        <ele>2870.6300000000001</ele>
        <time>2018-09-09T08:53:17Z</time>
      </trkpt>
      <trkpt lat="46.193180680274963" lon="10.906579596921802">
        <ele>2868.71</ele>
        <time>2018-09-09T08:53:30Z</time>
      </trkpt>
      <trkpt lat="46.193226864561439" lon="10.906502399593592">
        <ele>2867.27</ele>
        <time>2018-09-09T08:53:40Z</time>
      </trkpt>
      <trkpt lat="46.193317892029881" lon="10.9064329136163">
        <ele>2864.3899999999999</ele>
        <time>2018-09-09T08:53:53Z</time>
      </trkpt>
      <trkpt lat="46.193391401320696" lon="10.906390333548188">
        <ele>2862.46</ele>
        <time>2018-09-09T08:54:02Z</time>
      </trkpt>
      <trkpt lat="46.193455271422863" lon="10.906360410153866">
        <ele>2859.5799999999999</ele>
        <time>2018-09-09T08:54:13Z</time>
      </trkpt>
      <trkpt lat="46.19350397028029" lon="10.906335180625319">
        <ele>2857.1799999999998</ele>
        <time>2018-09-09T08:54:27Z</time>
      </trkpt>
      <trkpt lat="46.193529451265931" lon="10.90625261887908">
        <ele>2854.77</ele>
        <time>2018-09-09T08:54:40Z</time>
      </trkpt>
      <trkpt lat="46.193585023283958" lon="10.906182881444693">
        <ele>2852.8499999999999</ele>
        <time>2018-09-09T08:54:51Z</time>
      </trkpt>
      <trkpt lat="46.193656520918012" lon="10.906130410730839">
        <ele>2849.48</ele>
        <time>2018-09-09T08:55:06Z</time>
      </trkpt>
      <trkpt lat="46.19373606517911" lon="10.906080622226">
        <ele>2847.5599999999999</ele>
        <time>2018-09-09T08:55:17Z</time>
      </trkpt>
      <trkpt lat="46.193761797621846" lon="10.906070480123162">
        <ele>2846.5999999999999</ele>
        <time>2018-09-09T08:55:27Z</time>
      </trkpt>
      <trkpt lat="46.193813933059573" lon="10.906092943623662">
        <ele>2844.6799999999998</ele>
        <time>2018-09-09T08:55:40Z</time>
      </trkpt>
      <trkpt lat="46.193903284147382" lon="10.906110377982259">
        <ele>2841.79</ele>
        <time>2018-09-09T08:55:53Z</time>
      </trkpt>
      <trkpt lat="46.193970339372754" lon="10.906105265021324">
        <ele>2839.3899999999999</ele>
        <time>2018-09-09T08:56:06Z</time>
      </trkpt>
      <trkpt lat="46.194040831178427" lon="10.906102163717151">
        <ele>2836.0300000000002</ele>
        <time>2018-09-09T08:56:20Z</time>
      </trkpt>
      <trkpt lat="46.194101767614484" lon="10.906137200072408">
        <ele>2834.0999999999999</ele>
        <time>2018-09-09T08:56:32Z</time>
      </trkpt>
      <trkpt lat="46.194144263863564" lon="10.906149353832006">
        <ele>2833.1399999999999</ele>
        <time>2018-09-09T08:56:45Z</time>
      </trkpt>
      <trkpt lat="46.194162536412477" lon="10.906143235042691">
        <ele>2832.1799999999998</ele>
        <time>2018-09-09T08:56:51Z</time>
      </trkpt>
      <trkpt lat="46.19418466463685" lon="10.906193610280752">
        <ele>2830.7399999999998</ele>
        <time>2018-09-09T08:56:56Z</time>
      </trkpt>
      <trkpt lat="46.194258760660887" lon="10.906267957761884">
        <ele>2828.3400000000001</ele>
        <time>2018-09-09T08:57:09Z</time>
      </trkpt>
      <trkpt lat="46.194295221939683" lon="10.906183216720819">
        <ele>2827.3699999999999</ele>
        <time>2018-09-09T08:57:22Z</time>
      </trkpt>
      <trkpt lat="46.194363031536341" lon="10.906026056036353">
        <ele>2827.3699999999999</ele>
        <time>2018-09-09T08:57:40Z</time>
      </trkpt>
      <trkpt lat="46.194379962980747" lon="10.906056901440024">
        <ele>2827.8499999999999</ele>
        <time>2018-09-09T08:57:52Z</time>
      </trkpt>
      <trkpt lat="46.194344758987427" lon="10.90602102689445">
        <ele>2825.9299999999998</ele>
        <time>2018-09-09T08:58:01Z</time>
      </trkpt>
      <trkpt lat="46.19439379312098" lon="10.905977608636022">
        <ele>2824.0100000000002</ele>
        <time>2018-09-09T08:58:12Z</time>
      </trkpt>
      <trkpt lat="46.194438803941011" lon="10.905974004417658">
        <ele>2823.0500000000002</ele>
        <time>2018-09-09T08:58:23Z</time>
      </trkpt>
      <trkpt lat="46.194522036239505" lon="10.906031671911478">
        <ele>2822.5700000000002</ele>
        <time>2018-09-09T08:58:38Z</time>
      </trkpt>
      <trkpt lat="46.194608621299267" lon="10.906072491779923">
        <ele>2823.0500000000002</ele>
        <time>2018-09-09T08:58:54Z</time>
      </trkpt>
      <trkpt lat="46.194637957960367" lon="10.906182378530502">
        <ele>2823.0500000000002</ele>
        <time>2018-09-09T08:59:13Z</time>
      </trkpt>
      <trkpt lat="46.194709287956357" lon="10.906102079898119">
        <ele>2823.0500000000002</ele>
        <time>2018-09-09T08:59:37Z</time>
      </trkpt>
      <trkpt lat="46.194752790033817" lon="10.905908457934856">
        <ele>2823.5300000000002</ele>
        <time>2018-09-09T08:59:57Z</time>
      </trkpt>
      <trkpt lat="46.194782378152013" lon="10.905806198716164">
        <ele>2823.0500000000002</ele>
        <time>2018-09-09T09:00:17Z</time>
      </trkpt>
      <trkpt lat="46.194777684286237" lon="10.905786082148552">
        <ele>2822.5700000000002</ele>
        <time>2018-09-09T09:00:32Z</time>
      </trkpt>
      <trkpt lat="46.194663187488914" lon="10.905869146808982">
        <ele>2820.1599999999999</ele>
        <time>2018-09-09T09:00:45Z</time>
      </trkpt>
      <trkpt lat="46.194646339863539" lon="10.905879959464073">
        <ele>2819.6799999999998</ele>
        <time>2018-09-09T09:01:00Z</time>
      </trkpt>
      <trkpt lat="46.194625971838832" lon="10.905884234234691">
        <ele>2820.1599999999999</ele>
        <time>2018-09-09T09:01:14Z</time>
      </trkpt>
      <trkpt lat="46.194620188325644" lon="10.90590376406908">
        <ele>2819.6799999999998</ele>
        <time>2018-09-09T09:01:26Z</time>
      </trkpt>
      <trkpt lat="46.194613398984075" lon="10.90589689090848">
        <ele>2819.6799999999998</ele>
        <time>2018-09-09T09:01:49Z</time>
      </trkpt>
      <trkpt lat="46.19456042535603" lon="10.905938632786274">
        <ele>2819.6799999999998</ele>
        <time>2018-09-09T09:02:14Z</time>
      </trkpt>
      <trkpt lat="46.194591103121638" lon="10.906019015237689">
        <ele>2819.6799999999998</ele>
        <time>2018-09-09T09:02:39Z</time>
      </trkpt>
      <trkpt lat="46.194592528045177" lon="10.906029744073749">
        <ele>2819.6799999999998</ele>
        <time>2018-09-09T09:03:06Z</time>
      </trkpt>
      <trkpt lat="46.194577943533659" lon="10.906060254201293">
        <ele>2819.6799999999998</ele>
        <time>2018-09-09T09:03:24Z</time>
      </trkpt>
      <trkpt lat="46.194541398435831" lon="10.906127728521824">
        <ele>2820.1599999999999</ele>
        <time>2018-09-09T09:03:50Z</time>
      </trkpt>
      <trkpt lat="46.19455891661346" lon="10.906158238649368">
        <ele>2820.1599999999999</ele>
        <time>2018-09-09T09:04:06Z</time>
      </trkpt>
      <trkpt lat="46.194575931876898" lon="10.906174080446362">
        <ele>2820.6500000000001</ele>
        <time>2018-09-09T09:04:16Z</time>
      </trkpt>
      <trkpt lat="46.194576853886247" lon="10.906165279448032">
        <ele>2820.6500000000001</ele>
        <time>2018-09-09T09:04:32Z</time>
      </trkpt>
      <trkpt lat="46.194574339315295" lon="10.906231328845024">
        <ele>2821.1300000000001</ele>
        <time>2018-09-09T09:04:48Z</time>
      </trkpt>
      <trkpt lat="46.194600407034159" lon="10.906177600845695">
        <ele>2821.1300000000001</ele>
        <time>2018-09-09T09:05:09Z</time>
      </trkpt>
      <trkpt lat="46.194555815309286" lon="10.906245410442352">
        <ele>2821.1300000000001</ele>
        <time>2018-09-09T09:05:26Z</time>
      </trkpt>
      <trkpt lat="46.194553887471557" lon="10.90625261887908">
        <ele>2821.1300000000001</ele>
        <time>2018-09-09T09:05:41Z</time>
      </trkpt>
      <trkpt lat="46.194565538316965" lon="10.906266449019313">
        <ele>2821.6100000000001</ele>
        <time>2018-09-09T09:05:58Z</time>
      </trkpt>
      <trkpt lat="46.194561515003443" lon="10.906322775408626">
        <ele>2821.6100000000001</ele>
        <time>2018-09-09T09:06:16Z</time>
      </trkpt>
      <trkpt lat="46.194576099514961" lon="10.906158238649368">
        <ele>2822.0900000000001</ele>
        <time>2018-09-09T09:06:33Z</time>
      </trkpt>
      <trkpt lat="46.194572746753693" lon="10.906143318861723">
        <ele>2822.0900000000001</ele>
        <time>2018-09-09T09:06:47Z</time>
      </trkpt>
      <trkpt lat="46.194553636014462" lon="10.906204339116812">
        <ele>2822.5700000000002</ele>
        <time>2018-09-09T09:07:08Z</time>
      </trkpt>
      <trkpt lat="46.194535447284579" lon="10.906228814274073">
        <ele>2822.5700000000002</ele>
        <time>2018-09-09T09:07:27Z</time>
      </trkpt>
      <trkpt lat="46.194535363465548" lon="10.906253373250365">
        <ele>2822.5700000000002</ele>
        <time>2018-09-09T09:07:40Z</time>
      </trkpt>
      <trkpt lat="46.194531675428152" lon="10.906288996338844">
        <ele>2822.0900000000001</ele>
        <time>2018-09-09T09:07:54Z</time>
      </trkpt>
      <trkpt lat="46.194503512233496" lon="10.90638848952949">
        <ele>2823.0500000000002</ele>
        <time>2018-09-09T09:08:13Z</time>
      </trkpt>
      <trkpt lat="46.194529915228486" lon="10.90640164911747">
        <ele>2823.0500000000002</ele>
        <time>2018-09-09T09:08:26Z</time>
      </trkpt>
      <trkpt lat="46.194550702348351" lon="10.906374994665384">
        <ele>2823.5300000000002</ele>
        <time>2018-09-09T09:08:45Z</time>
      </trkpt>
      <trkpt lat="46.194541901350021" lon="10.906425034627318">
        <ele>2824.0100000000002</ele>
        <time>2018-09-09T09:09:05Z</time>
      </trkpt>
      <trkpt lat="46.194551791995764" lon="10.906432997435331">
        <ele>2824.0100000000002</ele>
        <time>2018-09-09T09:09:23Z</time>
      </trkpt>
      <trkpt lat="46.194549277424812" lon="10.906466944143176">
        <ele>2824.0100000000002</ele>
        <time>2018-09-09T09:09:36Z</time>
      </trkpt>
      <trkpt lat="46.194555731490254" lon="10.906484043225646">
        <ele>2824.4899999999998</ele>
        <time>2018-09-09T09:09:51Z</time>
      </trkpt>
      <trkpt lat="46.194575009867549" lon="10.906572639942169">
        <ele>2823.0500000000002</ele>
        <time>2018-09-09T09:10:01Z</time>
      </trkpt>
      <trkpt lat="46.194517593830824" lon="10.906462082639337">
        <ele>2823.0500000000002</ele>
        <time>2018-09-09T09:10:13Z</time>
      </trkpt>
      <trkpt lat="46.194422794505954" lon="10.906364601105452">
        <ele>2823.0500000000002</ele>
        <time>2018-09-09T09:10:28Z</time>
      </trkpt>
      <trkpt lat="46.194389769807458" lon="10.906357476487756">
        <ele>2823.5300000000002</ele>
        <time>2018-09-09T09:10:43Z</time>
      </trkpt>
      <trkpt lat="46.194358672946692" lon="10.906589990481734">
        <ele>2823.5300000000002</ele>
        <time>2018-09-09T09:10:57Z</time>
      </trkpt>
      <trkpt lat="46.194409551098943" lon="10.906470632180572">
        <ele>2824.9699999999998</ele>
        <time>2018-09-09T09:11:09Z</time>
      </trkpt>
      <trkpt lat="46.194485491141677" lon="10.906195873394608">
        <ele>2824.4899999999998</ele>
        <time>2018-09-09T09:11:20Z</time>
      </trkpt>
      <trkpt lat="46.194556737318635" lon="10.906116580590606">
        <ele>2823.0500000000002</ele>
        <time>2018-09-09T09:11:37Z</time>
      </trkpt>
      <trkpt lat="46.194553300738335" lon="10.906150862574577">
        <ele>2822.5700000000002</ele>
        <time>2018-09-09T09:11:53Z</time>
      </trkpt>
      <trkpt lat="46.194554893299937" lon="10.906087411567569">
        <ele>2822.0900000000001</ele>
        <time>2018-09-09T09:12:07Z</time>
      </trkpt>
      <trkpt lat="46.194609627127647" lon="10.905867386609316">
        <ele>2820.6500000000001</ele>
        <time>2018-09-09T09:12:20Z</time>
      </trkpt>
      <trkpt lat="46.194502087309957" lon="10.905757248401642">
        <ele>2821.1300000000001</ele>
        <time>2018-09-09T09:12:35Z</time>
      </trkpt>
      <trkpt lat="46.194501416757703" lon="10.905797900632024">
        <ele>2821.1300000000001</ele>
        <time>2018-09-09T09:12:49Z</time>
      </trkpt>
      <trkpt lat="46.194495465606451" lon="10.905836038291454">
        <ele>2822.0900000000001</ele>
        <time>2018-09-09T09:13:06Z</time>
      </trkpt>
      <trkpt lat="46.194515582174063" lon="10.905850203707814">
        <ele>2822.5700000000002</ele>
        <time>2018-09-09T09:13:18Z</time>
      </trkpt>
      <trkpt lat="46.194489598274231" lon="10.905913319438696">
        <ele>2823.5300000000002</ele>
        <time>2018-09-09T09:13:35Z</time>
      </trkpt>
      <trkpt lat="46.194643406197429" lon="10.906044160947204">
        <ele>2825.9299999999998</ele>
        <time>2018-09-09T09:13:45Z</time>
      </trkpt>
      <trkpt lat="46.194718508049846" lon="10.906052710488439">
        <ele>2826.8899999999999</ele>
        <time>2018-09-09T09:13:53Z</time>
      </trkpt>
      <trkpt lat="46.194668468087912" lon="10.906031252816319">
        <ele>2826.8899999999999</ele>
        <time>2018-09-09T09:14:11Z</time>
      </trkpt>
      <trkpt lat="46.194643070921302" lon="10.905983978882432">
        <ele>2827.3699999999999</ele>
        <time>2018-09-09T09:14:24Z</time>
      </trkpt>
      <trkpt lat="46.19464784860611" lon="10.90600049123168">
        <ele>2826.8899999999999</ele>
        <time>2018-09-09T09:14:40Z</time>
      </trkpt>
      <trkpt lat="46.19465128518641" lon="10.905996300280094">
        <ele>2827.3699999999999</ele>
        <time>2018-09-09T09:14:57Z</time>
      </trkpt>
      <trkpt lat="46.194702079519629" lon="10.906007448211312">
        <ele>2827.3699999999999</ele>
        <time>2018-09-09T09:15:09Z</time>
      </trkpt>
      <trkpt lat="46.194733344018459" lon="10.906010046601295">
        <ele>2827.3699999999999</ele>
        <time>2018-09-09T09:15:22Z</time>
      </trkpt>
      <trkpt lat="46.194711467251182" lon="10.906055476516485">
        <ele>2827.3699999999999</ele>
        <time>2018-09-09T09:15:38Z</time>
      </trkpt>
      <trkpt lat="46.194733763113618" lon="10.906038712710142">
        <ele>2827.3699999999999</ele>
        <time>2018-09-09T09:15:52Z</time>
      </trkpt>
      <trkpt lat="46.19477248750627" lon="10.906055979430676">
        <ele>2827.3699999999999</ele>
        <time>2018-09-09T09:16:01Z</time>
      </trkpt>
      <trkpt lat="46.194745330139995" lon="10.906038209795952">
        <ele>2827.3699999999999</ele>
        <time>2018-09-09T09:16:13Z</time>
      </trkpt>
      <trkpt lat="46.194725213572383" lon="10.906047429889441">
        <ele>2826.8899999999999</ele>
        <time>2018-09-09T09:16:24Z</time>
      </trkpt>
      <trkpt lat="46.194705599918962" lon="10.906005688011646">
        <ele>2826.8899999999999</ele>
        <time>2018-09-09T09:16:42Z</time>
      </trkpt>
      <trkpt lat="46.194705683737993" lon="10.905992025509477">
        <ele>2827.3699999999999</ele>
        <time>2018-09-09T09:16:57Z</time>
      </trkpt>
      <trkpt lat="46.194713646546006" lon="10.905999317765236">
        <ele>2826.8899999999999</ele>
        <time>2018-09-09T09:17:13Z</time>
      </trkpt>
      <trkpt lat="46.194720016792417" lon="10.906015578657389">
        <ele>2827.3699999999999</ele>
        <time>2018-09-09T09:17:30Z</time>
      </trkpt>
      <trkpt lat="46.194693865254521" lon="10.905991522595286">
        <ele>2826.8899999999999</ele>
        <time>2018-09-09T09:17:45Z</time>
      </trkpt>
      <trkpt lat="46.194761423394084" lon="10.906040221452713">
        <ele>2827.3699999999999</ele>
        <time>2018-09-09T09:17:55Z</time>
      </trkpt>
      <trkpt lat="46.194780617952347" lon="10.906063606962562">
        <ele>2826.8899999999999</ele>
        <time>2018-09-09T09:18:04Z</time>
      </trkpt>
      <trkpt lat="46.194867119193077" lon="10.90605178847909">
        <ele>2824.4899999999998</ele>
        <time>2018-09-09T09:18:15Z</time>
      </trkpt>
      <trkpt lat="46.194885643199086" lon="10.906059164553881">
        <ele>2824.4899999999998</ele>
        <time>2018-09-09T09:18:17Z</time>
      </trkpt>
      <trkpt lat="46.194922355934978" lon="10.906070396304131">
        <ele>2823.5300000000002</ele>
        <time>2018-09-09T09:18:20Z</time>
      </trkpt>
      <trkpt lat="46.194978263229132" lon="10.9060840588063">
        <ele>2821.6100000000001</ele>
        <time>2018-09-09T09:18:30Z</time>
      </trkpt>
      <trkpt lat="46.195054538547993" lon="10.906093530356884">
        <ele>2819.1999999999998</ele>
        <time>2018-09-09T09:18:40Z</time>
      </trkpt>
      <trkpt lat="46.195086389780045" lon="10.906111299991608">
        <ele>2818.2399999999998</ele>
        <time>2018-09-09T09:18:44Z</time>
      </trkpt>
      <trkpt lat="46.195081444457173" lon="10.9061358589679">
        <ele>2817.7600000000002</ele>
        <time>2018-09-09T09:18:45Z</time>
      </trkpt>
      <trkpt lat="46.195084461942315" lon="10.906160166487098">
        <ele>2817.2800000000002</ele>
        <time>2018-09-09T09:18:47Z</time>
      </trkpt>
      <trkpt lat="46.195171801373363" lon="10.906232502311468">
        <ele>2815.3600000000001</ele>
        <time>2018-09-09T09:18:58Z</time>
      </trkpt>
      <trkpt lat="46.195282777771354" lon="10.906218588352203">
        <ele>2818.2399999999998</ele>
        <time>2018-09-09T09:19:14Z</time>
      </trkpt>
      <trkpt lat="46.195303732529283" lon="10.906442385166883">
        <ele>2817.2800000000002</ele>
        <time>2018-09-09T09:19:26Z</time>
      </trkpt>
      <trkpt lat="46.195294093340635" lon="10.906642125919461">
        <ele>2814.8800000000001</ele>
        <time>2018-09-09T09:19:36Z</time>
      </trkpt>
      <trkpt lat="46.195306498557329" lon="10.906689064577222">
        <ele>2813.9200000000001</ele>
        <time>2018-09-09T09:19:45Z</time>
      </trkpt>
      <trkpt lat="46.19536810554564" lon="10.906820492818952">
        <ele>2810.5500000000002</ele>
        <time>2018-09-09T09:19:57Z</time>
      </trkpt>
      <trkpt lat="46.195385372266173" lon="10.906844045966864">
        <ele>2810.0700000000002</ele>
        <time>2018-09-09T09:19:59Z</time>
      </trkpt>
      <trkpt lat="46.195414457470179" lon="10.906894756481051">
        <ele>2808.6300000000001</ele>
        <time>2018-09-09T09:20:03Z</time>
      </trkpt>
      <trkpt lat="46.1955083347857" lon="10.906951753422618">
        <ele>2805.75</ele>
        <time>2018-09-09T09:20:14Z</time>
      </trkpt>
      <trkpt lat="46.195620400831103" lon="10.906869359314442">
        <ele>2802.8600000000001</ele>
        <time>2018-09-09T09:20:26Z</time>
      </trkpt>
      <trkpt lat="46.195766245946288" lon="10.906540118157864">
        <ele>2800.46</ele>
        <time>2018-09-09T09:20:38Z</time>
      </trkpt>
      <trkpt lat="46.195945702493191" lon="10.90602639131248">
        <ele>2798.0500000000002</ele>
        <time>2018-09-09T09:20:50Z</time>
      </trkpt>
      <trkpt lat="46.196012506261468" lon="10.905977273359895">
        <ele>2795.6500000000001</ele>
        <time>2018-09-09T09:21:01Z</time>
      </trkpt>
      <trkpt lat="46.196078807115555" lon="10.905978111550212">
        <ele>2794.21</ele>
        <time>2018-09-09T09:21:12Z</time>
      </trkpt>
      <trkpt lat="46.196119878441095" lon="10.90594282373786">
        <ele>2793.25</ele>
        <time>2018-09-09T09:21:26Z</time>
      </trkpt>
      <trkpt lat="46.196167068555951" lon="10.9059320949018">
        <ele>2791.8099999999999</ele>
        <time>2018-09-09T09:21:37Z</time>
      </trkpt>
      <trkpt lat="46.19619632139802" lon="10.905941650271416">
        <ele>2791.8099999999999</ele>
        <time>2018-09-09T09:21:47Z</time>
      </trkpt>
      <trkpt lat="46.196197913959622" lon="10.905964868143201">
        <ele>2791.8099999999999</ele>
        <time>2018-09-09T09:22:02Z</time>
      </trkpt>
      <trkpt lat="46.19618559256196" lon="10.905994372442365">
        <ele>2791.8099999999999</ele>
        <time>2018-09-09T09:22:19Z</time>
      </trkpt>
      <trkpt lat="46.196187688037753" lon="10.905981631949544">
        <ele>2792.29</ele>
        <time>2018-09-09T09:22:35Z</time>
      </trkpt>
      <trkpt lat="46.196252061054111" lon="10.905929496511817">
        <ele>2790.3600000000001</ele>
        <time>2018-09-09T09:22:45Z</time>
      </trkpt>
      <trkpt lat="46.196297658607364" lon="10.905941566452384">
        <ele>2792.77</ele>
        <time>2018-09-09T09:22:54Z</time>
      </trkpt>
      <trkpt lat="46.196368737146258" lon="10.905911307781935">
        <ele>2790.8400000000001</ele>
        <time>2018-09-09T09:23:04Z</time>
      </trkpt>
      <trkpt lat="46.196424560621381" lon="10.905912732705474">
        <ele>2788.4400000000001</ele>
        <time>2018-09-09T09:23:17Z</time>
      </trkpt>
      <trkpt lat="46.196450041607022" lon="10.905977692455053">
        <ele>2787.48</ele>
        <time>2018-09-09T09:23:22Z</time>
      </trkpt>
      <trkpt lat="46.196459596976638" lon="10.906003341078758">
        <ele>2787</ele>
        <time>2018-09-09T09:23:24Z</time>
      </trkpt>
      <trkpt lat="46.196498572826385" lon="10.906037036329508">
        <ele>2786.04</ele>
        <time>2018-09-09T09:23:31Z</time>
      </trkpt>
      <trkpt lat="46.19644844904542" lon="10.906063439324498">
        <ele>2784.5999999999999</ele>
        <time>2018-09-09T09:23:42Z</time>
      </trkpt>
      <trkpt lat="46.196485077962279" lon="10.906216660514474">
        <ele>2784.5999999999999</ele>
        <time>2018-09-09T09:23:56Z</time>
      </trkpt>
      <trkpt lat="46.196533106267452" lon="10.906254881992936">
        <ele>2785.5599999999999</ele>
        <time>2018-09-09T09:24:05Z</time>
      </trkpt>
      <trkpt lat="46.196656739339232" lon="10.905944919213653">
        <ele>2785.5599999999999</ele>
        <time>2018-09-09T09:24:16Z</time>
      </trkpt>
      <trkpt lat="46.196714658290148" lon="10.90586369857192">
        <ele>2784.5999999999999</ele>
        <time>2018-09-09T09:24:24Z</time>
      </trkpt>
      <trkpt lat="46.196719603613019" lon="10.905861016362906">
        <ele>2784.5999999999999</ele>
        <time>2018-09-09T09:24:34Z</time>
      </trkpt>
      <trkpt lat="46.196751371026039" lon="10.905878618359566">
        <ele>2787</ele>
        <time>2018-09-09T09:24:44Z</time>
      </trkpt>
      <trkpt lat="46.196726392954588" lon="10.90585489757359">
        <ele>2787.48</ele>
        <time>2018-09-09T09:24:57Z</time>
      </trkpt>
      <trkpt lat="46.1967240460217" lon="10.905872164294124">
        <ele>2787.48</ele>
        <time>2018-09-09T09:25:14Z</time>
      </trkpt>
      <trkpt lat="46.196787916123867" lon="10.905908457934856">
        <ele>2787</ele>
        <time>2018-09-09T09:25:26Z</time>
      </trkpt>
      <trkpt lat="46.196859916672111" lon="10.905897812917829">
        <ele>2789.4000000000001</ele>
        <time>2018-09-09T09:25:38Z</time>
      </trkpt>
      <trkpt lat="46.196899646893144" lon="10.905946930870414">
        <ele>2790.3600000000001</ele>
        <time>2018-09-09T09:25:47Z</time>
      </trkpt>
      <trkpt lat="46.196941137313843" lon="10.90601859614253">
        <ele>2791.8099999999999</ele>
        <time>2018-09-09T09:25:59Z</time>
      </trkpt>
      <trkpt lat="46.196978855878115" lon="10.906056314706802">
        <ele>2793.73</ele>
        <time>2018-09-09T09:26:10Z</time>
      </trkpt>
      <trkpt lat="46.197036020457745" lon="10.90612412430346">
        <ele>2795.6500000000001</ele>
        <time>2018-09-09T09:26:22Z</time>
      </trkpt>
      <trkpt lat="46.197077762335539" lon="10.906173661351204">
        <ele>2797.0900000000001</ele>
        <time>2018-09-09T09:26:34Z</time>
      </trkpt>
      <trkpt lat="46.197105254977942" lon="10.906255133450031">
        <ele>2798.0500000000002</ele>
        <time>2018-09-09T09:26:45Z</time>
      </trkpt>
      <trkpt lat="46.197129059582949" lon="10.906329900026321">
        <ele>2799.98</ele>
        <time>2018-09-09T09:26:57Z</time>
      </trkpt>
      <trkpt lat="46.197163090109825" lon="10.906389830633998">
        <ele>2800.9400000000001</ele>
        <time>2018-09-09T09:27:08Z</time>
      </trkpt>
      <trkpt lat="46.197125790640712" lon="10.906437188386917">
        <ele>2799.98</ele>
        <time>2018-09-09T09:27:18Z</time>
      </trkpt>
      <trkpt lat="46.197094107046723" lon="10.906499633565545">
        <ele>2799.5</ele>
        <time>2018-09-09T09:27:28Z</time>
      </trkpt>
      <trkpt lat="46.197084803134203" lon="10.90651941485703">
        <ele>2800.46</ele>
        <time>2018-09-09T09:27:30Z</time>
      </trkpt>
      <trkpt lat="46.197062842547894" lon="10.906586889177561">
        <ele>2800.9400000000001</ele>
        <time>2018-09-09T09:27:39Z</time>
      </trkpt>
      <trkpt lat="46.197059489786625" lon="10.906675150617957">
        <ele>2801.4200000000001</ele>
        <time>2018-09-09T09:27:46Z</time>
      </trkpt>
      <trkpt lat="46.197036607190967" lon="10.906786546111107">
        <ele>2801.4200000000001</ele>
        <time>2018-09-09T09:27:59Z</time>
      </trkpt>
      <trkpt lat="46.197022860869765" lon="10.906912526115775">
        <ele>2802.3800000000001</ele>
        <time>2018-09-09T09:28:10Z</time>
      </trkpt>
      <trkpt lat="46.197015736252069" lon="10.907026939094067">
        <ele>2803.8200000000002</ele>
        <time>2018-09-09T09:28:21Z</time>
      </trkpt>
      <trkpt lat="46.196984304115176" lon="10.907180495560169">
        <ele>2803.3400000000001</ele>
        <time>2018-09-09T09:28:33Z</time>
      </trkpt>
      <trkpt lat="46.196953374892473" lon="10.907349307090044">
        <ele>2803.8200000000002</ele>
        <time>2018-09-09T09:28:48Z</time>
      </trkpt>
      <trkpt lat="46.196927558630705" lon="10.907431785017252">
        <ele>2805.2600000000002</ele>
        <time>2018-09-09T09:28:59Z</time>
      </trkpt>
      <trkpt lat="46.196912052109838" lon="10.907451482489705">
        <ele>2805.75</ele>
        <time>2018-09-09T09:29:09Z</time>
      </trkpt>
      <trkpt lat="46.196913309395313" lon="10.907458355650306">
        <ele>2805.75</ele>
        <time>2018-09-09T09:29:22Z</time>
      </trkpt>
      <trkpt lat="46.196908950805664" lon="10.907440166920424">
        <ele>2806.23</ele>
        <time>2018-09-09T09:29:38Z</time>
      </trkpt>
      <trkpt lat="46.196914399042726" lon="10.90747176669538">
        <ele>2806.23</ele>
        <time>2018-09-09T09:29:54Z</time>
      </trkpt>
      <trkpt lat="46.196898724883795" lon="10.907605793327093">
        <ele>2807.6700000000001</ele>
        <time>2018-09-09T09:30:08Z</time>
      </trkpt>
      <trkpt lat="46.19686528109014" lon="10.907737808302045">
        <ele>2809.1100000000001</ele>
        <time>2018-09-09T09:30:20Z</time>
      </trkpt>
      <trkpt lat="46.196842482313514" lon="10.907855909317732">
        <ele>2809.5900000000001</ele>
        <time>2018-09-09T09:30:29Z</time>
      </trkpt>
      <trkpt lat="46.196806691586971" lon="10.907924640923738">
        <ele>2809.5900000000001</ele>
        <time>2018-09-09T09:30:34Z</time>
      </trkpt>
      <trkpt lat="46.196786742657423" lon="10.907939644530416">
        <ele>2809.5900000000001</ele>
        <time>2018-09-09T09:30:36Z</time>
      </trkpt>
      <trkpt lat="46.196766709908843" lon="10.908066127449274">
        <ele>2809.5900000000001</ele>
        <time>2018-09-09T09:30:47Z</time>
      </trkpt>
      <trkpt lat="46.196780456230044" lon="10.90814751572907">
        <ele>2810.0700000000002</ele>
        <time>2018-09-09T09:30:57Z</time>
      </trkpt>
      <trkpt lat="46.196747682988644" lon="10.908247595652938">
        <ele>2810.5500000000002</ele>
        <time>2018-09-09T09:31:07Z</time>
      </trkpt>
      <trkpt lat="46.196738462895155" lon="10.908324792981148">
        <ele>2811.5100000000002</ele>
        <time>2018-09-09T09:31:14Z</time>
      </trkpt>
      <trkpt lat="46.196763440966606" lon="10.908467117697001">
        <ele>2811.9899999999998</ele>
        <time>2018-09-09T09:31:25Z</time>
      </trkpt>
      <trkpt lat="46.19680761359632" lon="10.908553283661604">
        <ele>2812.96</ele>
        <time>2018-09-09T09:31:35Z</time>
      </trkpt>
      <trkpt lat="46.196819264441729" lon="10.908704157918692">
        <ele>2812.96</ele>
        <time>2018-09-09T09:31:46Z</time>
      </trkpt>
      <trkpt lat="46.196819012984633" lon="10.908795772120357">
        <ele>2813.4400000000001</ele>
        <time>2018-09-09T09:31:55Z</time>
      </trkpt>
      <trkpt lat="46.196819767355919" lon="10.908807925879955">
        <ele>2813.4400000000001</ele>
        <time>2018-09-09T09:31:56Z</time>
      </trkpt>
      <trkpt lat="46.196842649951577" lon="10.908942120149732">
        <ele>2812.4699999999998</ele>
        <time>2018-09-09T09:32:06Z</time>
      </trkpt>
      <trkpt lat="46.196901323273778" lon="10.909080673009157">
        <ele>2811.0300000000002</ele>
        <time>2018-09-09T09:32:18Z</time>
      </trkpt>
      <trkpt lat="46.196920098736882" lon="10.909097185358405">
        <ele>2810.5500000000002</ele>
        <time>2018-09-09T09:32:30Z</time>
      </trkpt>
      <trkpt lat="46.196915656328201" lon="10.909074386581779">
        <ele>2811.0300000000002</ele>
        <time>2018-09-09T09:32:46Z</time>
      </trkpt>
      <trkpt lat="46.196915321052074" lon="10.909059969708323">
        <ele>2811.0300000000002</ele>
        <time>2018-09-09T09:33:04Z</time>
      </trkpt>
      <trkpt lat="46.196899898350239" lon="10.909094251692295">
        <ele>2811.0300000000002</ele>
        <time>2018-09-09T09:33:18Z</time>
      </trkpt>
      <trkpt lat="46.196934683248401" lon="10.909103136509657">
        <ele>2811.0300000000002</ele>
        <time>2018-09-09T09:33:36Z</time>
      </trkpt>
      <trkpt lat="46.196908196434379" lon="10.909085785970092">
        <ele>2811.0300000000002</ele>
        <time>2018-09-09T09:33:47Z</time>
      </trkpt>
      <trkpt lat="46.196882463991642" lon="10.909088719636202">
        <ele>2810.5500000000002</ele>
        <time>2018-09-09T09:34:01Z</time>
      </trkpt>
      <trkpt lat="46.196893528103828" lon="10.909108584746718">
        <ele>2811.0300000000002</ele>
        <time>2018-09-09T09:34:15Z</time>
      </trkpt>
      <trkpt lat="46.19690140709281" lon="10.909103807061911">
        <ele>2810.5500000000002</ele>
        <time>2018-09-09T09:34:29Z</time>
      </trkpt>
      <trkpt lat="46.196909286081791" lon="10.909085031598806">
        <ele>2810.0700000000002</ele>
        <time>2018-09-09T09:34:32Z</time>
      </trkpt>
      <trkpt lat="46.196901071816683" lon="10.909100454300642">
        <ele>2810.0700000000002</ele>
        <time>2018-09-09T09:34:39Z</time>
      </trkpt>
      <trkpt lat="46.196894701570272" lon="10.909093581140041">
        <ele>2810.0700000000002</ele>
        <time>2018-09-09T09:34:50Z</time>
      </trkpt>
      <trkpt lat="46.196888331323862" lon="10.909075224772096">
        <ele>2810.0700000000002</ele>
        <time>2018-09-09T09:35:12Z</time>
      </trkpt>
      <trkpt lat="46.196863437071443" lon="10.909034907817841">
        <ele>2810.0700000000002</ele>
        <time>2018-09-09T09:35:34Z</time>
      </trkpt>
      <trkpt lat="46.196885230019689" lon="10.909026442095637">
        <ele>2810.0700000000002</ele>
        <time>2018-09-09T09:35:57Z</time>
      </trkpt>
      <trkpt lat="46.196908950805664" lon="10.909110177308321">
        <ele>2810.0700000000002</ele>
        <time>2018-09-09T09:36:18Z</time>
      </trkpt>
      <trkpt lat="46.196889923885465" lon="10.909126689657569">
        <ele>2810.0700000000002</ele>
        <time>2018-09-09T09:36:41Z</time>
      </trkpt>
      <trkpt lat="46.196909537538886" lon="10.909092994406819">
        <ele>2810.0700000000002</ele>
        <time>2018-09-09T09:37:09Z</time>
      </trkpt>
      <trkpt lat="46.196929737925529" lon="10.909137669950724">
        <ele>2810.5500000000002</ele>
        <time>2018-09-09T09:37:35Z</time>
      </trkpt>
      <trkpt lat="46.196897635236382" lon="10.90913406573236">
        <ele>2810.0700000000002</ele>
        <time>2018-09-09T09:37:57Z</time>
      </trkpt>
      <trkpt lat="46.196909537538886" lon="10.909121073782444">
        <ele>2810.0700000000002</ele>
        <time>2018-09-09T09:38:21Z</time>
      </trkpt>
      <trkpt lat="46.196900652721524" lon="10.909146470949054">
        <ele>2811.0300000000002</ele>
        <time>2018-09-09T09:38:46Z</time>
      </trkpt>
      <trkpt lat="46.196880452334881" lon="10.909140855073929">
        <ele>2811.0300000000002</ele>
        <time>2018-09-09T09:38:54Z</time>
      </trkpt>
      <trkpt lat="46.196920266374946" lon="10.909133898094296">
        <ele>2811.0300000000002</ele>
        <time>2018-09-09T09:39:10Z</time>
      </trkpt>
      <trkpt lat="46.196929067373276" lon="10.909126019105315">
        <ele>2811.0300000000002</ele>
        <time>2018-09-09T09:39:18Z</time>
      </trkpt>
      <trkpt lat="46.196930827572942" lon="10.90911403298378">
        <ele>2810.5500000000002</ele>
        <time>2018-09-09T09:39:28Z</time>
      </trkpt>
      <trkpt lat="46.196926385164261" lon="10.90910623781383">
        <ele>2810.5500000000002</ele>
        <time>2018-09-09T09:39:41Z</time>
      </trkpt>
      <trkpt lat="46.196921104565263" lon="10.909115541726351">
        <ele>2810.5500000000002</ele>
        <time>2018-09-09T09:39:55Z</time>
      </trkpt>
      <trkpt lat="46.196976592764258" lon="10.909102046862245">
        <ele>2810.0700000000002</ele>
        <time>2018-09-09T09:40:04Z</time>
      </trkpt>
      <trkpt lat="46.197004588320851" lon="10.909106489270926">
        <ele>2809.1100000000001</ele>
        <time>2018-09-09T09:40:13Z</time>
      </trkpt>
      <trkpt lat="46.197043480351567" lon="10.909133898094296">
        <ele>2809.1100000000001</ele>
        <time>2018-09-09T09:40:18Z</time>
      </trkpt>
      <trkpt lat="46.197151858359575" lon="10.909143118187785">
        <ele>2807.1900000000001</ele>
        <time>2018-09-09T09:40:29Z</time>
      </trkpt>
      <trkpt lat="46.197252189740539" lon="10.909165246412158">
        <ele>2804.3000000000002</ele>
        <time>2018-09-09T09:40:42Z</time>
      </trkpt>
      <trkpt lat="46.19735729880631" lon="10.90918536297977">
        <ele>2802.8600000000001</ele>
        <time>2018-09-09T09:40:54Z</time>
      </trkpt>
      <trkpt lat="46.19747850112617" lon="10.909231463447213">
        <ele>2799.98</ele>
        <time>2018-09-09T09:41:07Z</time>
      </trkpt>
      <trkpt lat="46.197600373998284" lon="10.909260548651218">
        <ele>2797.5700000000002</ele>
        <time>2018-09-09T09:41:20Z</time>
      </trkpt>
      <trkpt lat="46.197722833603621" lon="10.90926012955606">
        <ele>2795.1700000000001</ele>
        <time>2018-09-09T09:41:32Z</time>
      </trkpt>
      <trkpt lat="46.197823751717806" lon="10.909262476488948">
        <ele>2792.29</ele>
        <time>2018-09-09T09:41:44Z</time>
      </trkpt>
      <trkpt lat="46.197887202724814" lon="10.909302374348044">
        <ele>2790.3600000000001</ele>
        <time>2018-09-09T09:41:54Z</time>
      </trkpt>
      <trkpt lat="46.197945708408952" lon="10.909314192831516">
        <ele>2787</ele>
        <time>2018-09-09T09:42:05Z</time>
      </trkpt>
      <trkpt lat="46.198001867160201" lon="10.909292651340365">
        <ele>2784.5999999999999</ele>
        <time>2018-09-09T09:42:13Z</time>
      </trkpt>
      <trkpt lat="46.198094990104437" lon="10.90924546122551">
        <ele>2782.6700000000001</ele>
        <time>2018-09-09T09:42:23Z</time>
      </trkpt>
      <trkpt lat="46.198108987882733" lon="10.90924009680748">
        <ele>2782.1900000000001</ele>
        <time>2018-09-09T09:42:33Z</time>
      </trkpt>
      <trkpt lat="46.198141928762197" lon="10.909248813986778">
        <ele>2781.23</ele>
        <time>2018-09-09T09:42:41Z</time>
      </trkpt>
      <trkpt lat="46.198208564892411" lon="10.909275133162737">
        <ele>2779.3099999999999</ele>
        <time>2018-09-09T09:42:51Z</time>
      </trkpt>
      <trkpt lat="46.198251312598586" lon="10.909282090142369">
        <ele>2777.3899999999999</ele>
        <time>2018-09-09T09:42:57Z</time>
      </trkpt>
      <trkpt lat="46.198339909315109" lon="10.909268679097295">
        <ele>2774.98</ele>
        <time>2018-09-09T09:43:09Z</time>
      </trkpt>
      <trkpt lat="46.19842397980392" lon="10.90926356613636">
        <ele>2772.0999999999999</ele>
        <time>2018-09-09T09:43:21Z</time>
      </trkpt>
      <trkpt lat="46.19844694621861" lon="10.909253172576427">
        <ele>2771.1399999999999</ele>
        <time>2018-09-09T09:43:24Z</time>
      </trkpt>
      <trkpt lat="46.198560772463679" lon="10.909270606935024">
        <ele>2768.25</ele>
        <time>2018-09-09T09:43:37Z</time>
      </trkpt>
      <trkpt lat="46.198655571788549" lon="10.909264320507646">
        <ele>2766.3299999999999</ele>
        <time>2018-09-09T09:43:48Z</time>
      </trkpt>
      <trkpt lat="46.198761099949479" lon="10.909262895584106">
        <ele>2762.9699999999998</ele>
        <time>2018-09-09T09:44:00Z</time>
      </trkpt>
      <trkpt lat="46.198883140459657" lon="10.909253507852554">
        <ele>2760.5599999999999</ele>
        <time>2018-09-09T09:44:13Z</time>
      </trkpt>
      <trkpt lat="46.198992105200887" lon="10.909275887534022">
        <ele>2758.1599999999999</ele>
        <time>2018-09-09T09:44:24Z</time>
      </trkpt>
      <trkpt lat="46.19903233833611" lon="10.909278066828847">
        <ele>2757.6799999999998</ele>
        <time>2018-09-09T09:44:34Z</time>
      </trkpt>
      <trkpt lat="46.199012724682689" lon="10.909256022423506">
        <ele>2757.6799999999998</ele>
        <time>2018-09-09T09:44:43Z</time>
      </trkpt>
      <trkpt lat="46.199068883433938" lon="10.909258034080267">
        <ele>2756.7199999999998</ele>
        <time>2018-09-09T09:44:55Z</time>
      </trkpt>
      <trkpt lat="46.199069553986192" lon="10.909215034916997">
        <ele>2756.2399999999998</ele>
        <time>2018-09-09T09:44:59Z</time>
      </trkpt>
      <trkpt lat="46.199165694415569" lon="10.909173460677266">
        <ele>2753.8299999999999</ele>
        <time>2018-09-09T09:45:10Z</time>
      </trkpt>
      <trkpt lat="46.199307097122073" lon="10.909169018268585">
        <ele>2750.4699999999998</ele>
        <time>2018-09-09T09:45:25Z</time>
      </trkpt>
      <trkpt lat="46.199372224509716" lon="10.909159127622843">
        <ele>2748.5500000000002</ele>
        <time>2018-09-09T09:45:35Z</time>
      </trkpt>
      <trkpt lat="46.199405416846275" lon="10.909133646637201">
        <ele>2748.5500000000002</ele>
        <time>2018-09-09T09:45:40Z</time>
      </trkpt>
      <trkpt lat="46.199427796527743" lon="10.90912283398211">
        <ele>2748.0700000000002</ele>
        <time>2018-09-09T09:45:43Z</time>
      </trkpt>
      <trkpt lat="46.199494600296021" lon="10.90915753506124">
        <ele>2745.6599999999999</ele>
        <time>2018-09-09T09:45:53Z</time>
      </trkpt>
      <trkpt lat="46.199577245861292" lon="10.909179076552391">
        <ele>2742.7800000000002</ele>
        <time>2018-09-09T09:46:06Z</time>
      </trkpt>
      <trkpt lat="46.199623765423894" lon="10.909173041582108">
        <ele>2741.3400000000001</ele>
        <time>2018-09-09T09:46:16Z</time>
      </trkpt>
      <trkpt lat="46.199679672718048" lon="10.909161055460572">
        <ele>2738.4499999999998</ele>
        <time>2018-09-09T09:46:26Z</time>
      </trkpt>
      <trkpt lat="46.199812442064285" lon="10.909161977469921">
        <ele>2735.5700000000002</ele>
        <time>2018-09-09T09:46:41Z</time>
      </trkpt>
      <trkpt lat="46.199857871979475" lon="10.909136161208153">
        <ele>2734.1300000000001</ele>
        <time>2018-09-09T09:46:52Z</time>
      </trkpt>
      <trkpt lat="46.199840269982815" lon="10.909090479835868">
        <ele>2733.6500000000001</ele>
        <time>2018-09-09T09:47:12Z</time>
      </trkpt>
      <trkpt lat="46.199840856716037" lon="10.909096179530025">
        <ele>2733.6500000000001</ele>
        <time>2018-09-09T09:47:25Z</time>
      </trkpt>
      <trkpt lat="46.199872875586152" lon="10.909110009670258">
        <ele>2732.6799999999998</ele>
        <time>2018-09-09T09:47:35Z</time>
      </trkpt>
      <trkpt lat="46.199883772060275" lon="10.90911939740181">
        <ele>2731.7199999999998</ele>
        <time>2018-09-09T09:47:37Z</time>
      </trkpt>
      <trkpt lat="46.199879916384816" lon="10.90911210514605">
        <ele>2731.7199999999998</ele>
        <time>2018-09-09T09:47:47Z</time>
      </trkpt>
      <trkpt lat="46.199877988547087" lon="10.909070782363415">
        <ele>2731.7199999999998</ele>
        <time>2018-09-09T09:48:02Z</time>
      </trkpt>
      <trkpt lat="46.199885616078973" lon="10.909071955829859">
        <ele>2731.7199999999998</ele>
        <time>2018-09-09T09:48:22Z</time>
      </trkpt>
      <trkpt lat="46.199896344915032" lon="10.909076482057571">
        <ele>2731.2399999999998</ele>
        <time>2018-09-09T09:48:36Z</time>
      </trkpt>
      <trkpt lat="46.199896009638906" lon="10.90907346457243">
        <ele>2731.2399999999998</ele>
        <time>2018-09-09T09:48:55Z</time>
      </trkpt>
      <trkpt lat="46.1998893879354" lon="10.909080002456903">
        <ele>2731.2399999999998</ele>
        <time>2018-09-09T09:49:09Z</time>
      </trkpt>
      <trkpt lat="46.19990011677146" lon="10.909071285277605">
        <ele>2731.2399999999998</ele>
        <time>2018-09-09T09:49:28Z</time>
      </trkpt>
      <trkpt lat="46.199871115386486" lon="10.909067764878273">
        <ele>2731.2399999999998</ele>
        <time>2018-09-09T09:49:42Z</time>
      </trkpt>
      <trkpt lat="46.199864996597171" lon="10.90908813290298">
        <ele>2731.2399999999998</ele>
        <time>2018-09-09T09:50:09Z</time>
      </trkpt>
      <trkpt lat="46.199907073751092" lon="10.909061059355736">
        <ele>2730.2800000000002</ele>
        <time>2018-09-09T09:50:20Z</time>
      </trkpt>
      <trkpt lat="46.199912941083312" lon="10.909060807898641">
        <ele>2729.8000000000002</ele>
        <time>2018-09-09T09:50:35Z</time>
      </trkpt>
      <trkpt lat="46.199936745688319" lon="10.909116379916668">
        <ele>2727.8800000000001</ele>
        <time>2018-09-09T09:50:48Z</time>
      </trkpt>
      <trkpt lat="46.19996415451169" lon="10.909064831212163">
        <ele>2726.4400000000001</ele>
        <time>2018-09-09T09:50:58Z</time>
      </trkpt>
      <trkpt lat="46.199997682124376" lon="10.909013533964753">
        <ele>2723.5500000000002</ele>
        <time>2018-09-09T09:51:11Z</time>
      </trkpt>
      <trkpt lat="46.200030706822872" lon="10.90899869799614">
        <ele>2721.6300000000001</ele>
        <time>2018-09-09T09:51:22Z</time>
      </trkpt>
      <trkpt lat="46.200039926916361" lon="10.90904320590198">
        <ele>2720.1900000000001</ele>
        <time>2018-09-09T09:51:34Z</time>
      </trkpt>
      <trkpt lat="46.200064988806844" lon="10.909056700766087">
        <ele>2717.7800000000002</ele>
        <time>2018-09-09T09:51:47Z</time>
      </trkpt>
      <trkpt lat="46.200104802846909" lon="10.909032393246889">
        <ele>2715.3800000000001</ele>
        <time>2018-09-09T09:51:57Z</time>
      </trkpt>
      <trkpt lat="46.200114358216524" lon="10.909029962494969">
        <ele>2714.4200000000001</ele>
        <time>2018-09-09T09:52:09Z</time>
      </trkpt>
      <trkpt lat="46.20016205124557" lon="10.90895326808095">
        <ele>2712.5</ele>
        <time>2018-09-09T09:52:21Z</time>
      </trkpt>
      <trkpt lat="46.200181161984801" lon="10.908960476517677">
        <ele>2711.54</ele>
        <time>2018-09-09T09:52:31Z</time>
      </trkpt>
      <trkpt lat="46.200212175026536" lon="10.90887556783855">
        <ele>2709.1300000000001</ele>
        <time>2018-09-09T09:52:45Z</time>
      </trkpt>
      <trkpt lat="46.200260538607836" lon="10.908870371058583">
        <ele>2706.73</ele>
        <time>2018-09-09T09:52:55Z</time>
      </trkpt>
      <trkpt lat="46.200256682932377" lon="10.908828377723694">
        <ele>2705.29</ele>
        <time>2018-09-09T09:53:00Z</time>
      </trkpt>
      <trkpt lat="46.200272357091308" lon="10.90874757617712">
        <ele>2703.3600000000001</ele>
        <time>2018-09-09T09:53:09Z</time>
      </trkpt>
      <trkpt lat="46.200271937996149" lon="10.908677252009511">
        <ele>2701.9200000000001</ele>
        <time>2018-09-09T09:53:14Z</time>
      </trkpt>
      <trkpt lat="46.200312674045563" lon="10.908567616716027">
        <ele>2698.5599999999999</ele>
        <time>2018-09-09T09:53:26Z</time>
      </trkpt>
      <trkpt lat="46.200355589389801" lon="10.908485390245914">
        <ele>2695.6700000000001</ele>
        <time>2018-09-09T09:53:39Z</time>
      </trkpt>
      <trkpt lat="46.200369251891971" lon="10.908449599519372">
        <ele>2693.75</ele>
        <time>2018-09-09T09:53:51Z</time>
      </trkpt>
      <trkpt lat="46.200342513620853" lon="10.908440630882978">
        <ele>2693.75</ele>
        <time>2018-09-09T09:54:08Z</time>
      </trkpt>
      <trkpt lat="46.200328264385462" lon="10.908347759395838">
        <ele>2692.79</ele>
        <time>2018-09-09T09:54:21Z</time>
      </trkpt>
      <trkpt lat="46.200322229415178" lon="10.908189089968801">
        <ele>2691.8299999999999</ele>
        <time>2018-09-09T09:54:32Z</time>
      </trkpt>
      <trkpt lat="46.200332622975111" lon="10.908106109127402">
        <ele>2691.8299999999999</ele>
        <time>2018-09-09T09:54:38Z</time>
      </trkpt>
      <trkpt lat="46.200330695137382" lon="10.908076437190175">
        <ele>2691.3499999999999</ele>
        <time>2018-09-09T09:54:40Z</time>
      </trkpt>
      <trkpt lat="46.200372269377112" lon="10.907981218770146">
        <ele>2690.3899999999999</ele>
        <time>2018-09-09T09:54:50Z</time>
      </trkpt>
      <trkpt lat="46.200374867767096" lon="10.907825147733092">
        <ele>2689.4299999999998</ele>
        <time>2018-09-09T09:55:02Z</time>
      </trkpt>
      <trkpt lat="46.20042197406292" lon="10.907757673412561">
        <ele>2688.46</ele>
        <time>2018-09-09T09:55:11Z</time>
      </trkpt>
      <trkpt lat="46.200428931042552" lon="10.907728588208556">
        <ele>2687.98</ele>
        <time>2018-09-09T09:55:14Z</time>
      </trkpt>
      <trkpt lat="46.200505122542381" lon="10.907630436122417">
        <ele>2684.1399999999999</ele>
        <time>2018-09-09T09:55:28Z</time>
      </trkpt>
      <trkpt lat="46.200550301000476" lon="10.907565392553806">
        <ele>2681.73</ele>
        <time>2018-09-09T09:55:38Z</time>
      </trkpt>
      <trkpt lat="46.200608052313328" lon="10.907515184953809">
        <ele>2678.3699999999999</ele>
        <time>2018-09-09T09:55:48Z</time>
      </trkpt>
      <trkpt lat="46.200671503320336" lon="10.907475622370839">
        <ele>2675.0100000000002</ele>
        <time>2018-09-09T09:55:59Z</time>
      </trkpt>
      <trkpt lat="46.20068684220314" lon="10.907437233254313">
        <ele>2673.0799999999999</ele>
        <time>2018-09-09T09:56:09Z</time>
      </trkpt>
      <trkpt lat="46.200671335682273" lon="10.907399179413915">
        <ele>2672.5999999999999</ele>
        <time>2018-09-09T09:56:22Z</time>
      </trkpt>
      <trkpt lat="46.200705617666245" lon="10.907364981248975">
        <ele>2670.6799999999998</ele>
        <time>2018-09-09T09:56:31Z</time>
      </trkpt>
      <trkpt lat="46.200715340673923" lon="10.907315947115421">
        <ele>2668.7600000000002</ele>
        <time>2018-09-09T09:56:40Z</time>
      </trkpt>
      <trkpt lat="46.200780719518661" lon="10.907282000407577">
        <ele>2665.8699999999999</ele>
        <time>2018-09-09T09:56:51Z</time>
      </trkpt>
      <trkpt lat="46.200826233252883" lon="10.907226512208581">
        <ele>2662.9899999999998</ele>
        <time>2018-09-09T09:57:02Z</time>
      </trkpt>
      <trkpt lat="46.200877949595451" lon="10.907208239659667">
        <ele>2660.5900000000001</ele>
        <time>2018-09-09T09:57:13Z</time>
      </trkpt>
      <trkpt lat="46.200898066163063" lon="10.907223494723439">
        <ele>2658.1799999999998</ele>
        <time>2018-09-09T09:57:23Z</time>
      </trkpt>
      <trkpt lat="46.20093259960413" lon="10.907179825007915">
        <ele>2656.2600000000002</ele>
        <time>2018-09-09T09:57:32Z</time>
      </trkpt>
      <trkpt lat="46.200930252671242" lon="10.907170856371522">
        <ele>2656.2600000000002</ele>
        <time>2018-09-09T09:57:33Z</time>
      </trkpt>
      <trkpt lat="46.200917176902294" lon="10.90715367347002">
        <ele>2656.2600000000002</ele>
        <time>2018-09-09T09:57:35Z</time>
      </trkpt>
      <trkpt lat="46.200868561863899" lon="10.907056275755167">
        <ele>2655.7800000000002</ele>
        <time>2018-09-09T09:57:45Z</time>
      </trkpt>
      <trkpt lat="46.200841488316655" lon="10.906962733715773">
        <ele>2655.7800000000002</ele>
        <time>2018-09-09T09:57:55Z</time>
      </trkpt>
      <trkpt lat="46.200846517458558" lon="10.906899869441986">
        <ele>2654.8200000000002</ele>
        <time>2018-09-09T09:58:04Z</time>
      </trkpt>
      <trkpt lat="46.200857413932681" lon="10.90691177174449">
        <ele>2654.8200000000002</ele>
        <time>2018-09-09T09:58:18Z</time>
      </trkpt>
      <trkpt lat="46.200841655954719" lon="10.90691864490509">
        <ele>2654.8200000000002</ele>
        <time>2018-09-09T09:58:32Z</time>
      </trkpt>
      <trkpt lat="46.20086177252233" lon="10.906880758702755">
        <ele>2653.3800000000001</ele>
        <time>2018-09-09T09:58:39Z</time>
      </trkpt>
      <trkpt lat="46.200908627361059" lon="10.906881177797914">
        <ele>2650.9699999999998</ele>
        <time>2018-09-09T09:58:50Z</time>
      </trkpt>
      <trkpt lat="46.200879206880927" lon="10.906845554709435">
        <ele>2649.5300000000002</ele>
        <time>2018-09-09T09:59:00Z</time>
      </trkpt>
      <trkpt lat="46.200878703966737" lon="10.906775062903762">
        <ele>2648.5700000000002</ele>
        <time>2018-09-09T09:59:09Z</time>
      </trkpt>
      <trkpt lat="46.200938802212477" lon="10.906732734292746">
        <ele>2646.1700000000001</ele>
        <time>2018-09-09T09:59:18Z</time>
      </trkpt>
      <trkpt lat="46.200944082811475" lon="10.906668612733483">
        <ele>2644.2399999999998</ele>
        <time>2018-09-09T09:59:27Z</time>
      </trkpt>
      <trkpt lat="46.200980460271239" lon="10.906619327142835">
        <ele>2642.3200000000002</ele>
        <time>2018-09-09T09:59:35Z</time>
      </trkpt>
      <trkpt lat="46.200997810810804" lon="10.906610442325473">
        <ele>2640.8800000000001</ele>
        <time>2018-09-09T09:59:39Z</time>
      </trkpt>
      <trkpt lat="46.200993955135345" lon="10.90657465159893">
        <ele>2640.8800000000001</ele>
        <time>2018-09-09T09:59:47Z</time>
      </trkpt>
      <trkpt lat="46.201010467484593" lon="10.906493095681071">
        <ele>2638.96</ele>
        <time>2018-09-09T09:59:57Z</time>
      </trkpt>
      <trkpt lat="46.201017592102289" lon="10.906488234177232">
        <ele>2638.96</ele>
        <time>2018-09-09T09:59:58Z</time>
      </trkpt>
      <trkpt lat="46.201034858822823" lon="10.906411036849022">
        <ele>2639.4400000000001</ele>
        <time>2018-09-09T10:00:08Z</time>
      </trkpt>
      <trkpt lat="46.201051957905293" lon="10.906387399882078">
        <ele>2638.96</ele>
        <time>2018-09-09T10:00:11Z</time>
      </trkpt>
      <trkpt lat="46.201085820794106" lon="10.906388321891427">
        <ele>2638.48</ele>
        <time>2018-09-09T10:00:21Z</time>
      </trkpt>
      <trkpt lat="46.201132843270898" lon="10.906316321343184">
        <ele>2637.0300000000002</ele>
        <time>2018-09-09T10:00:32Z</time>
      </trkpt>
      <trkpt lat="46.201178692281246" lon="10.906323362141848">
        <ele>2636.0700000000002</ele>
        <time>2018-09-09T10:00:37Z</time>
      </trkpt>
      <trkpt lat="46.201166789978743" lon="10.906317494809628">
        <ele>2635.1100000000001</ele>
        <time>2018-09-09T10:00:46Z</time>
      </trkpt>
      <trkpt lat="46.201116582378745" lon="10.906307771801949">
        <ele>2635.1100000000001</ele>
        <time>2018-09-09T10:01:00Z</time>
      </trkpt>
      <trkpt lat="46.201103338971734" lon="10.906317327171564">
        <ele>2635.5900000000001</ele>
        <time>2018-09-09T10:01:18Z</time>
      </trkpt>
      <trkpt lat="46.201112056151032" lon="10.906329900026321">
        <ele>2635.5900000000001</ele>
        <time>2018-09-09T10:01:39Z</time>
      </trkpt>
      <trkpt lat="46.201130831614137" lon="10.906315483152866">
        <ele>2635.1100000000001</ele>
        <time>2018-09-09T10:01:58Z</time>
      </trkpt>
      <trkpt lat="46.201190762221813" lon="10.906346663832664">
        <ele>2633.1900000000001</ele>
        <time>2018-09-09T10:02:08Z</time>
      </trkpt>
      <trkpt lat="46.201240215450525" lon="10.906286565586925">
        <ele>2631.75</ele>
        <time>2018-09-09T10:02:18Z</time>
      </trkpt>
      <trkpt lat="46.201267037540674" lon="10.906243398785591">
        <ele>2629.8200000000002</ele>
        <time>2018-09-09T10:02:26Z</time>
      </trkpt>
      <trkpt lat="46.201277850195765" lon="10.906220264732838">
        <ele>2629.8200000000002</ele>
        <time>2018-09-09T10:02:29Z</time>
      </trkpt>
      <trkpt lat="46.201327471062541" lon="10.906136864796281">
        <ele>2627.9000000000001</ele>
        <time>2018-09-09T10:02:39Z</time>
      </trkpt>
      <trkpt lat="46.201369380578399" lon="10.90608598664403">
        <ele>2627.4200000000001</ele>
        <time>2018-09-09T10:02:49Z</time>
      </trkpt>
      <trkpt lat="46.201422354206443" lon="10.906036617234349">
        <ele>2625.98</ele>
        <time>2018-09-09T10:02:59Z</time>
      </trkpt>
      <trkpt lat="46.201440459117293" lon="10.905947014689445">
        <ele>2625.02</ele>
        <time>2018-09-09T10:03:09Z</time>
      </trkpt>
      <trkpt lat="46.201448254287243" lon="10.905895968899131">
        <ele>2624.54</ele>
        <time>2018-09-09T10:03:17Z</time>
      </trkpt>
      <trkpt lat="46.201463676989079" lon="10.905879037454724">
        <ele>2624.0599999999999</ele>
        <time>2018-09-09T10:03:22Z</time>
      </trkpt>
      <trkpt lat="46.201547831296921" lon="10.905873840674758">
        <ele>2621.6500000000001</ele>
        <time>2018-09-09T10:03:28Z</time>
      </trkpt>
      <trkpt lat="46.201562164351344" lon="10.905755655840039">
        <ele>2618.77</ele>
        <time>2018-09-09T10:03:40Z</time>
      </trkpt>
      <trkpt lat="46.201593261212111" lon="10.905706789344549">
        <ele>2616.8499999999999</ele>
        <time>2018-09-09T10:03:49Z</time>
      </trkpt>
      <trkpt lat="46.20160105638206" lon="10.905660856515169">
        <ele>2616.3699999999999</ele>
        <time>2018-09-09T10:03:58Z</time>
      </trkpt>
      <trkpt lat="46.201635003089905" lon="10.905606374144554">
        <ele>2615.4000000000001</ele>
        <time>2018-09-09T10:04:09Z</time>
      </trkpt>
      <trkpt lat="46.201654532924294" lon="10.905568487942219">
        <ele>2614.4400000000001</ele>
        <time>2018-09-09T10:04:18Z</time>
      </trkpt>
      <trkpt lat="46.201738100498915" lon="10.905597405508161">
        <ele>2613</ele>
        <time>2018-09-09T10:04:28Z</time>
      </trkpt>
      <trkpt lat="46.201809598132968" lon="10.905544683337212">
        <ele>2610.1199999999999</ele>
        <time>2018-09-09T10:04:38Z</time>
      </trkpt>
      <trkpt lat="46.201820997521281" lon="10.905447537079453">
        <ele>2609.6399999999999</ele>
        <time>2018-09-09T10:04:44Z</time>
      </trkpt>
      <trkpt lat="46.201864499598742" lon="10.905406214296818">
        <ele>2608.1900000000001</ele>
        <time>2018-09-09T10:04:50Z</time>
      </trkpt>
      <trkpt lat="46.201948737725616" lon="10.905323317274451">
        <ele>2606.27</ele>
        <time>2018-09-09T10:05:00Z</time>
      </trkpt>
      <trkpt lat="46.201958963647485" lon="10.905320970341563">
        <ele>2606.27</ele>
        <time>2018-09-09T10:05:01Z</time>
      </trkpt>
      <trkpt lat="46.201969273388386" lon="10.905308984220028">
        <ele>2605.79</ele>
        <time>2018-09-09T10:05:07Z</time>
      </trkpt>
      <trkpt lat="46.202026186510921" lon="10.905303955078125">
        <ele>2603.8699999999999</ele>
        <time>2018-09-09T10:05:12Z</time>
      </trkpt>
      <trkpt lat="46.202090810984373" lon="10.905252322554588">
        <ele>2602.9099999999999</ele>
        <time>2018-09-09T10:05:20Z</time>
      </trkpt>
      <trkpt lat="46.202119896188378" lon="10.905248466879129">
        <ele>2601.46</ele>
        <time>2018-09-09T10:05:23Z</time>
      </trkpt>
      <trkpt lat="46.202127523720264" lon="10.905243689194322">
        <ele>2600.98</ele>
        <time>2018-09-09T10:05:24Z</time>
      </trkpt>
      <trkpt lat="46.202135905623436" lon="10.905206389725208">
        <ele>2600.5</ele>
        <time>2018-09-09T10:05:27Z</time>
      </trkpt>
      <trkpt lat="46.20218544267118" lon="10.905177555978298">
        <ele>2600.5</ele>
        <time>2018-09-09T10:05:33Z</time>
      </trkpt>
      <trkpt lat="46.202298849821091" lon="10.905252825468779">
        <ele>2597.6199999999999</ele>
        <time>2018-09-09T10:05:44Z</time>
      </trkpt>
      <trkpt lat="46.202373281121254" lon="10.905295656993985">
        <ele>2595.2199999999998</ele>
        <time>2018-09-09T10:05:56Z</time>
      </trkpt>
      <trkpt lat="46.202442431822419" lon="10.905337482690811">
        <ele>2592.8099999999999</ele>
        <time>2018-09-09T10:06:02Z</time>
      </trkpt>
      <trkpt lat="46.202453076839447" lon="10.905344523489475">
        <ele>2592.3299999999999</ele>
        <time>2018-09-09T10:06:03Z</time>
      </trkpt>
      <trkpt lat="46.20249766856432" lon="10.905432282015681">
        <ele>2591.3699999999999</ele>
        <time>2018-09-09T10:06:14Z</time>
      </trkpt>
      <trkpt lat="46.202578973025084" lon="10.905452147126198">
        <ele>2590.4099999999999</ele>
        <time>2018-09-09T10:06:25Z</time>
      </trkpt>
      <trkpt lat="46.202596742659807" lon="10.905442927032709">
        <ele>2592.3299999999999</ele>
        <time>2018-09-09T10:06:28Z</time>
      </trkpt>
      <trkpt lat="46.202632784843445" lon="10.905436221510172">
        <ele>2592.3299999999999</ele>
        <time>2018-09-09T10:06:33Z</time>
      </trkpt>
      <trkpt lat="46.202705791220069" lon="10.905365981161594">
        <ele>2592.8099999999999</ele>
        <time>2018-09-09T10:06:44Z</time>
      </trkpt>
      <trkpt lat="46.202725488692522" lon="10.905363718047738">
        <ele>2592.3299999999999</ele>
        <time>2018-09-09T10:06:46Z</time>
      </trkpt>
      <trkpt lat="46.202792292460799" lon="10.905393054708838">
        <ele>2591.8499999999999</ele>
        <time>2018-09-09T10:06:53Z</time>
      </trkpt>
      <trkpt lat="46.202815426513553" lon="10.905386097729206">
        <ele>2591.3699999999999</ele>
        <time>2018-09-09T10:06:56Z</time>
      </trkpt>
      <trkpt lat="46.202908968552947" lon="10.905374698340893">
        <ele>2590.4099999999999</ele>
        <time>2018-09-09T10:07:06Z</time>
      </trkpt>
      <trkpt lat="46.20292816311121" lon="10.905350474640727">
        <ele>2590.8899999999999</ele>
        <time>2018-09-09T10:07:09Z</time>
      </trkpt>
      <trkpt lat="46.203045845031738" lon="10.905310660600662">
        <ele>2588.0100000000002</ele>
        <time>2018-09-09T10:07:21Z</time>
      </trkpt>
      <trkpt lat="46.203053388744593" lon="10.905308062210679">
        <ele>2587.5300000000002</ele>
        <time>2018-09-09T10:07:22Z</time>
      </trkpt>
      <trkpt lat="46.203157491981983" lon="10.905290879309177">
        <ele>2584.1599999999999</ele>
        <time>2018-09-09T10:07:34Z</time>
      </trkpt>
      <trkpt lat="46.203216081485152" lon="10.905204126611352">
        <ele>2583.6799999999998</ele>
        <time>2018-09-09T10:07:44Z</time>
      </trkpt>
      <trkpt lat="46.203264193609357" lon="10.905181830748916">
        <ele>2584.1599999999999</ele>
        <time>2018-09-09T10:07:50Z</time>
      </trkpt>
      <trkpt lat="46.203341893851757" lon="10.905111255124211">
        <ele>2583.6799999999998</ele>
        <time>2018-09-09T10:08:01Z</time>
      </trkpt>
      <trkpt lat="46.203368045389652" lon="10.905103040859103">
        <ele>2583.1999999999998</ele>
        <time>2018-09-09T10:08:04Z</time>
      </trkpt>
      <trkpt lat="46.203430993482471" lon="10.905001200735569">
        <ele>2582.2399999999998</ele>
        <time>2018-09-09T10:08:15Z</time>
      </trkpt>
      <trkpt lat="46.203436693176627" lon="10.904964907094836">
        <ele>2581.7600000000002</ele>
        <time>2018-09-09T10:08:18Z</time>
      </trkpt>
      <trkpt lat="46.203449685126543" lon="10.904877232387662">
        <ele>2580.8000000000002</ele>
        <time>2018-09-09T10:08:24Z</time>
      </trkpt>
      <trkpt lat="46.203491678461432" lon="10.904800621792674">
        <ele>2578.3899999999999</ele>
        <time>2018-09-09T10:08:36Z</time>
      </trkpt>
      <trkpt lat="46.203553956001997" lon="10.904721161350608">
        <ele>2575.9899999999998</ele>
        <time>2018-09-09T10:08:46Z</time>
      </trkpt>
      <trkpt lat="46.203606259077787" lon="10.904638599604368">
        <ele>2574.5500000000002</ele>
        <time>2018-09-09T10:08:53Z</time>
      </trkpt>
      <trkpt lat="46.203657640144229" lon="10.90453801676631">
        <ele>2572.6300000000001</ele>
        <time>2018-09-09T10:09:02Z</time>
      </trkpt>
      <trkpt lat="46.203678846359253" lon="10.904502645134926">
        <ele>2572.1399999999999</ele>
        <time>2018-09-09T10:09:06Z</time>
      </trkpt>
      <trkpt lat="46.203690497204661" lon="10.904464172199368">
        <ele>2571.1799999999998</ele>
        <time>2018-09-09T10:09:09Z</time>
      </trkpt>
      <trkpt lat="46.203718744218349" lon="10.904413545504212">
        <ele>2570.2199999999998</ele>
        <time>2018-09-09T10:09:15Z</time>
      </trkpt>
      <trkpt lat="46.203764006495476" lon="10.904336180537939">
        <ele>2568.7800000000002</ele>
        <time>2018-09-09T10:09:23Z</time>
      </trkpt>
      <trkpt lat="46.203795438632369" lon="10.90427122078836">
        <ele>2567.8200000000002</ele>
        <time>2018-09-09T10:09:29Z</time>
      </trkpt>
      <trkpt lat="46.203863834962249" lon="10.904138619080186">
        <ele>2566.8600000000001</ele>
        <time>2018-09-09T10:09:41Z</time>
      </trkpt>
      <trkpt lat="46.203895015642047" lon="10.904112551361322">
        <ele>2564.4499999999998</ele>
        <time>2018-09-09T10:09:44Z</time>
      </trkpt>
      <trkpt lat="46.203917060047388" lon="10.904102744534612">
        <ele>2563.9699999999998</ele>
        <time>2018-09-09T10:09:46Z</time>
      </trkpt>
      <trkpt lat="46.204016469419003" lon="10.903930244967341">
        <ele>2563.0100000000002</ele>
        <time>2018-09-09T10:10:00Z</time>
      </trkpt>
      <trkpt lat="46.204055277630687" lon="10.903862519189715">
        <ele>2563.0100000000002</ele>
        <time>2018-09-09T10:10:06Z</time>
      </trkpt>
      <trkpt lat="46.204182850196958" lon="10.903768809512258">
        <ele>2561.0900000000001</ele>
        <time>2018-09-09T10:10:20Z</time>
      </trkpt>
      <trkpt lat="46.204200619831681" lon="10.903737461194396">
        <ele>2560.1300000000001</ele>
        <time>2018-09-09T10:10:23Z</time>
      </trkpt>
      <trkpt lat="46.204241523519158" lon="10.903625814244151">
        <ele>2559.6500000000001</ele>
        <time>2018-09-09T10:10:34Z</time>
      </trkpt>
      <trkpt lat="46.204314278438687" lon="10.903563620522618">
        <ele>2556.7600000000002</ele>
        <time>2018-09-09T10:10:45Z</time>
      </trkpt>
      <trkpt lat="46.204337077215314" lon="10.903513245284557">
        <ele>2556.2800000000002</ele>
        <time>2018-09-09T10:10:49Z</time>
      </trkpt>
      <trkpt lat="46.204391811043024" lon="10.903499247506261">
        <ele>2555.3200000000002</ele>
        <time>2018-09-09T10:10:54Z</time>
      </trkpt>
      <trkpt lat="46.204430954530835" lon="10.903428085148335">
        <ele>2554.8400000000001</ele>
        <time>2018-09-09T10:10:59Z</time>
      </trkpt>
      <trkpt lat="46.204533884301782" lon="10.90341224335134">
        <ele>2552.9200000000001</ele>
        <time>2018-09-09T10:11:10Z</time>
      </trkpt>
      <trkpt lat="46.20462566614151" lon="10.903351474553347">
        <ele>2550.5100000000002</ele>
        <time>2018-09-09T10:11:22Z</time>
      </trkpt>
      <trkpt lat="46.204711245372891" lon="10.903333369642496">
        <ele>2548.5900000000001</ele>
        <time>2018-09-09T10:11:33Z</time>
      </trkpt>
      <trkpt lat="46.204803362488747" lon="10.903375446796417">
        <ele>2546.1900000000001</ele>
        <time>2018-09-09T10:11:44Z</time>
      </trkpt>
      <trkpt lat="46.204843679443002" lon="10.903420289978385">
        <ele>2544.27</ele>
        <time>2018-09-09T10:11:54Z</time>
      </trkpt>
      <trkpt lat="46.204847451299429" lon="10.903426492586732">
        <ele>2544.27</ele>
        <time>2018-09-09T10:11:55Z</time>
      </trkpt>
      <trkpt lat="46.204876033589244" lon="10.903470665216446">
        <ele>2543.3099999999999</ele>
        <time>2018-09-09T10:11:58Z</time>
      </trkpt>
      <trkpt lat="46.204920709133148" lon="10.903556579723954">
        <ele>2541.3800000000001</ele>
        <time>2018-09-09T10:12:08Z</time>
      </trkpt>
      <trkpt lat="46.204965300858021" lon="10.903564542531967">
        <ele>2539.9400000000001</ele>
        <time>2018-09-09T10:12:17Z</time>
      </trkpt>
      <trkpt lat="46.205014837905765" lon="10.903523387387395">
        <ele>2538.5</ele>
        <time>2018-09-09T10:12:24Z</time>
      </trkpt>
      <trkpt lat="46.205092119053006" lon="10.903474856168032">
        <ele>2537.54</ele>
        <time>2018-09-09T10:12:33Z</time>
      </trkpt>
      <trkpt lat="46.205175183713436" lon="10.903390115126967">
        <ele>2536.5799999999999</ele>
        <time>2018-09-09T10:12:43Z</time>
      </trkpt>
      <trkpt lat="46.205309042707086" lon="10.903350971639156">
        <ele>2535.1300000000001</ele>
        <time>2018-09-09T10:12:56Z</time>
      </trkpt>
      <trkpt lat="46.205406524240971" lon="10.903296070173383">
        <ele>2534.6500000000001</ele>
        <time>2018-09-09T10:13:06Z</time>
      </trkpt>
      <trkpt lat="46.205478273332119" lon="10.903243934735656">
        <ele>2533.6900000000001</ele>
        <time>2018-09-09T10:13:14Z</time>
      </trkpt>
      <trkpt lat="46.205559074878693" lon="10.903128683567047">
        <ele>2533.21</ele>
        <time>2018-09-09T10:13:26Z</time>
      </trkpt>
      <trkpt lat="46.205522948876023" lon="10.90309708379209">
        <ele>2533.21</ele>
        <time>2018-09-09T10:13:37Z</time>
      </trkpt>
      <trkpt lat="46.205504760146141" lon="10.903050731867552">
        <ele>2533.6900000000001</ele>
        <time>2018-09-09T10:13:48Z</time>
      </trkpt>
      <trkpt lat="46.205508196726441" lon="10.903042433783412">
        <ele>2532.73</ele>
        <time>2018-09-09T10:13:55Z</time>
      </trkpt>
      <trkpt lat="46.205461928620934" lon="10.903066070750356">
        <ele>2532.73</ele>
        <time>2018-09-09T10:14:15Z</time>
      </trkpt>
      <trkpt lat="46.205503083765507" lon="10.903066489845514">
        <ele>2532.73</ele>
        <time>2018-09-09T10:14:44Z</time>
      </trkpt>
      <trkpt lat="46.205489337444305" lon="10.903071267530322">
        <ele>2533.21</ele>
        <time>2018-09-09T10:15:10Z</time>
      </trkpt>
      <trkpt lat="46.205494198948145" lon="10.90307118371129">
        <ele>2532.73</ele>
        <time>2018-09-09T10:15:19Z</time>
      </trkpt>
      <trkpt lat="46.205497132614255" lon="10.903031872585416">
        <ele>2533.21</ele>
        <time>2018-09-09T10:15:38Z</time>
      </trkpt>
      <trkpt lat="46.205516997724771" lon="10.903067495673895">
        <ele>2532.73</ele>
        <time>2018-09-09T10:16:03Z</time>
      </trkpt>
      <trkpt lat="46.205502161756158" lon="10.903051234781742">
        <ele>2532.73</ele>
        <time>2018-09-09T10:16:22Z</time>
      </trkpt>
      <trkpt lat="46.205505095422268" lon="10.903035392984748">
        <ele>2532.73</ele>
        <time>2018-09-09T10:16:40Z</time>
      </trkpt>
      <trkpt lat="46.205499144271016" lon="10.903059532865882">
        <ele>2532.25</ele>
        <time>2018-09-09T10:17:06Z</time>
      </trkpt>
      <trkpt lat="46.205491768196225" lon="10.903057437390089">
        <ele>2532.25</ele>
        <time>2018-09-09T10:17:30Z</time>
      </trkpt>
      <trkpt lat="46.205505514517426" lon="10.903056180104613">
        <ele>2532.25</ele>
        <time>2018-09-09T10:17:46Z</time>
      </trkpt>
      <trkpt lat="46.205491768196225" lon="10.903066154569387">
        <ele>2532.25</ele>
        <time>2018-09-09T10:18:07Z</time>
      </trkpt>
      <trkpt lat="46.205494869500399" lon="10.903068752959371">
        <ele>2532.25</ele>
        <time>2018-09-09T10:18:30Z</time>
      </trkpt>
      <trkpt lat="46.205486822873354" lon="10.903054755181074">
        <ele>2531.77</ele>
        <time>2018-09-09T10:18:50Z</time>
      </trkpt>
      <trkpt lat="46.205471735447645" lon="10.903049558401108">
        <ele>2531.77</ele>
        <time>2018-09-09T10:19:22Z</time>
      </trkpt>
      <trkpt lat="46.205477938055992" lon="10.903034470975399">
        <ele>2532.73</ele>
        <time>2018-09-09T10:19:46Z</time>
      </trkpt>
      <trkpt lat="46.205464778468013" lon="10.903054671362042">
        <ele>2531.77</ele>
        <time>2018-09-09T10:20:12Z</time>
      </trkpt>
      <trkpt lat="46.205509621649981" lon="10.903052911162376">
        <ele>2531.29</ele>
        <time>2018-09-09T10:20:45Z</time>
      </trkpt>
      <trkpt lat="46.205475674942136" lon="10.903056850656867">
        <ele>2531.77</ele>
        <time>2018-09-09T10:21:14Z</time>
      </trkpt>
      <trkpt lat="46.205493360757828" lon="10.903056599199772">
        <ele>2531.29</ele>
        <time>2018-09-09T10:21:45Z</time>
      </trkpt>
      <trkpt lat="46.205515572801232" lon="10.903064394369721">
        <ele>2531.29</ele>
        <time>2018-09-09T10:22:21Z</time>
      </trkpt>
      <trkpt lat="46.205496629700065" lon="10.90307847596705">
        <ele>2531.29</ele>
        <time>2018-09-09T10:22:49Z</time>
      </trkpt>
      <trkpt lat="46.205490427091718" lon="10.903060622513294">
        <ele>2530.8099999999999</ele>
        <time>2018-09-09T10:23:18Z</time>
      </trkpt>
      <trkpt lat="46.205484978854656" lon="10.903049474582076">
        <ele>2530.8099999999999</ele>
        <time>2018-09-09T10:23:52Z</time>
      </trkpt>
      <trkpt lat="46.205450026318431" lon="10.903082666918635">
        <ele>2530.8099999999999</ele>
        <time>2018-09-09T10:24:21Z</time>
      </trkpt>
      <trkpt lat="46.205468634143472" lon="10.903072692453861">
        <ele>2532.25</ele>
        <time>2018-09-09T10:24:50Z</time>
      </trkpt>
      <trkpt lat="46.205479530617595" lon="10.903061628341675">
        <ele>2530.3299999999999</ele>
        <time>2018-09-09T10:25:09Z</time>
      </trkpt>
      <trkpt lat="46.205493276938796" lon="10.903052492067218">
        <ele>2530.8099999999999</ele>
        <time>2018-09-09T10:25:29Z</time>
      </trkpt>
      <trkpt lat="46.205463353544474" lon="10.903063388541341">
        <ele>2530.8099999999999</ele>
        <time>2018-09-09T10:25:55Z</time>
      </trkpt>
      <trkpt lat="46.205460671335459" lon="10.903052994981408">
        <ele>2530.8099999999999</ele>
        <time>2018-09-09T10:26:20Z</time>
      </trkpt>
      <trkpt lat="46.205523954704404" lon="10.903033716604114">
        <ele>2530.8099999999999</ele>
        <time>2018-09-09T10:26:48Z</time>
      </trkpt>
      <trkpt lat="46.205504424870014" lon="10.903053414076567">
        <ele>2530.8099999999999</ele>
        <time>2018-09-09T10:27:23Z</time>
      </trkpt>
      <trkpt lat="46.205498306080699" lon="10.903033716604114">
        <ele>2530.8099999999999</ele>
        <time>2018-09-09T10:27:56Z</time>
      </trkpt>
      <trkpt lat="46.205444661900401" lon="10.903074285015464">
        <ele>2530.8099999999999</ele>
        <time>2018-09-09T10:28:26Z</time>
      </trkpt>
      <trkpt lat="46.205442566424608" lon="10.903094317764044">
        <ele>2530.3299999999999</ele>
        <time>2018-09-09T10:28:51Z</time>
      </trkpt>
      <trkpt lat="46.205511800944805" lon="10.903064059093595">
        <ele>2530.8099999999999</ele>
        <time>2018-09-09T10:29:02Z</time>
      </trkpt>
      <trkpt lat="46.205492354929447" lon="10.903039835393429">
        <ele>2530.3299999999999</ele>
        <time>2018-09-09T10:29:31Z</time>
      </trkpt>
      <trkpt lat="46.205497719347477" lon="10.903037991374731">
        <ele>2530.3299999999999</ele>
        <time>2018-09-09T10:29:55Z</time>
      </trkpt>
      <trkpt lat="46.205497216433287" lon="10.903003541752696">
        <ele>2530.3299999999999</ele>
        <time>2018-09-09T10:30:24Z</time>
      </trkpt>
      <trkpt lat="46.205506771802902" lon="10.903006726875901">
        <ele>2531.29</ele>
        <time>2018-09-09T10:30:45Z</time>
      </trkpt>
      <trkpt lat="46.205512136220932" lon="10.903039332479239">
        <ele>2531.29</ele>
        <time>2018-09-09T10:30:52Z</time>
      </trkpt>
      <trkpt lat="46.205528816208243" lon="10.90305257588625">
        <ele>2531.29</ele>
        <time>2018-09-09T10:31:05Z</time>
      </trkpt>
      <trkpt lat="46.205540299415588" lon="10.903051067143679">
        <ele>2530.8099999999999</ele>
        <time>2018-09-09T10:31:23Z</time>
      </trkpt>
      <trkpt lat="46.205511968582869" lon="10.903071518987417">
        <ele>2530.3299999999999</ele>
        <time>2018-09-09T10:31:37Z</time>
      </trkpt>
      <trkpt lat="46.205493276938796" lon="10.903066238388419">
        <ele>2532.25</ele>
        <time>2018-09-09T10:31:51Z</time>
      </trkpt>
      <trkpt lat="46.205496210604906" lon="10.90305257588625">
        <ele>2531.29</ele>
        <time>2018-09-09T10:32:02Z</time>
      </trkpt>
      <trkpt lat="46.205500485375524" lon="10.903041679412127">
        <ele>2530.8099999999999</ele>
        <time>2018-09-09T10:32:18Z</time>
      </trkpt>
      <trkpt lat="46.205513644963503" lon="10.902999099344015">
        <ele>2530.3299999999999</ele>
        <time>2018-09-09T10:32:27Z</time>
      </trkpt>
      <trkpt lat="46.205538539215922" lon="10.902951238676906">
        <ele>2529.3699999999999</ele>
        <time>2018-09-09T10:32:31Z</time>
      </trkpt>
      <trkpt lat="46.205550357699394" lon="10.902771782130003">
        <ele>2527.9200000000001</ele>
        <time>2018-09-09T10:32:42Z</time>
      </trkpt>
      <trkpt lat="46.205607019364834" lon="10.902696931734681">
        <ele>2526.96</ele>
        <time>2018-09-09T10:32:48Z</time>
      </trkpt>
      <trkpt lat="46.205610372126102" lon="10.90266415849328">
        <ele>2526.96</ele>
        <time>2018-09-09T10:32:51Z</time>
      </trkpt>
      <trkpt lat="46.205586902797222" lon="10.902601964771748">
        <ele>2526.48</ele>
        <time>2018-09-09T10:32:56Z</time>
      </trkpt>
      <trkpt lat="46.205552369356155" lon="10.902406666427851">
        <ele>2527.4400000000001</ele>
        <time>2018-09-09T10:33:09Z</time>
      </trkpt>
      <trkpt lat="46.20554331690073" lon="10.902325781062245">
        <ele>2526.96</ele>
        <time>2018-09-09T10:33:14Z</time>
      </trkpt>
      <trkpt lat="46.205553123727441" lon="10.90208170004189">
        <ele>2524.0799999999999</ele>
        <time>2018-09-09T10:33:28Z</time>
      </trkpt>
      <trkpt lat="46.205549268051982" lon="10.902057224884629">
        <ele>2524.0799999999999</ele>
        <time>2018-09-09T10:33:29Z</time>
      </trkpt>
      <trkpt lat="46.205544909462333" lon="10.902034929022193">
        <ele>2523.5999999999999</ele>
        <time>2018-09-09T10:33:30Z</time>
      </trkpt>
      <trkpt lat="46.205544490367174" lon="10.902018584311008">
        <ele>2523.5999999999999</ele>
        <time>2018-09-09T10:33:31Z</time>
      </trkpt>
      <trkpt lat="46.205542562529445" lon="10.901999389752746">
        <ele>2523.5999999999999</ele>
        <time>2018-09-09T10:33:32Z</time>
      </trkpt>
      <trkpt lat="46.205542897805572" lon="10.90197809971869">
        <ele>2523.1199999999999</ele>
        <time>2018-09-09T10:33:33Z</time>
      </trkpt>
      <trkpt lat="46.205545831471682" lon="10.901956474408507">
        <ele>2523.1199999999999</ele>
        <time>2018-09-09T10:33:34Z</time>
      </trkpt>
      <trkpt lat="46.205549100413918" lon="10.901937782764435">
        <ele>2522.6399999999999</ele>
        <time>2018-09-09T10:33:35Z</time>
      </trkpt>
      <trkpt lat="46.205553123727441" lon="10.901921857148409">
        <ele>2523.1199999999999</ele>
        <time>2018-09-09T10:33:36Z</time>
      </trkpt>
      <trkpt lat="46.205557147040963" lon="10.901906685903668">
        <ele>2522.1599999999999</ele>
        <time>2018-09-09T10:33:37Z</time>
      </trkpt>
      <trkpt lat="46.205564355477691" lon="10.901891933754086">
        <ele>2521.6799999999998</ele>
        <time>2018-09-09T10:33:38Z</time>
      </trkpt>
      <trkpt lat="46.205626046285033" lon="10.901707112789154">
        <ele>2521.6799999999998</ele>
        <time>2018-09-09T10:33:51Z</time>
      </trkpt>
      <trkpt lat="46.205694610252976" lon="10.901539726182818">
        <ele>2518.79</ele>
        <time>2018-09-09T10:34:03Z</time>
      </trkpt>
      <trkpt lat="46.205753283575177" lon="10.901396395638585">
        <ele>2516.3899999999999</ele>
        <time>2018-09-09T10:34:12Z</time>
      </trkpt>
      <trkpt lat="46.205764431506395" lon="10.901387678459287">
        <ele>2516.3899999999999</ele>
        <time>2018-09-09T10:34:13Z</time>
      </trkpt>
      <trkpt lat="46.205774322152138" lon="10.901377284899354">
        <ele>2515.9099999999999</ele>
        <time>2018-09-09T10:34:14Z</time>
      </trkpt>
      <trkpt lat="46.205780357122421" lon="10.901362197473645">
        <ele>2515.9099999999999</ele>
        <time>2018-09-09T10:34:15Z</time>
      </trkpt>
      <trkpt lat="46.205786224454641" lon="10.901348618790507">
        <ele>2515.4299999999998</ele>
        <time>2018-09-09T10:34:16Z</time>
      </trkpt>
      <trkpt lat="46.205795276910067" lon="10.901337135583162">
        <ele>2515.4299999999998</ele>
        <time>2018-09-09T10:34:17Z</time>
      </trkpt>
      <trkpt lat="46.205806257203221" lon="10.901327664032578">
        <ele>2515.4299999999998</ele>
        <time>2018-09-09T10:34:18Z</time>
      </trkpt>
      <trkpt lat="46.205817656591535" lon="10.901318360120058">
        <ele>2514.9499999999998</ele>
        <time>2018-09-09T10:34:19Z</time>
      </trkpt>
      <trkpt lat="46.205826038494706" lon="10.901306876912713">
        <ele>2514.9499999999998</ele>
        <time>2018-09-09T10:34:20Z</time>
      </trkpt>
      <trkpt lat="46.205841293558478" lon="10.901283575221896">
        <ele>2514.4699999999998</ele>
        <time>2018-09-09T10:34:22Z</time>
      </trkpt>
      <trkpt lat="46.205851770937443" lon="10.901273433119059">
        <ele>2513.98</ele>
        <time>2018-09-09T10:34:23Z</time>
      </trkpt>
      <trkpt lat="46.205908684059978" lon="10.901156421750784">
        <ele>2512.0599999999999</ele>
        <time>2018-09-09T10:34:33Z</time>
      </trkpt>
      <trkpt lat="46.205978505313396" lon="10.901080230250955">
        <ele>2510.1399999999999</ele>
        <time>2018-09-09T10:34:41Z</time>
      </trkpt>
      <trkpt lat="46.206022929400206" lon="10.901081068441272">
        <ele>2510.6199999999999</ele>
        <time>2018-09-09T10:34:47Z</time>
      </trkpt>
      <trkpt lat="46.206067185848951" lon="10.901036476716399">
        <ele>2511.5799999999999</ele>
        <time>2018-09-09T10:34:54Z</time>
      </trkpt>
      <trkpt lat="46.206075316295028" lon="10.901025328785181">
        <ele>2511.5799999999999</ele>
        <time>2018-09-09T10:34:55Z</time>
      </trkpt>
      <trkpt lat="46.20608470402658" lon="10.90101501904428">
        <ele>2511.0999999999999</ele>
        <time>2018-09-09T10:34:56Z</time>
      </trkpt>
      <trkpt lat="46.206093924120069" lon="10.901003535836935">
        <ele>2511.0999999999999</ele>
        <time>2018-09-09T10:34:57Z</time>
      </trkpt>
      <trkpt lat="46.206103647127748" lon="10.900992304086685">
        <ele>2511.0999999999999</ele>
        <time>2018-09-09T10:34:58Z</time>
      </trkpt>
      <trkpt lat="46.20611353777349" lon="10.900981407612562">
        <ele>2510.6199999999999</ele>
        <time>2018-09-09T10:34:59Z</time>
      </trkpt>
      <trkpt lat="46.206213785335422" lon="10.900895744562149">
        <ele>2507.2600000000002</ele>
        <time>2018-09-09T10:35:09Z</time>
      </trkpt>
      <trkpt lat="46.20622543618083" lon="10.900890799239278">
        <ele>2507.2600000000002</ele>
        <time>2018-09-09T10:35:10Z</time>
      </trkpt>
      <trkpt lat="46.206271117553115" lon="10.900836568325758">
        <ele>2507.7399999999998</ele>
        <time>2018-09-09T10:35:17Z</time>
      </trkpt>
      <trkpt lat="46.206312021240592" lon="10.900798682123423">
        <ele>2509.1799999999998</ele>
        <time>2018-09-09T10:35:25Z</time>
      </trkpt>
      <trkpt lat="46.206363821402192" lon="10.900731878355145">
        <ele>2507.7399999999998</ele>
        <time>2018-09-09T10:35:34Z</time>
      </trkpt>
      <trkpt lat="46.206415118649602" lon="10.900649819523096">
        <ele>2506.29</ele>
        <time>2018-09-09T10:35:43Z</time>
      </trkpt>
      <trkpt lat="46.206459375098348" lon="10.900581087917089">
        <ele>2505.8099999999999</ele>
        <time>2018-09-09T10:35:51Z</time>
      </trkpt>
      <trkpt lat="46.206490639597178" lon="10.900586871430278">
        <ele>2507.7399999999998</ele>
        <time>2018-09-09T10:36:00Z</time>
      </trkpt>
      <trkpt lat="46.2065689265728" lon="10.90053666383028">
        <ele>2507.7399999999998</ele>
        <time>2018-09-09T10:36:10Z</time>
      </trkpt>
      <trkpt lat="46.206659534946084" lon="10.90048436075449">
        <ele>2505.8099999999999</ele>
        <time>2018-09-09T10:36:21Z</time>
      </trkpt>
      <trkpt lat="46.206745700910687" lon="10.900431890040636">
        <ele>2503.4099999999999</ele>
        <time>2018-09-09T10:36:32Z</time>
      </trkpt>
      <trkpt lat="46.206757016479969" lon="10.900432392954826">
        <ele>2503.4099999999999</ele>
        <time>2018-09-09T10:36:33Z</time>
      </trkpt>
      <trkpt lat="46.206773528829217" lon="10.900424011051655">
        <ele>2502.9299999999998</ele>
        <time>2018-09-09T10:36:35Z</time>
      </trkpt>
      <trkpt lat="46.206849552690983" lon="10.900371707975864">
        <ele>2501.0100000000002</ele>
        <time>2018-09-09T10:36:45Z</time>
      </trkpt>
      <trkpt lat="46.206869250163436" lon="10.90035192668438">
        <ele>2501.4899999999998</ele>
        <time>2018-09-09T10:36:49Z</time>
      </trkpt>
      <trkpt lat="46.206899173557758" lon="10.900331977754831">
        <ele>2501.4899999999998</ele>
        <time>2018-09-09T10:36:53Z</time>
      </trkpt>
      <trkpt lat="46.206967737525702" lon="10.900242459028959">
        <ele>2498.1199999999999</ele>
        <time>2018-09-09T10:37:03Z</time>
      </trkpt>
      <trkpt lat="46.206997744739056" lon="10.900150090456009">
        <ele>2496.1999999999998</ele>
        <time>2018-09-09T10:37:10Z</time>
      </trkpt>
      <trkpt lat="46.207022638991475" lon="10.900000557303429">
        <ele>2493.8000000000002</ele>
        <time>2018-09-09T10:37:20Z</time>
      </trkpt>
      <trkpt lat="46.207028673961759" lon="10.899988738819957">
        <ele>2493.3200000000002</ele>
        <time>2018-09-09T10:37:21Z</time>
      </trkpt>
      <trkpt lat="46.207041162997484" lon="10.899967951700091">
        <ele>2492.3600000000001</ele>
        <time>2018-09-09T10:37:23Z</time>
      </trkpt>
      <trkpt lat="46.207082821056247" lon="10.8999087754637">
        <ele>2490.9099999999999</ele>
        <time>2018-09-09T10:37:30Z</time>
      </trkpt>
      <trkpt lat="46.207145852968097" lon="10.899782879278064">
        <ele>2487.5500000000002</ele>
        <time>2018-09-09T10:37:41Z</time>
      </trkpt>
      <trkpt lat="46.207193545997143" lon="10.899619767442346">
        <ele>2484.6599999999999</ele>
        <time>2018-09-09T10:37:54Z</time>
      </trkpt>
      <trkpt lat="46.207204945385456" lon="10.89959948323667">
        <ele>2483.6999999999998</ele>
        <time>2018-09-09T10:37:56Z</time>
      </trkpt>
      <trkpt lat="46.207210142165422" lon="10.899583473801613">
        <ele>2483.6999999999998</ele>
        <time>2018-09-09T10:37:57Z</time>
      </trkpt>
      <trkpt lat="46.207213997840881" lon="10.899567045271397">
        <ele>2483.6999999999998</ele>
        <time>2018-09-09T10:37:58Z</time>
      </trkpt>
      <trkpt lat="46.207268564030528" lon="10.899416003376245">
        <ele>2480.3400000000001</ele>
        <time>2018-09-09T10:38:10Z</time>
      </trkpt>
      <trkpt lat="46.207336122170091" lon="10.899349199607968">
        <ele>2478.9000000000001</ele>
        <time>2018-09-09T10:38:19Z</time>
      </trkpt>
      <trkpt lat="46.20734048075974" lon="10.899337129667401">
        <ele>2478.9000000000001</ele>
        <time>2018-09-09T10:38:20Z</time>
      </trkpt>
      <trkpt lat="46.207363530993462" lon="10.899293208494782">
        <ele>2478.4200000000001</ele>
        <time>2018-09-09T10:38:24Z</time>
      </trkpt>
      <trkpt lat="46.207372918725014" lon="10.899283234030008">
        <ele>2477.9400000000001</ele>
        <time>2018-09-09T10:38:25Z</time>
      </trkpt>
      <trkpt lat="46.207381719723344" lon="10.899274265393615">
        <ele>2477.9400000000001</ele>
        <time>2018-09-09T10:38:26Z</time>
      </trkpt>
      <trkpt lat="46.207478111609817" lon="10.899190613999963">
        <ele>2475.0500000000002</ele>
        <time>2018-09-09T10:38:38Z</time>
      </trkpt>
      <trkpt lat="46.207533851265907" lon="10.899145854637027">
        <ele>2474.0900000000001</ele>
        <time>2018-09-09T10:38:44Z</time>
      </trkpt>
      <trkpt lat="46.207570564001799" lon="10.899113500490785">
        <ele>2473.1300000000001</ele>
        <time>2018-09-09T10:38:48Z</time>
      </trkpt>
      <trkpt lat="46.207607109099627" lon="10.899059856310487">
        <ele>2472.1700000000001</ele>
        <time>2018-09-09T10:38:54Z</time>
      </trkpt>
      <trkpt lat="46.207613395527005" lon="10.899044768884778">
        <ele>2472.1700000000001</ele>
        <time>2018-09-09T10:38:55Z</time>
      </trkpt>
      <trkpt lat="46.207620687782764" lon="10.899029597640038">
        <ele>2472.1700000000001</ele>
        <time>2018-09-09T10:38:56Z</time>
      </trkpt>
      <trkpt lat="46.20768547989428" lon="10.899006463587284">
        <ele>2470.2399999999998</ele>
        <time>2018-09-09T10:39:05Z</time>
      </trkpt>
      <trkpt lat="46.207706686109304" lon="10.898972768336535">
        <ele>2470.2399999999998</ele>
        <time>2018-09-09T10:39:08Z</time>
      </trkpt>
      <trkpt lat="46.207714900374413" lon="10.898960027843714">
        <ele>2469.7600000000002</ele>
        <time>2018-09-09T10:39:09Z</time>
      </trkpt>
      <trkpt lat="46.207724288105965" lon="10.898948963731527">
        <ele>2469.7600000000002</ele>
        <time>2018-09-09T10:39:10Z</time>
      </trkpt>
      <trkpt lat="46.207732921466231" lon="10.898935804143548">
        <ele>2469.2800000000002</ele>
        <time>2018-09-09T10:39:11Z</time>
      </trkpt>
      <trkpt lat="46.207739962264895" lon="10.898921135812998">
        <ele>2469.2800000000002</ele>
        <time>2018-09-09T10:39:12Z</time>
      </trkpt>
      <trkpt lat="46.207746081054211" lon="10.898906299844384">
        <ele>2469.2800000000002</ele>
        <time>2018-09-09T10:39:13Z</time>
      </trkpt>
      <trkpt lat="46.207788744941354" lon="10.898796245455742">
        <ele>2467.3600000000001</ele>
        <time>2018-09-09T10:39:21Z</time>
      </trkpt>
      <trkpt lat="46.207843227311969" lon="10.898712929338217">
        <ele>2464.96</ele>
        <time>2018-09-09T10:39:29Z</time>
      </trkpt>
      <trkpt lat="46.207893183454871" lon="10.898601282387972">
        <ele>2463.04</ele>
        <time>2018-09-09T10:39:40Z</time>
      </trkpt>
      <trkpt lat="46.207915982231498" lon="10.898562055081129">
        <ele>2461.5900000000001</ele>
        <time>2018-09-09T10:39:44Z</time>
      </trkpt>
      <trkpt lat="46.20794590562582" lon="10.898551410064101">
        <ele>2461.1100000000001</ele>
        <time>2018-09-09T10:39:47Z</time>
      </trkpt>
      <trkpt lat="46.207983708009124" lon="10.898533472791314">
        <ele>2460.1500000000001</ele>
        <time>2018-09-09T10:39:51Z</time>
      </trkpt>
      <trkpt lat="46.207997454330325" lon="10.89848879724741">
        <ele>2459.1900000000001</ele>
        <time>2018-09-09T10:39:55Z</time>
      </trkpt>
      <trkpt lat="46.208034921437502" lon="10.89840866625309">
        <ele>2457.75</ele>
        <time>2018-09-09T10:40:01Z</time>
      </trkpt>
      <trkpt lat="46.208049422129989" lon="10.89835099875927">
        <ele>2457.75</ele>
        <time>2018-09-09T10:40:08Z</time>
      </trkpt>
      <trkpt lat="46.208061575889587" lon="10.898253433406353">
        <ele>2456.79</ele>
        <time>2018-09-09T10:40:15Z</time>
      </trkpt>
      <trkpt lat="46.208067107945681" lon="10.898238848894835">
        <ele>2456.3099999999999</ele>
        <time>2018-09-09T10:40:16Z</time>
      </trkpt>
      <trkpt lat="46.208072220906615" lon="10.898222755640745">
        <ele>2456.3099999999999</ele>
        <time>2018-09-09T10:40:17Z</time>
      </trkpt>
      <trkpt lat="46.208104155957699" lon="10.898172715678811">
        <ele>2456.3099999999999</ele>
        <time>2018-09-09T10:40:22Z</time>
      </trkpt>
      <trkpt lat="46.208170289173722" lon="10.898135080933571">
        <ele>2457.27</ele>
        <time>2018-09-09T10:40:31Z</time>
      </trkpt>
      <trkpt lat="46.208185376599431" lon="10.898126279935241">
        <ele>2456.79</ele>
        <time>2018-09-09T10:40:33Z</time>
      </trkpt>
      <trkpt lat="46.208212114870548" lon="10.898111192509532">
        <ele>2455.8200000000002</ele>
        <time>2018-09-09T10:40:36Z</time>
      </trkpt>
      <trkpt lat="46.208222005516291" lon="10.898103229701519">
        <ele>2455.3400000000001</ele>
        <time>2018-09-09T10:40:37Z</time>
      </trkpt>
      <trkpt lat="46.208237847313285" lon="10.898055536672473">
        <ele>2456.3099999999999</ele>
        <time>2018-09-09T10:40:44Z</time>
      </trkpt>
      <trkpt lat="46.208236506208777" lon="10.89803877286613">
        <ele>2456.3099999999999</ele>
        <time>2018-09-09T10:40:45Z</time>
      </trkpt>
      <trkpt lat="46.208234410732985" lon="10.898013124242425">
        <ele>2455.8200000000002</ele>
        <time>2018-09-09T10:40:47Z</time>
      </trkpt>
      <trkpt lat="46.208237679675221" lon="10.897998120635748">
        <ele>2455.8200000000002</ele>
        <time>2018-09-09T10:40:48Z</time>
      </trkpt>
      <trkpt lat="46.208241786807775" lon="10.897982614114881">
        <ele>2455.8200000000002</ele>
        <time>2018-09-09T10:40:49Z</time>
      </trkpt>
      <trkpt lat="46.208285037428141" lon="10.897888401523232">
        <ele>2454.8600000000001</ele>
        <time>2018-09-09T10:40:57Z</time>
      </trkpt>
      <trkpt lat="46.208310099318624" lon="10.897848838940263">
        <ele>2454.3800000000001</ele>
        <time>2018-09-09T10:41:01Z</time>
      </trkpt>
      <trkpt lat="46.208313787356019" lon="10.897833751514554">
        <ele>2454.8600000000001</ele>
        <time>2018-09-09T10:41:02Z</time>
      </trkpt>
      <trkpt lat="46.208357121795416" lon="10.897729313001037">
        <ele>2453.4200000000001</ele>
        <time>2018-09-09T10:41:11Z</time>
      </trkpt>
      <trkpt lat="46.208395175635815" lon="10.897680530324578">
        <ele>2453.9000000000001</ele>
        <time>2018-09-09T10:41:19Z</time>
      </trkpt>
      <trkpt lat="46.208397606387734" lon="10.897668544203043">
        <ele>2454.3800000000001</ele>
        <time>2018-09-09T10:41:20Z</time>
      </trkpt>
      <trkpt lat="46.208405485376716" lon="10.897652618587017">
        <ele>2453.9000000000001</ele>
        <time>2018-09-09T10:41:21Z</time>
      </trkpt>
      <trkpt lat="46.208414789289236" lon="10.897638788446784">
        <ele>2453.4200000000001</ele>
        <time>2018-09-09T10:41:22Z</time>
      </trkpt>
      <trkpt lat="46.208425769582391" lon="10.897631580010056">
        <ele>2453.4200000000001</ele>
        <time>2018-09-09T10:41:23Z</time>
      </trkpt>
      <trkpt lat="46.208437671884894" lon="10.897628394886851">
        <ele>2453.9000000000001</ele>
        <time>2018-09-09T10:41:24Z</time>
      </trkpt>
      <trkpt lat="46.20847849175334" lon="10.897554717957973">
        <ele>2454.3800000000001</ele>
        <time>2018-09-09T10:41:32Z</time>
      </trkpt>
      <trkpt lat="46.208491316065192" lon="10.897532422095537">
        <ele>2453.9000000000001</ele>
        <time>2018-09-09T10:41:34Z</time>
      </trkpt>
      <trkpt lat="46.208503386005759" lon="10.897475257515907">
        <ele>2452.9400000000001</ele>
        <time>2018-09-09T10:41:38Z</time>
      </trkpt>
      <trkpt lat="46.208569267764688" lon="10.897379871457815">
        <ele>2451.02</ele>
        <time>2018-09-09T10:41:47Z</time>
      </trkpt>
      <trkpt lat="46.208600448444486" lon="10.89732781983912">
        <ele>2450.0599999999999</ele>
        <time>2018-09-09T10:41:52Z</time>
      </trkpt>
      <trkpt lat="46.208608914166689" lon="10.897317845374346">
        <ele>2450.0599999999999</ele>
        <time>2018-09-09T10:41:53Z</time>
      </trkpt>
      <trkpt lat="46.208616541698575" lon="10.897303512319922">
        <ele>2450.0599999999999</ele>
        <time>2018-09-09T10:41:54Z</time>
      </trkpt>
      <trkpt lat="46.20862509123981" lon="10.897291274741292">
        <ele>2450.54</ele>
        <time>2018-09-09T10:41:55Z</time>
      </trkpt>
      <trkpt lat="46.20863439515233" lon="10.897282054647803">
        <ele>2449.5799999999999</ele>
        <time>2018-09-09T10:41:56Z</time>
      </trkpt>
      <trkpt lat="46.208644537255168" lon="10.897277193143964">
        <ele>2449.0999999999999</ele>
        <time>2018-09-09T10:41:57Z</time>
      </trkpt>
      <trkpt lat="46.208654846996069" lon="10.897272918373346">
        <ele>2448.6199999999999</ele>
        <time>2018-09-09T10:41:58Z</time>
      </trkpt>
      <trkpt lat="46.208663564175367" lon="10.897263949736953">
        <ele>2448.1300000000001</ele>
        <time>2018-09-09T10:41:59Z</time>
      </trkpt>
      <trkpt lat="46.208754256367683" lon="10.897172670811415">
        <ele>2446.21</ele>
        <time>2018-09-09T10:42:10Z</time>
      </trkpt>
      <trkpt lat="46.208791472017765" lon="10.897128498181701">
        <ele>2445.25</ele>
        <time>2018-09-09T10:42:15Z</time>
      </trkpt>
      <trkpt lat="46.208802368491888" lon="10.897121541202068">
        <ele>2444.77</ele>
        <time>2018-09-09T10:42:16Z</time>
      </trkpt>
      <trkpt lat="46.20883178897202" lon="10.897066639736295">
        <ele>2443.8099999999999</ele>
        <time>2018-09-09T10:42:22Z</time>
      </trkpt>
      <trkpt lat="46.20883522555232" lon="10.897051552310586">
        <ele>2443.3299999999999</ele>
        <time>2018-09-09T10:42:23Z</time>
      </trkpt>
      <trkpt lat="46.208906723186374" lon="10.89695306494832">
        <ele>2441.4099999999999</ele>
        <time>2018-09-09T10:42:33Z</time>
      </trkpt>
      <trkpt lat="46.208979561924934" lon="10.896890452131629">
        <ele>2439.96</ele>
        <time>2018-09-09T10:42:43Z</time>
      </trkpt>
      <trkpt lat="46.209023483097553" lon="10.896860528737307">
        <ele>2439.96</ele>
        <time>2018-09-09T10:42:49Z</time>
      </trkpt>
      <trkpt lat="46.209045359864831" lon="10.896840831264853">
        <ele>2440.4400000000001</ele>
        <time>2018-09-09T10:42:55Z</time>
      </trkpt>
      <trkpt lat="46.209110571071506" lon="10.896774781867862">
        <ele>2438.52</ele>
        <time>2018-09-09T10:43:02Z</time>
      </trkpt>
      <trkpt lat="46.209125742316246" lon="10.896773943677545">
        <ele>2438.52</ele>
        <time>2018-09-09T10:43:03Z</time>
      </trkpt>
      <trkpt lat="46.20915474370122" lon="10.896761287003756">
        <ele>2438.04</ele>
        <time>2018-09-09T10:43:06Z</time>
      </trkpt>
      <trkpt lat="46.209166143089533" lon="10.896753575652838">
        <ele>2438.04</ele>
        <time>2018-09-09T10:43:07Z</time>
      </trkpt>
      <trkpt lat="46.209181565791368" lon="10.896744439378381">
        <ele>2437.5599999999999</ele>
        <time>2018-09-09T10:43:09Z</time>
      </trkpt>
      <trkpt lat="46.209188941866159" lon="10.896735806018114">
        <ele>2437.0799999999999</ele>
        <time>2018-09-09T10:43:10Z</time>
      </trkpt>
      <trkpt lat="46.209282986819744" lon="10.896653244271874">
        <ele>2435.6399999999999</ele>
        <time>2018-09-09T10:43:21Z</time>
      </trkpt>
      <trkpt lat="46.209342498332262" lon="10.896645281463861">
        <ele>2435.1599999999999</ele>
        <time>2018-09-09T10:43:30Z</time>
      </trkpt>
      <trkpt lat="46.209362195804715" lon="10.896635977551341">
        <ele>2435.1599999999999</ele>
        <time>2018-09-09T10:43:33Z</time>
      </trkpt>
      <trkpt lat="46.209400417283177" lon="10.896611670032144">
        <ele>2438.04</ele>
        <time>2018-09-09T10:43:42Z</time>
      </trkpt>
      <trkpt lat="46.209425898268819" lon="10.896578310057521">
        <ele>2439</ele>
        <time>2018-09-09T10:43:51Z</time>
      </trkpt>
      <trkpt lat="46.209428245201707" lon="10.896551152691245">
        <ele>2439</ele>
        <time>2018-09-09T10:43:53Z</time>
      </trkpt>
      <trkpt lat="46.209430927410722" lon="10.896533215418458">
        <ele>2439</ele>
        <time>2018-09-09T10:43:54Z</time>
      </trkpt>
      <trkpt lat="46.209434615448117" lon="10.896515781059861">
        <ele>2438.52</ele>
        <time>2018-09-09T10:43:55Z</time>
      </trkpt>
      <trkpt lat="46.209439476951957" lon="10.896498765796423">
        <ele>2439.48</ele>
        <time>2018-09-09T10:43:56Z</time>
      </trkpt>
      <trkpt lat="46.209444003179669" lon="10.896482588723302">
        <ele>2438.52</ele>
        <time>2018-09-09T10:43:57Z</time>
      </trkpt>
      <trkpt lat="46.20944551192224" lon="10.896467668935657">
        <ele>2438.04</ele>
        <time>2018-09-09T10:43:58Z</time>
      </trkpt>
      <trkpt lat="46.209454815834761" lon="10.896375216543674">
        <ele>2437.0799999999999</ele>
        <time>2018-09-09T10:44:04Z</time>
      </trkpt>
      <trkpt lat="46.209461353719234" lon="10.8963583689183">
        <ele>2436.5999999999999</ele>
        <time>2018-09-09T10:44:05Z</time>
      </trkpt>
      <trkpt lat="46.209468813613057" lon="10.896342191845179">
        <ele>2436.1199999999999</ele>
        <time>2018-09-09T10:44:06Z</time>
      </trkpt>
      <trkpt lat="46.209526900202036" lon="10.896254098042846">
        <ele>2435.1599999999999</ele>
        <time>2018-09-09T10:44:15Z</time>
      </trkpt>
      <trkpt lat="46.209617257118225" lon="10.896135242655873">
        <ele>2433.71</ele>
        <time>2018-09-09T10:44:26Z</time>
      </trkpt>
      <trkpt lat="46.209653215482831" lon="10.896065253764391">
        <ele>2433.71</ele>
        <time>2018-09-09T10:44:31Z</time>
      </trkpt>
      <trkpt lat="46.209657238796353" lon="10.896052764728665">
        <ele>2433.71</ele>
        <time>2018-09-09T10:44:32Z</time>
      </trkpt>
      <trkpt lat="46.209659669548273" lon="10.896039018407464">
        <ele>2433.23</ele>
        <time>2018-09-09T10:44:33Z</time>
      </trkpt>
      <trkpt lat="46.209660172462463" lon="10.896025355905294">
        <ele>2433.23</ele>
        <time>2018-09-09T10:44:34Z</time>
      </trkpt>
      <trkpt lat="46.209663106128573" lon="10.895975232124329">
        <ele>2432.75</ele>
        <time>2018-09-09T10:44:38Z</time>
      </trkpt>
      <trkpt lat="46.209659837186337" lon="10.895961569622159">
        <ele>2432.27</ele>
        <time>2018-09-09T10:44:39Z</time>
      </trkpt>
      <trkpt lat="46.209659250453115" lon="10.895947320386767">
        <ele>2432.27</ele>
        <time>2018-09-09T10:44:40Z</time>
      </trkpt>
      <trkpt lat="46.209663776680827" lon="10.895930640399456">
        <ele>2431.79</ele>
        <time>2018-09-09T10:44:41Z</time>
      </trkpt>
      <trkpt lat="46.209670566022396" lon="10.895912032574415">
        <ele>2431.79</ele>
        <time>2018-09-09T10:44:42Z</time>
      </trkpt>
      <trkpt lat="46.209703423082829" lon="10.895815473049879">
        <ele>2430.8299999999999</ele>
        <time>2018-09-09T10:44:49Z</time>
      </trkpt>
      <trkpt lat="46.209708284586668" lon="10.895797116681933">
        <ele>2430.8299999999999</ele>
        <time>2018-09-09T10:44:50Z</time>
      </trkpt>
      <trkpt lat="46.209714822471142" lon="10.895778676494956">
        <ele>2430.3499999999999</ele>
        <time>2018-09-09T10:44:51Z</time>
      </trkpt>
      <trkpt lat="46.20972353965044" lon="10.895763589069247">
        <ele>2430.3499999999999</ele>
        <time>2018-09-09T10:44:52Z</time>
      </trkpt>
      <trkpt lat="46.209730748087168" lon="10.895749926567078">
        <ele>2430.3499999999999</ele>
        <time>2018-09-09T10:44:53Z</time>
      </trkpt>
      <trkpt lat="46.209778776392341" lon="10.89565864764154">
        <ele>2428.4299999999998</ele>
        <time>2018-09-09T10:45:01Z</time>
      </trkpt>
      <trkpt lat="46.209827894344926" lon="10.895549431443214">
        <ele>2426.02</ele>
        <time>2018-09-09T10:45:10Z</time>
      </trkpt>
      <trkpt lat="46.209896961227059" lon="10.895395707339048">
        <ele>2424.0999999999999</ele>
        <time>2018-09-09T10:45:21Z</time>
      </trkpt>
      <trkpt lat="46.209902660921216" lon="10.895369220525026">
        <ele>2423.1399999999999</ele>
        <time>2018-09-09T10:45:24Z</time>
      </trkpt>
      <trkpt lat="46.209899308159947" lon="10.895357904955745">
        <ele>2423.6199999999999</ele>
        <time>2018-09-09T10:45:25Z</time>
      </trkpt>
      <trkpt lat="46.209899224340916" lon="10.895342063158751">
        <ele>2423.1399999999999</ele>
        <time>2018-09-09T10:45:26Z</time>
      </trkpt>
      <trkpt lat="46.209904169663787" lon="10.895325383171439">
        <ele>2423.1399999999999</ele>
        <time>2018-09-09T10:45:27Z</time>
      </trkpt>
      <trkpt lat="46.2099086958915" lon="10.895311301574111">
        <ele>2422.6599999999999</ele>
        <time>2018-09-09T10:45:28Z</time>
      </trkpt>
      <trkpt lat="46.209954125806689" lon="10.895201833918691">
        <ele>2420.7399999999998</ele>
        <time>2018-09-09T10:45:36Z</time>
      </trkpt>
      <trkpt lat="46.209990922361612" lon="10.895117511972785">
        <ele>2417.8499999999999</ele>
        <time>2018-09-09T10:45:46Z</time>
      </trkpt>
      <trkpt lat="46.210014224052429" lon="10.89510066434741">
        <ele>2417.8499999999999</ele>
        <time>2018-09-09T10:45:59Z</time>
      </trkpt>
      <trkpt lat="46.210000813007355" lon="10.895076273009181">
        <ele>2417.3699999999999</ele>
        <time>2018-09-09T10:46:29Z</time>
      </trkpt>
      <trkpt lat="46.210002908483148" lon="10.895070238038898">
        <ele>2416.8899999999999</ele>
        <time>2018-09-09T10:46:39Z</time>
      </trkpt>
      <trkpt lat="46.210042471066117" lon="10.895038805902004">
        <ele>2416.8899999999999</ele>
        <time>2018-09-09T10:46:48Z</time>
      </trkpt>
      <trkpt lat="46.210078094154596" lon="10.895000919699669">
        <ele>2417.3699999999999</ele>
        <time>2018-09-09T10:46:58Z</time>
      </trkpt>
      <trkpt lat="46.210100892931223" lon="10.89495993219316">
        <ele>2417.8499999999999</ele>
        <time>2018-09-09T10:47:18Z</time>
      </trkpt>
      <trkpt lat="46.210154118016362" lon="10.894955657422543">
        <ele>2418.3299999999999</ele>
        <time>2018-09-09T10:47:28Z</time>
      </trkpt>
      <trkpt lat="46.210161074995995" lon="10.894975019618869">
        <ele>2418.3299999999999</ele>
        <time>2018-09-09T10:47:42Z</time>
      </trkpt>
      <trkpt lat="46.210167445242405" lon="10.894914586097002">
        <ele>2418.8099999999999</ele>
        <time>2018-09-09T10:47:49Z</time>
      </trkpt>
      <trkpt lat="46.210146071389318" lon="10.894930176436901">
        <ele>2420.2600000000002</ele>
        <time>2018-09-09T10:48:01Z</time>
      </trkpt>
      <trkpt lat="46.210134672001004" lon="10.89494626969099">
        <ele>2419.7800000000002</ele>
        <time>2018-09-09T10:48:18Z</time>
      </trkpt>
      <trkpt lat="46.210140036419034" lon="10.894947946071625">
        <ele>2419.7800000000002</ele>
        <time>2018-09-09T10:48:33Z</time>
      </trkpt>
      <trkpt lat="46.210144395008683" lon="10.89495163410902">
        <ele>2419.7800000000002</ele>
        <time>2018-09-09T10:48:49Z</time>
      </trkpt>
      <trkpt lat="46.210137354210019" lon="10.894957082346082">
        <ele>2419.7800000000002</ele>
        <time>2018-09-09T10:49:09Z</time>
      </trkpt>
      <trkpt lat="46.210136516019702" lon="10.894976276904345">
        <ele>2419.7800000000002</ele>
        <time>2018-09-09T10:49:27Z</time>
      </trkpt>
      <trkpt lat="46.210129139944911" lon="10.894986670464277">
        <ele>2419.7800000000002</ele>
        <time>2018-09-09T10:49:47Z</time>
      </trkpt>
      <trkpt lat="46.21013299562037" lon="10.894983150064945">
        <ele>2421.2199999999998</ele>
        <time>2018-09-09T10:49:59Z</time>
      </trkpt>
      <trkpt lat="46.210149172693491" lon="10.894937887787819">
        <ele>2419.7800000000002</ele>
        <time>2018-09-09T10:50:14Z</time>
      </trkpt>
      <trkpt lat="46.210165182128549" lon="10.894928332418203">
        <ele>2419.7800000000002</ele>
        <time>2018-09-09T10:50:37Z</time>
      </trkpt>
      <trkpt lat="46.21017356403172" lon="10.894932104274631">
        <ele>2419.7800000000002</ele>
        <time>2018-09-09T10:50:51Z</time>
      </trkpt>
      <trkpt lat="46.21016182936728" lon="10.89493696577847">
        <ele>2419.7800000000002</ele>
        <time>2018-09-09T10:51:07Z</time>
      </trkpt>
      <trkpt lat="46.210157973691821" lon="10.89493453502655">
        <ele>2419.7800000000002</ele>
        <time>2018-09-09T10:51:21Z</time>
      </trkpt>
      <trkpt lat="46.210154118016362" lon="10.894932942464948">
        <ele>2419.7800000000002</ele>
        <time>2018-09-09T10:51:33Z</time>
      </trkpt>
      <trkpt lat="46.210176330059767" lon="10.894908048212528">
        <ele>2418.8099999999999</ele>
        <time>2018-09-09T10:51:42Z</time>
      </trkpt>
      <trkpt lat="46.210188148543239" lon="10.894907545298338">
        <ele>2418.8099999999999</ele>
        <time>2018-09-09T10:51:43Z</time>
      </trkpt>
      <trkpt lat="46.210200721397996" lon="10.894912825897336">
        <ele>2418.8099999999999</ele>
        <time>2018-09-09T10:51:44Z</time>
      </trkpt>
      <trkpt lat="46.210223101079464" lon="10.89491450227797">
        <ele>2417.8499999999999</ele>
        <time>2018-09-09T10:51:46Z</time>
      </trkpt>
      <trkpt lat="46.210234081372619" lon="10.894911736249924">
        <ele>2417.8499999999999</ele>
        <time>2018-09-09T10:51:47Z</time>
      </trkpt>
      <trkpt lat="46.210246402770281" lon="10.894909976050258">
        <ele>2417.3699999999999</ele>
        <time>2018-09-09T10:51:48Z</time>
      </trkpt>
      <trkpt lat="46.210337178781629" lon="10.894863875582814">
        <ele>2416.4099999999999</ele>
        <time>2018-09-09T10:51:58Z</time>
      </trkpt>
      <trkpt lat="46.210446394979954" lon="10.894843507558107">
        <ele>2414.4899999999998</ele>
        <time>2018-09-09T10:52:09Z</time>
      </trkpt>
      <trkpt lat="46.210571955889463" lon="10.894832275807858">
        <ele>2412.5700000000002</ele>
        <time>2018-09-09T10:52:20Z</time>
      </trkpt>
      <trkpt lat="46.210620906203985" lon="10.894840490072966">
        <ele>2412.0900000000001</ele>
        <time>2018-09-09T10:52:30Z</time>
      </trkpt>
      <trkpt lat="46.210632221773267" lon="10.894842082634568">
        <ele>2411.5999999999999</ele>
        <time>2018-09-09T10:52:44Z</time>
      </trkpt>
      <trkpt lat="46.210643202066422" lon="10.894843759015203">
        <ele>2411.5999999999999</ele>
        <time>2018-09-09T10:52:45Z</time>
      </trkpt>
      <trkpt lat="46.210656948387623" lon="10.894841076806188">
        <ele>2411.5999999999999</ele>
        <time>2018-09-09T10:52:46Z</time>
      </trkpt>
      <trkpt lat="46.210667258128524" lon="10.894833533093333">
        <ele>2411.5999999999999</ele>
        <time>2018-09-09T10:52:47Z</time>
      </trkpt>
      <trkpt lat="46.210735654458404" lon="10.894788354635239">
        <ele>2411.5999999999999</ele>
        <time>2018-09-09T10:52:54Z</time>
      </trkpt>
      <trkpt lat="46.210742024704814" lon="10.894775865599513">
        <ele>2411.1199999999999</ele>
        <time>2018-09-09T10:52:55Z</time>
      </trkpt>
      <trkpt lat="46.210772953927517" lon="10.894718365743756">
        <ele>2410.6399999999999</ele>
        <time>2018-09-09T10:52:59Z</time>
      </trkpt>
      <trkpt lat="46.21088057756424" lon="10.894659189507365">
        <ele>2411.1199999999999</ele>
        <time>2018-09-09T10:53:09Z</time>
      </trkpt>
      <trkpt lat="46.210913769900799" lon="10.894664134830236">
        <ele>2410.6399999999999</ele>
        <time>2018-09-09T10:53:12Z</time>
      </trkpt>
      <trkpt lat="46.210925001651049" lon="10.894658686593175">
        <ele>2410.6399999999999</ele>
        <time>2018-09-09T10:53:13Z</time>
      </trkpt>
      <trkpt lat="46.210936484858394" lon="10.894655752927065">
        <ele>2410.6399999999999</ele>
        <time>2018-09-09T10:53:14Z</time>
      </trkpt>
      <trkpt lat="46.210947968065739" lon="10.894653825089335">
        <ele>2410.1599999999999</ele>
        <time>2018-09-09T10:53:15Z</time>
      </trkpt>
      <trkpt lat="46.210958696901798" lon="10.894649466499686">
        <ele>2409.6799999999998</ele>
        <time>2018-09-09T10:53:16Z</time>
      </trkpt>
      <trkpt lat="46.210968252271414" lon="10.89464426971972">
        <ele>2409.6799999999998</ele>
        <time>2018-09-09T10:53:17Z</time>
      </trkpt>
      <trkpt lat="46.211052406579256" lon="10.894576627761126">
        <ele>2406.3200000000002</ele>
        <time>2018-09-09T10:53:27Z</time>
      </trkpt>
      <trkpt lat="46.211189785972238" lon="10.894483420997858">
        <ele>2403.9099999999999</ele>
        <time>2018-09-09T10:53:40Z</time>
      </trkpt>
      <trkpt lat="46.211272347718477" lon="10.894465651363134">
        <ele>2402.9499999999998</ele>
        <time>2018-09-09T10:53:48Z</time>
      </trkpt>
      <trkpt lat="46.211387934163213" lon="10.894464142620564">
        <ele>2401.5100000000002</ele>
        <time>2018-09-09T10:53:59Z</time>
      </trkpt>
      <trkpt lat="46.211501844227314" lon="10.894426759332418">
        <ele>2399.1100000000001</ele>
        <time>2018-09-09T10:54:12Z</time>
      </trkpt>
      <trkpt lat="46.211567390710115" lon="10.894473446533084">
        <ele>2398.1500000000001</ele>
        <time>2018-09-09T10:54:22Z</time>
      </trkpt>
      <trkpt lat="46.211645174771547" lon="10.894470596686006">
        <ele>2396.2199999999998</ele>
        <time>2018-09-09T10:54:33Z</time>
      </trkpt>
      <trkpt lat="46.211679875850677" lon="10.894464310258627">
        <ele>2394.7800000000002</ele>
        <time>2018-09-09T10:54:40Z</time>
      </trkpt>
      <trkpt lat="46.21171616949141" lon="10.894478224217892">
        <ele>2393.8200000000002</ele>
        <time>2018-09-09T10:54:45Z</time>
      </trkpt>
      <trkpt lat="46.211735783144832" lon="10.894452575594187">
        <ele>2393.3400000000001</ele>
        <time>2018-09-09T10:54:51Z</time>
      </trkpt>
      <trkpt lat="46.211718684062362" lon="10.894466321915388">
        <ele>2393.3400000000001</ele>
        <time>2018-09-09T10:55:06Z</time>
      </trkpt>
      <trkpt lat="46.211763862520456" lon="10.894426759332418">
        <ele>2393.3400000000001</ele>
        <time>2018-09-09T10:55:14Z</time>
      </trkpt>
      <trkpt lat="46.211790097877383" lon="10.894417623057961">
        <ele>2392.8600000000001</ele>
        <time>2018-09-09T10:55:24Z</time>
      </trkpt>
      <trkpt lat="46.211840724572539" lon="10.894386861473322">
        <ele>2391.9000000000001</ele>
        <time>2018-09-09T10:55:32Z</time>
      </trkpt>
      <trkpt lat="46.211850363761187" lon="10.89437747374177">
        <ele>2391.4200000000001</ele>
        <time>2018-09-09T10:55:33Z</time>
      </trkpt>
      <trkpt lat="46.211879784241319" lon="10.894373953342438">
        <ele>2390.9400000000001</ele>
        <time>2018-09-09T10:55:36Z</time>
      </trkpt>
      <trkpt lat="46.211921526119113" lon="10.894370600581169">
        <ele>2389.9699999999998</ele>
        <time>2018-09-09T10:55:40Z</time>
      </trkpt>
      <trkpt lat="46.211931919679046" lon="10.894367247819901">
        <ele>2389.9699999999998</ele>
        <time>2018-09-09T10:55:41Z</time>
      </trkpt>
      <trkpt lat="46.211997885257006" lon="10.894327517598867">
        <ele>2389.9699999999998</ele>
        <time>2018-09-09T10:55:50Z</time>
      </trkpt>
      <trkpt lat="46.212069215252995" lon="10.894262976944447">
        <ele>2388.0500000000002</ele>
        <time>2018-09-09T10:55:59Z</time>
      </trkpt>
      <trkpt lat="46.212075669318438" lon="10.894252667203546">
        <ele>2387.5700000000002</ele>
        <time>2018-09-09T10:56:00Z</time>
      </trkpt>
      <trkpt lat="46.212084302678704" lon="10.894241100177169">
        <ele>2388.5300000000002</ele>
        <time>2018-09-09T10:56:01Z</time>
      </trkpt>
      <trkpt lat="46.212094444781542" lon="10.894236406311393">
        <ele>2387.0900000000001</ele>
        <time>2018-09-09T10:56:02Z</time>
      </trkpt>
      <trkpt lat="46.212146915495396" lon="10.894217630848289">
        <ele>2385.6500000000001</ele>
        <time>2018-09-09T10:56:09Z</time>
      </trkpt>
      <trkpt lat="46.212161164730787" lon="10.894192233681679">
        <ele>2385.1700000000001</ele>
        <time>2018-09-09T10:56:11Z</time>
      </trkpt>
      <trkpt lat="46.212271973490715" lon="10.894189048558474">
        <ele>2382.7600000000002</ele>
        <time>2018-09-09T10:56:21Z</time>
      </trkpt>
      <trkpt lat="46.212277337908745" lon="10.894181085750461">
        <ele>2382.7600000000002</ele>
        <time>2018-09-09T10:56:22Z</time>
      </trkpt>
      <trkpt lat="46.212281528860331" lon="10.894169015809894">
        <ele>2382.2800000000002</ele>
        <time>2018-09-09T10:56:23Z</time>
      </trkpt>
      <trkpt lat="46.212288234382868" lon="10.894153760746121">
        <ele>2382.2800000000002</ele>
        <time>2018-09-09T10:56:24Z</time>
      </trkpt>
      <trkpt lat="46.212295107543468" lon="10.894145127385855">
        <ele>2382.2800000000002</ele>
        <time>2018-09-09T10:56:25Z</time>
      </trkpt>
      <trkpt lat="46.212350847199559" lon="10.894102966412902">
        <ele>2380.3600000000001</ele>
        <time>2018-09-09T10:56:32Z</time>
      </trkpt>
      <trkpt lat="46.212387559935451" lon="10.894092572852969">
        <ele>2379.4000000000001</ele>
        <time>2018-09-09T10:56:36Z</time>
      </trkpt>
      <trkpt lat="46.21239778585732" lon="10.894087459892035">
        <ele>2378.9200000000001</ele>
        <time>2018-09-09T10:56:37Z</time>
      </trkpt>
      <trkpt lat="46.212472887709737" lon="10.894036749377847">
        <ele>2377.48</ele>
        <time>2018-09-09T10:56:47Z</time>
      </trkpt>
      <trkpt lat="46.212569614872336" lon="10.893972627818584">
        <ele>2376.04</ele>
        <time>2018-09-09T10:56:58Z</time>
      </trkpt>
      <trkpt lat="46.212585289031267" lon="10.893951924517751">
        <ele>2376.04</ele>
        <time>2018-09-09T10:57:00Z</time>
      </trkpt>
      <trkpt lat="46.212591072544456" lon="10.89393868111074">
        <ele>2375.5500000000002</ele>
        <time>2018-09-09T10:57:01Z</time>
      </trkpt>
      <trkpt lat="46.212602388113737" lon="10.893906326964498">
        <ele>2375.5500000000002</ele>
        <time>2018-09-09T10:57:03Z</time>
      </trkpt>
      <trkpt lat="46.2126958463341" lon="10.893834326416254">
        <ele>2374.1100000000001</ele>
        <time>2018-09-09T10:57:15Z</time>
      </trkpt>
      <trkpt lat="46.212744126096368" lon="10.893817311152816">
        <ele>2373.1500000000001</ele>
        <time>2018-09-09T10:57:24Z</time>
      </trkpt>
      <trkpt lat="46.212774217128754" lon="10.893820160999894">
        <ele>2373.1500000000001</ele>
        <time>2018-09-09T10:57:33Z</time>
      </trkpt>
      <trkpt lat="46.212836243212223" lon="10.893814712762833">
        <ele>2372.6700000000001</ele>
        <time>2018-09-09T10:57:43Z</time>
      </trkpt>
      <trkpt lat="46.212914362549782" lon="10.893763247877359">
        <ele>2371.23</ele>
        <time>2018-09-09T10:57:51Z</time>
      </trkpt>
      <trkpt lat="46.212946884334087" lon="10.893756290897727">
        <ele>2370.75</ele>
        <time>2018-09-09T10:57:55Z</time>
      </trkpt>
      <trkpt lat="46.212984602898359" lon="10.89373592287302">
        <ele>2369.79</ele>
        <time>2018-09-09T10:57:59Z</time>
      </trkpt>
      <trkpt lat="46.2130032107234" lon="10.893725194036961">
        <ele>2369.79</ele>
        <time>2018-09-09T10:58:01Z</time>
      </trkpt>
      <trkpt lat="46.213011257350445" lon="10.893716476857662">
        <ele>2370.27</ele>
        <time>2018-09-09T10:58:02Z</time>
      </trkpt>
      <trkpt lat="46.213067835196853" lon="10.893693510442972">
        <ele>2367.3800000000001</ele>
        <time>2018-09-09T10:58:09Z</time>
      </trkpt>
      <trkpt lat="46.213170932605863" lon="10.8936489187181">
        <ele>2366.4200000000001</ele>
        <time>2018-09-09T10:58:19Z</time>
      </trkpt>
      <trkpt lat="46.213235724717379" lon="10.893624108284712">
        <ele>2367.3800000000001</ele>
        <time>2018-09-09T10:58:29Z</time>
      </trkpt>
      <trkpt lat="46.213242849335074" lon="10.893613714724779">
        <ele>2367.3800000000001</ele>
        <time>2018-09-09T10:58:30Z</time>
      </trkpt>
      <trkpt lat="46.213251482695341" lon="10.893603656440973">
        <ele>2366.9000000000001</ele>
        <time>2018-09-09T10:58:31Z</time>
      </trkpt>
      <trkpt lat="46.213262211531401" lon="10.893597370013595">
        <ele>2366.9000000000001</ele>
        <time>2018-09-09T10:58:32Z</time>
      </trkpt>
      <trkpt lat="46.213273778557777" lon="10.893592843785882">
        <ele>2366.9000000000001</ele>
        <time>2018-09-09T10:58:33Z</time>
      </trkpt>
      <trkpt lat="46.21334477327764" lon="10.893595358356833">
        <ele>2365.46</ele>
        <time>2018-09-09T10:58:40Z</time>
      </trkpt>
      <trkpt lat="46.213459940627217" lon="10.893562585115433">
        <ele>2363.54</ele>
        <time>2018-09-09T10:58:52Z</time>
      </trkpt>
      <trkpt lat="46.213495815172791" lon="10.893549341708422">
        <ele>2363.0599999999999</ele>
        <time>2018-09-09T10:58:57Z</time>
      </trkpt>
      <trkpt lat="46.213545938953757" lon="10.893477760255337">
        <ele>2360.1700000000001</ele>
        <time>2018-09-09T10:59:05Z</time>
      </trkpt>
      <trkpt lat="46.213589357212186" lon="10.893488992005587">
        <ele>2359.21</ele>
        <time>2018-09-09T10:59:10Z</time>
      </trkpt>
      <trkpt lat="46.213743668049574" lon="10.893408190459013">
        <ele>2356.8099999999999</ele>
        <time>2018-09-09T10:59:25Z</time>
      </trkpt>
      <trkpt lat="46.213770406320691" lon="10.893427133560181">
        <ele>2356.3299999999999</ele>
        <time>2018-09-09T10:59:34Z</time>
      </trkpt>
      <trkpt lat="46.213786331936717" lon="10.893424367532134">
        <ele>2356.3299999999999</ele>
        <time>2018-09-09T10:59:37Z</time>
      </trkpt>
      <trkpt lat="46.213815836235881" lon="10.893404921516776">
        <ele>2355.3699999999999</ele>
        <time>2018-09-09T10:59:44Z</time>
      </trkpt>
      <trkpt lat="46.213826816529036" lon="10.893395366147161">
        <ele>2355.8499999999999</ele>
        <time>2018-09-09T10:59:45Z</time>
      </trkpt>
      <trkpt lat="46.213840898126364" lon="10.893389666453004">
        <ele>2355.3699999999999</ele>
        <time>2018-09-09T10:59:46Z</time>
      </trkpt>
      <trkpt lat="46.213853806257248" lon="10.893395533785224">
        <ele>2354.8899999999999</ele>
        <time>2018-09-09T10:59:47Z</time>
      </trkpt>
      <trkpt lat="46.213866965845227" lon="10.893405508249998">
        <ele>2354.8899999999999</ele>
        <time>2018-09-09T10:59:48Z</time>
      </trkpt>
      <trkpt lat="46.213889848440886" lon="10.893407436087728">
        <ele>2354.4099999999999</ele>
        <time>2018-09-09T10:59:50Z</time>
      </trkpt>
      <trkpt lat="46.213977439329028" lon="10.893331915140152">
        <ele>2353.4400000000001</ele>
        <time>2018-09-09T11:00:00Z</time>
      </trkpt>
      <trkpt lat="46.214036447927356" lon="10.893324119970202">
        <ele>2353.4400000000001</ele>
        <time>2018-09-09T11:00:05Z</time>
      </trkpt>
      <trkpt lat="46.21410752646625" lon="10.893292520195246">
        <ele>2352.48</ele>
        <time>2018-09-09T11:00:11Z</time>
      </trkpt>
      <trkpt lat="46.214115237817168" lon="10.893283132463694">
        <ele>2352.96</ele>
        <time>2018-09-09T11:00:12Z</time>
      </trkpt>
      <trkpt lat="46.214125966653228" lon="10.893276762217283">
        <ele>2352.48</ele>
        <time>2018-09-09T11:00:13Z</time>
      </trkpt>
      <trkpt lat="46.214164439588785" lon="10.893256813287735">
        <ele>2352</ele>
        <time>2018-09-09T11:00:17Z</time>
      </trkpt>
      <trkpt lat="46.214205930009484" lon="10.8932482637465">
        <ele>2352.48</ele>
        <time>2018-09-09T11:00:21Z</time>
      </trkpt>
      <trkpt lat="46.214218083769083" lon="10.893239798024297">
        <ele>2352</ele>
        <time>2018-09-09T11:00:22Z</time>
      </trkpt>
      <trkpt lat="46.214230321347713" lon="10.893234182149172">
        <ele>2352</ele>
        <time>2018-09-09T11:00:23Z</time>
      </trkpt>
      <trkpt lat="46.214236775413156" lon="10.893227979540825">
        <ele>2352</ele>
        <time>2018-09-09T11:00:24Z</time>
      </trkpt>
      <trkpt lat="46.214242475107312" lon="10.893216161057353">
        <ele>2351.52</ele>
        <time>2018-09-09T11:00:25Z</time>
      </trkpt>
      <trkpt lat="46.214250437915325" lon="10.893209455534816">
        <ele>2351.04</ele>
        <time>2018-09-09T11:00:26Z</time>
      </trkpt>
      <trkpt lat="46.214261585846543" lon="10.893206438049674">
        <ele>2350.5599999999999</ele>
        <time>2018-09-09T11:00:27Z</time>
      </trkpt>
      <trkpt lat="46.21437918394804" lon="10.893160086125135">
        <ele>2349.5999999999999</ele>
        <time>2018-09-09T11:00:39Z</time>
      </trkpt>
      <trkpt lat="46.214444227516651" lon="10.893100574612617">
        <ele>2347.6799999999998</ele>
        <time>2018-09-09T11:00:46Z</time>
      </trkpt>
      <trkpt lat="46.214455962181091" lon="10.893097473308444">
        <ele>2347.6799999999998</ele>
        <time>2018-09-09T11:00:47Z</time>
      </trkpt>
      <trkpt lat="46.214466858655214" lon="10.893098395317793">
        <ele>2347.1999999999998</ele>
        <time>2018-09-09T11:00:48Z</time>
      </trkpt>
      <trkpt lat="46.214527962729335" lon="10.893103256821632">
        <ele>2345.75</ele>
        <time>2018-09-09T11:00:53Z</time>
      </trkpt>
      <trkpt lat="46.214541206136346" lon="10.893112057819963">
        <ele>2345.75</ele>
        <time>2018-09-09T11:00:54Z</time>
      </trkpt>
      <trkpt lat="46.214650338515639" lon="10.893112141638994">
        <ele>2346.23</ele>
        <time>2018-09-09T11:01:04Z</time>
      </trkpt>
      <trkpt lat="46.214658385142684" lon="10.893104514107108">
        <ele>2346.7199999999998</ele>
        <time>2018-09-09T11:01:05Z</time>
      </trkpt>
      <trkpt lat="46.214762069284916" lon="10.893058246001601">
        <ele>2343.8299999999999</ele>
        <time>2018-09-09T11:01:16Z</time>
      </trkpt>
      <trkpt lat="46.214842451736331" lon="10.893015917390585">
        <ele>2340.9499999999998</ele>
        <time>2018-09-09T11:01:25Z</time>
      </trkpt>
      <trkpt lat="46.214925181120634" lon="10.892964117228985">
        <ele>2339.9899999999998</ele>
        <time>2018-09-09T11:01:34Z</time>
      </trkpt>
      <trkpt lat="46.214947057887912" lon="10.892960513010621">
        <ele>2339.5100000000002</ele>
        <time>2018-09-09T11:01:36Z</time>
      </trkpt>
      <trkpt lat="46.214957535266876" lon="10.892960513010621">
        <ele>2339.5100000000002</ele>
        <time>2018-09-09T11:01:37Z</time>
      </trkpt>
      <trkpt lat="46.214967677369714" lon="10.892958752810955">
        <ele>2339.02</ele>
        <time>2018-09-09T11:01:38Z</time>
      </trkpt>
      <trkpt lat="46.215048981830478" lon="10.892936289310455">
        <ele>2336.6199999999999</ele>
        <time>2018-09-09T11:01:48Z</time>
      </trkpt>
      <trkpt lat="46.215192312374711" lon="10.892884656786919">
        <ele>2335.1799999999998</ele>
        <time>2018-09-09T11:02:01Z</time>
      </trkpt>
      <trkpt lat="46.21526263654232" lon="10.89284610003233">
        <ele>2332.7800000000002</ele>
        <time>2018-09-09T11:02:09Z</time>
      </trkpt>
      <trkpt lat="46.215269258245826" lon="10.89283486828208">
        <ele>2332.7800000000002</ele>
        <time>2018-09-09T11:02:10Z</time>
      </trkpt>
      <trkpt lat="46.215342683717608" lon="10.89282413944602">
        <ele>2330.3699999999999</ele>
        <time>2018-09-09T11:02:19Z</time>
      </trkpt>
      <trkpt lat="46.215360537171364" lon="10.892808549106121">
        <ele>2330.3699999999999</ele>
        <time>2018-09-09T11:02:21Z</time>
      </trkpt>
      <trkpt lat="46.215370092540979" lon="10.892803436145186">
        <ele>2329.8899999999999</ele>
        <time>2018-09-09T11:02:22Z</time>
      </trkpt>
      <trkpt lat="46.215387275442481" lon="10.8927889354527">
        <ele>2329.4099999999999</ele>
        <time>2018-09-09T11:02:24Z</time>
      </trkpt>
      <trkpt lat="46.215394232422113" lon="10.892778793349862">
        <ele>2329.4099999999999</ele>
        <time>2018-09-09T11:02:25Z</time>
      </trkpt>
      <trkpt lat="46.215401776134968" lon="10.892768483608961">
        <ele>2328.9299999999998</ele>
        <time>2018-09-09T11:02:26Z</time>
      </trkpt>
      <trkpt lat="46.215408062562346" lon="10.892756162211299">
        <ele>2328.4499999999998</ele>
        <time>2018-09-09T11:02:27Z</time>
      </trkpt>
      <trkpt lat="46.215413929894567" lon="10.892741912975907">
        <ele>2328.4499999999998</ele>
        <time>2018-09-09T11:02:28Z</time>
      </trkpt>
      <trkpt lat="46.215424658730626" lon="10.892730848863721">
        <ele>2327.9699999999998</ele>
        <time>2018-09-09T11:02:29Z</time>
      </trkpt>
      <trkpt lat="46.215457431972027" lon="10.892694974318147">
        <ele>2326.5300000000002</ele>
        <time>2018-09-09T11:02:33Z</time>
      </trkpt>
      <trkpt lat="46.215465310961008" lon="10.892684916034341">
        <ele>2326.5300000000002</ele>
        <time>2018-09-09T11:02:34Z</time>
      </trkpt>
      <trkpt lat="46.215474614873528" lon="10.892676450312138">
        <ele>2326.5300000000002</ele>
        <time>2018-09-09T11:02:35Z</time>
      </trkpt>
      <trkpt lat="46.21548593044281" lon="10.89267267845571">
        <ele>2326.0500000000002</ele>
        <time>2018-09-09T11:02:36Z</time>
      </trkpt>
      <trkpt lat="46.215499006211758" lon="10.892675360664725">
        <ele>2325.5700000000002</ele>
        <time>2018-09-09T11:02:37Z</time>
      </trkpt>
      <trkpt lat="46.215573102235794" lon="10.892678378149867">
        <ele>2324.1199999999999</ele>
        <time>2018-09-09T11:02:44Z</time>
      </trkpt>
      <trkpt lat="46.215662620961666" lon="10.892641413956881">
        <ele>2322.1999999999998</ele>
        <time>2018-09-09T11:02:53Z</time>
      </trkpt>
      <trkpt lat="46.215674020349979" lon="10.892648370936513">
        <ele>2322.1999999999998</ele>
        <time>2018-09-09T11:02:54Z</time>
      </trkpt>
      <trkpt lat="46.215701764449477" lon="10.892650466412306">
        <ele>2321.7199999999998</ele>
        <time>2018-09-09T11:02:57Z</time>
      </trkpt>
      <trkpt lat="46.2157126609236" lon="10.892644515261054">
        <ele>2321.2399999999998</ele>
        <time>2018-09-09T11:02:58Z</time>
      </trkpt>
      <trkpt lat="46.215725066140294" lon="10.89264677837491">
        <ele>2321.2399999999998</ele>
        <time>2018-09-09T11:02:59Z</time>
      </trkpt>
      <trkpt lat="46.215835707262158" lon="10.892699752002954">
        <ele>2319.3200000000002</ele>
        <time>2018-09-09T11:03:09Z</time>
      </trkpt>
      <trkpt lat="46.215942408889532" lon="10.892687095329165">
        <ele>2316.4299999999998</ele>
        <time>2018-09-09T11:03:19Z</time>
      </trkpt>
      <trkpt lat="46.215978702530265" lon="10.892660357058048">
        <ele>2315.9499999999998</ele>
        <time>2018-09-09T11:03:23Z</time>
      </trkpt>
      <trkpt lat="46.216066796332598" lon="10.892630936577916">
        <ele>2314.0300000000002</ele>
        <time>2018-09-09T11:03:34Z</time>
      </trkpt>
      <trkpt lat="46.21606444939971" lon="10.892602270469069">
        <ele>2313.5500000000002</ele>
        <time>2018-09-09T11:03:38Z</time>
      </trkpt>
      <trkpt lat="46.216124966740608" lon="10.892462879419327">
        <ele>2310.6700000000001</ele>
        <time>2018-09-09T11:03:49Z</time>
      </trkpt>
      <trkpt lat="46.216243738308549" lon="10.892341090366244">
        <ele>2308.7399999999998</ele>
        <time>2018-09-09T11:04:01Z</time>
      </trkpt>
      <trkpt lat="46.21633124537766" lon="10.892269508913159">
        <ele>2310.6700000000001</ele>
        <time>2018-09-09T11:04:11Z</time>
      </trkpt>
      <trkpt lat="46.216376507654786" lon="10.892268251627684">
        <ele>2311.1500000000001</ele>
        <time>2018-09-09T11:04:15Z</time>
      </trkpt>
      <trkpt lat="46.216399976983666" lon="10.892258109524846">
        <ele>2311.1500000000001</ele>
        <time>2018-09-09T11:04:17Z</time>
      </trkpt>
      <trkpt lat="46.216409029439092" lon="10.892247296869755">
        <ele>2310.6700000000001</ele>
        <time>2018-09-09T11:04:18Z</time>
      </trkpt>
      <trkpt lat="46.216415986418724" lon="10.892235897481441">
        <ele>2310.1900000000001</ele>
        <time>2018-09-09T11:04:19Z</time>
      </trkpt>
      <trkpt lat="46.216424703598022" lon="10.892229611054063">
        <ele>2309.6999999999998</ele>
        <time>2018-09-09T11:04:20Z</time>
      </trkpt>
      <trkpt lat="46.216433672234416" lon="10.89222458191216">
        <ele>2310.1900000000001</ele>
        <time>2018-09-09T11:04:21Z</time>
      </trkpt>
      <trkpt lat="46.216451860964298" lon="10.892220055684447">
        <ele>2309.2199999999998</ele>
        <time>2018-09-09T11:04:23Z</time>
      </trkpt>
      <trkpt lat="46.216468876227736" lon="10.892214104533195">
        <ele>2308.7399999999998</ele>
        <time>2018-09-09T11:04:25Z</time>
      </trkpt>
      <trkpt lat="46.216478012502193" lon="10.892206309363246">
        <ele>2308.7399999999998</ele>
        <time>2018-09-09T11:04:26Z</time>
      </trkpt>
      <trkpt lat="46.216485556215048" lon="10.892199268564582">
        <ele>2308.2600000000002</ele>
        <time>2018-09-09T11:04:27Z</time>
      </trkpt>
      <trkpt lat="46.216500224545598" lon="10.89217864908278">
        <ele>2307.7800000000002</ele>
        <time>2018-09-09T11:04:29Z</time>
      </trkpt>
      <trkpt lat="46.216508187353611" lon="10.892167836427689">
        <ele>2307.7800000000002</ele>
        <time>2018-09-09T11:04:30Z</time>
      </trkpt>
      <trkpt lat="46.216519167646766" lon="10.892162388190627">
        <ele>2307.7800000000002</ele>
        <time>2018-09-09T11:04:31Z</time>
      </trkpt>
      <trkpt lat="46.216529309749603" lon="10.892157945781946">
        <ele>2307.3000000000002</ele>
        <time>2018-09-09T11:04:32Z</time>
      </trkpt>
      <trkpt lat="46.216632407158613" lon="10.892036827281117">
        <ele>2306.3400000000001</ele>
        <time>2018-09-09T11:04:43Z</time>
      </trkpt>
      <trkpt lat="46.216645147651434" lon="10.892015034332871">
        <ele>2306.3400000000001</ele>
        <time>2018-09-09T11:04:45Z</time>
      </trkpt>
      <trkpt lat="46.216707676649094" lon="10.891935741528869">
        <ele>2305.8600000000001</ele>
        <time>2018-09-09T11:04:54Z</time>
      </trkpt>
      <trkpt lat="46.216715723276138" lon="10.8919289521873">
        <ele>2305.3800000000001</ele>
        <time>2018-09-09T11:04:55Z</time>
      </trkpt>
      <trkpt lat="46.216741036623716" lon="10.89189525693655">
        <ele>2304.4200000000001</ele>
        <time>2018-09-09T11:04:59Z</time>
      </trkpt>
      <trkpt lat="46.216751346364617" lon="10.891891065984964">
        <ele>2303.9400000000001</ele>
        <time>2018-09-09T11:05:00Z</time>
      </trkpt>
      <trkpt lat="46.216763919219375" lon="10.891883606091142">
        <ele>2303.46</ele>
        <time>2018-09-09T11:05:01Z</time>
      </trkpt>
      <trkpt lat="46.216817479580641" lon="10.891839265823364">
        <ele>2302.4899999999998</ele>
        <time>2018-09-09T11:05:07Z</time>
      </trkpt>
      <trkpt lat="46.216887887567282" lon="10.891759051010013">
        <ele>2299.6100000000001</ele>
        <time>2018-09-09T11:05:18Z</time>
      </trkpt>
      <trkpt lat="46.216897945851088" lon="10.891753435134888">
        <ele>2299.6100000000001</ele>
        <time>2018-09-09T11:05:19Z</time>
      </trkpt>
      <trkpt lat="46.216974891722202" lon="10.891689648851752">
        <ele>2297.21</ele>
        <time>2018-09-09T11:05:28Z</time>
      </trkpt>
      <trkpt lat="46.216978915035725" lon="10.891674812883139">
        <ele>2297.21</ele>
        <time>2018-09-09T11:05:29Z</time>
      </trkpt>
      <trkpt lat="46.217026943340898" lon="10.891609434038401">
        <ele>2295.77</ele>
        <time>2018-09-09T11:05:39Z</time>
      </trkpt>
      <trkpt lat="46.217061309143901" lon="10.891535673290491">
        <ele>2294.3200000000002</ele>
        <time>2018-09-09T11:05:46Z</time>
      </trkpt>
      <trkpt lat="46.217077737674117" lon="10.891518155112863">
        <ele>2293.8400000000001</ele>
        <time>2018-09-09T11:05:48Z</time>
      </trkpt>
      <trkpt lat="46.217084862291813" lon="10.891505079343915">
        <ele>2293.8400000000001</ele>
        <time>2018-09-09T11:05:49Z</time>
      </trkpt>
      <trkpt lat="46.217185277491808" lon="10.891370801255107">
        <ele>2293.3600000000001</ele>
        <time>2018-09-09T11:06:02Z</time>
      </trkpt>
      <trkpt lat="46.217242190614343" lon="10.891334256157279">
        <ele>2293.8400000000001</ele>
        <time>2018-09-09T11:06:08Z</time>
      </trkpt>
      <trkpt lat="46.2172513268888" lon="10.891322018578649">
        <ele>2293.8400000000001</ele>
        <time>2018-09-09T11:06:09Z</time>
      </trkpt>
      <trkpt lat="46.217258786782622" lon="10.891313217580318">
        <ele>2293.8400000000001</ele>
        <time>2018-09-09T11:06:10Z</time>
      </trkpt>
      <trkpt lat="46.217266246676445" lon="10.891302404925227">
        <ele>2293.8400000000001</ele>
        <time>2018-09-09T11:06:11Z</time>
      </trkpt>
      <trkpt lat="46.217352747917175" lon="10.891176927834749">
        <ele>2292.4000000000001</ele>
        <time>2018-09-09T11:06:23Z</time>
      </trkpt>
      <trkpt lat="46.217380240559578" lon="10.891181286424398">
        <ele>2291.4400000000001</ele>
        <time>2018-09-09T11:06:26Z</time>
      </trkpt>
      <trkpt lat="46.217401530593634" lon="10.891188411042094">
        <ele>2290.48</ele>
        <time>2018-09-09T11:06:28Z</time>
      </trkpt>
      <trkpt lat="46.217446625232697" lon="10.891185309737921">
        <ele>2289.04</ele>
        <time>2018-09-09T11:06:32Z</time>
      </trkpt>
      <trkpt lat="46.217467579990625" lon="10.891178520396352">
        <ele>2288.0799999999999</ele>
        <time>2018-09-09T11:06:35Z</time>
      </trkpt>
      <trkpt lat="46.217478979378939" lon="10.891177179291844">
        <ele>2288.0799999999999</ele>
        <time>2018-09-09T11:06:36Z</time>
      </trkpt>
      <trkpt lat="46.217532204464078" lon="10.891166450455785">
        <ele>2286.1500000000001</ele>
        <time>2018-09-09T11:06:45Z</time>
      </trkpt>
      <trkpt lat="46.217575622722507" lon="10.891114817932248">
        <ele>2285.1900000000001</ele>
        <time>2018-09-09T11:06:50Z</time>
      </trkpt>
      <trkpt lat="46.217585345730186" lon="10.891104005277157">
        <ele>2285.1900000000001</ele>
        <time>2018-09-09T11:06:51Z</time>
      </trkpt>
      <trkpt lat="46.217606216669083" lon="10.891080368310213">
        <ele>2284.23</ele>
        <time>2018-09-09T11:06:53Z</time>
      </trkpt>
      <trkpt lat="46.217619124799967" lon="10.891076847910881">
        <ele>2284.23</ele>
        <time>2018-09-09T11:06:54Z</time>
      </trkpt>
      <trkpt lat="46.217630943283439" lon="10.891071734949946">
        <ele>2284.23</ele>
        <time>2018-09-09T11:06:55Z</time>
      </trkpt>
      <trkpt lat="46.217725155875087" lon="10.890963273122907">
        <ele>2282.79</ele>
        <time>2018-09-09T11:07:07Z</time>
      </trkpt>
      <trkpt lat="46.217728508636355" lon="10.890947515144944">
        <ele>2282.79</ele>
        <time>2018-09-09T11:07:08Z</time>
      </trkpt>
      <trkpt lat="46.217734292149544" lon="10.890931254252791">
        <ele>2282.79</ele>
        <time>2018-09-09T11:07:09Z</time>
      </trkpt>
      <trkpt lat="46.217741500586271" lon="10.890919687226415">
        <ele>2282.79</ele>
        <time>2018-09-09T11:07:10Z</time>
      </trkpt>
      <trkpt lat="46.217748709022999" lon="10.890906695276499">
        <ele>2282.79</ele>
        <time>2018-09-09T11:07:11Z</time>
      </trkpt>
      <trkpt lat="46.217754324898124" lon="10.890890937298536">
        <ele>2282.3099999999999</ele>
        <time>2018-09-09T11:07:12Z</time>
      </trkpt>
      <trkpt lat="46.217757677659392" lon="10.890875263139606">
        <ele>2282.3099999999999</ele>
        <time>2018-09-09T11:07:13Z</time>
      </trkpt>
      <trkpt lat="46.217760778963566" lon="10.890860259532928">
        <ele>2282.3099999999999</ele>
        <time>2018-09-09T11:07:14Z</time>
      </trkpt>
      <trkpt lat="46.217839904129505" lon="10.890726568177342">
        <ele>2280.8699999999999</ele>
        <time>2018-09-09T11:07:24Z</time>
      </trkpt>
      <trkpt lat="46.217953395098448" lon="10.890669990330935">
        <ele>2280.8699999999999</ele>
        <time>2018-09-09T11:07:34Z</time>
      </trkpt>
      <trkpt lat="46.218037130311131" lon="10.89066588319838">
        <ele>2281.8299999999999</ele>
        <time>2018-09-09T11:07:42Z</time>
      </trkpt>
      <trkpt lat="46.218122290447354" lon="10.890586590394378">
        <ele>2280.8699999999999</ele>
        <time>2018-09-09T11:07:52Z</time>
      </trkpt>
      <trkpt lat="46.218128073960543" lon="10.890571000054479">
        <ele>2280.3800000000001</ele>
        <time>2018-09-09T11:07:53Z</time>
      </trkpt>
      <trkpt lat="46.21813477948308" lon="10.890556750819087">
        <ele>2279.9000000000001</ele>
        <time>2018-09-09T11:07:54Z</time>
      </trkpt>
      <trkpt lat="46.218144753947854" lon="10.890544429421425">
        <ele>2279.9000000000001</ele>
        <time>2018-09-09T11:07:55Z</time>
      </trkpt>
      <trkpt lat="46.218158416450024" lon="10.890534874051809">
        <ele>2279.9000000000001</ele>
        <time>2018-09-09T11:07:56Z</time>
      </trkpt>
      <trkpt lat="46.218184065073729" lon="10.890531102195382">
        <ele>2279.4200000000001</ele>
        <time>2018-09-09T11:07:58Z</time>
      </trkpt>
      <trkpt lat="46.218195632100105" lon="10.890533030033112">
        <ele>2279.4200000000001</ele>
        <time>2018-09-09T11:07:59Z</time>
      </trkpt>
      <trkpt lat="46.218255897983909" lon="10.890520960092545">
        <ele>2278.9400000000001</ele>
        <time>2018-09-09T11:08:06Z</time>
      </trkpt>
      <trkpt lat="46.218286575749516" lon="10.890515511855483">
        <ele>2279.4200000000001</ele>
        <time>2018-09-09T11:08:09Z</time>
      </trkpt>
      <trkpt lat="46.218296885490417" lon="10.890507213771343">
        <ele>2278.9400000000001</ele>
        <time>2018-09-09T11:08:10Z</time>
      </trkpt>
      <trkpt lat="46.218366958200932" lon="10.890467902645469">
        <ele>2277.5</ele>
        <time>2018-09-09T11:08:16Z</time>
      </trkpt>
      <trkpt lat="46.218379028141499" lon="10.890469159930944">
        <ele>2277.5</ele>
        <time>2018-09-09T11:08:17Z</time>
      </trkpt>
      <trkpt lat="46.218391349539161" lon="10.890464717522264">
        <ele>2277.02</ele>
        <time>2018-09-09T11:08:18Z</time>
      </trkpt>
      <trkpt lat="46.218404425308108" lon="10.890457844361663">
        <ele>2277.02</ele>
        <time>2018-09-09T11:08:19Z</time>
      </trkpt>
      <trkpt lat="46.218415154144168" lon="10.890450300648808">
        <ele>2276.54</ele>
        <time>2018-09-09T11:08:20Z</time>
      </trkpt>
      <trkpt lat="46.218548426404595" lon="10.890347622334957">
        <ele>2276.0599999999999</ele>
        <time>2018-09-09T11:08:33Z</time>
      </trkpt>
      <trkpt lat="46.218668287619948" lon="10.890189791098237">
        <ele>2274.6199999999999</ele>
        <time>2018-09-09T11:08:46Z</time>
      </trkpt>
      <trkpt lat="46.218776749446988" lon="10.890021985396743">
        <ele>2274.1399999999999</ele>
        <time>2018-09-09T11:08:59Z</time>
      </trkpt>
      <trkpt lat="46.218907339498401" lon="10.889866165816784">
        <ele>2273.1700000000001</ele>
        <time>2018-09-09T11:09:13Z</time>
      </trkpt>
      <trkpt lat="46.219034995883703" lon="10.889814784750342">
        <ele>2273.6599999999999</ele>
        <time>2018-09-09T11:09:28Z</time>
      </trkpt>
      <trkpt lat="46.219049831852317" lon="10.889812270179391">
        <ele>2274.6199999999999</ele>
        <time>2018-09-09T11:09:30Z</time>
      </trkpt>
      <trkpt lat="46.219077408313751" lon="10.88980782777071">
        <ele>2274.1399999999999</ele>
        <time>2018-09-09T11:09:36Z</time>
      </trkpt>
      <trkpt lat="46.219100542366505" lon="10.889807157218456">
        <ele>2274.6199999999999</ele>
        <time>2018-09-09T11:09:38Z</time>
      </trkpt>
      <trkpt lat="46.219129208475351" lon="10.889803804457188">
        <ele>2274.1399999999999</ele>
        <time>2018-09-09T11:09:41Z</time>
      </trkpt>
      <trkpt lat="46.219141194596887" lon="10.889802379533648">
        <ele>2275.5799999999999</ele>
        <time>2018-09-09T11:09:42Z</time>
      </trkpt>
      <trkpt lat="46.219154018908739" lon="10.889803301542997">
        <ele>2274.6199999999999</ele>
        <time>2018-09-09T11:09:43Z</time>
      </trkpt>
      <trkpt lat="46.219164412468672" lon="10.88980439119041">
        <ele>2274.1399999999999</ele>
        <time>2018-09-09T11:09:44Z</time>
      </trkpt>
      <trkpt lat="46.21917556039989" lon="10.889802547171712">
        <ele>2274.1399999999999</ele>
        <time>2018-09-09T11:09:45Z</time>
      </trkpt>
      <trkpt lat="46.219186456874013" lon="10.889799194410443">
        <ele>2274.6199999999999</ele>
        <time>2018-09-09T11:09:46Z</time>
      </trkpt>
      <trkpt lat="46.219197437167168" lon="10.889794835820794">
        <ele>2275.0999999999999</ele>
        <time>2018-09-09T11:09:47Z</time>
      </trkpt>
      <trkpt lat="46.219209088012576" lon="10.889788549393415">
        <ele>2274.6199999999999</ele>
        <time>2018-09-09T11:09:48Z</time>
      </trkpt>
      <trkpt lat="46.219220738857985" lon="10.889783436432481">
        <ele>2274.1399999999999</ele>
        <time>2018-09-09T11:09:49Z</time>
      </trkpt>
      <trkpt lat="46.219271617010236" lon="10.889749573543668">
        <ele>2273.6599999999999</ele>
        <time>2018-09-09T11:09:54Z</time>
      </trkpt>
      <trkpt lat="46.219420144334435" lon="10.889654103666544">
        <ele>2274.1399999999999</ele>
        <time>2018-09-09T11:10:08Z</time>
      </trkpt>
      <trkpt lat="46.219499688595533" lon="10.889524267986417">
        <ele>2274.1399999999999</ele>
        <time>2018-09-09T11:10:20Z</time>
      </trkpt>
      <trkpt lat="46.219518044963479" lon="10.889452183619142">
        <ele>2274.6199999999999</ele>
        <time>2018-09-09T11:10:30Z</time>
      </trkpt>
      <trkpt lat="46.219527684152126" lon="10.889373477548361">
        <ele>2274.6199999999999</ele>
        <time>2018-09-09T11:10:40Z</time>
      </trkpt>
      <trkpt lat="46.219544028863311" lon="10.889369370415807">
        <ele>2270.77</ele>
        <time>2018-09-09T11:10:49Z</time>
      </trkpt>
      <trkpt lat="46.219542101025581" lon="10.889364005997777">
        <ele>2276.0599999999999</ele>
        <time>2018-09-09T11:10:50Z</time>
      </trkpt>
      <trkpt lat="46.219539837911725" lon="10.889362413436174">
        <ele>2274.1399999999999</ele>
        <time>2018-09-09T11:10:53Z</time>
      </trkpt>
      <trkpt lat="46.219551572576165" lon="10.88934363797307">
        <ele>2273.6599999999999</ele>
        <time>2018-09-09T11:11:11Z</time>
      </trkpt>
      <trkpt lat="46.219516368582845" lon="10.889337519183755">
        <ele>2273.6599999999999</ele>
        <time>2018-09-09T11:11:37Z</time>
      </trkpt>
      <trkpt lat="46.219526762142777" lon="10.889299800619483">
        <ele>2273.6599999999999</ele>
        <time>2018-09-09T11:11:58Z</time>
      </trkpt>
      <trkpt lat="46.219463227316737" lon="10.88965100236237">
        <ele>2273.6599999999999</ele>
        <time>2018-09-09T11:12:08Z</time>
      </trkpt>
      <trkpt lat="46.219481080770493" lon="10.88931237347424">
        <ele>2274.1399999999999</ele>
        <time>2018-09-09T11:12:25Z</time>
      </trkpt>
      <trkpt lat="46.21950245462358" lon="10.889305332675576">
        <ele>2274.6199999999999</ele>
        <time>2018-09-09T11:12:35Z</time>
      </trkpt>
      <trkpt lat="46.219512680545449" lon="10.889264345169067">
        <ele>2274.1399999999999</ele>
        <time>2018-09-09T11:12:38Z</time>
      </trkpt>
      <trkpt lat="46.219523744657636" lon="10.889251604676247">
        <ele>2274.1399999999999</ele>
        <time>2018-09-09T11:12:39Z</time>
      </trkpt>
      <trkpt lat="46.219547968357801" lon="10.889228889718652">
        <ele>2274.1399999999999</ele>
        <time>2018-09-09T11:12:43Z</time>
      </trkpt>
      <trkpt lat="46.21961778961122" lon="10.889250095933676">
        <ele>2278.9400000000001</ele>
        <time>2018-09-09T11:12:51Z</time>
      </trkpt>
      <trkpt lat="46.219582753255963" lon="10.889311702921987">
        <ele>2277.02</ele>
        <time>2018-09-09T11:13:02Z</time>
      </trkpt>
      <trkpt lat="46.219570180401206" lon="10.889122942462564">
        <ele>2276.54</ele>
        <time>2018-09-09T11:13:06Z</time>
      </trkpt>
      <trkpt lat="46.219570264220238" lon="10.889424188062549">
        <ele>2276.54</ele>
        <time>2018-09-09T11:13:09Z</time>
      </trkpt>
      <trkpt lat="46.219569928944111" lon="10.889123193919659">
        <ele>2276.0599999999999</ele>
        <time>2018-09-09T11:13:11Z</time>
      </trkpt>
      <trkpt lat="46.219577556475997" lon="10.889290580525994">
        <ele>2274.6199999999999</ele>
        <time>2018-09-09T11:41:45Z</time>
      </trkpt>
      <trkpt lat="46.219576969742775" lon="10.88932259939611">
        <ele>2274.1399999999999</ele>
        <time>2018-09-09T11:41:47Z</time>
      </trkpt>
      <trkpt lat="46.219550399109721" lon="10.88933140039444">
        <ele>2274.6199999999999</ele>
        <time>2018-09-09T11:41:58Z</time>
      </trkpt>
      <trkpt lat="46.21957135386765" lon="10.889338776469231">
        <ele>2274.1399999999999</ele>
        <time>2018-09-09T11:42:10Z</time>
      </trkpt>
      <trkpt lat="46.219572275876999" lon="10.889351014047861">
        <ele>2274.6199999999999</ele>
        <time>2018-09-09T11:42:31Z</time>
      </trkpt>
      <trkpt lat="46.219557356089354" lon="10.88938320055604">
        <ele>2274.1399999999999</ele>
        <time>2018-09-09T11:42:50Z</time>
      </trkpt>
      <trkpt lat="46.219557859003544" lon="10.889397952705622">
        <ele>2274.1399999999999</ele>
        <time>2018-09-09T11:43:08Z</time>
      </trkpt>
      <trkpt lat="46.21955911628902" lon="10.889410944655538">
        <ele>2274.6199999999999</ele>
        <time>2018-09-09T11:43:35Z</time>
      </trkpt>
      <trkpt lat="46.219543945044279" lon="10.889385715126991">
        <ele>2274.6199999999999</ele>
        <time>2018-09-09T11:43:57Z</time>
      </trkpt>
      <trkpt lat="46.219560960307717" lon="10.889365347102284">
        <ele>2275.0999999999999</ele>
        <time>2018-09-09T11:44:13Z</time>
      </trkpt>
      <trkpt lat="46.219583759084344" lon="10.889360317960382">
        <ele>2274.1399999999999</ele>
        <time>2018-09-09T11:44:30Z</time>
      </trkpt>
      <trkpt lat="46.219565067440271" lon="10.889367861673236">
        <ele>2274.1399999999999</ele>
        <time>2018-09-09T11:44:46Z</time>
      </trkpt>
      <trkpt lat="46.219568084925413" lon="10.889370711520314">
        <ele>2274.1399999999999</ele>
        <time>2018-09-09T11:44:58Z</time>
      </trkpt>
      <trkpt lat="46.219544364139438" lon="10.889375070109963">
        <ele>2274.6199999999999</ele>
        <time>2018-09-09T11:45:21Z</time>
      </trkpt>
      <trkpt lat="46.219540508463979" lon="10.889375489205122">
        <ele>2273.6599999999999</ele>
        <time>2018-09-09T11:45:38Z</time>
      </trkpt>
      <trkpt lat="46.219530450180173" lon="10.889357468113303">
        <ele>2274.1399999999999</ele>
        <time>2018-09-09T11:46:00Z</time>
      </trkpt>
      <trkpt lat="46.219525001943111" lon="10.889366855844855">
        <ele>2274.6199999999999</ele>
        <time>2018-09-09T11:46:22Z</time>
      </trkpt>
      <trkpt lat="46.219519972801208" lon="10.889376159757376">
        <ele>2274.1399999999999</ele>
        <time>2018-09-09T11:46:47Z</time>
      </trkpt>
      <trkpt lat="46.219516033306718" lon="10.889368951320648">
        <ele>2274.6199999999999</ele>
        <time>2018-09-09T11:47:11Z</time>
      </trkpt>
      <trkpt lat="46.219523996114731" lon="10.889342715963721">
        <ele>2274.1399999999999</ele>
        <time>2018-09-09T11:47:30Z</time>
      </trkpt>
      <trkpt lat="46.2195342220366" lon="10.889349840581417">
        <ele>2273.6599999999999</ele>
        <time>2018-09-09T11:47:53Z</time>
      </trkpt>
      <trkpt lat="46.219528689980507" lon="10.889351600781083">
        <ele>2274.1399999999999</ele>
        <time>2018-09-09T11:48:23Z</time>
      </trkpt>
      <trkpt lat="46.219527767971158" lon="10.889353360980749">
        <ele>2274.1399999999999</ele>
        <time>2018-09-09T11:48:45Z</time>
      </trkpt>
      <trkpt lat="46.219552159309387" lon="10.889357216656208">
        <ele>2274.1399999999999</ele>
        <time>2018-09-09T11:49:10Z</time>
      </trkpt>
      <trkpt lat="46.219541933387518" lon="10.889382110908628">
        <ele>2274.1399999999999</ele>
        <time>2018-09-09T11:49:31Z</time>
      </trkpt>
      <trkpt lat="46.219551656395197" lon="10.889368867501616">
        <ele>2274.6199999999999</ele>
        <time>2018-09-09T11:49:52Z</time>
      </trkpt>
      <trkpt lat="46.219568587839603" lon="10.889382194727659">
        <ele>2274.1399999999999</ele>
        <time>2018-09-09T11:50:19Z</time>
      </trkpt>
      <trkpt lat="46.219564313068986" lon="10.889371801167727">
        <ele>2275.0999999999999</ele>
        <time>2018-09-09T11:50:44Z</time>
      </trkpt>
      <trkpt lat="46.219563474878669" lon="10.889363922178745">
        <ele>2274.6199999999999</ele>
        <time>2018-09-09T11:51:13Z</time>
      </trkpt>
      <trkpt lat="46.219564732164145" lon="10.889371214434505">
        <ele>2274.6199999999999</ele>
        <time>2018-09-09T11:51:37Z</time>
      </trkpt>
      <trkpt lat="46.219557523727417" lon="10.88936559855938">
        <ele>2274.6199999999999</ele>
        <time>2018-09-09T11:51:58Z</time>
      </trkpt>
      <trkpt lat="46.219555512070656" lon="10.889373561367393">
        <ele>2274.6199999999999</ele>
        <time>2018-09-09T11:52:20Z</time>
      </trkpt>
      <trkpt lat="46.219558948650956" lon="10.889381356537342">
        <ele>2275.0999999999999</ele>
        <time>2018-09-09T11:52:42Z</time>
      </trkpt>
      <trkpt lat="46.219559367746115" lon="10.889371633529663">
        <ele>2274.6199999999999</ele>
        <time>2018-09-09T11:53:05Z</time>
      </trkpt>
      <trkpt lat="46.21956255286932" lon="10.889376830309629">
        <ele>2275.0999999999999</ele>
        <time>2018-09-09T11:53:19Z</time>
      </trkpt>
      <trkpt lat="46.219562301412225" lon="10.889388313516974">
        <ele>2274.6199999999999</ele>
        <time>2018-09-09T11:53:38Z</time>
      </trkpt>
      <trkpt lat="46.219561044126749" lon="10.889388732612133">
        <ele>2275.0999999999999</ele>
        <time>2018-09-09T11:54:07Z</time>
      </trkpt>
      <trkpt lat="46.219549477100372" lon="10.889384709298611">
        <ele>2275.5799999999999</ele>
        <time>2018-09-09T11:54:28Z</time>
      </trkpt>
      <trkpt lat="46.219559786841273" lon="10.88937540538609">
        <ele>2275.0999999999999</ele>
        <time>2018-09-09T11:54:55Z</time>
      </trkpt>
      <trkpt lat="46.219559954479337" lon="10.889380518347025">
        <ele>2275.5799999999999</ele>
        <time>2018-09-09T11:55:21Z</time>
      </trkpt>
      <trkpt lat="46.219551740214229" lon="10.889385966584086">
        <ele>2275.0999999999999</ele>
        <time>2018-09-09T11:55:48Z</time>
      </trkpt>
      <trkpt lat="46.219555260613561" lon="10.889400048181415">
        <ele>2275.5799999999999</ele>
        <time>2018-09-09T11:56:10Z</time>
      </trkpt>
      <trkpt lat="46.219546459615231" lon="10.889409519731998">
        <ele>2275.0999999999999</ele>
        <time>2018-09-09T11:56:32Z</time>
      </trkpt>
      <trkpt lat="46.219554925337434" lon="10.88941010646522">
        <ele>2275.0999999999999</ele>
        <time>2018-09-09T11:56:49Z</time>
      </trkpt>
      <trkpt lat="46.219553835690022" lon="10.88933533988893">
        <ele>2275.5799999999999</ele>
        <time>2018-09-09T11:57:18Z</time>
      </trkpt>
      <trkpt lat="46.219553835690022" lon="10.889338441193104">
        <ele>2275.0999999999999</ele>
        <time>2018-09-09T11:57:42Z</time>
      </trkpt>
      <trkpt lat="46.219562971964478" lon="10.889336094260216">
        <ele>2274.6199999999999</ele>
        <time>2018-09-09T11:58:08Z</time>
      </trkpt>
      <trkpt lat="46.219549896195531" lon="10.889335758984089">
        <ele>2275.0999999999999</ele>
        <time>2018-09-09T11:58:30Z</time>
      </trkpt>
      <trkpt lat="46.21955425478518" lon="10.889336429536343">
        <ele>2274.6199999999999</ele>
        <time>2018-09-09T11:58:51Z</time>
      </trkpt>
      <trkpt lat="46.219574622809887" lon="10.889357971027493">
        <ele>2274.6199999999999</ele>
        <time>2018-09-09T11:59:19Z</time>
      </trkpt>
      <trkpt lat="46.219570515677333" lon="10.889355959370732">
        <ele>2275.0999999999999</ele>
        <time>2018-09-09T11:59:38Z</time>
      </trkpt>
      <trkpt lat="46.219558194279671" lon="10.889341877773404">
        <ele>2275.0999999999999</ele>
        <time>2018-09-09T11:59:58Z</time>
      </trkpt>
      <trkpt lat="46.219563474878669" lon="10.889343218877912">
        <ele>2275.0999999999999</ele>
        <time>2018-09-09T12:00:21Z</time>
      </trkpt>
      <trkpt lat="46.219575377181172" lon="10.889337519183755">
        <ele>2275.5799999999999</ele>
        <time>2018-09-09T12:00:36Z</time>
      </trkpt>
      <trkpt lat="46.2195601221174" lon="10.889362245798111">
        <ele>2275.5799999999999</ele>
        <time>2018-09-09T12:00:48Z</time>
      </trkpt>
      <trkpt lat="46.219557942822576" lon="10.889381440356374">
        <ele>2275.0999999999999</ele>
        <time>2018-09-09T12:01:01Z</time>
      </trkpt>
      <trkpt lat="46.219565570354462" lon="10.889343973249197">
        <ele>2275.0999999999999</ele>
        <time>2018-09-09T12:01:10Z</time>
      </trkpt>
      <trkpt lat="46.219572192057967" lon="10.889325616881251">
        <ele>2275.5799999999999</ele>
        <time>2018-09-09T12:01:23Z</time>
      </trkpt>
      <trkpt lat="46.219567833468318" lon="10.889294436201453">
        <ele>2275.0999999999999</ele>
        <time>2018-09-09T12:01:26Z</time>
      </trkpt>
      <trkpt lat="46.219580238685012" lon="10.889224195852876">
        <ele>2274.1399999999999</ele>
        <time>2018-09-09T12:01:31Z</time>
      </trkpt>
      <trkpt lat="46.219588117673993" lon="10.889153620228171">
        <ele>2274.1399999999999</ele>
        <time>2018-09-09T12:01:36Z</time>
      </trkpt>
      <trkpt lat="46.219627931714058" lon="10.889040632173419">
        <ele>2272.6900000000001</ele>
        <time>2018-09-09T12:01:49Z</time>
      </trkpt>
      <trkpt lat="46.219659196212888" lon="10.888983886688948">
        <ele>2272.6900000000001</ele>
        <time>2018-09-09T12:01:58Z</time>
      </trkpt>
      <trkpt lat="46.219668835401535" lon="10.888975923880935">
        <ele>2272.21</ele>
        <time>2018-09-09T12:01:59Z</time>
      </trkpt>
      <trkpt lat="46.219701273366809" lon="10.888936026021838">
        <ele>2271.25</ele>
        <time>2018-09-09T12:02:03Z</time>
      </trkpt>
      <trkpt lat="46.219713175669312" lon="10.888912137597799">
        <ele>2270.77</ele>
        <time>2018-09-09T12:02:13Z</time>
      </trkpt>
      <trkpt lat="46.219715187326074" lon="10.888838460668921">
        <ele>2269.8099999999999</ele>
        <time>2018-09-09T12:02:24Z</time>
      </trkpt>
      <trkpt lat="46.219722479581833" lon="10.888753132894635">
        <ele>2268.8499999999999</ele>
        <time>2018-09-09T12:02:32Z</time>
      </trkpt>
      <trkpt lat="46.219816524535418" lon="10.888634445145726">
        <ele>2266.4499999999998</ele>
        <time>2018-09-09T12:02:44Z</time>
      </trkpt>
      <trkpt lat="46.219870671629906" lon="10.88856864720583">
        <ele>2264.52</ele>
        <time>2018-09-09T12:02:53Z</time>
      </trkpt>
      <trkpt lat="46.219877796247602" lon="10.888381730765104">
        <ele>2261.6399999999999</ele>
        <time>2018-09-09T12:03:05Z</time>
      </trkpt>
      <trkpt lat="46.219903528690338" lon="10.88820269331336">
        <ele>2260.6799999999998</ele>
        <time>2018-09-09T12:03:17Z</time>
      </trkpt>
      <trkpt lat="46.219921046867967" lon="10.888186432421207">
        <ele>2260.6799999999998</ele>
        <time>2018-09-09T12:03:26Z</time>
      </trkpt>
      <trkpt lat="46.219955831766129" lon="10.888067744672298">
        <ele>2259.7199999999998</ele>
        <time>2018-09-09T12:03:37Z</time>
      </trkpt>
      <trkpt lat="46.219982234761119" lon="10.887946877628565">
        <ele>2260.6799999999998</ele>
        <time>2018-09-09T12:03:48Z</time>
      </trkpt>
      <trkpt lat="46.220028251409531" lon="10.887811258435249">
        <ele>2259.7199999999998</ele>
        <time>2018-09-09T12:03:59Z</time>
      </trkpt>
      <trkpt lat="46.220041997730732" lon="10.887762308120728">
        <ele>2258.27</ele>
        <time>2018-09-09T12:04:04Z</time>
      </trkpt>
      <trkpt lat="46.220026072114706" lon="10.887690391391516">
        <ele>2257.79</ele>
        <time>2018-09-09T12:04:15Z</time>
      </trkpt>
      <trkpt lat="46.220068233087659" lon="10.887626437470317">
        <ele>2255.8699999999999</ele>
        <time>2018-09-09T12:04:25Z</time>
      </trkpt>
      <trkpt lat="46.220123553648591" lon="10.887597603723407">
        <ele>2253.4699999999998</ele>
        <time>2018-09-09T12:04:34Z</time>
      </trkpt>
      <trkpt lat="46.220188681036234" lon="10.887541612610221">
        <ele>2250.5799999999999</ele>
        <time>2018-09-09T12:04:44Z</time>
      </trkpt>
      <trkpt lat="46.220237798988819" lon="10.8874736353755">
        <ele>2248.1799999999998</ele>
        <time>2018-09-09T12:04:53Z</time>
      </trkpt>
      <trkpt lat="46.220277864485979" lon="10.887398449704051">
        <ele>2245.3000000000002</ele>
        <time>2018-09-09T12:05:04Z</time>
      </trkpt>
      <trkpt lat="46.220267470926046" lon="10.887384451925755">
        <ele>2245.3000000000002</ele>
        <time>2018-09-09T12:05:08Z</time>
      </trkpt>
      <trkpt lat="46.220245594158769" lon="10.887364754453301">
        <ele>2244.8200000000002</ele>
        <time>2018-09-09T12:05:12Z</time>
      </trkpt>
      <trkpt lat="46.220193626359105" lon="10.88735687546432">
        <ele>2244.8200000000002</ele>
        <time>2018-09-09T12:05:22Z</time>
      </trkpt>
      <trkpt lat="46.220148364081979" lon="10.887335920706391">
        <ele>2243.8499999999999</ele>
        <time>2018-09-09T12:05:32Z</time>
      </trkpt>
      <trkpt lat="46.220137635245919" lon="10.887331226840615">
        <ele>2243.3699999999999</ele>
        <time>2018-09-09T12:05:33Z</time>
      </trkpt>
      <trkpt lat="46.220121961086988" lon="10.887257214635611">
        <ele>2241.9299999999998</ele>
        <time>2018-09-09T12:05:38Z</time>
      </trkpt>
      <trkpt lat="46.220125565305352" lon="10.887196529656649">
        <ele>2240.4899999999998</ele>
        <time>2018-09-09T12:05:42Z</time>
      </trkpt>
      <trkpt lat="46.220117015764117" lon="10.887146322056651">
        <ele>2239.5300000000002</ele>
        <time>2018-09-09T12:05:52Z</time>
      </trkpt>
      <trkpt lat="46.220116261392832" lon="10.887126121670008">
        <ele>2239.5300000000002</ele>
        <time>2018-09-09T12:05:54Z</time>
      </trkpt>
      <trkpt lat="46.220111818984151" lon="10.887042302638292">
        <ele>2239.0500000000002</ele>
        <time>2018-09-09T12:05:59Z</time>
      </trkpt>
      <trkpt lat="46.220098491758108" lon="10.886960998177528">
        <ele>2238.5700000000002</ele>
        <time>2018-09-09T12:06:04Z</time>
      </trkpt>
      <trkpt lat="46.220098491758108" lon="10.886887572705746">
        <ele>2238.0900000000001</ele>
        <time>2018-09-09T12:06:09Z</time>
      </trkpt>
      <trkpt lat="46.220085918903351" lon="10.886773243546486">
        <ele>2236.6399999999999</ele>
        <time>2018-09-09T12:06:18Z</time>
      </trkpt>
      <trkpt lat="46.220091618597507" lon="10.886720018461347">
        <ele>2236.6399999999999</ele>
        <time>2018-09-09T12:06:22Z</time>
      </trkpt>
      <trkpt lat="46.220191866159439" lon="10.88659311644733">
        <ele>2234.2399999999998</ele>
        <time>2018-09-09T12:06:34Z</time>
      </trkpt>
      <trkpt lat="46.220221538096666" lon="10.886526228860021">
        <ele>2231.8400000000001</ele>
        <time>2018-09-09T12:06:41Z</time>
      </trkpt>
      <trkpt lat="46.220212318003178" lon="10.88647929020226">
        <ele>2230.8800000000001</ele>
        <time>2018-09-09T12:06:45Z</time>
      </trkpt>
      <trkpt lat="46.220162697136402" lon="10.886281980201602">
        <ele>2229.4299999999998</ele>
        <time>2018-09-09T12:06:58Z</time>
      </trkpt>
      <trkpt lat="46.220120200887322" lon="10.8861352968961">
        <ele>2228.4699999999998</ele>
        <time>2018-09-09T12:07:10Z</time>
      </trkpt>
      <trkpt lat="46.2201196141541" lon="10.886082155629992">
        <ele>2227.0300000000002</ele>
        <time>2018-09-09T12:07:15Z</time>
      </trkpt>
      <trkpt lat="46.220120955258608" lon="10.886051645502448">
        <ele>2226.0700000000002</ele>
        <time>2018-09-09T12:07:17Z</time>
      </trkpt>
      <trkpt lat="46.220072591677308" lon="10.885851737111807">
        <ele>2223.6700000000001</ele>
        <time>2018-09-09T12:07:31Z</time>
      </trkpt>
      <trkpt lat="46.220022300258279" lon="10.885711926966906">
        <ele>2223.6700000000001</ele>
        <time>2018-09-09T12:07:42Z</time>
      </trkpt>
      <trkpt lat="46.219975361600518" lon="10.885563315823674">
        <ele>2220.3000000000002</ele>
        <time>2018-09-09T12:07:53Z</time>
      </trkpt>
      <trkpt lat="46.219915682449937" lon="10.885349325835705">
        <ele>2218.3800000000001</ele>
        <time>2018-09-09T12:08:06Z</time>
      </trkpt>
      <trkpt lat="46.219874359667301" lon="10.885162157937884">
        <ele>2217.4200000000001</ele>
        <time>2018-09-09T12:08:18Z</time>
      </trkpt>
      <trkpt lat="46.219859942793846" lon="10.885148579254746">
        <ele>2217.4200000000001</ele>
        <time>2018-09-09T12:08:20Z</time>
      </trkpt>
      <trkpt lat="46.219798754900694" lon="10.885115219280124">
        <ele>2217.9000000000001</ele>
        <time>2018-09-09T12:08:31Z</time>
      </trkpt>
      <trkpt lat="46.219782661646605" lon="10.885020168498158">
        <ele>2216.46</ele>
        <time>2018-09-09T12:08:40Z</time>
      </trkpt>
      <trkpt lat="46.219759611412883" lon="10.884977672249079">
        <ele>2215.0100000000002</ele>
        <time>2018-09-09T12:08:46Z</time>
      </trkpt>
      <trkpt lat="46.219737902283669" lon="10.884953448548913">
        <ele>2213.5700000000002</ele>
        <time>2018-09-09T12:08:51Z</time>
      </trkpt>
      <trkpt lat="46.219666572287679" lon="10.884885974228382">
        <ele>2212.6100000000001</ele>
        <time>2018-09-09T12:09:02Z</time>
      </trkpt>
      <trkpt lat="46.219619130715728" lon="10.884893434122205">
        <ele>2212.1300000000001</ele>
        <time>2018-09-09T12:09:11Z</time>
      </trkpt>
      <trkpt lat="46.219592140987515" lon="10.884882286190987">
        <ele>2211.6500000000001</ele>
        <time>2018-09-09T12:09:14Z</time>
      </trkpt>
      <trkpt lat="46.219521649181843" lon="10.884844483807683">
        <ele>2212.6100000000001</ele>
        <time>2018-09-09T12:09:25Z</time>
      </trkpt>
      <trkpt lat="46.219491558149457" lon="10.884864097461104">
        <ele>2212.1300000000001</ele>
        <time>2018-09-09T12:09:33Z</time>
      </trkpt>
      <trkpt lat="46.219417965039611" lon="10.884885136038065">
        <ele>2210.21</ele>
        <time>2018-09-09T12:09:41Z</time>
      </trkpt>
      <trkpt lat="46.219350323081017" lon="10.884779691696167">
        <ele>2207.8099999999999</ele>
        <time>2018-09-09T12:09:52Z</time>
      </trkpt>
      <trkpt lat="46.219292236492038" lon="10.884710205718875">
        <ele>2205.8800000000001</ele>
        <time>2018-09-09T12:10:01Z</time>
      </trkpt>
      <trkpt lat="46.219198442995548" lon="10.884717414155602">
        <ele>2204.4400000000001</ele>
        <time>2018-09-09T12:10:11Z</time>
      </trkpt>
      <trkpt lat="46.219061817973852" lon="10.88472411967814">
        <ele>2203.96</ele>
        <time>2018-09-09T12:10:24Z</time>
      </trkpt>
      <trkpt lat="46.219018818810582" lon="10.884717330336571">
        <ele>2203.48</ele>
        <time>2018-09-09T12:10:29Z</time>
      </trkpt>
      <trkpt lat="46.218893509358168" lon="10.884712804108858">
        <ele>2203.96</ele>
        <time>2018-09-09T12:10:42Z</time>
      </trkpt>
      <trkpt lat="46.21886970475316" lon="10.884700063616037">
        <ele>2204.4400000000001</ele>
        <time>2018-09-09T12:10:45Z</time>
      </trkpt>
      <trkpt lat="46.218788987025619" lon="10.884702075272799">
        <ele>2205.4000000000001</ele>
        <time>2018-09-09T12:10:57Z</time>
      </trkpt>
      <trkpt lat="46.218774653971195" lon="10.88471045717597">
        <ele>2204.9200000000001</ele>
        <time>2018-09-09T12:10:59Z</time>
      </trkpt>
      <trkpt lat="46.218665689229965" lon="10.88465329259634">
        <ele>2203</ele>
        <time>2018-09-09T12:11:12Z</time>
      </trkpt>
      <trkpt lat="46.218598550185561" lon="10.884554721415043">
        <ele>2201.0799999999999</ele>
        <time>2018-09-09T12:11:23Z</time>
      </trkpt>
      <trkpt lat="46.21852277778089" lon="10.884479368105531">
        <ele>2199.1500000000001</ele>
        <time>2018-09-09T12:11:34Z</time>
      </trkpt>
      <trkpt lat="46.218477096408606" lon="10.884417928755283">
        <ele>2197.71</ele>
        <time>2018-09-09T12:11:41Z</time>
      </trkpt>
      <trkpt lat="46.218447256833315" lon="10.884385742247105">
        <ele>2197.23</ele>
        <time>2018-09-09T12:11:51Z</time>
      </trkpt>
      <trkpt lat="46.218375926837325" lon="10.884284824132919">
        <ele>2195.79</ele>
        <time>2018-09-09T12:12:01Z</time>
      </trkpt>
      <trkpt lat="46.218328736722469" lon="10.884131686761975">
        <ele>2192.4200000000001</ele>
        <time>2018-09-09T12:12:14Z</time>
      </trkpt>
      <trkpt lat="46.218324713408947" lon="10.884121712297201">
        <ele>2192.4200000000001</ele>
        <time>2018-09-09T12:12:15Z</time>
      </trkpt>
      <trkpt lat="46.218308452516794" lon="10.884069576859474">
        <ele>2190.98</ele>
        <time>2018-09-09T12:12:19Z</time>
      </trkpt>
      <trkpt lat="46.218283055350184" lon="10.883885929360986">
        <ele>2188.5799999999999</ele>
        <time>2018-09-09T12:12:33Z</time>
      </trkpt>
      <trkpt lat="46.218282887712121" lon="10.88387293741107">
        <ele>2188.5799999999999</ele>
        <time>2018-09-09T12:12:34Z</time>
      </trkpt>
      <trkpt lat="46.218245252966881" lon="10.883724074810743">
        <ele>2187.1399999999999</ele>
        <time>2018-09-09T12:12:45Z</time>
      </trkpt>
      <trkpt lat="46.218194207176566" lon="10.883590131998062">
        <ele>2185.6900000000001</ele>
        <time>2018-09-09T12:12:57Z</time>
      </trkpt>
      <trkpt lat="46.218136204406619" lon="10.883519137278199">
        <ele>2184.73</ele>
        <time>2018-09-09T12:13:05Z</time>
      </trkpt>
      <trkpt lat="46.218051966279745" lon="10.883472617715597">
        <ele>2183.29</ele>
        <time>2018-09-09T12:13:16Z</time>
      </trkpt>
      <trkpt lat="46.217962028458714" lon="10.883419895544648">
        <ele>2181.3699999999999</ele>
        <time>2018-09-09T12:13:28Z</time>
      </trkpt>
      <trkpt lat="46.21792808175087" lon="10.883430792018771">
        <ele>2179.9299999999998</ele>
        <time>2018-09-09T12:13:37Z</time>
      </trkpt>
      <trkpt lat="46.217926992103457" lon="10.883429115638137">
        <ele>2179.9299999999998</ele>
        <time>2018-09-09T12:13:39Z</time>
      </trkpt>
      <trkpt lat="46.217874521389604" lon="10.883403467014432">
        <ele>2179.9299999999998</ele>
        <time>2018-09-09T12:13:44Z</time>
      </trkpt>
      <trkpt lat="46.217769999057055" lon="10.883411010727286">
        <ele>2178</ele>
        <time>2018-09-09T12:13:54Z</time>
      </trkpt>
      <trkpt lat="46.217636726796627" lon="10.883353175595403">
        <ele>2177.04</ele>
        <time>2018-09-09T12:14:06Z</time>
      </trkpt>
      <trkpt lat="46.217627339065075" lon="10.883352840319276">
        <ele>2177.04</ele>
        <time>2018-09-09T12:14:07Z</time>
      </trkpt>
      <trkpt lat="46.217581992968917" lon="10.883309254422784">
        <ele>2176.5599999999999</ele>
        <time>2018-09-09T12:14:13Z</time>
      </trkpt>
      <trkpt lat="46.217476883903146" lon="10.883356612175703">
        <ele>2176.5599999999999</ele>
        <time>2018-09-09T12:14:25Z</time>
      </trkpt>
      <trkpt lat="46.217364566400647" lon="10.883367257192731">
        <ele>2176.0799999999999</ele>
        <time>2018-09-09T12:14:36Z</time>
      </trkpt>
      <trkpt lat="46.217322321608663" lon="10.883353846147656">
        <ele>2176.0799999999999</ele>
        <time>2018-09-09T12:14:40Z</time>
      </trkpt>
      <trkpt lat="46.21723129414022" lon="10.883247228339314">
        <ele>2174.6399999999999</ele>
        <time>2018-09-09T12:14:51Z</time>
      </trkpt>
      <trkpt lat="46.217170776799321" lon="10.883231051266193">
        <ele>2174.1599999999999</ele>
        <time>2018-09-09T12:14:57Z</time>
      </trkpt>
      <trkpt lat="46.217077234759927" lon="10.883175982162356">
        <ele>2172.7199999999998</ele>
        <time>2018-09-09T12:15:07Z</time>
      </trkpt>
      <trkpt lat="46.217068266123533" lon="10.883171372115612">
        <ele>2172.7199999999998</ele>
        <time>2018-09-09T12:15:08Z</time>
      </trkpt>
      <trkpt lat="46.216973215341568" lon="10.883084451779723">
        <ele>2172.7199999999998</ele>
        <time>2018-09-09T12:15:19Z</time>
      </trkpt>
      <trkpt lat="46.216948153451085" lon="10.883053438737988">
        <ele>2171.7600000000002</ele>
        <time>2018-09-09T12:15:22Z</time>
      </trkpt>
      <trkpt lat="46.216910434886813" lon="10.882986383512616">
        <ele>2170.79</ele>
        <time>2018-09-09T12:15:29Z</time>
      </trkpt>
      <trkpt lat="46.216852264478803" lon="10.882920753210783">
        <ele>2169.8299999999999</ele>
        <time>2018-09-09T12:15:36Z</time>
      </trkpt>
      <trkpt lat="46.216756543144584" lon="10.882772225886583">
        <ele>2169.3499999999999</ele>
        <time>2018-09-09T12:15:50Z</time>
      </trkpt>
      <trkpt lat="46.216740785166621" lon="10.882773315533996">
        <ele>2169.3499999999999</ele>
        <time>2018-09-09T12:15:52Z</time>
      </trkpt>
      <trkpt lat="46.216630060225725" lon="10.882757222279906">
        <ele>2168.8699999999999</ele>
        <time>2018-09-09T12:16:03Z</time>
      </trkpt>
      <trkpt lat="46.216506594792008" lon="10.882682288065553">
        <ele>2167.9099999999999</ele>
        <time>2018-09-09T12:16:15Z</time>
      </trkpt>
      <trkpt lat="46.216462757438421" lon="10.882652197033167">
        <ele>2167.4299999999998</ele>
        <time>2018-09-09T12:16:19Z</time>
      </trkpt>
      <trkpt lat="46.216332754120231" lon="10.882548009976745">
        <ele>2165.9899999999998</ele>
        <time>2018-09-09T12:16:32Z</time>
      </trkpt>
      <trkpt lat="46.216219011694193" lon="10.882517080754042">
        <ele>2164.0599999999999</ele>
        <time>2018-09-09T12:16:44Z</time>
      </trkpt>
      <trkpt lat="46.216136030852795" lon="10.882508279755712">
        <ele>2162.1399999999999</ele>
        <time>2018-09-09T12:16:53Z</time>
      </trkpt>
      <trkpt lat="46.2161201890558" lon="10.882517583668232">
        <ele>2161.6599999999999</ele>
        <time>2018-09-09T12:16:55Z</time>
      </trkpt>
      <trkpt lat="46.216114740818739" lon="10.882522193714976">
        <ele>2161.6599999999999</ele>
        <time>2018-09-09T12:17:06Z</time>
      </trkpt>
      <trkpt lat="46.216118261218071" lon="10.882550943642855">
        <ele>2161.6599999999999</ele>
        <time>2018-09-09T12:17:19Z</time>
      </trkpt>
      <trkpt lat="46.216083141043782" lon="10.882682455703616">
        <ele>2159.7399999999998</ele>
        <time>2018-09-09T12:17:30Z</time>
      </trkpt>
      <trkpt lat="46.216059671714902" lon="10.882908767089248">
        <ele>2158.3000000000002</ele>
        <time>2018-09-09T12:17:46Z</time>
      </trkpt>
      <trkpt lat="46.215998316183686" lon="10.883073806762695">
        <ele>2157.8200000000002</ele>
        <time>2018-09-09T12:17:58Z</time>
      </trkpt>
      <trkpt lat="46.215963531285524" lon="10.883201379328966">
        <ele>2156.8600000000001</ele>
        <time>2018-09-09T12:18:08Z</time>
      </trkpt>
      <trkpt lat="46.215978031978011" lon="10.8832514192909">
        <ele>2155.8899999999999</ele>
        <time>2018-09-09T12:18:12Z</time>
      </trkpt>
      <trkpt lat="46.216002590954304" lon="10.883335657417774">
        <ele>2154.4499999999998</ele>
        <time>2018-09-09T12:18:19Z</time>
      </trkpt>
      <trkpt lat="46.21603712439537" lon="10.883457362651825">
        <ele>2153.0100000000002</ele>
        <time>2018-09-09T12:18:29Z</time>
      </trkpt>
      <trkpt lat="46.216076435521245" lon="10.883669843897223">
        <ele>2150.6100000000001</ele>
        <time>2018-09-09T12:18:43Z</time>
      </trkpt>
      <trkpt lat="46.216123709455132" lon="10.883788196370006">
        <ele>2149.1599999999999</ele>
        <time>2018-09-09T12:18:54Z</time>
      </trkpt>
      <trkpt lat="46.216168468818069" lon="10.88387930765748">
        <ele>2147.2399999999998</ele>
        <time>2018-09-09T12:19:03Z</time>
      </trkpt>
      <trkpt lat="46.216140808537602" lon="10.883954744786024">
        <ele>2145.3200000000002</ele>
        <time>2018-09-09T12:19:13Z</time>
      </trkpt>
      <trkpt lat="46.216114154085517" lon="10.883936723694205">
        <ele>2144.3600000000001</ele>
        <time>2018-09-09T12:19:16Z</time>
      </trkpt>
      <trkpt lat="46.216011308133602" lon="10.883902525529265">
        <ele>2142.4400000000001</ele>
        <time>2018-09-09T12:19:27Z</time>
      </trkpt>
      <trkpt lat="46.215920364484191" lon="10.883886935189366">
        <ele>2141.4699999999998</ele>
        <time>2018-09-09T12:19:38Z</time>
      </trkpt>
      <trkpt lat="46.215874683111906" lon="10.883838571608067">
        <ele>2139.0700000000002</ele>
        <time>2018-09-09T12:19:46Z</time>
      </trkpt>
      <trkpt lat="46.215840149670839" lon="10.883727595210075">
        <ele>2137.6300000000001</ele>
        <time>2018-09-09T12:19:56Z</time>
      </trkpt>
      <trkpt lat="46.215771250426769" lon="10.883621480315924">
        <ele>2135.23</ele>
        <time>2018-09-09T12:20:08Z</time>
      </trkpt>
      <trkpt lat="46.215772675350308" lon="10.88371217250824">
        <ele>2133.7800000000002</ele>
        <time>2018-09-09T12:20:17Z</time>
      </trkpt>
      <trkpt lat="46.215739650651813" lon="10.883794147521257">
        <ele>2132.3400000000001</ele>
        <time>2018-09-09T12:20:24Z</time>
      </trkpt>
      <trkpt lat="46.215670080855489" lon="10.88391987606883">
        <ele>2130.4200000000001</ele>
        <time>2018-09-09T12:20:37Z</time>
      </trkpt>
      <trkpt lat="46.215661615133286" lon="10.883955750614405">
        <ele>2129.9400000000001</ele>
        <time>2018-09-09T12:20:41Z</time>
      </trkpt>
      <trkpt lat="46.215626914054155" lon="10.884073851630092">
        <ele>2128.02</ele>
        <time>2018-09-09T12:20:51Z</time>
      </trkpt>
      <trkpt lat="46.215570755302906" lon="10.884169405326247">
        <ele>2126.0900000000001</ele>
        <time>2018-09-09T12:21:01Z</time>
      </trkpt>
      <trkpt lat="46.215515518561006" lon="10.88406739756465">
        <ele>2123.6900000000001</ele>
        <time>2018-09-09T12:21:11Z</time>
      </trkpt>
      <trkpt lat="46.215508226305246" lon="10.884024146944284">
        <ele>2123.21</ele>
        <time>2018-09-09T12:21:23Z</time>
      </trkpt>
      <trkpt lat="46.21549079194665" lon="10.884000845253468">
        <ele>2122.25</ele>
        <time>2018-09-09T12:21:32Z</time>
      </trkpt>
      <trkpt lat="46.21546933427453" lon="10.883984751999378">
        <ele>2121.77</ele>
        <time>2018-09-09T12:21:43Z</time>
      </trkpt>
      <trkpt lat="46.21539699845016" lon="10.883897999301553">
        <ele>2119.8400000000001</ele>
        <time>2018-09-09T12:21:55Z</time>
      </trkpt>
      <trkpt lat="46.215337067842484" lon="10.883792890235782">
        <ele>2116.96</ele>
        <time>2018-09-09T12:22:07Z</time>
      </trkpt>
      <trkpt lat="46.21532809920609" lon="10.883718375116587">
        <ele>2115.04</ele>
        <time>2018-09-09T12:22:18Z</time>
      </trkpt>
      <trkpt lat="46.215273700654507" lon="10.883851228281856">
        <ele>2112.6300000000001</ele>
        <time>2018-09-09T12:22:32Z</time>
      </trkpt>
      <trkpt lat="46.215278645977378" lon="10.883888695389032">
        <ele>2111.1900000000001</ele>
        <time>2018-09-09T12:22:37Z</time>
      </trkpt>
      <trkpt lat="46.21528166346252" lon="10.883914595469832">
        <ele>2110.71</ele>
        <time>2018-09-09T12:22:39Z</time>
      </trkpt>
      <trkpt lat="46.215261043980718" lon="10.884071672335267">
        <ele>2108.79</ele>
        <time>2018-09-09T12:22:51Z</time>
      </trkpt>
      <trkpt lat="46.215180326253176" lon="10.884144594892859">
        <ele>2106.3899999999999</ele>
        <time>2018-09-09T12:23:03Z</time>
      </trkpt>
      <trkpt lat="46.215161886066198" lon="10.884084580466151">
        <ele>2105.4200000000001</ele>
        <time>2018-09-09T12:23:08Z</time>
      </trkpt>
      <trkpt lat="46.215087287127972" lon="10.883914092555642">
        <ele>2103.02</ele>
        <time>2018-09-09T12:23:23Z</time>
      </trkpt>
      <trkpt lat="46.215058034285903" lon="10.883799847215414">
        <ele>2100.6199999999999</ele>
        <time>2018-09-09T12:23:33Z</time>
      </trkpt>
      <trkpt lat="46.215061219409108" lon="10.883735306560993">
        <ele>2099.6599999999999</ele>
        <time>2018-09-09T12:23:38Z</time>
      </trkpt>
      <trkpt lat="46.215067841112614" lon="10.883589209988713">
        <ele>2097.25</ele>
        <time>2018-09-09T12:23:49Z</time>
      </trkpt>
      <trkpt lat="46.215084940195084" lon="10.883407825604081">
        <ele>2094.3699999999999</ele>
        <time>2018-09-09T12:24:04Z</time>
      </trkpt>
      <trkpt lat="46.215120982378721" lon="10.883280923590064">
        <ele>2092.4499999999998</ele>
        <time>2018-09-09T12:24:15Z</time>
      </trkpt>
      <trkpt lat="46.215103296563029" lon="10.883248066529632">
        <ele>2091.9699999999998</ele>
        <time>2018-09-09T12:24:18Z</time>
      </trkpt>
      <trkpt lat="46.215065661817789" lon="10.883102221414447">
        <ele>2090.52</ele>
        <time>2018-09-09T12:24:31Z</time>
      </trkpt>
      <trkpt lat="46.215053675696254" lon="10.88305402547121">
        <ele>2088.1199999999999</ele>
        <time>2018-09-09T12:24:35Z</time>
      </trkpt>
      <trkpt lat="46.215031547471881" lon="10.8829924184829">
        <ele>2086.6799999999998</ele>
        <time>2018-09-09T12:24:40Z</time>
      </trkpt>
      <trkpt lat="46.215030374005437" lon="10.882910527288914">
        <ele>2086.6799999999998</ele>
        <time>2018-09-09T12:24:45Z</time>
      </trkpt>
      <trkpt lat="46.214974466711283" lon="10.882782787084579">
        <ele>2084.2800000000002</ele>
        <time>2018-09-09T12:24:58Z</time>
      </trkpt>
      <trkpt lat="46.214920068159699" lon="10.882639875635505">
        <ele>2080.9099999999999</ele>
        <time>2018-09-09T12:25:10Z</time>
      </trkpt>
      <trkpt lat="46.214908249676228" lon="10.882618417963386">
        <ele>2080.9099999999999</ele>
        <time>2018-09-09T12:25:12Z</time>
      </trkpt>
      <trkpt lat="46.214845050126314" lon="10.882448432967067">
        <ele>2078.0300000000002</ele>
        <time>2018-09-09T12:25:26Z</time>
      </trkpt>
      <trkpt lat="46.214787550270557" lon="10.882331589236856">
        <ele>2076.0999999999999</ele>
        <time>2018-09-09T12:25:37Z</time>
      </trkpt>
      <trkpt lat="46.214712280780077" lon="10.882244501262903">
        <ele>2072.7399999999998</ele>
        <time>2018-09-09T12:25:48Z</time>
      </trkpt>
      <trkpt lat="46.214620415121317" lon="10.882083903998137">
        <ele>2069.8600000000001</ele>
        <time>2018-09-09T12:26:04Z</time>
      </trkpt>
      <trkpt lat="46.214580684900284" lon="10.881955241784453">
        <ele>2069.3800000000001</ele>
        <time>2018-09-09T12:26:13Z</time>
      </trkpt>
      <trkpt lat="46.214557299390435" lon="10.881835045292974">
        <ele>2067.4499999999998</ele>
        <time>2018-09-09T12:26:23Z</time>
      </trkpt>
      <trkpt lat="46.214515808969736" lon="10.881675621494651">
        <ele>2065.5300000000002</ele>
        <time>2018-09-09T12:26:35Z</time>
      </trkpt>
      <trkpt lat="46.214486137032509" lon="10.881525753065944">
        <ele>2063.6100000000001</ele>
        <time>2018-09-09T12:26:47Z</time>
      </trkpt>
      <trkpt lat="46.214498961344361" lon="10.881322072818875">
        <ele>2061.1999999999998</ele>
        <time>2018-09-09T12:27:01Z</time>
      </trkpt>
      <trkpt lat="46.214547827839851" lon="10.881151081994176">
        <ele>2058.3200000000002</ele>
        <time>2018-09-09T12:27:14Z</time>
      </trkpt>
      <trkpt lat="46.214596861973405" lon="10.880990065634251">
        <ele>2056.4000000000001</ele>
        <time>2018-09-09T12:27:26Z</time>
      </trkpt>
      <trkpt lat="46.214620918035507" lon="10.880878670141101">
        <ele>2055.9200000000001</ele>
        <time>2018-09-09T12:27:34Z</time>
      </trkpt>
      <trkpt lat="46.214625779539347" lon="10.880825612694025">
        <ele>2055.4400000000001</ele>
        <time>2018-09-09T12:27:38Z</time>
      </trkpt>
      <trkpt lat="46.214693170040846" lon="10.880662584677339">
        <ele>2053.5100000000002</ele>
        <time>2018-09-09T12:27:52Z</time>
      </trkpt>
      <trkpt lat="46.214676992967725" lon="10.880575748160481">
        <ele>2051.1100000000001</ele>
        <time>2018-09-09T12:28:05Z</time>
      </trkpt>
      <trkpt lat="46.214656624943018" lon="10.880626542493701">
        <ele>2051.1100000000001</ele>
        <time>2018-09-09T12:28:19Z</time>
      </trkpt>
      <trkpt lat="46.214622091501951" lon="10.880635594949126">
        <ele>2050.6300000000001</ele>
        <time>2018-09-09T12:28:23Z</time>
      </trkpt>
      <trkpt lat="46.214609686285257" lon="10.880637606605887">
        <ele>2050.1500000000001</ele>
        <time>2018-09-09T12:28:32Z</time>
      </trkpt>
      <trkpt lat="46.214578170329332" lon="10.880653196945786">
        <ele>2049.6700000000001</ele>
        <time>2018-09-09T12:28:42Z</time>
      </trkpt>
      <trkpt lat="46.214468032121658" lon="10.880755539983511">
        <ele>2047.75</ele>
        <time>2018-09-09T12:28:56Z</time>
      </trkpt>
      <trkpt lat="46.21440215036273" lon="10.880872383713722">
        <ele>2045.3399999999999</ele>
        <time>2018-09-09T12:29:08Z</time>
      </trkpt>
      <trkpt lat="46.214332664385438" lon="10.880962992087007">
        <ele>2042.9400000000001</ele>
        <time>2018-09-09T12:29:19Z</time>
      </trkpt>
      <trkpt lat="46.21426091529429" lon="10.88099685497582">
        <ele>2040.54</ele>
        <time>2018-09-09T12:29:30Z</time>
      </trkpt>
      <trkpt lat="46.214184304699302" lon="10.880932984873652">
        <ele>2038.1300000000001</ele>
        <time>2018-09-09T12:29:41Z</time>
      </trkpt>
      <trkpt lat="46.214160919189453" lon="10.880923848599195">
        <ele>2037.1700000000001</ele>
        <time>2018-09-09T12:29:44Z</time>
      </trkpt>
      <trkpt lat="46.214061677455902" lon="10.880857212468982">
        <ele>2035.25</ele>
        <time>2018-09-09T12:29:56Z</time>
      </trkpt>
      <trkpt lat="46.213997639715672" lon="10.8807975333184">
        <ele>2033.8099999999999</ele>
        <time>2018-09-09T12:30:05Z</time>
      </trkpt>
      <trkpt lat="46.213927399367094" lon="10.880660740658641">
        <ele>2032.3599999999999</ele>
        <time>2018-09-09T12:30:16Z</time>
      </trkpt>
      <trkpt lat="46.213830001652241" lon="10.880585806444287">
        <ele>2029.48</ele>
        <time>2018-09-09T12:30:28Z</time>
      </trkpt>
      <trkpt lat="46.213749116286635" lon="10.880532078444958">
        <ele>2027.0799999999999</ele>
        <time>2018-09-09T12:30:41Z</time>
      </trkpt>
      <trkpt lat="46.213740147650242" lon="10.880513805896044">
        <ele>2026.1199999999999</ele>
        <time>2018-09-09T12:30:52Z</time>
      </trkpt>
      <trkpt lat="46.213744590058923" lon="10.880524786189198">
        <ele>2026.1199999999999</ele>
        <time>2018-09-09T12:31:05Z</time>
      </trkpt>
      <trkpt lat="46.213728580623865" lon="10.880555212497711">
        <ele>2025.6400000000001</ele>
        <time>2018-09-09T12:31:14Z</time>
      </trkpt>
      <trkpt lat="46.21375372633338" lon="10.880679348483682">
        <ele>2023.23</ele>
        <time>2018-09-09T12:31:26Z</time>
      </trkpt>
      <trkpt lat="46.213735118508339" lon="10.880797952413559">
        <ele>2021.3099999999999</ele>
        <time>2018-09-09T12:31:37Z</time>
      </trkpt>
      <trkpt lat="46.213669404387474" lon="10.88085419498384">
        <ele>2019.8699999999999</ele>
        <time>2018-09-09T12:31:45Z</time>
      </trkpt>
      <trkpt lat="46.213585585355759" lon="10.88097489438951">
        <ele>2018.4300000000001</ele>
        <time>2018-09-09T12:31:57Z</time>
      </trkpt>
      <trkpt lat="46.213507549837232" lon="10.881062904372811">
        <ele>2016.5</ele>
        <time>2018-09-09T12:32:08Z</time>
      </trkpt>
      <trkpt lat="46.213431023061275" lon="10.881174635142088">
        <ele>2013.6199999999999</ele>
        <time>2018-09-09T12:32:20Z</time>
      </trkpt>
      <trkpt lat="46.213382408022881" lon="10.881301872432232">
        <ele>2011.7</ele>
        <time>2018-09-09T12:32:31Z</time>
      </trkpt>
      <trkpt lat="46.213365560397506" lon="10.881369598209858">
        <ele>2010.73</ele>
        <time>2018-09-09T12:32:36Z</time>
      </trkpt>
      <trkpt lat="46.213342761620879" lon="10.88155098259449">
        <ele>2007.3699999999999</ele>
        <time>2018-09-09T12:32:50Z</time>
      </trkpt>
      <trkpt lat="46.213338235393167" lon="10.881691128015518">
        <ele>2004.49</ele>
        <time>2018-09-09T12:33:02Z</time>
      </trkpt>
      <trkpt lat="46.213355166837573" lon="10.881882151588798">
        <ele>2002.0799999999999</ele>
        <time>2018-09-09T12:33:17Z</time>
      </trkpt>
      <trkpt lat="46.21337553486228" lon="10.882053477689624">
        <ele>1998.72</ele>
        <time>2018-09-09T12:33:31Z</time>
      </trkpt>
      <trkpt lat="46.213393807411194" lon="10.88212413713336">
        <ele>1997.28</ele>
        <time>2018-09-09T12:33:42Z</time>
      </trkpt>
      <trkpt lat="46.213386179879308" lon="10.882182558998466">
        <ele>1995.8299999999999</ele>
        <time>2018-09-09T12:33:54Z</time>
      </trkpt>
      <trkpt lat="46.213385341688991" lon="10.882257660850883">
        <ele>1994.8699999999999</ele>
        <time>2018-09-09T12:34:02Z</time>
      </trkpt>
      <trkpt lat="46.213411828503013" lon="10.882412642240524">
        <ele>1991.99</ele>
        <time>2018-09-09T12:34:14Z</time>
      </trkpt>
      <trkpt lat="46.213441248983145" lon="10.882549015805125">
        <ele>1989.5899999999999</ele>
        <time>2018-09-09T12:34:25Z</time>
      </trkpt>
      <trkpt lat="46.213474022224545" lon="10.882713133469224">
        <ele>1987.1800000000001</ele>
        <time>2018-09-09T12:34:37Z</time>
      </trkpt>
      <trkpt lat="46.213497826829553" lon="10.882857218384743">
        <ele>1983.8199999999999</ele>
        <time>2018-09-09T12:34:49Z</time>
      </trkpt>
      <trkpt lat="46.213537808507681" lon="10.882997028529644">
        <ele>1981.9000000000001</ele>
        <time>2018-09-09T12:35:00Z</time>
      </trkpt>
      <trkpt lat="46.213565887883306" lon="10.883129043504596">
        <ele>1979.97</ele>
        <time>2018-09-09T12:35:10Z</time>
      </trkpt>
      <trkpt lat="46.213517272844911" lon="10.883340267464519">
        <ele>1977.5699999999999</ele>
        <time>2018-09-09T12:35:24Z</time>
      </trkpt>
      <trkpt lat="46.213503442704678" lon="10.88352357968688">
        <ele>1974.6900000000001</ele>
        <time>2018-09-09T12:35:37Z</time>
      </trkpt>
      <trkpt lat="46.213492462411523" lon="10.883690714836121">
        <ele>1972.76</ele>
        <time>2018-09-09T12:35:49Z</time>
      </trkpt>
      <trkpt lat="46.213483577594161" lon="10.883863968774676">
        <ele>1969.8800000000001</ele>
        <time>2018-09-09T12:36:01Z</time>
      </trkpt>
      <trkpt lat="46.213480224832892" lon="10.883943513035774">
        <ele>1968.9200000000001</ele>
        <time>2018-09-09T12:36:07Z</time>
      </trkpt>
      <trkpt lat="46.213464550673962" lon="10.884084580466151">
        <ele>1966.51</ele>
        <time>2018-09-09T12:36:18Z</time>
      </trkpt>
      <trkpt lat="46.21343957260251" lon="10.884171416983008">
        <ele>1964.5899999999999</ele>
        <time>2018-09-09T12:36:25Z</time>
      </trkpt>
      <trkpt lat="46.213434878736734" lon="10.884316843003035">
        <ele>1963.6300000000001</ele>
        <time>2018-09-09T12:36:37Z</time>
      </trkpt>
      <trkpt lat="46.213402776047587" lon="10.884456904605031">
        <ele>1960.27</ele>
        <time>2018-09-09T12:36:48Z</time>
      </trkpt>
      <trkpt lat="46.213378636166453" lon="10.884591182693839">
        <ele>1958.3399999999999</ele>
        <time>2018-09-09T12:36:59Z</time>
      </trkpt>
      <trkpt lat="46.213355166837573" lon="10.884780026972294">
        <ele>1954.98</ele>
        <time>2018-09-09T12:37:11Z</time>
      </trkpt>
      <trkpt lat="46.21332130394876" lon="10.88490198366344">
        <ele>1953.54</ele>
        <time>2018-09-09T12:37:19Z</time>
      </trkpt>
      <trkpt lat="46.213296828791499" lon="10.884939534589648">
        <ele>1952.5699999999999</ele>
        <time>2018-09-09T12:37:22Z</time>
      </trkpt>
      <trkpt lat="46.213222816586494" lon="10.885063586756587">
        <ele>1950.6500000000001</ele>
        <time>2018-09-09T12:37:34Z</time>
      </trkpt>
      <trkpt lat="46.213144026696682" lon="10.885052187368274">
        <ele>1948.73</ele>
        <time>2018-09-09T12:37:45Z</time>
      </trkpt>
      <trkpt lat="46.213145032525063" lon="10.884957052767277">
        <ele>1946.8099999999999</ele>
        <time>2018-09-09T12:37:54Z</time>
      </trkpt>
      <trkpt lat="46.213122820481658" lon="10.884896451607347">
        <ele>1945.3599999999999</ele>
        <time>2018-09-09T12:38:00Z</time>
      </trkpt>
      <trkpt lat="46.213113348931074" lon="10.884875413030386">
        <ele>1944.8800000000001</ele>
        <time>2018-09-09T12:38:02Z</time>
      </trkpt>
      <trkpt lat="46.213085688650608" lon="10.884745325893164">
        <ele>1942.48</ele>
        <time>2018-09-09T12:38:12Z</time>
      </trkpt>
      <trkpt lat="46.213052496314049" lon="10.884664859622717">
        <ele>1940.0799999999999</ele>
        <time>2018-09-09T12:38:22Z</time>
      </trkpt>
      <trkpt lat="46.212984016165137" lon="10.884696878492832">
        <ele>1938.1600000000001</ele>
        <time>2018-09-09T12:38:32Z</time>
      </trkpt>
      <trkpt lat="46.212936323136091" lon="10.884767873212695">
        <ele>1936.23</ele>
        <time>2018-09-09T12:38:41Z</time>
      </trkpt>
      <trkpt lat="46.212904136627913" lon="10.884712133556604">
        <ele>1935.27</ele>
        <time>2018-09-09T12:38:47Z</time>
      </trkpt>
      <trkpt lat="46.212839176878333" lon="10.884559499099851">
        <ele>1932.3900000000001</ele>
        <time>2018-09-09T12:39:00Z</time>
      </trkpt>
      <trkpt lat="46.21285418048501" lon="10.884445421397686">
        <ele>1930.46</ele>
        <time>2018-09-09T12:39:09Z</time>
      </trkpt>
      <trkpt lat="46.212835321202874" lon="10.88427996262908">
        <ele>1928.54</ele>
        <time>2018-09-09T12:39:22Z</time>
      </trkpt>
      <trkpt lat="46.212830459699035" lon="10.884264037013054">
        <ele>1928.54</ele>
        <time>2018-09-09T12:39:23Z</time>
      </trkpt>
      <trkpt lat="46.212782515212893" lon="10.884121879935265">
        <ele>1926.6199999999999</ele>
        <time>2018-09-09T12:39:33Z</time>
      </trkpt>
      <trkpt lat="46.212743120267987" lon="10.884025236591697">
        <ele>1926.1400000000001</ele>
        <time>2018-09-09T12:39:41Z</time>
      </trkpt>
      <trkpt lat="46.212692661210895" lon="10.883890707045794">
        <ele>1923.74</ele>
        <time>2018-09-09T12:39:53Z</time>
      </trkpt>
      <trkpt lat="46.212655110284686" lon="10.883711334317923">
        <ele>1923.25</ele>
        <time>2018-09-09T12:40:07Z</time>
      </trkpt>
      <trkpt lat="46.212624432519078" lon="10.883686188608408">
        <ele>1922.77</ele>
        <time>2018-09-09T12:40:09Z</time>
      </trkpt>
      <trkpt lat="46.212550504133105" lon="10.883532213047147">
        <ele>1921.8099999999999</ele>
        <time>2018-09-09T12:40:21Z</time>
      </trkpt>
      <trkpt lat="46.212511528283358" lon="10.883381841704249">
        <ele>1919.8900000000001</ele>
        <time>2018-09-09T12:40:33Z</time>
      </trkpt>
      <trkpt lat="46.212489483878016" lon="10.88326214812696">
        <ele>1918.45</ele>
        <time>2018-09-09T12:40:43Z</time>
      </trkpt>
      <trkpt lat="46.212444808334112" lon="10.88317908346653">
        <ele>1917.49</ele>
        <time>2018-09-09T12:40:56Z</time>
      </trkpt>
      <trkpt lat="46.212413292378187" lon="10.883089816197753">
        <ele>1917.01</ele>
        <time>2018-09-09T12:41:07Z</time>
      </trkpt>
      <trkpt lat="46.212358307093382" lon="10.882942043244839">
        <ele>1915.0799999999999</ele>
        <time>2018-09-09T12:41:19Z</time>
      </trkpt>
      <trkpt lat="46.212304159998894" lon="10.882777590304613">
        <ele>1913.6400000000001</ele>
        <time>2018-09-09T12:41:30Z</time>
      </trkpt>
      <trkpt lat="46.212250515818596" lon="10.882652616128325">
        <ele>1913.1600000000001</ele>
        <time>2018-09-09T12:41:40Z</time>
      </trkpt>
      <trkpt lat="46.212242301553488" lon="10.882581202313304">
        <ele>1912.2</ele>
        <time>2018-09-09T12:41:45Z</time>
      </trkpt>
      <trkpt lat="46.21218379586935" lon="10.882426891475916">
        <ele>1910.28</ele>
        <time>2018-09-09T12:41:57Z</time>
      </trkpt>
      <trkpt lat="46.212112884968519" lon="10.88227073661983">
        <ele>1908.3499999999999</ele>
        <time>2018-09-09T12:42:10Z</time>
      </trkpt>
      <trkpt lat="46.212084470316768" lon="10.882108043879271">
        <ele>1905.95</ele>
        <time>2018-09-09T12:42:21Z</time>
      </trkpt>
      <trkpt lat="46.212076088413596" lon="10.882098488509655">
        <ele>1905.95</ele>
        <time>2018-09-09T12:42:22Z</time>
      </trkpt>
      <trkpt lat="46.212041387334466" lon="10.881950464099646">
        <ele>1904.03</ele>
        <time>2018-09-09T12:42:32Z</time>
      </trkpt>
      <trkpt lat="46.212028060108423" lon="10.88192967697978">
        <ele>1903.55</ele>
        <time>2018-09-09T12:42:34Z</time>
      </trkpt>
      <trkpt lat="46.212004339322448" lon="10.881882067769766">
        <ele>1902.5899999999999</ele>
        <time>2018-09-09T12:42:38Z</time>
      </trkpt>
      <trkpt lat="46.21199905872345" lon="10.881797662004828">
        <ele>1901.6300000000001</ele>
        <time>2018-09-09T12:42:43Z</time>
      </trkpt>
      <trkpt lat="46.211971146985888" lon="10.881683249026537">
        <ele>1900.1800000000001</ele>
        <time>2018-09-09T12:42:54Z</time>
      </trkpt>
      <trkpt lat="46.211954047903419" lon="10.88168878108263">
        <ele>1899.7</ele>
        <time>2018-09-09T12:43:05Z</time>
      </trkpt>
      <trkpt lat="46.21195119805634" lon="10.881624156609178">
        <ele>1898.26</ele>
        <time>2018-09-09T12:43:16Z</time>
      </trkpt>
      <trkpt lat="46.211966369301081" lon="10.881507061421871">
        <ele>1898.26</ele>
        <time>2018-09-09T12:43:30Z</time>
      </trkpt>
      <trkpt lat="46.211905516684055" lon="10.881374627351761">
        <ele>1894.9000000000001</ele>
        <time>2018-09-09T12:43:42Z</time>
      </trkpt>
      <trkpt lat="46.211869558319449" lon="10.881168097257614">
        <ele>1892.01</ele>
        <time>2018-09-09T12:43:55Z</time>
      </trkpt>
      <trkpt lat="46.211863439530134" lon="10.881148315966129">
        <ele>1892.01</ele>
        <time>2018-09-09T12:43:56Z</time>
      </trkpt>
      <trkpt lat="46.211863271892071" lon="10.881099365651608">
        <ele>1890.0899999999999</ele>
        <time>2018-09-09T12:43:59Z</time>
      </trkpt>
      <trkpt lat="46.211871821433306" lon="10.881060138344765">
        <ele>1891.05</ele>
        <time>2018-09-09T12:44:11Z</time>
      </trkpt>
      <trkpt lat="46.211871486157179" lon="10.880969781428576">
        <ele>1889.6099999999999</ele>
        <time>2018-09-09T12:44:22Z</time>
      </trkpt>
      <trkpt lat="46.211847262457013" lon="10.880883196368814">
        <ele>1888.1700000000001</ele>
        <time>2018-09-09T12:44:32Z</time>
      </trkpt>
      <trkpt lat="46.211823206394911" lon="10.880756126716733">
        <ele>1886.24</ele>
        <time>2018-09-09T12:44:45Z</time>
      </trkpt>
      <trkpt lat="46.211793199181557" lon="10.880721006542444">
        <ele>1885.76</ele>
        <time>2018-09-09T12:45:07Z</time>
      </trkpt>
      <trkpt lat="46.211783308535814" lon="10.880643473938107">
        <ele>1884.3199999999999</ele>
        <time>2018-09-09T12:45:13Z</time>
      </trkpt>
      <trkpt lat="46.211787834763527" lon="10.880574993789196">
        <ele>1883.8399999999999</ele>
        <time>2018-09-09T12:45:17Z</time>
      </trkpt>
      <trkpt lat="46.211796551942825" lon="10.880399895831943">
        <ele>1881.9200000000001</ele>
        <time>2018-09-09T12:45:28Z</time>
      </trkpt>
      <trkpt lat="46.211789594963193" lon="10.880303336307406">
        <ele>1880.96</ele>
        <time>2018-09-09T12:45:34Z</time>
      </trkpt>
      <trkpt lat="46.211787415668368" lon="10.880253296345472">
        <ele>1880.48</ele>
        <time>2018-09-09T12:45:37Z</time>
      </trkpt>
      <trkpt lat="46.211801916360855" lon="10.88016863912344">
        <ele>1879.51</ele>
        <time>2018-09-09T12:45:43Z</time>
      </trkpt>
      <trkpt lat="46.211790097877383" lon="10.880105271935463">
        <ele>1879.03</ele>
        <time>2018-09-09T12:45:47Z</time>
      </trkpt>
      <trkpt lat="46.211748104542494" lon="10.879920702427626">
        <ele>1877.1099999999999</ele>
        <time>2018-09-09T12:46:00Z</time>
      </trkpt>
      <trkpt lat="46.211711894720793" lon="10.879794890061021">
        <ele>1875.6700000000001</ele>
        <time>2018-09-09T12:46:09Z</time>
      </trkpt>
      <trkpt lat="46.211669398471713" lon="10.879642423242331">
        <ele>1873.75</ele>
        <time>2018-09-09T12:46:20Z</time>
      </trkpt>
      <trkpt lat="46.211650287732482" lon="10.879559526219964">
        <ele>1872.79</ele>
        <time>2018-09-09T12:46:25Z</time>
      </trkpt>
      <trkpt lat="46.211614664644003" lon="10.879522562026978">
        <ele>1872.79</ele>
        <time>2018-09-09T12:46:29Z</time>
      </trkpt>
      <trkpt lat="46.211555488407612" lon="10.879358444362879">
        <ele>1872.79</ele>
        <time>2018-09-09T12:46:41Z</time>
      </trkpt>
      <trkpt lat="46.211504610255361" lon="10.879178065806627">
        <ele>1871.3399999999999</ele>
        <time>2018-09-09T12:46:54Z</time>
      </trkpt>
      <trkpt lat="46.211463119834661" lon="10.87902476079762">
        <ele>1869.9000000000001</ele>
        <time>2018-09-09T12:47:06Z</time>
      </trkpt>
      <trkpt lat="46.211462030187249" lon="10.879001626744866">
        <ele>1869.4200000000001</ele>
        <time>2018-09-09T12:47:08Z</time>
      </trkpt>
      <trkpt lat="46.211453648284078" lon="10.878920573741198">
        <ele>1867.98</ele>
        <time>2018-09-09T12:47:14Z</time>
      </trkpt>
      <trkpt lat="46.211467226967216" lon="10.87870473973453">
        <ele>1865.0899999999999</ele>
        <time>2018-09-09T12:47:27Z</time>
      </trkpt>
      <trkpt lat="46.211468316614628" lon="10.878680851310492">
        <ele>1865.0899999999999</ele>
        <time>2018-09-09T12:47:29Z</time>
      </trkpt>
      <trkpt lat="46.211497820913792" lon="10.878493683412671">
        <ele>1862.6900000000001</ele>
        <time>2018-09-09T12:47:41Z</time>
      </trkpt>
      <trkpt lat="46.211500251665711" lon="10.878480188548565">
        <ele>1862.21</ele>
        <time>2018-09-09T12:47:42Z</time>
      </trkpt>
      <trkpt lat="46.211502850055695" lon="10.878402572125196">
        <ele>1862.21</ele>
        <time>2018-09-09T12:47:47Z</time>
      </trkpt>
      <trkpt lat="46.211442500352859" lon="10.878256894648075">
        <ele>1861.73</ele>
        <time>2018-09-09T12:47:58Z</time>
      </trkpt>
      <trkpt lat="46.211377456784248" lon="10.878128567710519">
        <ele>1860.77</ele>
        <time>2018-09-09T12:48:10Z</time>
      </trkpt>
      <trkpt lat="46.211357759311795" lon="10.878084478899837">
        <ele>1860.29</ele>
        <time>2018-09-09T12:48:15Z</time>
      </trkpt>
      <trkpt lat="46.211330685764551" lon="10.87793025188148">
        <ele>1859.8099999999999</ele>
        <time>2018-09-09T12:48:26Z</time>
      </trkpt>
      <trkpt lat="46.211319537833333" lon="10.877771833911538">
        <ele>1859.8099999999999</ele>
        <time>2018-09-09T12:48:35Z</time>
      </trkpt>
      <trkpt lat="46.21131157502532" lon="10.87770008482039">
        <ele>1860.29</ele>
        <time>2018-09-09T12:48:40Z</time>
      </trkpt>
      <trkpt lat="46.211260948330164" lon="10.87754812091589">
        <ele>1858.8499999999999</ele>
        <time>2018-09-09T12:48:53Z</time>
      </trkpt>
      <trkpt lat="46.21119330637157" lon="10.877427840605378">
        <ele>1856.9200000000001</ele>
        <time>2018-09-09T12:49:05Z</time>
      </trkpt>
      <trkpt lat="46.211150139570236" lon="10.877296077087522">
        <ele>1854.04</ele>
        <time>2018-09-09T12:49:17Z</time>
      </trkpt>
      <trkpt lat="46.211119713261724" lon="10.877176718786359">
        <ele>1852.5999999999999</ele>
        <time>2018-09-09T12:49:26Z</time>
      </trkpt>
      <trkpt lat="46.211100351065397" lon="10.877031795680523">
        <ele>1851.1600000000001</ele>
        <time>2018-09-09T12:49:39Z</time>
      </trkpt>
      <trkpt lat="46.211045365780592" lon="10.876908414065838">
        <ele>1848.75</ele>
        <time>2018-09-09T12:49:51Z</time>
      </trkpt>
      <trkpt lat="46.21099348179996" lon="10.87674337439239">
        <ele>1845.8699999999999</ele>
        <time>2018-09-09T12:50:04Z</time>
      </trkpt>
      <trkpt lat="46.210971521213651" lon="10.876562660560012">
        <ele>1843.47</ele>
        <time>2018-09-09T12:50:17Z</time>
      </trkpt>
      <trkpt lat="46.210921565070748" lon="10.876408517360687">
        <ele>1841.54</ele>
        <time>2018-09-09T12:50:30Z</time>
      </trkpt>
      <trkpt lat="46.210880661383271" lon="10.876297457143664">
        <ele>1839.1400000000001</ele>
        <time>2018-09-09T12:50:41Z</time>
      </trkpt>
      <trkpt lat="46.210829615592957" lon="10.87620391510427">
        <ele>1836.74</ele>
        <time>2018-09-09T12:50:51Z</time>
      </trkpt>
      <trkpt lat="46.210823580622673" lon="10.876194275915623">
        <ele>1836.26</ele>
        <time>2018-09-09T12:50:52Z</time>
      </trkpt>
      <trkpt lat="46.210806732997298" lon="10.876152450218797">
        <ele>1835.77</ele>
        <time>2018-09-09T12:50:55Z</time>
      </trkpt>
      <trkpt lat="46.210760632529855" lon="10.876013981178403">
        <ele>1833.3699999999999</ele>
        <time>2018-09-09T12:51:06Z</time>
      </trkpt>
      <trkpt lat="46.210645800456405" lon="10.87591121904552">
        <ele>1831.45</ele>
        <time>2018-09-09T12:51:20Z</time>
      </trkpt>
      <trkpt lat="46.210575643926859" lon="10.875804265961051">
        <ele>1829.53</ele>
        <time>2018-09-09T12:51:30Z</time>
      </trkpt>
      <trkpt lat="46.210507415235043" lon="10.875731762498617">
        <ele>1827.5999999999999</ele>
        <time>2018-09-09T12:51:41Z</time>
      </trkpt>
      <trkpt lat="46.210445892065763" lon="10.875640651211143">
        <ele>1824.72</ele>
        <time>2018-09-09T12:51:54Z</time>
      </trkpt>
      <trkpt lat="46.210394091904163" lon="10.875562112778425">
        <ele>1821.8399999999999</ele>
        <time>2018-09-09T12:52:03Z</time>
      </trkpt>
      <trkpt lat="46.210314128547907" lon="10.875445855781436">
        <ele>1818.95</ele>
        <time>2018-09-09T12:52:15Z</time>
      </trkpt>
      <trkpt lat="46.210242127999663" lon="10.875366646796465">
        <ele>1816.55</ele>
        <time>2018-09-09T12:52:25Z</time>
      </trkpt>
      <trkpt lat="46.210195692256093" lon="10.875273104757071">
        <ele>1814.1500000000001</ele>
        <time>2018-09-09T12:52:35Z</time>
      </trkpt>
      <trkpt lat="46.21015646494925" lon="10.87518366985023">
        <ele>1811.74</ele>
        <time>2018-09-09T12:52:45Z</time>
      </trkpt>
      <trkpt lat="46.210099384188652" lon="10.875134048983455">
        <ele>1808.8599999999999</ele>
        <time>2018-09-09T12:52:55Z</time>
      </trkpt>
      <trkpt lat="46.210046326741576" lon="10.875013349577785">
        <ele>1806.45</ele>
        <time>2018-09-09T12:53:06Z</time>
      </trkpt>
      <trkpt lat="46.209985725581646" lon="10.874930284917355">
        <ele>1803.0899999999999</ele>
        <time>2018-09-09T12:53:17Z</time>
      </trkpt>
      <trkpt lat="46.20997910387814" lon="10.874870773404837">
        <ele>1800.6900000000001</ele>
        <time>2018-09-09T12:53:24Z</time>
      </trkpt>
      <trkpt lat="46.210019756108522" lon="10.87473364546895">
        <ele>1800.21</ele>
        <time>2018-09-09T12:53:35Z</time>
      </trkpt>
      <trkpt lat="46.210024869069457" lon="10.874709254130721">
        <ele>1798.76</ele>
        <time>2018-09-09T12:53:37Z</time>
      </trkpt>
      <trkpt lat="46.209975583478808" lon="10.874609844759107">
        <ele>1796.8399999999999</ele>
        <time>2018-09-09T12:53:47Z</time>
      </trkpt>
      <trkpt lat="46.209978349506855" lon="10.874514542520046">
        <ele>1793.96</ele>
        <time>2018-09-09T12:53:57Z</time>
      </trkpt>
      <trkpt lat="46.209939373657107" lon="10.874433154240251">
        <ele>1791.55</ele>
        <time>2018-09-09T12:54:07Z</time>
      </trkpt>
      <trkpt lat="46.209917161613703" lon="10.874274065718055">
        <ele>1789.1500000000001</ele>
        <time>2018-09-09T12:54:19Z</time>
      </trkpt>
      <trkpt lat="46.209901068359613" lon="10.874126711860299">
        <ele>1786.75</ele>
        <time>2018-09-09T12:54:28Z</time>
      </trkpt>
      <trkpt lat="46.209878604859114" lon="10.873987739905715">
        <ele>1784.8199999999999</ele>
        <time>2018-09-09T12:54:38Z</time>
      </trkpt>
      <trkpt lat="46.209799898788333" lon="10.873853797093034">
        <ele>1782.9000000000001</ele>
        <time>2018-09-09T12:54:50Z</time>
      </trkpt>
      <trkpt lat="46.209776429459453" lon="10.873771402984858">
        <ele>1781.9400000000001</ele>
        <time>2018-09-09T12:55:00Z</time>
      </trkpt>
      <trkpt lat="46.209737034514546" lon="10.873657409101725">
        <ele>1781.9400000000001</ele>
        <time>2018-09-09T12:55:10Z</time>
      </trkpt>
      <trkpt lat="46.209635026752949" lon="10.873613823205233">
        <ele>1782.4200000000001</ele>
        <time>2018-09-09T12:55:21Z</time>
      </trkpt>
      <trkpt lat="46.209614826366305" lon="10.873601334169507">
        <ele>1782.4200000000001</ele>
        <time>2018-09-09T12:55:24Z</time>
      </trkpt>
      <trkpt lat="46.20954031124711" lon="10.873563447967172">
        <ele>1782.4200000000001</ele>
        <time>2018-09-09T12:55:31Z</time>
      </trkpt>
      <trkpt lat="46.209511393681169" lon="10.873475605621934">
        <ele>1782.4200000000001</ele>
        <time>2018-09-09T12:55:44Z</time>
      </trkpt>
      <trkpt lat="46.209503347054124" lon="10.873484741896391">
        <ele>1781.46</ele>
        <time>2018-09-09T12:55:54Z</time>
      </trkpt>
      <trkpt lat="46.209505023434758" lon="10.873503349721432">
        <ele>1781.46</ele>
        <time>2018-09-09T12:56:15Z</time>
      </trkpt>
      <trkpt lat="46.20957694016397" lon="10.873521706089377">
        <ele>1781.46</ele>
        <time>2018-09-09T12:56:35Z</time>
      </trkpt>
      <trkpt lat="46.209522457793355" lon="10.873561855405569">
        <ele>1781.46</ele>
        <time>2018-09-09T12:56:56Z</time>
      </trkpt>
      <trkpt lat="46.209494294598699" lon="10.873523382470012">
        <ele>1781.46</ele>
        <time>2018-09-09T12:57:15Z</time>
      </trkpt>
      <trkpt lat="46.209465460851789" lon="10.873562777414918">
        <ele>1780.98</ele>
        <time>2018-09-09T12:57:38Z</time>
      </trkpt>
      <trkpt lat="46.209466634318233" lon="10.873555736616254">
        <ele>1781.46</ele>
        <time>2018-09-09T12:57:55Z</time>
      </trkpt>
      <trkpt lat="46.209475183859468" lon="10.87354383431375">
        <ele>1781.9400000000001</ele>
        <time>2018-09-09T12:58:12Z</time>
      </trkpt>
      <trkpt lat="46.209505358710885" lon="10.873499745503068">
        <ele>1781.9400000000001</ele>
        <time>2018-09-09T12:58:25Z</time>
      </trkpt>
      <trkpt lat="46.209476692602038" lon="10.87344023399055">
        <ele>1782.4200000000001</ele>
        <time>2018-09-09T12:58:45Z</time>
      </trkpt>
      <trkpt lat="46.20946261100471" lon="10.873423218727112">
        <ele>1780.98</ele>
        <time>2018-09-09T12:59:02Z</time>
      </trkpt>
      <trkpt lat="46.2094631139189" lon="10.873404778540134">
        <ele>1782.4200000000001</ele>
        <time>2018-09-09T12:59:09Z</time>
      </trkpt>
      <trkpt lat="46.209478117525578" lon="10.87343386374414">
        <ele>1781.9400000000001</ele>
        <time>2018-09-09T12:59:31Z</time>
      </trkpt>
      <trkpt lat="46.209489936009049" lon="10.873492872342467">
        <ele>1782.4200000000001</ele>
        <time>2018-09-09T12:59:46Z</time>
      </trkpt>
      <trkpt lat="46.209502844139934" lon="10.873472420498729">
        <ele>1782.4200000000001</ele>
        <time>2018-09-09T12:59:55Z</time>
      </trkpt>
      <trkpt lat="46.209503598511219" lon="10.8734480291605">
        <ele>1782.4200000000001</ele>
        <time>2018-09-09T13:00:11Z</time>
      </trkpt>
      <trkpt lat="46.209492282941937" lon="10.873449454084039">
        <ele>1782.4200000000001</ele>
        <time>2018-09-09T13:00:21Z</time>
      </trkpt>
      <trkpt lat="46.209495887160301" lon="10.873459009453654">
        <ele>1782.4200000000001</ele>
        <time>2018-09-09T13:00:34Z</time>
      </trkpt>
      <trkpt lat="46.209474764764309" lon="10.873443419113755">
        <ele>1782.9000000000001</ele>
        <time>2018-09-09T13:00:45Z</time>
      </trkpt>
      <trkpt lat="46.209453139454126" lon="10.873476779088378">
        <ele>1782.4200000000001</ele>
        <time>2018-09-09T13:00:54Z</time>
      </trkpt>
      <trkpt lat="46.209362698718905" lon="10.873354068025947">
        <ele>1780.98</ele>
        <time>2018-09-09T13:01:06Z</time>
      </trkpt>
      <trkpt lat="46.209294553846121" lon="10.873219119384885">
        <ele>1782.4200000000001</ele>
        <time>2018-09-09T13:01:17Z</time>
      </trkpt>
      <trkpt lat="46.209239484742284" lon="10.873183915391564">
        <ele>1782.4200000000001</ele>
        <time>2018-09-09T13:01:23Z</time>
      </trkpt>
      <trkpt lat="46.209214422851801" lon="10.873083416372538">
        <ele>1781.9400000000001</ele>
        <time>2018-09-09T13:01:29Z</time>
      </trkpt>
      <trkpt lat="46.209220876917243" lon="10.872993394732475">
        <ele>1781.9400000000001</ele>
        <time>2018-09-09T13:01:35Z</time>
      </trkpt>
      <trkpt lat="46.209303941577673" lon="10.872917538508773">
        <ele>1780.98</ele>
        <time>2018-09-09T13:01:43Z</time>
      </trkpt>
      <trkpt lat="46.209302851930261" lon="10.872809579595923">
        <ele>1780.5</ele>
        <time>2018-09-09T13:01:53Z</time>
      </trkpt>
      <trkpt lat="46.209278963506222" lon="10.872732466086745">
        <ele>1780.5</ele>
        <time>2018-09-09T13:02:00Z</time>
      </trkpt>
      <trkpt lat="46.209210064262152" lon="10.87260221131146">
        <ele>1780.02</ele>
        <time>2018-09-09T13:02:09Z</time>
      </trkpt>
      <trkpt lat="46.20912398211658" lon="10.872429711744189">
        <ele>1779.0599999999999</ele>
        <time>2018-09-09T13:02:22Z</time>
      </trkpt>
      <trkpt lat="46.209045276045799" lon="10.872294930741191">
        <ele>1779.0599999999999</ele>
        <time>2018-09-09T13:02:33Z</time>
      </trkpt>
      <trkpt lat="46.20903211645782" lon="10.872274478897452">
        <ele>1779.0599999999999</ele>
        <time>2018-09-09T13:02:35Z</time>
      </trkpt>
      <trkpt lat="46.208978639915586" lon="10.872147660702467">
        <ele>1778.5799999999999</ele>
        <time>2018-09-09T13:02:45Z</time>
      </trkpt>
      <trkpt lat="46.208945866674185" lon="10.872013717889786">
        <ele>1777.1300000000001</ele>
        <time>2018-09-09T13:02:56Z</time>
      </trkpt>
      <trkpt lat="46.208929186686873" lon="10.871991422027349">
        <ele>1776.1700000000001</ele>
        <time>2018-09-09T13:02:59Z</time>
      </trkpt>
      <trkpt lat="46.208850983530283" lon="10.871845996007323">
        <ele>1773.77</ele>
        <time>2018-09-09T13:03:11Z</time>
      </trkpt>
      <trkpt lat="46.208801530301571" lon="10.871677100658417">
        <ele>1771.8499999999999</ele>
        <time>2018-09-09T13:03:25Z</time>
      </trkpt>
      <trkpt lat="46.208773450925946" lon="10.871727056801319">
        <ele>1769.4400000000001</ele>
        <time>2018-09-09T13:03:36Z</time>
      </trkpt>
      <trkpt lat="46.208772780373693" lon="10.871809283271432">
        <ele>1768.48</ele>
        <time>2018-09-09T13:03:44Z</time>
      </trkpt>
      <trkpt lat="46.20878635905683" lon="10.87193576619029">
        <ele>1767.52</ele>
        <time>2018-09-09T13:03:52Z</time>
      </trkpt>
      <trkpt lat="46.208802871406078" lon="10.87209845893085">
        <ele>1766.0799999999999</ele>
        <time>2018-09-09T13:04:03Z</time>
      </trkpt>
      <trkpt lat="46.208775546401739" lon="10.872210524976254">
        <ele>1764.6400000000001</ele>
        <time>2018-09-09T13:04:13Z</time>
      </trkpt>
      <trkpt lat="46.208677226677537" lon="10.872198371216655">
        <ele>1761.27</ele>
        <time>2018-09-09T13:04:24Z</time>
      </trkpt>
      <trkpt lat="46.208634981885552" lon="10.872089322656393">
        <ele>1759.3499999999999</ele>
        <time>2018-09-09T13:04:33Z</time>
      </trkpt>
      <trkpt lat="46.208589719608426" lon="10.871992260217667">
        <ele>1757.4300000000001</ele>
        <time>2018-09-09T13:04:42Z</time>
      </trkpt>
      <trkpt lat="46.208583433181047" lon="10.871978681534529">
        <ele>1756.95</ele>
        <time>2018-09-09T13:04:43Z</time>
      </trkpt>
      <trkpt lat="46.208507074043155" lon="10.871837362647057">
        <ele>1755.02</ele>
        <time>2018-09-09T13:04:57Z</time>
      </trkpt>
      <trkpt lat="46.208456866443157" lon="10.871734349057078">
        <ele>1752.6199999999999</ele>
        <time>2018-09-09T13:05:08Z</time>
      </trkpt>
      <trkpt lat="46.208397438749671" lon="10.871641058474779">
        <ele>1751.1800000000001</ele>
        <time>2018-09-09T13:05:18Z</time>
      </trkpt>
      <trkpt lat="46.208411436527967" lon="10.871536284685135">
        <ele>1750.22</ele>
        <time>2018-09-09T13:05:27Z</time>
      </trkpt>
      <trkpt lat="46.208402048796415" lon="10.871371831744909">
        <ele>1747.8099999999999</ele>
        <time>2018-09-09T13:05:38Z</time>
      </trkpt>
      <trkpt lat="46.208383860066533" lon="10.871235961094499">
        <ele>1744.45</ele>
        <time>2018-09-09T13:05:49Z</time>
      </trkpt>
      <trkpt lat="46.208303309977055" lon="10.871090451255441">
        <ele>1742.53</ele>
        <time>2018-09-09T13:06:01Z</time>
      </trkpt>
      <trkpt lat="46.20830993168056" lon="10.870966734364629">
        <ele>1740.5999999999999</ele>
        <time>2018-09-09T13:06:11Z</time>
      </trkpt>
      <trkpt lat="46.208299705758691" lon="10.870823906734586">
        <ele>1738.2</ele>
        <time>2018-09-09T13:06:22Z</time>
      </trkpt>
      <trkpt lat="46.208289815112948" lon="10.870714439079165">
        <ele>1735.8</ele>
        <time>2018-09-09T13:06:32Z</time>
      </trkpt>
      <trkpt lat="46.20828352868557" lon="10.870699938386679">
        <ele>1735.8</ele>
        <time>2018-09-09T13:06:33Z</time>
      </trkpt>
      <trkpt lat="46.208225945010781" lon="10.870555266737938">
        <ele>1734.3599999999999</ele>
        <time>2018-09-09T13:06:44Z</time>
      </trkpt>
      <trkpt lat="46.208180347457528" lon="10.870405649766326">
        <ele>1731.95</ele>
        <time>2018-09-09T13:06:54Z</time>
      </trkpt>
      <trkpt lat="46.208115890622139" lon="10.870316382497549">
        <ele>1730.51</ele>
        <time>2018-09-09T13:07:04Z</time>
      </trkpt>
      <trkpt lat="46.208055289462209" lon="10.870184116065502">
        <ele>1727.6300000000001</ele>
        <time>2018-09-09T13:07:17Z</time>
      </trkpt>
      <trkpt lat="46.208011703565717" lon="10.870126197114587">
        <ele>1725.7</ele>
        <time>2018-09-09T13:07:26Z</time>
      </trkpt>
      <trkpt lat="46.207958981394768" lon="10.870094262063503">
        <ele>1722.3399999999999</ele>
        <time>2018-09-09T13:07:35Z</time>
      </trkpt>
      <trkpt lat="46.207960154861212" lon="10.870036510750651">
        <ele>1721.3800000000001</ele>
        <time>2018-09-09T13:07:40Z</time>
      </trkpt>
      <trkpt lat="46.207911623641849" lon="10.869983453303576">
        <ele>1720.9000000000001</ele>
        <time>2018-09-09T13:07:49Z</time>
      </trkpt>
      <trkpt lat="46.207906510680914" lon="10.869973059743643">
        <ele>1720.4200000000001</ele>
        <time>2018-09-09T13:07:50Z</time>
      </trkpt>
      <trkpt lat="46.207869127392769" lon="10.869789998978376">
        <ele>1718.49</ele>
        <time>2018-09-09T13:08:02Z</time>
      </trkpt>
      <trkpt lat="46.207822021096945" lon="10.869713723659515">
        <ele>1717.05</ele>
        <time>2018-09-09T13:08:11Z</time>
      </trkpt>
      <trkpt lat="46.20776267722249" lon="10.869541559368372">
        <ele>1714.1700000000001</ele>
        <time>2018-09-09T13:08:25Z</time>
      </trkpt>
      <trkpt lat="46.207760833203793" lon="10.869446927681565">
        <ele>1712.73</ele>
        <time>2018-09-09T13:08:35Z</time>
      </trkpt>
      <trkpt lat="46.207742057740688" lon="10.869433684274554">
        <ele>1712.25</ele>
        <time>2018-09-09T13:08:46Z</time>
      </trkpt>
      <trkpt lat="46.207712050527334" lon="10.869399402290583">
        <ele>1710.3199999999999</ele>
        <time>2018-09-09T13:08:56Z</time>
      </trkpt>
      <trkpt lat="46.20762244798243" lon="10.869304351508617">
        <ele>1706.96</ele>
        <time>2018-09-09T13:09:09Z</time>
      </trkpt>
      <trkpt lat="46.207614820450544" lon="10.869298316538334">
        <ele>1706.96</ele>
        <time>2018-09-09T13:09:10Z</time>
      </trkpt>
      <trkpt lat="46.207562517374754" lon="10.869253305718303">
        <ele>1705.52</ele>
        <time>2018-09-09T13:09:17Z</time>
      </trkpt>
      <trkpt lat="46.207463108003139" lon="10.869199242442846">
        <ele>1702.6300000000001</ele>
        <time>2018-09-09T13:09:27Z</time>
      </trkpt>
      <trkpt lat="46.207459168508649" lon="10.869191363453865">
        <ele>1702.1500000000001</ele>
        <time>2018-09-09T13:09:28Z</time>
      </trkpt>
      <trkpt lat="46.207435615360737" lon="10.869165295735002">
        <ele>1702.1500000000001</ele>
        <time>2018-09-09T13:09:31Z</time>
      </trkpt>
      <trkpt lat="46.207394124940038" lon="10.86918038316071">
        <ele>1701.1900000000001</ele>
        <time>2018-09-09T13:09:35Z</time>
      </trkpt>
      <trkpt lat="46.207302929833531" lon="10.869258334860206">
        <ele>1698.79</ele>
        <time>2018-09-09T13:09:47Z</time>
      </trkpt>
      <trkpt lat="46.207198323681951" lon="10.869290186092257">
        <ele>1696.8599999999999</ele>
        <time>2018-09-09T13:09:59Z</time>
      </trkpt>
      <trkpt lat="46.207148535177112" lon="10.869254982098937">
        <ele>1695.4200000000001</ele>
        <time>2018-09-09T13:10:11Z</time>
      </trkpt>
      <trkpt lat="46.207129340618849" lon="10.869194213300943">
        <ele>1694.9400000000001</ele>
        <time>2018-09-09T13:10:16Z</time>
      </trkpt>
      <trkpt lat="46.207117522135377" lon="10.869141826406121">
        <ele>1695.4200000000001</ele>
        <time>2018-09-09T13:10:26Z</time>
      </trkpt>
      <trkpt lat="46.207059184089303" lon="10.869000591337681">
        <ele>1693.5</ele>
        <time>2018-09-09T13:10:38Z</time>
      </trkpt>
      <trkpt lat="46.207050047814846" lon="10.868988856673241">
        <ele>1693.02</ele>
        <time>2018-09-09T13:10:39Z</time>
      </trkpt>
      <trkpt lat="46.207014005631208" lon="10.868898332118988">
        <ele>1692.0599999999999</ele>
        <time>2018-09-09T13:10:46Z</time>
      </trkpt>
      <trkpt lat="46.206981400027871" lon="10.868902942165732">
        <ele>1692.0599999999999</ele>
        <time>2018-09-09T13:10:56Z</time>
      </trkpt>
      <trkpt lat="46.206951141357422" lon="10.868879137560725">
        <ele>1691.5799999999999</ele>
        <time>2018-09-09T13:11:05Z</time>
      </trkpt>
      <trkpt lat="46.20696815662086" lon="10.868906881660223">
        <ele>1691.5799999999999</ele>
        <time>2018-09-09T13:11:20Z</time>
      </trkpt>
      <trkpt lat="46.206918032839894" lon="10.868866983801126">
        <ele>1691.0999999999999</ele>
        <time>2018-09-09T13:11:32Z</time>
      </trkpt>
      <trkpt lat="46.206921301782131" lon="10.868792133405805">
        <ele>1690.1400000000001</ele>
        <time>2018-09-09T13:11:40Z</time>
      </trkpt>
      <trkpt lat="46.206932533532381" lon="10.868775369599462">
        <ele>1690.1400000000001</ele>
        <time>2018-09-09T13:11:49Z</time>
      </trkpt>
      <trkpt lat="46.206925073638558" lon="10.868731196969748">
        <ele>1689.6500000000001</ele>
        <time>2018-09-09T13:11:58Z</time>
      </trkpt>
      <trkpt lat="46.206911411136389" lon="10.868635810911655">
        <ele>1688.6900000000001</ele>
        <time>2018-09-09T13:12:05Z</time>
      </trkpt>
      <trkpt lat="46.206835219636559" lon="10.86854956112802">
        <ele>1687.25</ele>
        <time>2018-09-09T13:12:16Z</time>
      </trkpt>
      <trkpt lat="46.206801272928715" lon="10.868530031293631">
        <ele>1686.29</ele>
        <time>2018-09-09T13:12:24Z</time>
      </trkpt>
      <trkpt lat="46.206757854670286" lon="10.868508908897638">
        <ele>1686.29</ele>
        <time>2018-09-09T13:12:42Z</time>
      </trkpt>
      <trkpt lat="46.206786353141069" lon="10.868494240567088">
        <ele>1686.29</ele>
        <time>2018-09-09T13:13:00Z</time>
      </trkpt>
      <trkpt lat="46.206796327605844" lon="10.86852072738111">
        <ele>1686.77</ele>
        <time>2018-09-09T13:13:25Z</time>
      </trkpt>
      <trkpt lat="46.206812588497996" lon="10.868483260273933">
        <ele>1686.29</ele>
        <time>2018-09-09T13:13:43Z</time>
      </trkpt>
      <trkpt lat="46.206825580447912" lon="10.86848602630198">
        <ele>1686.29</ele>
        <time>2018-09-09T13:14:06Z</time>
      </trkpt>
      <trkpt lat="46.206826502457261" lon="10.868478398770094">
        <ele>1686.29</ele>
        <time>2018-09-09T13:14:42Z</time>
      </trkpt>
      <trkpt lat="46.206799428910017" lon="10.868484098464251">
        <ele>1685.8099999999999</ele>
        <time>2018-09-09T13:15:02Z</time>
      </trkpt>
      <trkpt lat="46.206777552142739" lon="10.868490552529693">
        <ele>1686.29</ele>
        <time>2018-09-09T13:15:22Z</time>
      </trkpt>
      <trkpt lat="46.206762045621872" lon="10.868497844785452">
        <ele>1686.29</ele>
        <time>2018-09-09T13:15:39Z</time>
      </trkpt>
      <trkpt lat="46.206819796934724" lon="10.86847135797143">
        <ele>1686.29</ele>
        <time>2018-09-09T13:16:10Z</time>
      </trkpt>
      <trkpt lat="46.20681032538414" lon="10.868464903905988">
        <ele>1685.8099999999999</ele>
        <time>2018-09-09T13:16:28Z</time>
      </trkpt>
      <trkpt lat="46.20681082829833" lon="10.868490133434534">
        <ele>1685.8099999999999</ele>
        <time>2018-09-09T13:16:51Z</time>
      </trkpt>
      <trkpt lat="46.206806721165776" lon="10.868488205596805">
        <ele>1685.8099999999999</ele>
        <time>2018-09-09T13:17:17Z</time>
      </trkpt>
      <trkpt lat="46.20677369646728" lon="10.868469262495637">
        <ele>1685.3299999999999</ele>
        <time>2018-09-09T13:17:44Z</time>
      </trkpt>
      <trkpt lat="46.206808816641569" lon="10.868475968018174">
        <ele>1685.3299999999999</ele>
        <time>2018-09-09T13:18:14Z</time>
      </trkpt>
      <trkpt lat="46.206815522164106" lon="10.868458701297641">
        <ele>1684.8499999999999</ele>
        <time>2018-09-09T13:18:42Z</time>
      </trkpt>
      <trkpt lat="46.206803787499666" lon="10.868468089029193">
        <ele>1684.8499999999999</ele>
        <time>2018-09-09T13:19:00Z</time>
      </trkpt>
      <trkpt lat="46.206779479980469" lon="10.868463395163417">
        <ele>1685.3299999999999</ele>
        <time>2018-09-09T13:19:18Z</time>
      </trkpt>
      <trkpt lat="46.206776211038232" lon="10.868492983281612">
        <ele>1684.8499999999999</ele>
        <time>2018-09-09T13:19:37Z</time>
      </trkpt>
      <trkpt lat="46.206799261271954" lon="10.868464903905988">
        <ele>1684.8499999999999</ele>
        <time>2018-09-09T13:20:06Z</time>
      </trkpt>
      <trkpt lat="46.20675852522254" lon="10.868459371849895">
        <ele>1684.8499999999999</ele>
        <time>2018-09-09T13:20:28Z</time>
      </trkpt>
      <trkpt lat="46.20676439255476" lon="10.868471777066588">
        <ele>1685.3299999999999</ele>
        <time>2018-09-09T13:20:49Z</time>
      </trkpt>
      <trkpt lat="46.206759614869952" lon="10.868513267487288">
        <ele>1685.3299999999999</ele>
        <time>2018-09-09T13:21:13Z</time>
      </trkpt>
      <trkpt lat="46.206729942932725" lon="10.868523325771093">
        <ele>1684.8499999999999</ele>
        <time>2018-09-09T13:21:46Z</time>
      </trkpt>
      <trkpt lat="46.206709826365113" lon="10.868533300235868">
        <ele>1685.3299999999999</ele>
        <time>2018-09-09T13:22:08Z</time>
      </trkpt>
      <trkpt lat="46.206776294857264" lon="10.868485691025853">
        <ele>1685.3299999999999</ele>
        <time>2018-09-09T13:22:34Z</time>
      </trkpt>
      <trkpt lat="46.206765733659267" lon="10.86852265521884">
        <ele>1685.3299999999999</ele>
        <time>2018-09-09T13:23:04Z</time>
      </trkpt>
      <trkpt lat="46.206779731437564" lon="10.868482170626521">
        <ele>1685.3299999999999</ele>
        <time>2018-09-09T13:23:25Z</time>
      </trkpt>
      <trkpt lat="46.206759447231889" lon="10.868486780673265">
        <ele>1685.3299999999999</ele>
        <time>2018-09-09T13:23:41Z</time>
      </trkpt>
      <trkpt lat="46.206757938489318" lon="10.868516368791461">
        <ele>1685.8099999999999</ele>
        <time>2018-09-09T13:23:59Z</time>
      </trkpt>
      <trkpt lat="46.206737821921706" lon="10.868534138426185">
        <ele>1685.3299999999999</ele>
        <time>2018-09-09T13:24:21Z</time>
      </trkpt>
      <trkpt lat="46.206765649840236" lon="10.868559284135699">
        <ele>1685.3299999999999</ele>
        <time>2018-09-09T13:24:45Z</time>
      </trkpt>
      <trkpt lat="46.206842679530382" lon="10.868489211425185">
        <ele>1685.8099999999999</ele>
        <time>2018-09-09T13:25:06Z</time>
      </trkpt>
      <trkpt lat="46.206831531599164" lon="10.868511591106653">
        <ele>1685.8099999999999</ele>
        <time>2018-09-09T13:25:24Z</time>
      </trkpt>
      <trkpt lat="46.206785598769784" lon="10.868475046008825">
        <ele>1685.8099999999999</ele>
        <time>2018-09-09T13:25:47Z</time>
      </trkpt>
      <trkpt lat="46.206757100299001" lon="10.868437411263585">
        <ele>1685.8099999999999</ele>
        <time>2018-09-09T13:26:10Z</time>
      </trkpt>
      <trkpt lat="46.206762045621872" lon="10.868452582508326">
        <ele>1686.29</ele>
        <time>2018-09-09T13:26:13Z</time>
      </trkpt>
      <trkpt lat="46.206779144704342" lon="10.868455432355404">
        <ele>1686.29</ele>
        <time>2018-09-09T13:26:19Z</time>
      </trkpt>
      <trkpt lat="46.206807810813189" lon="10.868473453447223">
        <ele>1686.77</ele>
        <time>2018-09-09T13:26:27Z</time>
      </trkpt>
      <trkpt lat="46.20682206004858" lon="10.868480242788792">
        <ele>1686.77</ele>
        <time>2018-09-09T13:26:38Z</time>
      </trkpt>
      <trkpt lat="46.206834381446242" lon="10.868471525609493">
        <ele>1686.77</ele>
        <time>2018-09-09T13:26:52Z</time>
      </trkpt>
      <trkpt lat="46.206790460273623" lon="10.868446379899979">
        <ele>1686.29</ele>
        <time>2018-09-09T13:27:04Z</time>
      </trkpt>
      <trkpt lat="46.206785347312689" lon="10.868446882814169">
        <ele>1686.77</ele>
        <time>2018-09-09T13:27:13Z</time>
      </trkpt>
      <trkpt lat="46.206777384504676" lon="10.868412097916007">
        <ele>1686.29</ele>
        <time>2018-09-09T13:27:17Z</time>
      </trkpt>
      <trkpt lat="46.20678492821753" lon="10.868202969431877">
        <ele>1685.3299999999999</ele>
        <time>2018-09-09T13:27:29Z</time>
      </trkpt>
      <trkpt lat="46.20678098872304" lon="10.868194671347737">
        <ele>1685.3299999999999</ele>
        <time>2018-09-09T13:27:30Z</time>
      </trkpt>
      <trkpt lat="46.206760117784142" lon="10.868053771555424">
        <ele>1682.4400000000001</ele>
        <time>2018-09-09T13:27:42Z</time>
      </trkpt>
      <trkpt lat="46.206798506900668" lon="10.867939861491323">
        <ele>1679.0799999999999</ele>
        <time>2018-09-09T13:27:51Z</time>
      </trkpt>
      <trkpt lat="46.206815605983138" lon="10.867877164855599">
        <ele>1677.6400000000001</ele>
        <time>2018-09-09T13:27:56Z</time>
      </trkpt>
      <trkpt lat="46.206821892410517" lon="10.867848750203848">
        <ele>1677.1600000000001</ele>
        <time>2018-09-09T13:27:58Z</time>
      </trkpt>
      <trkpt lat="46.206776211038232" lon="10.867812791839242">
        <ele>1674.75</ele>
        <time>2018-09-09T13:28:09Z</time>
      </trkpt>
      <trkpt lat="46.206745281815529" lon="10.867789573967457">
        <ele>1674.27</ele>
        <time>2018-09-09T13:28:13Z</time>
      </trkpt>
      <trkpt lat="46.206708652898669" lon="10.867679519578815">
        <ele>1673.3099999999999</ele>
        <time>2018-09-09T13:28:22Z</time>
      </trkpt>
      <trkpt lat="46.206669509410858" lon="10.867529399693012">
        <ele>1671.8699999999999</ele>
        <time>2018-09-09T13:28:33Z</time>
      </trkpt>
      <trkpt lat="46.206653332337737" lon="10.867489334195852">
        <ele>1671.8699999999999</ele>
        <time>2018-09-09T13:28:36Z</time>
      </trkpt>
      <trkpt lat="46.206619804725051" lon="10.867334771901369">
        <ele>1671.3900000000001</ele>
        <time>2018-09-09T13:28:48Z</time>
      </trkpt>
      <trkpt lat="46.206611506640911" lon="10.867270650342107">
        <ele>1671.3900000000001</ele>
        <time>2018-09-09T13:28:59Z</time>
      </trkpt>
      <trkpt lat="46.206605136394501" lon="10.867259250953794">
        <ele>1670.9100000000001</ele>
        <time>2018-09-09T13:29:14Z</time>
      </trkpt>
      <trkpt lat="46.20656599290669" lon="10.867256484925747">
        <ele>1670.9100000000001</ele>
        <time>2018-09-09T13:29:26Z</time>
      </trkpt>
      <trkpt lat="46.20656406506896" lon="10.867269728332758">
        <ele>1670.9100000000001</ele>
        <time>2018-09-09T13:29:27Z</time>
      </trkpt>
      <trkpt lat="46.206459123641253" lon="10.867346841841936">
        <ele>1668.51</ele>
        <time>2018-09-09T13:29:39Z</time>
      </trkpt>
      <trkpt lat="46.206430038437247" lon="10.867360001429915">
        <ele>1668.02</ele>
        <time>2018-09-09T13:29:43Z</time>
      </trkpt>
      <trkpt lat="46.206413023173809" lon="10.867367209866643">
        <ele>1667.0599999999999</ele>
        <time>2018-09-09T13:29:45Z</time>
      </trkpt>
      <trkpt lat="46.206343118101358" lon="10.867331167683005">
        <ele>1666.0999999999999</ele>
        <time>2018-09-09T13:29:56Z</time>
      </trkpt>
      <trkpt lat="46.206280086189508" lon="10.867385733872652">
        <ele>1663.7</ele>
        <time>2018-09-09T13:30:07Z</time>
      </trkpt>
      <trkpt lat="46.206251420080662" lon="10.867385063320398">
        <ele>1661.78</ele>
        <time>2018-09-09T13:30:15Z</time>
      </trkpt>
      <trkpt lat="46.206229040399194" lon="10.86741641163826">
        <ele>1659.8499999999999</ele>
        <time>2018-09-09T13:30:24Z</time>
      </trkpt>
      <trkpt lat="46.206180509179831" lon="10.867342902347445">
        <ele>1658.4100000000001</ele>
        <time>2018-09-09T13:30:34Z</time>
      </trkpt>
      <trkpt lat="46.206110855564475" lon="10.867264866828918">
        <ele>1656.49</ele>
        <time>2018-09-09T13:30:46Z</time>
      </trkpt>
      <trkpt lat="46.206041118130088" lon="10.867269393056631">
        <ele>1654.0899999999999</ele>
        <time>2018-09-09T13:30:55Z</time>
      </trkpt>
      <trkpt lat="46.206000884994864" lon="10.867271572351456">
        <ele>1654.0899999999999</ele>
        <time>2018-09-09T13:30:59Z</time>
      </trkpt>
      <trkpt lat="46.20593223720789" lon="10.867289509624243">
        <ele>1653.5999999999999</ele>
        <time>2018-09-09T13:31:06Z</time>
      </trkpt>
      <trkpt lat="46.205908432602882" lon="10.867285151034594">
        <ele>1653.5999999999999</ele>
        <time>2018-09-09T13:31:08Z</time>
      </trkpt>
      <trkpt lat="46.205854369327426" lon="10.86730107665062">
        <ele>1652.6400000000001</ele>
        <time>2018-09-09T13:31:13Z</time>
      </trkpt>
      <trkpt lat="46.205805754289031" lon="10.867339549586177">
        <ele>1651.2</ele>
        <time>2018-09-09T13:31:19Z</time>
      </trkpt>
      <trkpt lat="46.205738531425595" lon="10.86736704222858">
        <ele>1649.76</ele>
        <time>2018-09-09T13:31:30Z</time>
      </trkpt>
      <trkpt lat="46.20569134131074" lon="10.867353212088346">
        <ele>1647.3599999999999</ele>
        <time>2018-09-09T13:31:39Z</time>
      </trkpt>
      <trkpt lat="46.205663932487369" lon="10.867275344207883">
        <ele>1645.9100000000001</ele>
        <time>2018-09-09T13:31:46Z</time>
      </trkpt>
      <trkpt lat="46.205623028799891" lon="10.867169313132763">
        <ele>1644.47</ele>
        <time>2018-09-09T13:31:56Z</time>
      </trkpt>
      <trkpt lat="46.205634512007236" lon="10.867060348391533">
        <ele>1642.0699999999999</ele>
        <time>2018-09-09T13:32:06Z</time>
      </trkpt>
      <trkpt lat="46.205642139539123" lon="10.867020953446627">
        <ele>1641.1099999999999</ele>
        <time>2018-09-09T13:32:09Z</time>
      </trkpt>
      <trkpt lat="46.205706847831607" lon="10.866903187707067">
        <ele>1639.1900000000001</ele>
        <time>2018-09-09T13:32:19Z</time>
      </trkpt>
      <trkpt lat="46.205701231956482" lon="10.866864379495382">
        <ele>1638.7</ele>
        <time>2018-09-09T13:32:22Z</time>
      </trkpt>
      <trkpt lat="46.205732328817248" lon="10.866797156631947">
        <ele>1638.7</ele>
        <time>2018-09-09T13:32:30Z</time>
      </trkpt>
      <trkpt lat="46.205730065703392" lon="10.866742758080363">
        <ele>1637.74</ele>
        <time>2018-09-09T13:32:33Z</time>
      </trkpt>
      <trkpt lat="46.205805335193872" lon="10.866628680378199">
        <ele>1635.3399999999999</ele>
        <time>2018-09-09T13:32:44Z</time>
      </trkpt>
      <trkpt lat="46.205811705440283" lon="10.866595404222608">
        <ele>1634.8599999999999</ele>
        <time>2018-09-09T13:32:47Z</time>
      </trkpt>
      <trkpt lat="46.20582964271307" lon="10.8664904627949">
        <ele>1633.4200000000001</ele>
        <time>2018-09-09T13:32:58Z</time>
      </trkpt>
      <trkpt lat="46.205802317708731" lon="10.86648995988071">
        <ele>1631.01</ele>
        <time>2018-09-09T13:33:07Z</time>
      </trkpt>
      <trkpt lat="46.205766778439283" lon="10.866556763648987">
        <ele>1629.0899999999999</ele>
        <time>2018-09-09T13:33:18Z</time>
      </trkpt>
      <trkpt lat="46.205740123987198" lon="10.866520637646317">
        <ele>1626.6900000000001</ele>
        <time>2018-09-09T13:33:28Z</time>
      </trkpt>
      <trkpt lat="46.205720007419586" lon="10.866546621546149">
        <ele>1624.77</ele>
        <time>2018-09-09T13:33:33Z</time>
      </trkpt>
      <trkpt lat="46.205696873366833" lon="10.866483589634299">
        <ele>1623.3199999999999</ele>
        <time>2018-09-09T13:33:40Z</time>
      </trkpt>
      <trkpt lat="46.205702908337116" lon="10.866449978202581">
        <ele>1622.3599999999999</ele>
        <time>2018-09-09T13:33:48Z</time>
      </trkpt>
      <trkpt lat="46.205684887245297" lon="10.866446373984218">
        <ele>1621.4000000000001</ele>
        <time>2018-09-09T13:33:56Z</time>
      </trkpt>
      <trkpt lat="46.205661417916417" lon="10.866426676511765">
        <ele>1619.96</ele>
        <time>2018-09-09T13:34:07Z</time>
      </trkpt>
      <trkpt lat="46.205639960244298" lon="10.86648459546268">
        <ele>1619</ele>
        <time>2018-09-09T13:34:13Z</time>
      </trkpt>
      <trkpt lat="46.20554625056684" lon="10.866621471941471">
        <ele>1619.48</ele>
        <time>2018-09-09T13:34:25Z</time>
      </trkpt>
      <trkpt lat="46.205527642741799" lon="10.866680396720767">
        <ele>1618.04</ele>
        <time>2018-09-09T13:34:34Z</time>
      </trkpt>
      <trkpt lat="46.205502329394221" lon="10.866724736988544">
        <ele>1617.0699999999999</ele>
        <time>2018-09-09T13:34:42Z</time>
      </trkpt>
      <trkpt lat="46.205473411828279" lon="10.866762874647975">
        <ele>1617.0699999999999</ele>
        <time>2018-09-09T13:34:54Z</time>
      </trkpt>
      <trkpt lat="46.205457737669349" lon="10.866793384775519">
        <ele>1616.1099999999999</ele>
        <time>2018-09-09T13:34:59Z</time>
      </trkpt>
      <trkpt lat="46.205401998013258" lon="10.866788271814585">
        <ele>1614.1900000000001</ele>
        <time>2018-09-09T13:35:10Z</time>
      </trkpt>
      <trkpt lat="46.205408619716763" lon="10.86673135869205">
        <ele>1613.71</ele>
        <time>2018-09-09T13:35:13Z</time>
      </trkpt>
      <trkpt lat="46.205419097095728" lon="10.866690622642636">
        <ele>1613.23</ele>
        <time>2018-09-09T13:35:15Z</time>
      </trkpt>
      <trkpt lat="46.205429909750819" lon="10.866618370637298">
        <ele>1612.27</ele>
        <time>2018-09-09T13:35:20Z</time>
      </trkpt>
      <trkpt lat="46.2054377887398" lon="10.866479817777872">
        <ele>1609.8599999999999</ele>
        <time>2018-09-09T13:35:31Z</time>
      </trkpt>
      <trkpt lat="46.205483134835958" lon="10.866423910483718">
        <ele>1608.4200000000001</ele>
        <time>2018-09-09T13:35:42Z</time>
      </trkpt>
      <trkpt lat="46.205424880608916" lon="10.866465736180544">
        <ele>1607.9400000000001</ele>
        <time>2018-09-09T13:35:51Z</time>
      </trkpt>
      <trkpt lat="46.205434016883373" lon="10.866379905492067">
        <ele>1605.54</ele>
        <time>2018-09-09T13:35:59Z</time>
      </trkpt>
      <trkpt lat="46.205383641645312" lon="10.86640253663063">
        <ele>1604.5799999999999</ele>
        <time>2018-09-09T13:36:06Z</time>
      </trkpt>
      <trkpt lat="46.205358663573861" lon="10.866417121142149">
        <ele>1604.5799999999999</ele>
        <time>2018-09-09T13:36:09Z</time>
      </trkpt>
      <trkpt lat="46.205328237265348" lon="10.866450984030962">
        <ele>1604.5799999999999</ele>
        <time>2018-09-09T13:36:13Z</time>
      </trkpt>
      <trkpt lat="46.205312479287386" lon="10.866472525522113">
        <ele>1603.6199999999999</ele>
        <time>2018-09-09T13:36:15Z</time>
      </trkpt>
      <trkpt lat="46.205241568386555" lon="10.866515776142478">
        <ele>1601.21</ele>
        <time>2018-09-09T13:36:26Z</time>
      </trkpt>
      <trkpt lat="46.205193037167192" lon="10.866562379524112">
        <ele>1599.77</ele>
        <time>2018-09-09T13:36:35Z</time>
      </trkpt>
      <trkpt lat="46.205183984711766" lon="10.866564894095063">
        <ele>1599.77</ele>
        <time>2018-09-09T13:36:38Z</time>
      </trkpt>
      <trkpt lat="46.205170154571533" lon="10.866409409791231">
        <ele>1596.4100000000001</ele>
        <time>2018-09-09T13:36:49Z</time>
      </trkpt>
      <trkpt lat="46.20517241768539" lon="10.866386694833636">
        <ele>1595.9300000000001</ele>
        <time>2018-09-09T13:36:51Z</time>
      </trkpt>
      <trkpt lat="46.205190774053335" lon="10.866336822509766">
        <ele>1594.96</ele>
        <time>2018-09-09T13:36:54Z</time>
      </trkpt>
      <trkpt lat="46.205212818458676" lon="10.866282843053341">
        <ele>1594.48</ele>
        <time>2018-09-09T13:36:58Z</time>
      </trkpt>
      <trkpt lat="46.205257577821612" lon="10.866198688745499">
        <ele>1593.52</ele>
        <time>2018-09-09T13:37:09Z</time>
      </trkpt>
      <trkpt lat="46.205275263637304" lon="10.866178907454014">
        <ele>1591.1199999999999</ele>
        <time>2018-09-09T13:37:17Z</time>
      </trkpt>
      <trkpt lat="46.205298146232963" lon="10.866161054000258">
        <ele>1590.6400000000001</ele>
        <time>2018-09-09T13:37:24Z</time>
      </trkpt>
      <trkpt lat="46.205320106819272" lon="10.866107912734151">
        <ele>1590.6400000000001</ele>
        <time>2018-09-09T13:37:38Z</time>
      </trkpt>
      <trkpt lat="46.205337457358837" lon="10.866042701527476">
        <ele>1590.1600000000001</ele>
        <time>2018-09-09T13:37:46Z</time>
      </trkpt>
      <trkpt lat="46.205331338569522" lon="10.866098944097757">
        <ele>1591.1199999999999</ele>
        <time>2018-09-09T13:37:55Z</time>
      </trkpt>
      <trkpt lat="46.205340558663011" lon="10.866105230525136">
        <ele>1591.1199999999999</ele>
        <time>2018-09-09T13:38:08Z</time>
      </trkpt>
      <trkpt lat="46.20527945458889" lon="10.866064410656691">
        <ele>1589.6800000000001</ele>
        <time>2018-09-09T13:38:18Z</time>
      </trkpt>
      <trkpt lat="46.205267384648323" lon="10.866058878600597">
        <ele>1589.2</ele>
        <time>2018-09-09T13:38:21Z</time>
      </trkpt>
      <trkpt lat="46.205238215625286" lon="10.866001127287745">
        <ele>1589.6800000000001</ele>
        <time>2018-09-09T13:38:30Z</time>
      </trkpt>
      <trkpt lat="46.205222876742482" lon="10.86590314283967">
        <ele>1589.2</ele>
        <time>2018-09-09T13:38:43Z</time>
      </trkpt>
      <trkpt lat="46.205218182876706" lon="10.86591923609376">
        <ele>1590.6400000000001</ele>
        <time>2018-09-09T13:38:58Z</time>
      </trkpt>
      <trkpt lat="46.205250369384885" lon="10.865924097597599">
        <ele>1589.2</ele>
        <time>2018-09-09T13:39:11Z</time>
      </trkpt>
      <trkpt lat="46.20521885342896" lon="10.865829298272729">
        <ele>1588.72</ele>
        <time>2018-09-09T13:39:22Z</time>
      </trkpt>
      <trkpt lat="46.205242658033967" lon="10.865767020732164">
        <ele>1588.24</ele>
        <time>2018-09-09T13:39:26Z</time>
      </trkpt>
      <trkpt lat="46.205240646377206" lon="10.865681944414973">
        <ele>1585.8299999999999</ele>
        <time>2018-09-09T13:39:34Z</time>
      </trkpt>
      <trkpt lat="46.205247100442648" lon="10.865674819797277">
        <ele>1585.8299999999999</ele>
        <time>2018-09-09T13:39:35Z</time>
      </trkpt>
      <trkpt lat="46.205300744622946" lon="10.86562511511147">
        <ele>1584.8699999999999</ele>
        <time>2018-09-09T13:39:43Z</time>
      </trkpt>
      <trkpt lat="46.205351455137134" lon="10.865569543093443">
        <ele>1582.95</ele>
        <time>2018-09-09T13:39:53Z</time>
      </trkpt>
      <trkpt lat="46.205387664958835" lon="10.86548488587141">
        <ele>1581.99</ele>
        <time>2018-09-09T13:40:02Z</time>
      </trkpt>
      <trkpt lat="46.20539328083396" lon="10.865440294146538">
        <ele>1580.0599999999999</ele>
        <time>2018-09-09T13:40:11Z</time>
      </trkpt>
      <trkpt lat="46.205379366874695" lon="10.865421686321497">
        <ele>1578.1400000000001</ele>
        <time>2018-09-09T13:40:19Z</time>
      </trkpt>
      <trkpt lat="46.205398561432958" lon="10.865354966372252">
        <ele>1577.6600000000001</ele>
        <time>2018-09-09T13:40:28Z</time>
      </trkpt>
      <trkpt lat="46.205397639423609" lon="10.865341890603304">
        <ele>1577.1800000000001</ele>
        <time>2018-09-09T13:40:30Z</time>
      </trkpt>
      <trkpt lat="46.205402836203575" lon="10.865299645811319">
        <ele>1576.22</ele>
        <time>2018-09-09T13:40:34Z</time>
      </trkpt>
      <trkpt lat="46.205417839810252" lon="10.865178108215332">
        <ele>1573.8199999999999</ele>
        <time>2018-09-09T13:40:45Z</time>
      </trkpt>
      <trkpt lat="46.205417672172189" lon="10.865121614187956">
        <ele>1572.8499999999999</ele>
        <time>2018-09-09T13:40:50Z</time>
      </trkpt>
      <trkpt lat="46.205405769869685" lon="10.865051038563251">
        <ele>1571.4100000000001</ele>
        <time>2018-09-09T13:40:54Z</time>
      </trkpt>
      <trkpt lat="46.205410296097398" lon="10.86500259116292">
        <ele>1570.9300000000001</ele>
        <time>2018-09-09T13:40:57Z</time>
      </trkpt>
      <trkpt lat="46.205407110974193" lon="10.864971913397312">
        <ele>1571.4100000000001</ele>
        <time>2018-09-09T13:40:59Z</time>
      </trkpt>
      <trkpt lat="46.205406943336129" lon="10.864836545661092">
        <ele>1568.53</ele>
        <time>2018-09-09T13:41:09Z</time>
      </trkpt>
      <trkpt lat="46.205410128459334" lon="10.86481642909348">
        <ele>1568.05</ele>
        <time>2018-09-09T13:41:11Z</time>
      </trkpt>
      <trkpt lat="46.20542798191309" lon="10.864780135452747">
        <ele>1567.5699999999999</ele>
        <time>2018-09-09T13:41:14Z</time>
      </trkpt>
      <trkpt lat="46.205433765426278" lon="10.864747278392315">
        <ele>1567.0899999999999</ele>
        <time>2018-09-09T13:41:16Z</time>
      </trkpt>
      <trkpt lat="46.205411469563842" lon="10.864634206518531">
        <ele>1565.1600000000001</ele>
        <time>2018-09-09T13:41:23Z</time>
      </trkpt>
      <trkpt lat="46.205389173701406" lon="10.864567402750254">
        <ele>1564.2</ele>
        <time>2018-09-09T13:41:28Z</time>
      </trkpt>
      <trkpt lat="46.20536495000124" lon="10.864438824355602">
        <ele>1562.28</ele>
        <time>2018-09-09T13:41:38Z</time>
      </trkpt>
      <trkpt lat="46.205363776534796" lon="10.864301528781652">
        <ele>1561.3199999999999</ele>
        <time>2018-09-09T13:41:48Z</time>
      </trkpt>
      <trkpt lat="46.205341899767518" lon="10.864177895709872">
        <ele>1560.3599999999999</ele>
        <time>2018-09-09T13:41:57Z</time>
      </trkpt>
      <trkpt lat="46.205337624996901" lon="10.864146882668138">
        <ele>1560.3599999999999</ele>
        <time>2018-09-09T13:41:59Z</time>
      </trkpt>
      <trkpt lat="46.205296302214265" lon="10.863929456099868">
        <ele>1559.8800000000001</ele>
        <time>2018-09-09T13:42:11Z</time>
      </trkpt>
      <trkpt lat="46.205369979143143" lon="10.863821329548955">
        <ele>1560.3599999999999</ele>
        <time>2018-09-09T13:42:21Z</time>
      </trkpt>
      <trkpt lat="46.205384228378534" lon="10.863777240738273">
        <ele>1559.8800000000001</ele>
        <time>2018-09-09T13:42:24Z</time>
      </trkpt>
      <trkpt lat="46.205443069338799" lon="10.863641370087862">
        <ele>1559.4000000000001</ele>
        <time>2018-09-09T13:42:33Z</time>
      </trkpt>
      <trkpt lat="46.205506436526775" lon="10.863518994301558">
        <ele>1558.9200000000001</ele>
        <time>2018-09-09T13:42:42Z</time>
      </trkpt>
      <trkpt lat="46.205510627478361" lon="10.863499213010073">
        <ele>1558.9200000000001</ele>
        <time>2018-09-09T13:42:43Z</time>
      </trkpt>
      <trkpt lat="46.205511381849647" lon="10.863449927419424">
        <ele>1558.9200000000001</ele>
        <time>2018-09-09T13:42:48Z</time>
      </trkpt>
      <trkpt lat="46.205522194504738" lon="10.863324282690883">
        <ele>1559.4000000000001</ele>
        <time>2018-09-09T13:42:58Z</time>
      </trkpt>
      <trkpt lat="46.205592937767506" lon="10.863245241343975">
        <ele>1559.4000000000001</ele>
        <time>2018-09-09T13:43:06Z</time>
      </trkpt>
      <trkpt lat="46.20563761331141" lon="10.86315949447453">
        <ele>1558.9200000000001</ele>
        <time>2018-09-09T13:43:15Z</time>
      </trkpt>
      <trkpt lat="46.205653538927436" lon="10.863164439797401">
        <ele>1558.9200000000001</ele>
        <time>2018-09-09T13:43:17Z</time>
      </trkpt>
      <trkpt lat="46.205678600817919" lon="10.863132504746318">
        <ele>1559.4000000000001</ele>
        <time>2018-09-09T13:43:22Z</time>
      </trkpt>
      <trkpt lat="46.205695448443294" lon="10.862975595518947">
        <ele>1558.9200000000001</ele>
        <time>2018-09-09T13:43:32Z</time>
      </trkpt>
      <trkpt lat="46.20572897605598" lon="10.862867804244161">
        <ele>1558.4300000000001</ele>
        <time>2018-09-09T13:43:38Z</time>
      </trkpt>
      <trkpt lat="46.20573291555047" lon="10.862808292731643">
        <ele>1558.4300000000001</ele>
        <time>2018-09-09T13:43:42Z</time>
      </trkpt>
      <trkpt lat="46.20571724139154" lon="10.862769652158022">
        <ele>1558.4300000000001</ele>
        <time>2018-09-09T13:43:45Z</time>
      </trkpt>
      <trkpt lat="46.205716822296381" lon="10.862652976065874">
        <ele>1558.4300000000001</ele>
        <time>2018-09-09T13:43:54Z</time>
      </trkpt>
      <trkpt lat="46.205757139250636" lon="10.862620873376727">
        <ele>1558.4300000000001</ele>
        <time>2018-09-09T13:43:57Z</time>
      </trkpt>
      <trkpt lat="46.205778680741787" lon="10.862531354650855">
        <ele>1558.4300000000001</ele>
        <time>2018-09-09T13:44:04Z</time>
      </trkpt>
      <trkpt lat="46.205763509497046" lon="10.862378887832165">
        <ele>1558.4300000000001</ele>
        <time>2018-09-09T13:44:14Z</time>
      </trkpt>
      <trkpt lat="46.20575487613678" lon="10.862322561442852">
        <ele>1558.4300000000001</ele>
        <time>2018-09-09T13:44:18Z</time>
      </trkpt>
      <trkpt lat="46.205704417079687" lon="10.862097423523664">
        <ele>1557.95</ele>
        <time>2018-09-09T13:44:31Z</time>
      </trkpt>
      <trkpt lat="46.205671392381191" lon="10.861909333616495">
        <ele>1557.95</ele>
        <time>2018-09-09T13:44:44Z</time>
      </trkpt>
      <trkpt lat="46.205659573897719" lon="10.861845463514328">
        <ele>1557.95</ele>
        <time>2018-09-09T13:44:48Z</time>
      </trkpt>
      <trkpt lat="46.205675331875682" lon="10.86163935251534">
        <ele>1557.47</ele>
        <time>2018-09-09T13:45:00Z</time>
      </trkpt>
      <trkpt lat="46.205681031569839" lon="10.861554779112339">
        <ele>1557.47</ele>
        <time>2018-09-09T13:45:05Z</time>
      </trkpt>
      <trkpt lat="46.205667788162827" lon="10.861347578465939">
        <ele>1556.99</ele>
        <time>2018-09-09T13:45:18Z</time>
      </trkpt>
      <trkpt lat="46.205666195601225" lon="10.861263172701001">
        <ele>1557.47</ele>
        <time>2018-09-09T13:45:24Z</time>
      </trkpt>
      <trkpt lat="46.205726712942123" lon="10.861145742237568">
        <ele>1558.4300000000001</ele>
        <time>2018-09-09T13:45:33Z</time>
      </trkpt>
      <trkpt lat="46.205703914165497" lon="10.861035520210862">
        <ele>1559.4000000000001</ele>
        <time>2018-09-09T13:45:42Z</time>
      </trkpt>
      <trkpt lat="46.205678600817919" lon="10.861025964841247">
        <ele>1559.4000000000001</ele>
        <time>2018-09-09T13:45:44Z</time>
      </trkpt>
      <trkpt lat="46.205637864768505" lon="10.861012218520045">
        <ele>1558.9200000000001</ele>
        <time>2018-09-09T13:45:48Z</time>
      </trkpt>
      <trkpt lat="46.205602409318089" lon="10.86092596873641">
        <ele>1558.4300000000001</ele>
        <time>2018-09-09T13:45:53Z</time>
      </trkpt>
      <trkpt lat="46.205590171739459" lon="10.860887076705694">
        <ele>1558.4300000000001</ele>
        <time>2018-09-09T13:45:55Z</time>
      </trkpt>
      <trkpt lat="46.205560835078359" lon="10.860673170536757">
        <ele>1557.95</ele>
        <time>2018-09-09T13:46:06Z</time>
      </trkpt>
      <trkpt lat="46.205556560307741" lon="10.860505113378167">
        <ele>1557.95</ele>
        <time>2018-09-09T13:46:16Z</time>
      </trkpt>
      <trkpt lat="46.205558320507407" lon="10.8603860065341">
        <ele>1557.95</ele>
        <time>2018-09-09T13:46:23Z</time>
      </trkpt>
      <trkpt lat="46.205555470660329" lon="10.86014561355114">
        <ele>1558.4300000000001</ele>
        <time>2018-09-09T13:46:37Z</time>
      </trkpt>
      <trkpt lat="46.205559577792883" lon="10.860074199736118">
        <ele>1557.95</ele>
        <time>2018-09-09T13:46:41Z</time>
      </trkpt>
      <trkpt lat="46.205581203103065" lon="10.859981998801231">
        <ele>1557.47</ele>
        <time>2018-09-09T13:46:46Z</time>
      </trkpt>
      <trkpt lat="46.205608863383532" lon="10.859874039888382">
        <ele>1556.99</ele>
        <time>2018-09-09T13:46:53Z</time>
      </trkpt>
      <trkpt lat="46.205640882253647" lon="10.859707742929459">
        <ele>1557.95</ele>
        <time>2018-09-09T13:47:03Z</time>
      </trkpt>
      <trkpt lat="46.205652197822928" lon="10.859665581956506">
        <ele>1556.99</ele>
        <time>2018-09-09T13:47:06Z</time>
      </trkpt>
      <trkpt lat="46.205696286633611" lon="10.859479503706098">
        <ele>1556.99</ele>
        <time>2018-09-09T13:47:17Z</time>
      </trkpt>
      <trkpt lat="46.205712547525764" lon="10.859433319419622">
        <ele>1556.51</ele>
        <time>2018-09-09T13:47:20Z</time>
      </trkpt>
      <trkpt lat="46.205719420686364" lon="10.859267525374889">
        <ele>1556.51</ele>
        <time>2018-09-09T13:47:32Z</time>
      </trkpt>
      <trkpt lat="46.205711541697383" lon="10.8592479955405">
        <ele>1556.51</ele>
        <time>2018-09-09T13:47:34Z</time>
      </trkpt>
      <trkpt lat="46.205704919993877" lon="10.859209857881069">
        <ele>1556.51</ele>
        <time>2018-09-09T13:47:37Z</time>
      </trkpt>
      <trkpt lat="46.205658819526434" lon="10.858977846801281">
        <ele>1556.03</ele>
        <time>2018-09-09T13:47:50Z</time>
      </trkpt>
      <trkpt lat="46.205661753192544" lon="10.858785817399621">
        <ele>1553.6300000000001</ele>
        <time>2018-09-09T13:48:01Z</time>
      </trkpt>
      <trkpt lat="46.205654041841626" lon="10.858617927879095">
        <ele>1551.71</ele>
        <time>2018-09-09T13:48:13Z</time>
      </trkpt>
      <trkpt lat="46.205634847283363" lon="10.858494881540537">
        <ele>1550.26</ele>
        <time>2018-09-09T13:48:22Z</time>
      </trkpt>
      <trkpt lat="46.205618586391211" lon="10.858299331739545">
        <ele>1548.8199999999999</ele>
        <time>2018-09-09T13:48:34Z</time>
      </trkpt>
      <trkpt lat="46.205584472045302" lon="10.858166394755244">
        <ele>1547.3800000000001</ele>
        <time>2018-09-09T13:48:43Z</time>
      </trkpt>
      <trkpt lat="46.20559411123395" lon="10.858095232397318">
        <ele>1546.9000000000001</ele>
        <time>2018-09-09T13:48:47Z</time>
      </trkpt>
      <trkpt lat="46.205601906403899" lon="10.857997583225369">
        <ele>1547.3800000000001</ele>
        <time>2018-09-09T13:48:53Z</time>
      </trkpt>
      <trkpt lat="46.205619843676686" lon="10.857955506071448">
        <ele>1547.8599999999999</ele>
        <time>2018-09-09T13:48:56Z</time>
      </trkpt>
      <trkpt lat="46.205681031569839" lon="10.857869843021035">
        <ele>1549.78</ele>
        <time>2018-09-09T13:49:04Z</time>
      </trkpt>
      <trkpt lat="46.205701818689704" lon="10.857830867171288">
        <ele>1548.8199999999999</ele>
        <time>2018-09-09T13:49:07Z</time>
      </trkpt>
      <trkpt lat="46.205759402364492" lon="10.857739169150591">
        <ele>1550.26</ele>
        <time>2018-09-09T13:49:17Z</time>
      </trkpt>
      <trkpt lat="46.205753451213241" lon="10.857704887166619">
        <ele>1550.74</ele>
        <time>2018-09-09T13:49:19Z</time>
      </trkpt>
      <trkpt lat="46.205750936642289" lon="10.85763992741704">
        <ele>1551.22</ele>
        <time>2018-09-09T13:49:23Z</time>
      </trkpt>
      <trkpt lat="46.205744314938784" lon="10.857598939910531">
        <ele>1551.71</ele>
        <time>2018-09-09T13:49:26Z</time>
      </trkpt>
      <trkpt lat="46.205712966620922" lon="10.857462314888835">
        <ele>1552.6700000000001</ele>
        <time>2018-09-09T13:49:36Z</time>
      </trkpt>
      <trkpt lat="46.205709110945463" lon="10.857449490576982">
        <ele>1552.6700000000001</ele>
        <time>2018-09-09T13:49:37Z</time>
      </trkpt>
      <trkpt lat="46.205697879195213" lon="10.857304651290178">
        <ele>1554.1099999999999</ele>
        <time>2018-09-09T13:49:48Z</time>
      </trkpt>
      <trkpt lat="46.205682540312409" lon="10.857148077338934">
        <ele>1555.55</ele>
        <time>2018-09-09T13:49:58Z</time>
      </trkpt>
      <trkpt lat="46.205674326047301" lon="10.857007512822747">
        <ele>1556.99</ele>
        <time>2018-09-09T13:50:07Z</time>
      </trkpt>
      <trkpt lat="46.205675080418587" lon="10.856998208910227">
        <ele>1557.47</ele>
        <time>2018-09-09T13:50:08Z</time>
      </trkpt>
      <trkpt lat="46.205704417079687" lon="10.856879185885191">
        <ele>1557.95</ele>
        <time>2018-09-09T13:50:17Z</time>
      </trkpt>
      <trkpt lat="46.205745739862323" lon="10.856753122061491">
        <ele>1558.9200000000001</ele>
        <time>2018-09-09T13:50:27Z</time>
      </trkpt>
      <trkpt lat="46.205746242776513" lon="10.856736022979021">
        <ele>1558.9200000000001</ele>
        <time>2018-09-09T13:50:28Z</time>
      </trkpt>
      <trkpt lat="46.205741800367832" lon="10.856658993288875">
        <ele>1558.4300000000001</ele>
        <time>2018-09-09T13:50:33Z</time>
      </trkpt>
      <trkpt lat="46.205795528367162" lon="10.856448523700237">
        <ele>1557.95</ele>
        <time>2018-09-09T13:50:46Z</time>
      </trkpt>
      <trkpt lat="46.205815561115742" lon="10.856354981660843">
        <ele>1557.95</ele>
        <time>2018-09-09T13:50:51Z</time>
      </trkpt>
      <trkpt lat="46.205875491723418" lon="10.85614669136703">
        <ele>1558.9200000000001</ele>
        <time>2018-09-09T13:51:03Z</time>
      </trkpt>
      <trkpt lat="46.205925699323416" lon="10.85601962171495">
        <ele>1558.9200000000001</ele>
        <time>2018-09-09T13:51:11Z</time>
      </trkpt>
      <trkpt lat="46.205975990742445" lon="10.85582859814167">
        <ele>1558.9200000000001</ele>
        <time>2018-09-09T13:51:22Z</time>
      </trkpt>
      <trkpt lat="46.205986887216568" lon="10.855760285630822">
        <ele>1558.9200000000001</ele>
        <time>2018-09-09T13:51:26Z</time>
      </trkpt>
      <trkpt lat="46.206003902480006" lon="10.85557596758008">
        <ele>1559.4000000000001</ele>
        <time>2018-09-09T13:51:37Z</time>
      </trkpt>
      <trkpt lat="46.206007758155465" lon="10.855555599555373">
        <ele>1559.4000000000001</ele>
        <time>2018-09-09T13:51:38Z</time>
      </trkpt>
      <trkpt lat="46.20600800961256" lon="10.855514947324991">
        <ele>1559.4000000000001</ele>
        <time>2018-09-09T13:51:40Z</time>
      </trkpt>
      <trkpt lat="46.206008344888687" lon="10.855467421934009">
        <ele>1559.4000000000001</ele>
        <time>2018-09-09T13:51:43Z</time>
      </trkpt>
      <trkpt lat="46.206022342666984" lon="10.855393074452877">
        <ele>1559.4000000000001</ele>
        <time>2018-09-09T13:51:48Z</time>
      </trkpt>
      <trkpt lat="46.206064419820905" lon="10.855218060314655">
        <ele>1559.4000000000001</ele>
        <time>2018-09-09T13:51:59Z</time>
      </trkpt>
      <trkpt lat="46.206118147820234" lon="10.854930644854903">
        <ele>1558.4300000000001</ele>
        <time>2018-09-09T13:52:14Z</time>
      </trkpt>
      <trkpt lat="46.206128792837262" lon="10.854775160551071">
        <ele>1557.95</ele>
        <time>2018-09-09T13:52:23Z</time>
      </trkpt>
      <trkpt lat="46.206123931333423" lon="10.854704501107335">
        <ele>1557.95</ele>
        <time>2018-09-09T13:52:27Z</time>
      </trkpt>
      <trkpt lat="46.206147400662303" lon="10.854663178324699">
        <ele>1558.4300000000001</ele>
        <time>2018-09-09T13:52:30Z</time>
      </trkpt>
      <trkpt lat="46.206188974902034" lon="10.854544909670949">
        <ele>1558.9200000000001</ele>
        <time>2018-09-09T13:52:40Z</time>
      </trkpt>
      <trkpt lat="46.206212360411882" lon="10.854362100362778">
        <ele>1558.4300000000001</ele>
        <time>2018-09-09T13:52:52Z</time>
      </trkpt>
      <trkpt lat="46.206211941316724" lon="10.854204185307026">
        <ele>1557.47</ele>
        <time>2018-09-09T13:53:01Z</time>
      </trkpt>
      <trkpt lat="46.206220826134086" lon="10.854043085128069">
        <ele>1556.03</ele>
        <time>2018-09-09T13:53:11Z</time>
      </trkpt>
      <trkpt lat="46.206218814477324" lon="10.854024477303028">
        <ele>1556.03</ele>
        <time>2018-09-09T13:53:12Z</time>
      </trkpt>
      <trkpt lat="46.206222670152783" lon="10.853983070701361">
        <ele>1555.55</ele>
        <time>2018-09-09T13:53:15Z</time>
      </trkpt>
      <trkpt lat="46.206227280199528" lon="10.853765476495028">
        <ele>1553.6300000000001</ele>
        <time>2018-09-09T13:53:28Z</time>
      </trkpt>
      <trkpt lat="46.206272207200527" lon="10.853597084060311">
        <ele>1552.6700000000001</ele>
        <time>2018-09-09T13:53:39Z</time>
      </trkpt>
      <trkpt lat="46.20633490383625" lon="10.853332383558154">
        <ele>1550.74</ele>
        <time>2018-09-09T13:53:53Z</time>
      </trkpt>
      <trkpt lat="46.206399193033576" lon="10.853165248408914">
        <ele>1549.3</ele>
        <time>2018-09-09T13:54:04Z</time>
      </trkpt>
      <trkpt lat="46.206437833607197" lon="10.85302191786468">
        <ele>1547.3800000000001</ele>
        <time>2018-09-09T13:54:13Z</time>
      </trkpt>
      <trkpt lat="46.206442695111036" lon="10.852980343624949">
        <ele>1546.4200000000001</ele>
        <time>2018-09-09T13:54:16Z</time>
      </trkpt>
      <trkpt lat="46.206509163603187" lon="10.852810526266694">
        <ele>1544.01</ele>
        <time>2018-09-09T13:54:29Z</time>
      </trkpt>
      <trkpt lat="46.206570435315371" lon="10.852630818262696">
        <ele>1541.6099999999999</ele>
        <time>2018-09-09T13:54:43Z</time>
      </trkpt>
      <trkpt lat="46.20657286606729" lon="10.852592093870044">
        <ele>1540.6500000000001</ele>
        <time>2018-09-09T13:54:46Z</time>
      </trkpt>
      <trkpt lat="46.206636400893331" lon="10.852427808567882">
        <ele>1538.73</ele>
        <time>2018-09-09T13:54:58Z</time>
      </trkpt>
      <trkpt lat="46.206700522452593" lon="10.852319430559874">
        <ele>1536.8</ele>
        <time>2018-09-09T13:55:07Z</time>
      </trkpt>
      <trkpt lat="46.206732457503676" lon="10.852161264047027">
        <ele>1534.4000000000001</ele>
        <time>2018-09-09T13:55:19Z</time>
      </trkpt>
      <trkpt lat="46.206738073378801" lon="10.852097645401955">
        <ele>1533.4400000000001</ele>
        <time>2018-09-09T13:55:24Z</time>
      </trkpt>
      <trkpt lat="46.206766990944743" lon="10.851944340392947">
        <ele>1532</ele>
        <time>2018-09-09T13:55:34Z</time>
      </trkpt>
      <trkpt lat="46.206757938489318" lon="10.851914836093783">
        <ele>1531.52</ele>
        <time>2018-09-09T13:55:37Z</time>
      </trkpt>
      <trkpt lat="46.206721561029553" lon="10.851873345673084">
        <ele>1530.5599999999999</ele>
        <time>2018-09-09T13:55:42Z</time>
      </trkpt>
      <trkpt lat="46.206692811101675" lon="10.851850546896458">
        <ele>1530.5599999999999</ele>
        <time>2018-09-09T13:55:45Z</time>
      </trkpt>
      <trkpt lat="46.206700019538403" lon="10.851783072575927">
        <ele>1530.0799999999999</ele>
        <time>2018-09-09T13:55:52Z</time>
      </trkpt>
      <trkpt lat="46.206695912405849" lon="10.851722890511155">
        <ele>1529.5899999999999</ele>
        <time>2018-09-09T13:55:56Z</time>
      </trkpt>
      <trkpt lat="46.206724494695663" lon="10.851684669032693">
        <ele>1529.1099999999999</ele>
        <time>2018-09-09T13:56:05Z</time>
      </trkpt>
      <trkpt lat="46.206724578514695" lon="10.851683244109154">
        <ele>1529.1099999999999</ele>
        <time>2018-09-09T13:56:11Z</time>
      </trkpt>
      <trkpt lat="46.206737067550421" lon="10.851661702618003">
        <ele>1529.1099999999999</ele>
        <time>2018-09-09T13:56:13Z</time>
      </trkpt>
      <trkpt lat="46.206810912117362" lon="10.851540835574269">
        <ele>1529.1099999999999</ele>
        <time>2018-09-09T13:56:25Z</time>
      </trkpt>
      <trkpt lat="46.206825831905007" lon="10.851487359032035">
        <ele>1528.6300000000001</ele>
        <time>2018-09-09T13:56:36Z</time>
      </trkpt>
      <trkpt lat="46.206767745316029" lon="10.851576710119843">
        <ele>1528.6300000000001</ele>
        <time>2018-09-09T13:56:53Z</time>
      </trkpt>
      <trkpt lat="46.206515450030565" lon="10.851064911112189">
        <ele>1528.6300000000001</ele>
        <time>2018-09-09T13:58:16Z</time>
      </trkpt>
      <trkpt lat="46.20673312805593" lon="10.851226933300495">
        <ele>1529.1099999999999</ele>
        <time>2018-09-09T13:58:32Z</time>
      </trkpt>
      <trkpt lat="46.206690464168787" lon="10.851253671571612">
        <ele>1529.1099999999999</ele>
        <time>2018-09-09T13:58:50Z</time>
      </trkpt>
      <trkpt lat="46.206814264878631" lon="10.851531615480781">
        <ele>1529.1099999999999</ele>
        <time>2018-09-09T13:59:02Z</time>
      </trkpt>
      <trkpt lat="46.206804541870952" lon="10.851511666551232">
        <ele>1529.1099999999999</ele>
        <time>2018-09-09T13:59:16Z</time>
      </trkpt>
      <trkpt lat="46.206615949049592" lon="10.851283594965935">
        <ele>1528.6300000000001</ele>
        <time>2018-09-09T13:59:40Z</time>
      </trkpt>
      <trkpt lat="46.206632293760777" lon="10.851333634927869">
        <ele>1528.6300000000001</ele>
        <time>2018-09-09T13:59:55Z</time>
      </trkpt>
      <trkpt lat="46.206536404788494" lon="10.851299101486802">
        <ele>1527.6700000000001</ele>
        <time>2018-09-09T14:00:18Z</time>
      </trkpt>
    </trkseg>
  </trk>

  <trk>
    <name>Vallesinella tucket2018-09-08</name>
    <extensions>
      <gpxx:TrackExtension>
        <gpxx:DisplayColor>Yellow</gpxx:DisplayColor>
      </gpxx:TrackExtension>
      <gpxtrkx:TrackStatsExtension xmlns:gpxtrkx="http://www.garmin.com/xmlschemas/TrackStatsExtension/v1">
        <gpxtrkx:Distance>8244</gpxtrkx:Distance>
        <gpxtrkx:TotalElapsedTime>15023</gpxtrkx:TotalElapsedTime>
        <gpxtrkx:MovingTime>9954</gpxtrkx:MovingTime>
        <gpxtrkx:StoppedTime>4318</gpxtrkx:StoppedTime>
        <gpxtrkx:MovingSpeed>1</gpxtrkx:MovingSpeed>
        <gpxtrkx:MaxSpeed>3</gpxtrkx:MaxSpeed>
        <gpxtrkx:MaxElevation>2273</gpxtrkx:MaxElevation>
        <gpxtrkx:MinElevation>1519</gpxtrkx:MinElevation>
        <gpxtrkx:Ascent>946</gpxtrkx:Ascent>
        <gpxtrkx:Descent>173</gpxtrkx:Descent>
        <gpxtrkx:AvgAscentRate>0</gpxtrkx:AvgAscentRate>
        <gpxtrkx:MaxAscentRate>0</gpxtrkx:MaxAscentRate>
        <gpxtrkx:AvgDescentRate>0</gpxtrkx:AvgDescentRate>
        <gpxtrkx:MaxDescentRate>-0</gpxtrkx:MaxDescentRate>
      </gpxtrkx:TrackStatsExtension>
    </extensions>
    <trkseg>
      <trkpt lat="46.206478318199515" lon="10.851810062304139">
        <ele>1526.71</ele>
        <time>2018-09-08T08:46:28Z</time>
      </trkpt>
      <trkpt lat="46.206476977095008" lon="10.851806625723839">
        <ele>1526.71</ele>
        <time>2018-09-08T08:46:29Z</time>
      </trkpt>
      <trkpt lat="46.206476055085659" lon="10.851807799190283">
        <ele>1522.8699999999999</ele>
        <time>2018-09-08T08:46:32Z</time>
      </trkpt>
      <trkpt lat="46.206479826942086" lon="10.851804027333856">
        <ele>1522.8699999999999</ele>
        <time>2018-09-08T08:46:33Z</time>
      </trkpt>
      <trkpt lat="46.206492818892002" lon="10.851815845817327">
        <ele>1522.3900000000001</ele>
        <time>2018-09-08T08:46:47Z</time>
      </trkpt>
      <trkpt lat="46.206495417281985" lon="10.851846020668745">
        <ele>1522.8699999999999</ele>
        <time>2018-09-08T08:47:02Z</time>
      </trkpt>
      <trkpt lat="46.206487286835909" lon="10.851811822503805">
        <ele>1522.8699999999999</ele>
        <time>2018-09-08T08:47:11Z</time>
      </trkpt>
      <trkpt lat="46.20649223215878" lon="10.851832777261734">
        <ele>1523.3499999999999</ele>
        <time>2018-09-08T08:47:23Z</time>
      </trkpt>
      <trkpt lat="46.206496926024556" lon="10.851849708706141">
        <ele>1523.3499999999999</ele>
        <time>2018-09-08T08:47:39Z</time>
      </trkpt>
      <trkpt lat="46.206492651253939" lon="10.851832190528512">
        <ele>1523.3499999999999</ele>
        <time>2018-09-08T08:47:55Z</time>
      </trkpt>
      <trkpt lat="46.206488041207194" lon="10.851843506097794">
        <ele>1523.3499999999999</ele>
        <time>2018-09-08T08:48:17Z</time>
      </trkpt>
      <trkpt lat="46.206497512757778" lon="10.851851301267743">
        <ele>1523.8299999999999</ele>
        <time>2018-09-08T08:48:35Z</time>
      </trkpt>
      <trkpt lat="46.206468511372805" lon="10.851839566603303">
        <ele>1523.8299999999999</ele>
        <time>2018-09-08T08:48:45Z</time>
      </trkpt>
      <trkpt lat="46.206457447260618" lon="10.851838979870081">
        <ele>1523.8299999999999</ele>
        <time>2018-09-08T08:48:56Z</time>
      </trkpt>
      <trkpt lat="46.206469014286995" lon="10.851854737848043">
        <ele>1524.3099999999999</ele>
        <time>2018-09-08T08:49:14Z</time>
      </trkpt>
      <trkpt lat="46.206461638212204" lon="10.851808888837695">
        <ele>1523.8299999999999</ele>
        <time>2018-09-08T08:49:31Z</time>
      </trkpt>
      <trkpt lat="46.206472534686327" lon="10.851832358166575">
        <ele>1523.8299999999999</ele>
        <time>2018-09-08T08:49:46Z</time>
      </trkpt>
      <trkpt lat="46.206464571878314" lon="10.851819952949882">
        <ele>1524.3099999999999</ele>
        <time>2018-09-08T08:50:04Z</time>
      </trkpt>
      <trkpt lat="46.206433223560452" lon="10.85182623937726">
        <ele>1524.3099999999999</ele>
        <time>2018-09-08T08:50:14Z</time>
      </trkpt>
      <trkpt lat="46.206477480009198" lon="10.851810565218329">
        <ele>1524.3099999999999</ele>
        <time>2018-09-08T08:50:24Z</time>
      </trkpt>
      <trkpt lat="46.206500194966793" lon="10.851814253255725">
        <ele>1524.3099999999999</ele>
        <time>2018-09-08T08:50:32Z</time>
      </trkpt>
      <trkpt lat="46.206455938518047" lon="10.851796651259065">
        <ele>1524.3099999999999</ele>
        <time>2018-09-08T08:50:42Z</time>
      </trkpt>
      <trkpt lat="46.206436492502689" lon="10.851791705936193">
        <ele>1524.3099999999999</ele>
        <time>2018-09-08T08:50:47Z</time>
      </trkpt>
      <trkpt lat="46.206414364278316" lon="10.851810062304139">
        <ele>1524.79</ele>
        <time>2018-09-08T08:50:57Z</time>
      </trkpt>
      <trkpt lat="46.206474797800183" lon="10.851820707321167">
        <ele>1524.79</ele>
        <time>2018-09-08T08:51:08Z</time>
      </trkpt>
      <trkpt lat="46.206463733687997" lon="10.85175390355289">
        <ele>1524.79</ele>
        <time>2018-09-08T08:51:30Z</time>
      </trkpt>
      <trkpt lat="46.206461386755109" lon="10.851809307932854">
        <ele>1524.79</ele>
        <time>2018-09-08T08:51:51Z</time>
      </trkpt>
      <trkpt lat="46.206488292664289" lon="10.851811990141869">
        <ele>1525.27</ele>
        <time>2018-09-08T08:52:09Z</time>
      </trkpt>
      <trkpt lat="46.206466164439917" lon="10.851786425337195">
        <ele>1525.27</ele>
        <time>2018-09-08T08:52:28Z</time>
      </trkpt>
      <trkpt lat="46.206421153619885" lon="10.851807463914156">
        <ele>1525.27</ele>
        <time>2018-09-08T08:52:38Z</time>
      </trkpt>
      <trkpt lat="46.206383686512709" lon="10.851880386471748">
        <ele>1525.75</ele>
        <time>2018-09-08T08:52:47Z</time>
      </trkpt>
      <trkpt lat="46.206311099231243" lon="10.851950794458389">
        <ele>1526.23</ele>
        <time>2018-09-08T08:52:56Z</time>
      </trkpt>
      <trkpt lat="46.206245720386505" lon="10.852027321234345">
        <ele>1526.71</ele>
        <time>2018-09-08T08:53:04Z</time>
      </trkpt>
      <trkpt lat="46.206187717616558" lon="10.852091694250703">
        <ele>1527.1900000000001</ele>
        <time>2018-09-08T08:53:11Z</time>
      </trkpt>
      <trkpt lat="46.206101635470986" lon="10.852168053388596">
        <ele>1528.6300000000001</ele>
        <time>2018-09-08T08:53:23Z</time>
      </trkpt>
      <trkpt lat="46.206093840301037" lon="10.852165622636676">
        <ele>1528.6300000000001</ele>
        <time>2018-09-08T08:53:25Z</time>
      </trkpt>
      <trkpt lat="46.205997196957469" lon="10.852213818579912">
        <ele>1528.6300000000001</ele>
        <time>2018-09-08T08:53:35Z</time>
      </trkpt>
      <trkpt lat="46.205935254693031" lon="10.852226056158543">
        <ele>1528.6300000000001</ele>
        <time>2018-09-08T08:53:42Z</time>
      </trkpt>
      <trkpt lat="46.205921089276671" lon="10.85222689434886">
        <ele>1527.6700000000001</ele>
        <time>2018-09-08T08:53:44Z</time>
      </trkpt>
      <trkpt lat="46.205819332972169" lon="10.852220021188259">
        <ele>1525.75</ele>
        <time>2018-09-08T08:53:54Z</time>
      </trkpt>
      <trkpt lat="46.205750769004226" lon="10.852207196876407">
        <ele>1522.8699999999999</ele>
        <time>2018-09-08T08:54:05Z</time>
      </trkpt>
      <trkpt lat="46.205728808417916" lon="10.852253381162882">
        <ele>1520.9400000000001</ele>
        <time>2018-09-08T08:54:13Z</time>
      </trkpt>
      <trkpt lat="46.205699807032943" lon="10.852417582646012">
        <ele>1519.02</ele>
        <time>2018-09-08T08:54:24Z</time>
      </trkpt>
      <trkpt lat="46.20562101714313" lon="10.852440884336829">
        <ele>1519.5</ele>
        <time>2018-09-08T08:54:32Z</time>
      </trkpt>
      <trkpt lat="46.205539712682366" lon="10.852399645373225">
        <ele>1519.5</ele>
        <time>2018-09-08T08:54:40Z</time>
      </trkpt>
      <trkpt lat="46.205464694648981" lon="10.852295961230993">
        <ele>1521.4200000000001</ele>
        <time>2018-09-08T08:54:53Z</time>
      </trkpt>
      <trkpt lat="46.205371739342809" lon="10.852303588762879">
        <ele>1522.8699999999999</ele>
        <time>2018-09-08T08:55:04Z</time>
      </trkpt>
      <trkpt lat="46.205254476517439" lon="10.852349102497101">
        <ele>1523.8299999999999</ele>
        <time>2018-09-08T08:55:17Z</time>
      </trkpt>
      <trkpt lat="46.205189935863018" lon="10.852400818839669">
        <ele>1525.27</ele>
        <time>2018-09-08T08:55:28Z</time>
      </trkpt>
      <trkpt lat="46.205104356631637" lon="10.852458234876394">
        <ele>1527.1900000000001</ele>
        <time>2018-09-08T08:55:39Z</time>
      </trkpt>
      <trkpt lat="46.205070661380887" lon="10.852486565709114">
        <ele>1528.6300000000001</ele>
        <time>2018-09-08T08:55:49Z</time>
      </trkpt>
      <trkpt lat="46.204987596720457" lon="10.852505173534155">
        <ele>1531.04</ele>
        <time>2018-09-08T08:56:03Z</time>
      </trkpt>
      <trkpt lat="46.2048973236233" lon="10.852525290101767">
        <ele>1532.96</ele>
        <time>2018-09-08T08:56:15Z</time>
      </trkpt>
      <trkpt lat="46.204812163487077" lon="10.852491930127144">
        <ele>1534.4000000000001</ele>
        <time>2018-09-08T08:56:29Z</time>
      </trkpt>
      <trkpt lat="46.204719627276063" lon="10.852502323687077">
        <ele>1535.3599999999999</ele>
        <time>2018-09-08T08:56:41Z</time>
      </trkpt>
      <trkpt lat="46.204658187925816" lon="10.852554459124804">
        <ele>1537.29</ele>
        <time>2018-09-08T08:56:52Z</time>
      </trkpt>
      <trkpt lat="46.204530699178576" lon="10.852578934282064">
        <ele>1538.25</ele>
        <time>2018-09-08T08:57:04Z</time>
      </trkpt>
      <trkpt lat="46.204465068876743" lon="10.852531576529145">
        <ele>1538.73</ele>
        <time>2018-09-08T08:57:15Z</time>
      </trkpt>
      <trkpt lat="46.204397426918149" lon="10.852518584579229">
        <ele>1541.1300000000001</ele>
        <time>2018-09-08T08:57:28Z</time>
      </trkpt>
      <trkpt lat="46.204354763031006" lon="10.852560410276055">
        <ele>1542.5699999999999</ele>
        <time>2018-09-08T08:57:39Z</time>
      </trkpt>
      <trkpt lat="46.204282343387604" lon="10.852634757757187">
        <ele>1544.01</ele>
        <time>2018-09-08T08:57:51Z</time>
      </trkpt>
      <trkpt lat="46.204246720299125" lon="10.852720001712441">
        <ele>1545.46</ele>
        <time>2018-09-08T08:58:02Z</time>
      </trkpt>
      <trkpt lat="46.204223921522498" lon="10.852822763845325">
        <ele>1547.3800000000001</ele>
        <time>2018-09-08T08:58:14Z</time>
      </trkpt>
      <trkpt lat="46.204174719750881" lon="10.85290658287704">
        <ele>1548.3399999999999</ele>
        <time>2018-09-08T08:58:25Z</time>
      </trkpt>
      <trkpt lat="46.204150579869747" lon="10.852977829053998">
        <ele>1550.26</ele>
        <time>2018-09-08T08:58:37Z</time>
      </trkpt>
      <trkpt lat="46.204105736687779" lon="10.853060306981206">
        <ele>1551.71</ele>
        <time>2018-09-08T08:58:49Z</time>
      </trkpt>
      <trkpt lat="46.204107664525509" lon="10.853141359984875">
        <ele>1553.6300000000001</ele>
        <time>2018-09-08T08:59:01Z</time>
      </trkpt>
      <trkpt lat="46.204147813841701" lon="10.853226268664002">
        <ele>1555.0699999999999</ele>
        <time>2018-09-08T08:59:13Z</time>
      </trkpt>
      <trkpt lat="46.204102383926511" lon="10.853321570903063">
        <ele>1556.51</ele>
        <time>2018-09-08T08:59:24Z</time>
      </trkpt>
      <trkpt lat="46.203994927927852" lon="10.853253761306405">
        <ele>1557.47</ele>
        <time>2018-09-08T08:59:35Z</time>
      </trkpt>
      <trkpt lat="46.203963328152895" lon="10.853219730779529">
        <ele>1558.9200000000001</ele>
        <time>2018-09-08T08:59:47Z</time>
      </trkpt>
      <trkpt lat="46.203981768339872" lon="10.853237332776189">
        <ele>1558.9200000000001</ele>
        <time>2018-09-08T08:59:59Z</time>
      </trkpt>
      <trkpt lat="46.204011356458068" lon="10.853383848443627">
        <ele>1559.8800000000001</ele>
        <time>2018-09-08T09:00:10Z</time>
      </trkpt>
      <trkpt lat="46.203986294567585" lon="10.853479653596878">
        <ele>1561.3199999999999</ele>
        <time>2018-09-08T09:00:21Z</time>
      </trkpt>
      <trkpt lat="46.203932566568255" lon="10.853597922250628">
        <ele>1563.24</ele>
        <time>2018-09-08T09:00:34Z</time>
      </trkpt>
      <trkpt lat="46.203917395323515" lon="10.853699427098036">
        <ele>1565.1600000000001</ele>
        <time>2018-09-08T09:00:47Z</time>
      </trkpt>
      <trkpt lat="46.203892752528191" lon="10.853795735165477">
        <ele>1566.1199999999999</ele>
        <time>2018-09-08T09:00:57Z</time>
      </trkpt>
      <trkpt lat="46.203890740871429" lon="10.853837979957461">
        <ele>1566.6099999999999</ele>
        <time>2018-09-08T09:01:07Z</time>
      </trkpt>
      <trkpt lat="46.203876826912165" lon="10.853871675208211">
        <ele>1568.05</ele>
        <time>2018-09-08T09:01:16Z</time>
      </trkpt>
      <trkpt lat="46.203847322613001" lon="10.853969408199191">
        <ele>1569.49</ele>
        <time>2018-09-08T09:01:26Z</time>
      </trkpt>
      <trkpt lat="46.203823518007994" lon="10.854008970782161">
        <ele>1570.9300000000001</ele>
        <time>2018-09-08T09:01:36Z</time>
      </trkpt>
      <trkpt lat="46.203778171911836" lon="10.854068817570806">
        <ele>1572.8499999999999</ele>
        <time>2018-09-08T09:01:46Z</time>
      </trkpt>
      <trkpt lat="46.203728131949902" lon="10.854121120646596">
        <ele>1574.3</ele>
        <time>2018-09-08T09:01:57Z</time>
      </trkpt>
      <trkpt lat="46.203689407557249" lon="10.854192953556776">
        <ele>1576.22</ele>
        <time>2018-09-08T09:02:09Z</time>
      </trkpt>
      <trkpt lat="46.2036850489676" lon="10.854263864457607">
        <ele>1577.1800000000001</ele>
        <time>2018-09-08T09:02:20Z</time>
      </trkpt>
      <trkpt lat="46.203686641529202" lon="10.854327147826552">
        <ele>1578.6199999999999</ele>
        <time>2018-09-08T09:02:31Z</time>
      </trkpt>
      <trkpt lat="46.203652946278453" lon="10.854421695694327">
        <ele>1580.54</ele>
        <time>2018-09-08T09:02:42Z</time>
      </trkpt>
      <trkpt lat="46.203652443364263" lon="10.854519596323371">
        <ele>1581.51</ele>
        <time>2018-09-08T09:02:53Z</time>
      </trkpt>
      <trkpt lat="46.203627800568938" lon="10.85460408590734">
        <ele>1583.4300000000001</ele>
        <time>2018-09-08T09:03:06Z</time>
      </trkpt>
      <trkpt lat="46.203599218279123" lon="10.854605427011847">
        <ele>1584.8699999999999</ele>
        <time>2018-09-08T09:03:18Z</time>
      </trkpt>
      <trkpt lat="46.203631237149239" lon="10.854688240215182">
        <ele>1586.3099999999999</ele>
        <time>2018-09-08T09:03:30Z</time>
      </trkpt>
      <trkpt lat="46.203635511919856" lon="10.854807598516345">
        <ele>1588.24</ele>
        <time>2018-09-08T09:03:43Z</time>
      </trkpt>
      <trkpt lat="46.203654622659087" lon="10.854822434484959">
        <ele>1589.6800000000001</ele>
        <time>2018-09-08T09:03:53Z</time>
      </trkpt>
      <trkpt lat="46.203686557710171" lon="10.854812879115343">
        <ele>1591.1199999999999</ele>
        <time>2018-09-08T09:04:04Z</time>
      </trkpt>
      <trkpt lat="46.203625872731209" lon="10.854891585186124">
        <ele>1594</ele>
        <time>2018-09-08T09:04:14Z</time>
      </trkpt>
      <trkpt lat="46.203591171652079" lon="10.854990407824516">
        <ele>1594.48</ele>
        <time>2018-09-08T09:04:27Z</time>
      </trkpt>
      <trkpt lat="46.203557979315519" lon="10.855068359524012">
        <ele>1595.45</ele>
        <time>2018-09-08T09:04:38Z</time>
      </trkpt>
      <trkpt lat="46.203520176932216" lon="10.855119908228517">
        <ele>1597.3699999999999</ele>
        <time>2018-09-08T09:04:50Z</time>
      </trkpt>
      <trkpt lat="46.203449936583638" lon="10.855139857158065">
        <ele>1598.3299999999999</ele>
        <time>2018-09-08T09:05:01Z</time>
      </trkpt>
      <trkpt lat="46.203368548303843" lon="10.855064922943711">
        <ele>1599.29</ele>
        <time>2018-09-08T09:05:11Z</time>
      </trkpt>
      <trkpt lat="46.203300403431058" lon="10.855124602094293">
        <ele>1600.73</ele>
        <time>2018-09-08T09:05:22Z</time>
      </trkpt>
      <trkpt lat="46.203264947980642" lon="10.855176066979766">
        <ele>1601.21</ele>
        <time>2018-09-08T09:05:32Z</time>
      </trkpt>
      <trkpt lat="46.203196803107858" lon="10.855216132476926">
        <ele>1603.1400000000001</ele>
        <time>2018-09-08T09:05:43Z</time>
      </trkpt>
      <trkpt lat="46.203216249123216" lon="10.855291821062565">
        <ele>1605.0599999999999</ele>
        <time>2018-09-08T09:05:54Z</time>
      </trkpt>
      <trkpt lat="46.203210800886154" lon="10.855333395302296">
        <ele>1606.5</ele>
        <time>2018-09-08T09:06:06Z</time>
      </trkpt>
      <trkpt lat="46.203219769522548" lon="10.855375472456217">
        <ele>1608.4200000000001</ele>
        <time>2018-09-08T09:06:18Z</time>
      </trkpt>
      <trkpt lat="46.203253716230392" lon="10.855347979813814">
        <ele>1609.8599999999999</ele>
        <time>2018-09-08T09:06:29Z</time>
      </trkpt>
      <trkpt lat="46.203274670988321" lon="10.855434397235513">
        <ele>1610.8299999999999</ele>
        <time>2018-09-08T09:06:39Z</time>
      </trkpt>
      <trkpt lat="46.203216249123216" lon="10.855522323399782">
        <ele>1612.27</ele>
        <time>2018-09-08T09:06:51Z</time>
      </trkpt>
      <trkpt lat="46.203179787844419" lon="10.855620224028826">
        <ele>1613.23</ele>
        <time>2018-09-08T09:07:03Z</time>
      </trkpt>
      <trkpt lat="46.203106194734573" lon="10.855705048888922">
        <ele>1615.1500000000001</ele>
        <time>2018-09-08T09:07:16Z</time>
      </trkpt>
      <trkpt lat="46.203093454241753" lon="10.855732876807451">
        <ele>1617.0699999999999</ele>
        <time>2018-09-08T09:07:31Z</time>
      </trkpt>
      <trkpt lat="46.203056992962956" lon="10.855822982266545">
        <ele>1618.52</ele>
        <time>2018-09-08T09:07:44Z</time>
      </trkpt>
      <trkpt lat="46.203044923022389" lon="10.855914847925305">
        <ele>1620.9200000000001</ele>
        <time>2018-09-08T09:07:57Z</time>
      </trkpt>
      <trkpt lat="46.203002845868468" lon="10.855967067182064">
        <ele>1621.8800000000001</ele>
        <time>2018-09-08T09:08:07Z</time>
      </trkpt>
      <trkpt lat="46.20303176343441" lon="10.856037894263864">
        <ele>1624.28</ele>
        <time>2018-09-08T09:08:19Z</time>
      </trkpt>
      <trkpt lat="46.203051125630736" lon="10.856147697195411">
        <ele>1626.21</ele>
        <time>2018-09-08T09:08:33Z</time>
      </trkpt>
      <trkpt lat="46.203072415664792" lon="10.856200251728296">
        <ele>1627.1700000000001</ele>
        <time>2018-09-08T09:08:43Z</time>
      </trkpt>
      <trkpt lat="46.203094879165292" lon="10.856216428801417">
        <ele>1629.0899999999999</ele>
        <time>2018-09-08T09:08:55Z</time>
      </trkpt>
      <trkpt lat="46.203013826161623" lon="10.856286082416773">
        <ele>1630.05</ele>
        <time>2018-09-08T09:09:05Z</time>
      </trkpt>
      <trkpt lat="46.202974934130907" lon="10.856351796537638">
        <ele>1631.98</ele>
        <time>2018-09-08T09:09:15Z</time>
      </trkpt>
      <trkpt lat="46.202937969937921" lon="10.856435028836131">
        <ele>1632.9400000000001</ele>
        <time>2018-09-08T09:09:27Z</time>
      </trkpt>
      <trkpt lat="46.202934868633747" lon="10.856522787362337">
        <ele>1633.9000000000001</ele>
        <time>2018-09-08T09:09:38Z</time>
      </trkpt>
      <trkpt lat="46.202926486730576" lon="10.856626555323601">
        <ele>1635.3399999999999</ele>
        <time>2018-09-08T09:09:51Z</time>
      </trkpt>
      <trkpt lat="46.202895557507873" lon="10.856718169525266">
        <ele>1636.3</ele>
        <time>2018-09-08T09:10:03Z</time>
      </trkpt>
      <trkpt lat="46.202854067087173" lon="10.856751278042793">
        <ele>1636.78</ele>
        <time>2018-09-08T09:10:08Z</time>
      </trkpt>
      <trkpt lat="46.202818443998694" lon="10.856836270540953">
        <ele>1637.74</ele>
        <time>2018-09-08T09:10:19Z</time>
      </trkpt>
      <trkpt lat="46.202811822295189" lon="10.85691824555397">
        <ele>1638.22</ele>
        <time>2018-09-08T09:10:28Z</time>
      </trkpt>
      <trkpt lat="46.202798997983336" lon="10.856981780380011">
        <ele>1639.6700000000001</ele>
        <time>2018-09-08T09:10:40Z</time>
      </trkpt>
      <trkpt lat="46.202753148972988" lon="10.857096863910556">
        <ele>1640.6300000000001</ele>
        <time>2018-09-08T09:10:50Z</time>
      </trkpt>
      <trkpt lat="46.202691290527582" lon="10.857200883328915">
        <ele>1641.5899999999999</ele>
        <time>2018-09-08T09:11:02Z</time>
      </trkpt>
      <trkpt lat="46.202659271657467" lon="10.857266429811716">
        <ele>1642.55</ele>
        <time>2018-09-08T09:11:13Z</time>
      </trkpt>
      <trkpt lat="46.202594982460141" lon="10.857325354591012">
        <ele>1643.99</ele>
        <time>2018-09-08T09:11:24Z</time>
      </trkpt>
      <trkpt lat="46.202549887821078" lon="10.857407245784998">
        <ele>1645.4300000000001</ele>
        <time>2018-09-08T09:11:34Z</time>
      </trkpt>
      <trkpt lat="46.202515354380012" lon="10.857468852773309">
        <ele>1647.3599999999999</ele>
        <time>2018-09-08T09:11:46Z</time>
      </trkpt>
      <trkpt lat="46.202454082667828" lon="10.857546804472804">
        <ele>1648.3199999999999</ele>
        <time>2018-09-08T09:11:56Z</time>
      </trkpt>
      <trkpt lat="46.202400773763657" lon="10.857596760615706">
        <ele>1649.28</ele>
        <time>2018-09-08T09:12:05Z</time>
      </trkpt>
      <trkpt lat="46.202322822064161" lon="10.85760866291821">
        <ele>1651.2</ele>
        <time>2018-09-08T09:12:19Z</time>
      </trkpt>
      <trkpt lat="46.202324163168669" lon="10.857458459213376">
        <ele>1652.6400000000001</ele>
        <time>2018-09-08T09:12:31Z</time>
      </trkpt>
      <trkpt lat="46.202368335798383" lon="10.857342621311545">
        <ele>1655.53</ele>
        <time>2018-09-08T09:12:44Z</time>
      </trkpt>
      <trkpt lat="46.20235450565815" lon="10.857260311022401">
        <ele>1656.97</ele>
        <time>2018-09-08T09:12:54Z</time>
      </trkpt>
      <trkpt lat="46.202349057421088" lon="10.857213623821735">
        <ele>1658.4100000000001</ele>
        <time>2018-09-08T09:13:05Z</time>
      </trkpt>
      <trkpt lat="46.202315697446465" lon="10.857147658243775">
        <ele>1660.3299999999999</ele>
        <time>2018-09-08T09:13:18Z</time>
      </trkpt>
      <trkpt lat="46.202268758788705" lon="10.857134833931923">
        <ele>1661.3</ele>
        <time>2018-09-08T09:13:28Z</time>
      </trkpt>
      <trkpt lat="46.20220354758203" lon="10.857110777869821">
        <ele>1663.22</ele>
        <time>2018-09-08T09:13:41Z</time>
      </trkpt>
      <trkpt lat="46.202152837067842" lon="10.857070377096534">
        <ele>1664.6600000000001</ele>
        <time>2018-09-08T09:13:52Z</time>
      </trkpt>
      <trkpt lat="46.202174965292215" lon="10.856956047937274">
        <ele>1666.0999999999999</ele>
        <time>2018-09-08T09:14:05Z</time>
      </trkpt>
      <trkpt lat="46.202167421579361" lon="10.85686887614429">
        <ele>1667.0599999999999</ele>
        <time>2018-09-08T09:14:17Z</time>
      </trkpt>
      <trkpt lat="46.20214931666851" lon="10.856859153136611">
        <ele>1668.99</ele>
        <time>2018-09-08T09:14:30Z</time>
      </trkpt>
      <trkpt lat="46.202144203707576" lon="10.856989659368992">
        <ele>1670.4300000000001</ele>
        <time>2018-09-08T09:14:42Z</time>
      </trkpt>
      <trkpt lat="46.202105563133955" lon="10.857042046263814">
        <ele>1671.8699999999999</ele>
        <time>2018-09-08T09:14:52Z</time>
      </trkpt>
      <trkpt lat="46.202112855389714" lon="10.857072724029422">
        <ele>1673.3099999999999</ele>
        <time>2018-09-08T09:15:04Z</time>
      </trkpt>
      <trkpt lat="46.202056780457497" lon="10.85712636820972">
        <ele>1675.23</ele>
        <time>2018-09-08T09:15:16Z</time>
      </trkpt>
      <trkpt lat="46.202038927003741" lon="10.857165763154626">
        <ele>1676.6800000000001</ele>
        <time>2018-09-08T09:15:28Z</time>
      </trkpt>
      <trkpt lat="46.202005818486214" lon="10.857238434255123">
        <ele>1679.0799999999999</ele>
        <time>2018-09-08T09:15:40Z</time>
      </trkpt>
      <trkpt lat="46.201984528452158" lon="10.857362318783998">
        <ele>1680.52</ele>
        <time>2018-09-08T09:15:52Z</time>
      </trkpt>
      <trkpt lat="46.201912611722946" lon="10.857420573011041">
        <ele>1681.48</ele>
        <time>2018-09-08T09:16:05Z</time>
      </trkpt>
      <trkpt lat="46.201871624216437" lon="10.857503553852439">
        <ele>1682.9300000000001</ele>
        <time>2018-09-08T09:16:18Z</time>
      </trkpt>
      <trkpt lat="46.201860057190061" lon="10.857599275186658">
        <ele>1684.3699999999999</ele>
        <time>2018-09-08T09:16:32Z</time>
      </trkpt>
      <trkpt lat="46.201850669458508" lon="10.857686614617705">
        <ele>1685.8099999999999</ele>
        <time>2018-09-08T09:16:44Z</time>
      </trkpt>
      <trkpt lat="46.201825020834804" lon="10.857725339010358">
        <ele>1687.73</ele>
        <time>2018-09-08T09:16:55Z</time>
      </trkpt>
      <trkpt lat="46.201842371374369" lon="10.857704048976302">
        <ele>1689.6500000000001</ele>
        <time>2018-09-08T09:17:06Z</time>
      </trkpt>
      <trkpt lat="46.201865840703249" lon="10.857767499983311">
        <ele>1691.0999999999999</ele>
        <time>2018-09-08T09:17:18Z</time>
      </trkpt>
      <trkpt lat="46.201859638094902" lon="10.857915859669447">
        <ele>1692.54</ele>
        <time>2018-09-08T09:17:30Z</time>
      </trkpt>
      <trkpt lat="46.201799791306257" lon="10.85797319188714">
        <ele>1694.46</ele>
        <time>2018-09-08T09:17:41Z</time>
      </trkpt>
      <trkpt lat="46.201830301433802" lon="10.858038822188973">
        <ele>1695.9000000000001</ele>
        <time>2018-09-08T09:17:53Z</time>
      </trkpt>
      <trkpt lat="46.201788224279881" lon="10.858126496896148">
        <ele>1697.8299999999999</ele>
        <time>2018-09-08T09:18:05Z</time>
      </trkpt>
      <trkpt lat="46.201767437160015" lon="10.858218865469098">
        <ele>1699.27</ele>
        <time>2018-09-08T09:18:18Z</time>
      </trkpt>
      <trkpt lat="46.20176374912262" lon="10.85829614661634">
        <ele>1700.23</ele>
        <time>2018-09-08T09:18:28Z</time>
      </trkpt>
      <trkpt lat="46.201724270358682" lon="10.85833428427577">
        <ele>1701.1900000000001</ele>
        <time>2018-09-08T09:18:38Z</time>
      </trkpt>
      <trkpt lat="46.201682947576046" lon="10.858439477160573">
        <ele>1702.6300000000001</ele>
        <time>2018-09-08T09:18:49Z</time>
      </trkpt>
      <trkpt lat="46.201660232618451" lon="10.858509717509151">
        <ele>1703.1099999999999</ele>
        <time>2018-09-08T09:18:57Z</time>
      </trkpt>
      <trkpt lat="46.201631734147668" lon="10.858635529875755">
        <ele>1704.0699999999999</ele>
        <time>2018-09-08T09:19:09Z</time>
      </trkpt>
      <trkpt lat="46.201613796874881" lon="10.858723875135183">
        <ele>1705.04</ele>
        <time>2018-09-08T09:19:21Z</time>
      </trkpt>
      <trkpt lat="46.201601643115282" lon="10.858800234273076">
        <ele>1706.48</ele>
        <time>2018-09-08T09:19:32Z</time>
      </trkpt>
      <trkpt lat="46.201612958684564" lon="10.858879610896111">
        <ele>1708.8800000000001</ele>
        <time>2018-09-08T09:19:46Z</time>
      </trkpt>
      <trkpt lat="46.201608935371041" lon="10.859007518738508">
        <ele>1711.28</ele>
        <time>2018-09-08T09:19:58Z</time>
      </trkpt>
      <trkpt lat="46.201590411365032" lon="10.859094774350524">
        <ele>1712.73</ele>
        <time>2018-09-08T09:20:08Z</time>
      </trkpt>
      <trkpt lat="46.201547663658857" lon="10.859153782948852">
        <ele>1713.6900000000001</ele>
        <time>2018-09-08T09:20:18Z</time>
      </trkpt>
      <trkpt lat="46.20152142830193" lon="10.859205918386579">
        <ele>1715.1300000000001</ele>
        <time>2018-09-08T09:20:27Z</time>
      </trkpt>
      <trkpt lat="46.201509274542332" lon="10.859281858429313">
        <ele>1716.5699999999999</ele>
        <time>2018-09-08T09:20:39Z</time>
      </trkpt>
      <trkpt lat="46.201525367796421" lon="10.859370119869709">
        <ele>1718.49</ele>
        <time>2018-09-08T09:20:51Z</time>
      </trkpt>
      <trkpt lat="46.201491001993418" lon="10.859457710757852">
        <ele>1720.4200000000001</ele>
        <time>2018-09-08T09:21:03Z</time>
      </trkpt>
      <trkpt lat="46.201478010043502" lon="10.859555779024959">
        <ele>1721.8599999999999</ele>
        <time>2018-09-08T09:21:17Z</time>
      </trkpt>
      <trkpt lat="46.201460072770715" lon="10.85966675542295">
        <ele>1722.8199999999999</ele>
        <time>2018-09-08T09:21:28Z</time>
      </trkpt>
      <trkpt lat="46.201423360034823" lon="10.85975032299757">
        <ele>1724.74</ele>
        <time>2018-09-08T09:21:39Z</time>
      </trkpt>
      <trkpt lat="46.20141975581646" lon="10.859808577224612">
        <ele>1725.7</ele>
        <time>2018-09-08T09:21:47Z</time>
      </trkpt>
      <trkpt lat="46.201422018930316" lon="10.859898598864675">
        <ele>1727.1500000000001</ele>
        <time>2018-09-08T09:21:58Z</time>
      </trkpt>
      <trkpt lat="46.201431071385741" lon="10.859983004629612">
        <ele>1728.5899999999999</ele>
        <time>2018-09-08T09:22:08Z</time>
      </trkpt>
      <trkpt lat="46.201458480209112" lon="10.860065901651978">
        <ele>1730.51</ele>
        <time>2018-09-08T09:22:20Z</time>
      </trkpt>
      <trkpt lat="46.201465437188745" lon="10.860146284103394">
        <ele>1731.95</ele>
        <time>2018-09-08T09:22:30Z</time>
      </trkpt>
      <trkpt lat="46.201404249295592" lon="10.860223565250635">
        <ele>1732.4300000000001</ele>
        <time>2018-09-08T09:22:39Z</time>
      </trkpt>
      <trkpt lat="46.201372817158699" lon="10.860316436737776">
        <ele>1734.8399999999999</ele>
        <time>2018-09-08T09:22:52Z</time>
      </trkpt>
      <trkpt lat="46.201345240697265" lon="10.860401596873999">
        <ele>1735.8</ele>
        <time>2018-09-08T09:23:04Z</time>
      </trkpt>
      <trkpt lat="46.201341385021806" lon="10.860507460311055">
        <ele>1737.24</ele>
        <time>2018-09-08T09:23:16Z</time>
      </trkpt>
      <trkpt lat="46.201343145221472" lon="10.860616425052285">
        <ele>1738.6800000000001</ele>
        <time>2018-09-08T09:23:27Z</time>
      </trkpt>
      <trkpt lat="46.201350605115294" lon="10.860708961263299">
        <ele>1740.1199999999999</ele>
        <time>2018-09-08T09:23:39Z</time>
      </trkpt>
      <trkpt lat="46.20138362981379" lon="10.860786996781826">
        <ele>1741.5699999999999</ele>
        <time>2018-09-08T09:23:48Z</time>
      </trkpt>
      <trkpt lat="46.201419923454523" lon="10.860847178846598">
        <ele>1742.53</ele>
        <time>2018-09-08T09:23:59Z</time>
      </trkpt>
      <trkpt lat="46.201332416385412" lon="10.860926052555442">
        <ele>1744.9300000000001</ele>
        <time>2018-09-08T09:24:11Z</time>
      </trkpt>
      <trkpt lat="46.201212890446186" lon="10.860902247950435">
        <ele>1745.8900000000001</ele>
        <time>2018-09-08T09:24:22Z</time>
      </trkpt>
      <trkpt lat="46.201182380318642" lon="10.860804934054613">
        <ele>1747.8099999999999</ele>
        <time>2018-09-08T09:24:33Z</time>
      </trkpt>
      <trkpt lat="46.201100321486592" lon="10.860716085880995">
        <ele>1749.26</ele>
        <time>2018-09-08T09:24:45Z</time>
      </trkpt>
      <trkpt lat="46.201048269867897" lon="10.860650623217225">
        <ele>1751.1800000000001</ele>
        <time>2018-09-08T09:24:57Z</time>
      </trkpt>
      <trkpt lat="46.201007282361388" lon="10.860620029270649">
        <ele>1753.0999999999999</ele>
        <time>2018-09-08T09:25:10Z</time>
      </trkpt>
      <trkpt lat="46.200967384502292" lon="10.860528834164143">
        <ele>1754.54</ele>
        <time>2018-09-08T09:25:21Z</time>
      </trkpt>
      <trkpt lat="46.20094383135438" lon="10.860453229397535">
        <ele>1756.47</ele>
        <time>2018-09-08T09:25:33Z</time>
      </trkpt>
      <trkpt lat="46.20090720243752" lon="10.860369494184852">
        <ele>1757.9100000000001</ele>
        <time>2018-09-08T09:25:45Z</time>
      </trkpt>
      <trkpt lat="46.200879206880927" lon="10.860267905518413">
        <ele>1759.3499999999999</ele>
        <time>2018-09-08T09:25:57Z</time>
      </trkpt>
      <trkpt lat="46.200869986787438" lon="10.860205795615911">
        <ele>1760.3099999999999</ele>
        <time>2018-09-08T09:26:06Z</time>
      </trkpt>
      <trkpt lat="46.200844086706638" lon="10.860169166699052">
        <ele>1761.75</ele>
        <time>2018-09-08T09:26:15Z</time>
      </trkpt>
      <trkpt lat="46.200812151655555" lon="10.860102782025933">
        <ele>1763.2</ele>
        <time>2018-09-08T09:26:26Z</time>
      </trkpt>
      <trkpt lat="46.200798992067575" lon="10.860047629103065">
        <ele>1764.1600000000001</ele>
        <time>2018-09-08T09:26:36Z</time>
      </trkpt>
      <trkpt lat="46.200761776417494" lon="10.860064895823598">
        <ele>1765.5999999999999</ele>
        <time>2018-09-08T09:26:44Z</time>
      </trkpt>
      <trkpt lat="46.20076990686357" lon="10.860124658793211">
        <ele>1767.04</ele>
        <time>2018-09-08T09:26:53Z</time>
      </trkpt>
      <trkpt lat="46.200768314301968" lon="10.860209986567497">
        <ele>1768.48</ele>
        <time>2018-09-08T09:27:05Z</time>
      </trkpt>
      <trkpt lat="46.200743168592453" lon="10.860287938266993">
        <ele>1769.4400000000001</ele>
        <time>2018-09-08T09:27:15Z</time>
      </trkpt>
      <trkpt lat="46.200744593515992" lon="10.860381312668324">
        <ele>1771.3699999999999</ele>
        <time>2018-09-08T09:27:27Z</time>
      </trkpt>
      <trkpt lat="46.200734116137028" lon="10.860465718433261">
        <ele>1772.3299999999999</ele>
        <time>2018-09-08T09:27:37Z</time>
      </trkpt>
      <trkpt lat="46.200716933235526" lon="10.86055020801723">
        <ele>1773.77</ele>
        <time>2018-09-08T09:27:47Z</time>
      </trkpt>
      <trkpt lat="46.200678711757064" lon="10.860576443374157">
        <ele>1774.73</ele>
        <time>2018-09-08T09:27:56Z</time>
      </trkpt>
      <trkpt lat="46.200643591582775" lon="10.860487511381507">
        <ele>1775.6900000000001</ele>
        <time>2018-09-08T09:28:06Z</time>
      </trkpt>
      <trkpt lat="46.200587181374431" lon="10.860391119495034">
        <ele>1778.0999999999999</ele>
        <time>2018-09-08T09:28:19Z</time>
      </trkpt>
      <trkpt lat="46.200555330142379" lon="10.860313419252634">
        <ele>1779.0599999999999</ele>
        <time>2018-09-08T09:28:29Z</time>
      </trkpt>
      <trkpt lat="46.200527586042881" lon="10.860180146992207">
        <ele>1780.98</ele>
        <time>2018-09-08T09:28:44Z</time>
      </trkpt>
      <trkpt lat="46.200480060651898" lon="10.860099429264665">
        <ele>1782.9000000000001</ele>
        <time>2018-09-08T09:28:57Z</time>
      </trkpt>
      <trkpt lat="46.200471678748727" lon="10.860004294663668">
        <ele>1783.8599999999999</ele>
        <time>2018-09-08T09:29:07Z</time>
      </trkpt>
      <trkpt lat="46.200460866093636" lon="10.859920391812921">
        <ele>1785.3099999999999</ele>
        <time>2018-09-08T09:29:17Z</time>
      </trkpt>
      <trkpt lat="46.200450891628861" lon="10.859811091795564">
        <ele>1786.75</ele>
        <time>2018-09-08T09:29:28Z</time>
      </trkpt>
      <trkpt lat="46.200433876365423" lon="10.859674969688058">
        <ele>1788.1900000000001</ele>
        <time>2018-09-08T09:29:41Z</time>
      </trkpt>
      <trkpt lat="46.200390793383121" lon="10.859603388234973">
        <ele>1789.6300000000001</ele>
        <time>2018-09-08T09:29:53Z</time>
      </trkpt>
      <trkpt lat="46.200395822525024" lon="10.859485706314445">
        <ele>1791.0699999999999</ele>
        <time>2018-09-08T09:30:04Z</time>
      </trkpt>
      <trkpt lat="46.20041660964489" lon="10.859373891726136">
        <ele>1793</ele>
        <time>2018-09-08T09:30:18Z</time>
      </trkpt>
      <trkpt lat="46.200422225520015" lon="10.85935696028173">
        <ele>1793.48</ele>
        <time>2018-09-08T09:30:20Z</time>
      </trkpt>
      <trkpt lat="46.200387692078948" lon="10.859247911721468">
        <ele>1793.96</ele>
        <time>2018-09-08T09:30:31Z</time>
      </trkpt>
      <trkpt lat="46.200386686250567" lon="10.859113549813628">
        <ele>1795.4000000000001</ele>
        <time>2018-09-08T09:30:43Z</time>
      </trkpt>
      <trkpt lat="46.200395571067929" lon="10.859046829864383">
        <ele>1795.8800000000001</ele>
        <time>2018-09-08T09:30:51Z</time>
      </trkpt>
      <trkpt lat="46.200375286862254" lon="10.85898220539093">
        <ele>1797.8</ele>
        <time>2018-09-08T09:31:03Z</time>
      </trkpt>
      <trkpt lat="46.200363300740719" lon="10.858875336125493">
        <ele>1799.73</ele>
        <time>2018-09-08T09:31:16Z</time>
      </trkpt>
      <trkpt lat="46.200386853888631" lon="10.858759330585599">
        <ele>1800.6900000000001</ele>
        <time>2018-09-08T09:31:29Z</time>
      </trkpt>
      <trkpt lat="46.200406299903989" lon="10.858629830181599">
        <ele>1801.1700000000001</ele>
        <time>2018-09-08T09:31:40Z</time>
      </trkpt>
      <trkpt lat="46.200437061488628" lon="10.858489684760571">
        <ele>1801.6500000000001</ele>
        <time>2018-09-08T09:31:49Z</time>
      </trkpt>
      <trkpt lat="46.200435552746058" lon="10.858404776081443">
        <ele>1802.6099999999999</ele>
        <time>2018-09-08T09:32:00Z</time>
      </trkpt>
      <trkpt lat="46.200426500290632" lon="10.85830251686275">
        <ele>1804.05</ele>
        <time>2018-09-08T09:32:11Z</time>
      </trkpt>
      <trkpt lat="46.200403533875942" lon="10.858211824670434">
        <ele>1805.97</ele>
        <time>2018-09-08T09:32:24Z</time>
      </trkpt>
      <trkpt lat="46.200391883030534" lon="10.858092131093144">
        <ele>1807.4200000000001</ele>
        <time>2018-09-08T09:32:36Z</time>
      </trkpt>
      <trkpt lat="46.200359277427197" lon="10.85801518522203">
        <ele>1808.8599999999999</ele>
        <time>2018-09-08T09:32:47Z</time>
      </trkpt>
      <trkpt lat="46.200369419530034" lon="10.857919380068779">
        <ele>1810.78</ele>
        <time>2018-09-08T09:32:59Z</time>
      </trkpt>
      <trkpt lat="46.200328012928367" lon="10.857936395332217">
        <ele>1812.22</ele>
        <time>2018-09-08T09:33:11Z</time>
      </trkpt>
      <trkpt lat="46.200298005715013" lon="10.857884762808681">
        <ele>1814.1500000000001</ele>
        <time>2018-09-08T09:33:22Z</time>
      </trkpt>
      <trkpt lat="46.200294317677617" lon="10.857853582128882">
        <ele>1815.5899999999999</ele>
        <time>2018-09-08T09:33:34Z</time>
      </trkpt>
      <trkpt lat="46.200248133391142" lon="10.857919631525874">
        <ele>1817.51</ele>
        <time>2018-09-08T09:33:46Z</time>
      </trkpt>
      <trkpt lat="46.200236566364765" lon="10.857976628467441">
        <ele>1818.95</ele>
        <time>2018-09-08T09:33:57Z</time>
      </trkpt>
      <trkpt lat="46.20018451474607" lon="10.85804502479732">
        <ele>1820.3900000000001</ele>
        <time>2018-09-08T09:34:08Z</time>
      </trkpt>
      <trkpt lat="46.200115783140063" lon="10.858041839674115">
        <ele>1821.8399999999999</ele>
        <time>2018-09-08T09:34:19Z</time>
      </trkpt>
      <trkpt lat="46.200072783976793" lon="10.858126664534211">
        <ele>1822.8</ele>
        <time>2018-09-08T09:34:30Z</time>
      </trkpt>
      <trkpt lat="46.20002475567162" lon="10.858117863535881">
        <ele>1825.2</ele>
        <time>2018-09-08T09:34:41Z</time>
      </trkpt>
      <trkpt lat="46.199989635497332" lon="10.858064303174615">
        <ele>1826.1600000000001</ele>
        <time>2018-09-08T09:34:50Z</time>
      </trkpt>
      <trkpt lat="46.199971446767449" lon="10.858048293739557">
        <ele>1826.6400000000001</ele>
        <time>2018-09-08T09:34:58Z</time>
      </trkpt>
      <trkpt lat="46.199922328814864" lon="10.858088443055749">
        <ele>1829.05</ele>
        <time>2018-09-08T09:35:09Z</time>
      </trkpt>
      <trkpt lat="46.199897350743413" lon="10.858124820515513">
        <ele>1830.97</ele>
        <time>2018-09-08T09:35:21Z</time>
      </trkpt>
      <trkpt lat="46.199898943305016" lon="10.85811585187912">
        <ele>1830.97</ele>
        <time>2018-09-08T09:35:33Z</time>
      </trkpt>
      <trkpt lat="46.199895506724715" lon="10.858089365065098">
        <ele>1830.97</ele>
        <time>2018-09-08T09:35:51Z</time>
      </trkpt>
      <trkpt lat="46.199909169226885" lon="10.858026165515184">
        <ele>1831.45</ele>
        <time>2018-09-08T09:36:06Z</time>
      </trkpt>
      <trkpt lat="46.199902044609189" lon="10.858007641509175">
        <ele>1830.97</ele>
        <time>2018-09-08T09:36:18Z</time>
      </trkpt>
      <trkpt lat="46.199933476746082" lon="10.858019879087806">
        <ele>1830.97</ele>
        <time>2018-09-08T09:36:29Z</time>
      </trkpt>
      <trkpt lat="46.199926603585482" lon="10.857999259606004">
        <ele>1831.45</ele>
        <time>2018-09-08T09:37:02Z</time>
      </trkpt>
      <trkpt lat="46.199926100671291" lon="10.858003618195653">
        <ele>1830.97</ele>
        <time>2018-09-08T09:37:23Z</time>
      </trkpt>
      <trkpt lat="46.199879413470626" lon="10.858021639287472">
        <ele>1831.45</ele>
        <time>2018-09-08T09:37:52Z</time>
      </trkpt>
      <trkpt lat="46.199917802587152" lon="10.858079139143229">
        <ele>1831.45</ele>
        <time>2018-09-08T09:38:19Z</time>
      </trkpt>
      <trkpt lat="46.199915707111359" lon="10.858024908229709">
        <ele>1831.45</ele>
        <time>2018-09-08T09:38:47Z</time>
      </trkpt>
      <trkpt lat="46.199916545301676" lon="10.858001103624701">
        <ele>1831.45</ele>
        <time>2018-09-08T09:39:14Z</time>
      </trkpt>
      <trkpt lat="46.199945211410522" lon="10.858000097796321">
        <ele>1831.45</ele>
        <time>2018-09-08T09:39:49Z</time>
      </trkpt>
      <trkpt lat="46.199942277744412" lon="10.858003702014685">
        <ele>1831.9300000000001</ele>
        <time>2018-09-08T09:40:13Z</time>
      </trkpt>
      <trkpt lat="46.199904307723045" lon="10.858020465821028">
        <ele>1831.9300000000001</ele>
        <time>2018-09-08T09:40:37Z</time>
      </trkpt>
      <trkpt lat="46.199925262480974" lon="10.858028260990977">
        <ele>1831.9300000000001</ele>
        <time>2018-09-08T09:40:58Z</time>
      </trkpt>
      <trkpt lat="46.199910007417202" lon="10.858034463599324">
        <ele>1831.45</ele>
        <time>2018-09-08T09:41:24Z</time>
      </trkpt>
      <trkpt lat="46.199896177276969" lon="10.858032703399658">
        <ele>1831.45</ele>
        <time>2018-09-08T09:41:51Z</time>
      </trkpt>
      <trkpt lat="46.19992601685226" lon="10.858021806925535">
        <ele>1831.9300000000001</ele>
        <time>2018-09-08T09:42:15Z</time>
      </trkpt>
      <trkpt lat="46.199907409027219" lon="10.858029434457421">
        <ele>1831.9300000000001</ele>
        <time>2018-09-08T09:42:36Z</time>
      </trkpt>
      <trkpt lat="46.199922999367118" lon="10.85803521797061">
        <ele>1831.45</ele>
        <time>2018-09-08T09:42:59Z</time>
      </trkpt>
      <trkpt lat="46.199925765395164" lon="10.85802155546844">
        <ele>1831.9300000000001</ele>
        <time>2018-09-08T09:43:20Z</time>
      </trkpt>
      <trkpt lat="46.19987572543323" lon="10.858032116666436">
        <ele>1831.9300000000001</ele>
        <time>2018-09-08T09:43:43Z</time>
      </trkpt>
      <trkpt lat="46.199880922213197" lon="10.858029518276453">
        <ele>1831.45</ele>
        <time>2018-09-08T09:44:05Z</time>
      </trkpt>
      <trkpt lat="46.199881425127387" lon="10.857978640124202">
        <ele>1832.4100000000001</ele>
        <time>2018-09-08T09:44:18Z</time>
      </trkpt>
      <trkpt lat="46.199872456490993" lon="10.858011245727539">
        <ele>1831.9300000000001</ele>
        <time>2018-09-08T09:44:27Z</time>
      </trkpt>
      <trkpt lat="46.19990648701787" lon="10.858010491356254">
        <ele>1831.45</ele>
        <time>2018-09-08T09:44:36Z</time>
      </trkpt>
      <trkpt lat="46.19995585642755" lon="10.857999846339226">
        <ele>1831.9300000000001</ele>
        <time>2018-09-08T09:45:07Z</time>
      </trkpt>
      <trkpt lat="46.199933225288987" lon="10.857994565740228">
        <ele>1832.4100000000001</ele>
        <time>2018-09-08T09:45:28Z</time>
      </trkpt>
      <trkpt lat="46.199927525594831" lon="10.857995068654418">
        <ele>1832.4100000000001</ele>
        <time>2018-09-08T09:45:53Z</time>
      </trkpt>
      <trkpt lat="46.199917048215866" lon="10.858012922108173">
        <ele>1832.4100000000001</ele>
        <time>2018-09-08T09:46:18Z</time>
      </trkpt>
      <trkpt lat="46.199918054044247" lon="10.858020717278123">
        <ele>1832.4100000000001</ele>
        <time>2018-09-08T09:46:35Z</time>
      </trkpt>
      <trkpt lat="46.199908331036568" lon="10.858005629852414">
        <ele>1832.4100000000001</ele>
        <time>2018-09-08T09:47:01Z</time>
      </trkpt>
      <trkpt lat="46.199919981881976" lon="10.858023818582296">
        <ele>1832.4100000000001</ele>
        <time>2018-09-08T09:47:27Z</time>
      </trkpt>
      <trkpt lat="46.19992014952004" lon="10.858002780005336">
        <ele>1832.4100000000001</ele>
        <time>2018-09-08T09:47:56Z</time>
      </trkpt>
      <trkpt lat="46.199897853657603" lon="10.857993476092815">
        <ele>1832.8900000000001</ele>
        <time>2018-09-08T09:48:17Z</time>
      </trkpt>
      <trkpt lat="46.199919059872627" lon="10.858014095574617">
        <ele>1832.8900000000001</ele>
        <time>2018-09-08T09:48:41Z</time>
      </trkpt>
      <trkpt lat="46.19993875734508" lon="10.858020968735218">
        <ele>1832.8900000000001</ele>
        <time>2018-09-08T09:49:10Z</time>
      </trkpt>
      <trkpt lat="46.199909755960107" lon="10.858020214363933">
        <ele>1832.8900000000001</ele>
        <time>2018-09-08T09:49:35Z</time>
      </trkpt>
      <trkpt lat="46.199914030730724" lon="10.85800445638597">
        <ele>1832.8900000000001</ele>
        <time>2018-09-08T09:50:01Z</time>
      </trkpt>
      <trkpt lat="46.199899865314364" lon="10.858002780005336">
        <ele>1832.8900000000001</ele>
        <time>2018-09-08T09:50:22Z</time>
      </trkpt>
      <trkpt lat="46.199913024902344" lon="10.858021974563599">
        <ele>1832.8900000000001</ele>
        <time>2018-09-08T09:50:45Z</time>
      </trkpt>
      <trkpt lat="46.199911935254931" lon="10.8580322843045">
        <ele>1832.8900000000001</ele>
        <time>2018-09-08T09:51:18Z</time>
      </trkpt>
      <trkpt lat="46.199896847829223" lon="10.85803278721869">
        <ele>1832.8900000000001</ele>
        <time>2018-09-08T09:51:42Z</time>
      </trkpt>
      <trkpt lat="46.199891148135066" lon="10.858019711449742">
        <ele>1832.8900000000001</ele>
        <time>2018-09-08T09:52:05Z</time>
      </trkpt>
      <trkpt lat="46.199903972446918" lon="10.858033206313848">
        <ele>1833.3699999999999</ele>
        <time>2018-09-08T09:52:27Z</time>
      </trkpt>
      <trkpt lat="46.199910342693329" lon="10.858037564903498">
        <ele>1833.3699999999999</ele>
        <time>2018-09-08T09:52:38Z</time>
      </trkpt>
      <trkpt lat="46.199914449825883" lon="10.858033541589975">
        <ele>1827.1199999999999</ele>
        <time>2018-09-08T09:52:41Z</time>
      </trkpt>
      <trkpt lat="46.199915539473295" lon="10.858035301789641">
        <ele>1834.3299999999999</ele>
        <time>2018-09-08T09:52:42Z</time>
      </trkpt>
      <trkpt lat="46.199922244995832" lon="10.858035888522863">
        <ele>1832.8900000000001</ele>
        <time>2018-09-08T09:52:45Z</time>
      </trkpt>
      <trkpt lat="46.199909001588821" lon="10.858035637065768">
        <ele>1833.3699999999999</ele>
        <time>2018-09-08T09:52:59Z</time>
      </trkpt>
      <trkpt lat="46.199897099286318" lon="10.858028680086136">
        <ele>1832.8900000000001</ele>
        <time>2018-09-08T09:53:11Z</time>
      </trkpt>
      <trkpt lat="46.199875390157104" lon="10.85800202563405">
        <ele>1833.3699999999999</ele>
        <time>2018-09-08T09:53:20Z</time>
      </trkpt>
      <trkpt lat="46.199876395985484" lon="10.857962630689144">
        <ele>1832.8900000000001</ele>
        <time>2018-09-08T09:53:30Z</time>
      </trkpt>
      <trkpt lat="46.199905229732394" lon="10.858015017583966">
        <ele>1832.8900000000001</ele>
        <time>2018-09-08T09:53:40Z</time>
      </trkpt>
      <trkpt lat="46.199868936091661" lon="10.857974197715521">
        <ele>1833.3699999999999</ele>
        <time>2018-09-08T09:53:53Z</time>
      </trkpt>
      <trkpt lat="46.199839850887656" lon="10.8579839207232">
        <ele>1832.8900000000001</ele>
        <time>2018-09-08T09:54:03Z</time>
      </trkpt>
      <trkpt lat="46.199855525046587" lon="10.857988614588976">
        <ele>1833.3699999999999</ele>
        <time>2018-09-08T09:54:12Z</time>
      </trkpt>
      <trkpt lat="46.199863404035568" lon="10.858000349253416">
        <ele>1833.3699999999999</ele>
        <time>2018-09-08T09:54:24Z</time>
      </trkpt>
      <trkpt lat="46.199931213632226" lon="10.85800152271986">
        <ele>1833.3699999999999</ele>
        <time>2018-09-08T09:54:38Z</time>
      </trkpt>
      <trkpt lat="46.199925094842911" lon="10.857999343425035">
        <ele>1833.3699999999999</ele>
        <time>2018-09-08T09:54:44Z</time>
      </trkpt>
      <trkpt lat="46.19990648701787" lon="10.85802691988647">
        <ele>1833.3699999999999</ele>
        <time>2018-09-08T09:54:56Z</time>
      </trkpt>
      <trkpt lat="46.199912521988153" lon="10.858011832460761">
        <ele>1833.3699999999999</ele>
        <time>2018-09-08T09:55:16Z</time>
      </trkpt>
      <trkpt lat="46.199941858649254" lon="10.858002528548241">
        <ele>1833.3699999999999</ele>
        <time>2018-09-08T09:55:29Z</time>
      </trkpt>
      <trkpt lat="46.199968764558434" lon="10.857987776398659">
        <ele>1832.8900000000001</ele>
        <time>2018-09-08T09:55:49Z</time>
      </trkpt>
      <trkpt lat="46.199985779821873" lon="10.857985513284802">
        <ele>1833.3699999999999</ele>
        <time>2018-09-08T09:56:10Z</time>
      </trkpt>
      <trkpt lat="46.199950240552425" lon="10.858008814975619">
        <ele>1833.3699999999999</ele>
        <time>2018-09-08T09:56:31Z</time>
      </trkpt>
      <trkpt lat="46.199958538636565" lon="10.857987273484468">
        <ele>1832.8900000000001</ele>
        <time>2018-09-08T09:56:51Z</time>
      </trkpt>
      <trkpt lat="46.199933812022209" lon="10.85795558989048">
        <ele>1833.3699999999999</ele>
        <time>2018-09-08T09:57:06Z</time>
      </trkpt>
      <trkpt lat="46.199911599978805" lon="10.857972353696823">
        <ele>1832.8900000000001</ele>
        <time>2018-09-08T09:57:21Z</time>
      </trkpt>
      <trkpt lat="46.199910426512361" lon="10.857987776398659">
        <ele>1832.8900000000001</ele>
        <time>2018-09-08T09:57:53Z</time>
      </trkpt>
      <trkpt lat="46.199918473139405" lon="10.857981322333217">
        <ele>1832.8900000000001</ele>
        <time>2018-09-08T09:58:09Z</time>
      </trkpt>
      <trkpt lat="46.199911180883646" lon="10.857948549091816">
        <ele>1832.8900000000001</ele>
        <time>2018-09-08T09:58:30Z</time>
      </trkpt>
      <trkpt lat="46.199937667697668" lon="10.857968581840396">
        <ele>1832.8900000000001</ele>
        <time>2018-09-08T09:58:51Z</time>
      </trkpt>
      <trkpt lat="46.199962897226214" lon="10.85797268897295">
        <ele>1832.8900000000001</ele>
        <time>2018-09-08T09:59:12Z</time>
      </trkpt>
      <trkpt lat="46.199988797307014" lon="10.857972269877791">
        <ele>1832.8900000000001</ele>
        <time>2018-09-08T09:59:32Z</time>
      </trkpt>
      <trkpt lat="46.199918640777469" lon="10.857950141653419">
        <ele>1832.8900000000001</ele>
        <time>2018-09-08T09:59:51Z</time>
      </trkpt>
      <trkpt lat="46.199936578050256" lon="10.857935976237059">
        <ele>1832.8900000000001</ele>
        <time>2018-09-08T10:00:10Z</time>
      </trkpt>
      <trkpt lat="46.199923837557435" lon="10.857921056449413">
        <ele>1832.8900000000001</ele>
        <time>2018-09-08T10:00:34Z</time>
      </trkpt>
      <trkpt lat="46.199889723211527" lon="10.85794972255826">
        <ele>1832.8900000000001</ele>
        <time>2018-09-08T10:01:00Z</time>
      </trkpt>
      <trkpt lat="46.199891902506351" lon="10.857917116954923">
        <ele>1832.8900000000001</ele>
        <time>2018-09-08T10:01:29Z</time>
      </trkpt>
      <trkpt lat="46.199923418462276" lon="10.857928767800331">
        <ele>1832.8900000000001</ele>
        <time>2018-09-08T10:01:51Z</time>
      </trkpt>
      <trkpt lat="46.199876898899674" lon="10.857950560748577">
        <ele>1832.8900000000001</ele>
        <time>2018-09-08T10:02:03Z</time>
      </trkpt>
      <trkpt lat="46.199855105951428" lon="10.857968414202332">
        <ele>1832.8900000000001</ele>
        <time>2018-09-08T10:02:14Z</time>
      </trkpt>
      <trkpt lat="46.199851585552096" lon="10.857978388667107">
        <ele>1832.8900000000001</ele>
        <time>2018-09-08T10:02:33Z</time>
      </trkpt>
      <trkpt lat="46.199849238619208" lon="10.857960535213351">
        <ele>1832.8900000000001</ele>
        <time>2018-09-08T10:02:46Z</time>
      </trkpt>
      <trkpt lat="46.199859548360109" lon="10.857978640124202">
        <ele>1832.8900000000001</ele>
        <time>2018-09-08T10:03:08Z</time>
      </trkpt>
      <trkpt lat="46.199880419299006" lon="10.858028847724199">
        <ele>1832.8900000000001</ele>
        <time>2018-09-08T10:03:24Z</time>
      </trkpt>
      <trkpt lat="46.199894417077303" lon="10.858045276254416">
        <ele>1832.8900000000001</ele>
        <time>2018-09-08T10:03:36Z</time>
      </trkpt>
      <trkpt lat="46.199883939698339" lon="10.858051059767604">
        <ele>1832.8900000000001</ele>
        <time>2018-09-08T10:03:47Z</time>
      </trkpt>
      <trkpt lat="46.199879916384816" lon="10.85807335563004">
        <ele>1833.3699999999999</ele>
        <time>2018-09-08T10:04:00Z</time>
      </trkpt>
      <trkpt lat="46.199911935254931" lon="10.857959697023034">
        <ele>1833.3699999999999</ele>
        <time>2018-09-08T10:04:13Z</time>
      </trkpt>
      <trkpt lat="46.199909085407853" lon="10.857944022864103">
        <ele>1833.3699999999999</ele>
        <time>2018-09-08T10:04:24Z</time>
      </trkpt>
      <trkpt lat="46.199910510331392" lon="10.857932874932885">
        <ele>1833.3699999999999</ele>
        <time>2018-09-08T10:04:40Z</time>
      </trkpt>
      <trkpt lat="46.199892070144415" lon="10.858003199100494">
        <ele>1833.3699999999999</ele>
        <time>2018-09-08T10:04:52Z</time>
      </trkpt>
      <trkpt lat="46.19987715035677" lon="10.858033876866102">
        <ele>1833.3699999999999</ele>
        <time>2018-09-08T10:05:06Z</time>
      </trkpt>
      <trkpt lat="46.199909253045917" lon="10.858037648722529">
        <ele>1834.8099999999999</ele>
        <time>2018-09-08T10:05:21Z</time>
      </trkpt>
      <trkpt lat="46.199946971610188" lon="10.858153318986297">
        <ele>1833.8499999999999</ele>
        <time>2018-09-08T10:05:32Z</time>
      </trkpt>
      <trkpt lat="46.19994604960084" lon="10.85819405503571">
        <ele>1833.3699999999999</ele>
        <time>2018-09-08T10:05:43Z</time>
      </trkpt>
      <trkpt lat="46.199950994923711" lon="10.858180224895477">
        <ele>1833.3699999999999</ele>
        <time>2018-09-08T10:05:54Z</time>
      </trkpt>
      <trkpt lat="46.199946217238903" lon="10.858221463859081">
        <ele>1833.3699999999999</ele>
        <time>2018-09-08T10:06:06Z</time>
      </trkpt>
      <trkpt lat="46.19994705542922" lon="10.858260774984956">
        <ele>1833.8499999999999</ele>
        <time>2018-09-08T10:06:15Z</time>
      </trkpt>
      <trkpt lat="46.199963483959436" lon="10.858408212661743">
        <ele>1833.3699999999999</ele>
        <time>2018-09-08T10:06:26Z</time>
      </trkpt>
      <trkpt lat="46.199977062642574" lon="10.858554057776928">
        <ele>1834.3299999999999</ele>
        <time>2018-09-08T10:06:38Z</time>
      </trkpt>
      <trkpt lat="46.199938589707017" lon="10.858558164909482">
        <ele>1834.3299999999999</ele>
        <time>2018-09-08T10:06:50Z</time>
      </trkpt>
      <trkpt lat="46.199926100671291" lon="10.85856294259429">
        <ele>1834.3299999999999</ele>
        <time>2018-09-08T10:07:05Z</time>
      </trkpt>
      <trkpt lat="46.199906319379807" lon="10.85855120792985">
        <ele>1834.3299999999999</ele>
        <time>2018-09-08T10:07:23Z</time>
      </trkpt>
      <trkpt lat="46.199876144528389" lon="10.858645504340529">
        <ele>1835.77</ele>
        <time>2018-09-08T10:07:34Z</time>
      </trkpt>
      <trkpt lat="46.199859464541078" lon="10.858707949519157">
        <ele>1837.22</ele>
        <time>2018-09-08T10:07:43Z</time>
      </trkpt>
      <trkpt lat="46.199820740148425" lon="10.8587989769876">
        <ele>1839.1400000000001</ele>
        <time>2018-09-08T10:07:55Z</time>
      </trkpt>
      <trkpt lat="46.199803221970797" lon="10.858881203457713">
        <ele>1840.5799999999999</ele>
        <time>2018-09-08T10:08:05Z</time>
      </trkpt>
      <trkpt lat="46.199755948036909" lon="10.858932668343186">
        <ele>1842.5</ele>
        <time>2018-09-08T10:08:17Z</time>
      </trkpt>
      <trkpt lat="46.199715379625559" lon="10.858990335837007">
        <ele>1843.95</ele>
        <time>2018-09-08T10:08:26Z</time>
      </trkpt>
      <trkpt lat="46.199692580848932" lon="10.85904817096889">
        <ele>1845.8699999999999</ele>
        <time>2018-09-08T10:08:36Z</time>
      </trkpt>
      <trkpt lat="46.199664333835244" lon="10.859126122668386">
        <ele>1846.8299999999999</ele>
        <time>2018-09-08T10:08:47Z</time>
      </trkpt>
      <trkpt lat="46.199645809829235" lon="10.85918202996254">
        <ele>1847.79</ele>
        <time>2018-09-08T10:08:55Z</time>
      </trkpt>
      <trkpt lat="46.199630303308368" lon="10.859195273369551">
        <ele>1849.71</ele>
        <time>2018-09-08T10:09:08Z</time>
      </trkpt>
      <trkpt lat="46.199613623321056" lon="10.859092762693763">
        <ele>1851.1600000000001</ele>
        <time>2018-09-08T10:09:20Z</time>
      </trkpt>
      <trkpt lat="46.199576072394848" lon="10.859016487374902">
        <ele>1853.0799999999999</ele>
        <time>2018-09-08T10:09:33Z</time>
      </trkpt>
      <trkpt lat="46.199572300538421" lon="10.858927806839347">
        <ele>1855</ele>
        <time>2018-09-08T10:09:44Z</time>
      </trkpt>
      <trkpt lat="46.199567941948771" lon="10.858868295326829">
        <ele>1856.4400000000001</ele>
        <time>2018-09-08T10:09:57Z</time>
      </trkpt>
      <trkpt lat="46.199544388800859" lon="10.858817920088768">
        <ele>1857.4000000000001</ele>
        <time>2018-09-08T10:10:06Z</time>
      </trkpt>
      <trkpt lat="46.199482027441263" lon="10.858807107433677">
        <ele>1858.3699999999999</ele>
        <time>2018-09-08T10:10:19Z</time>
      </trkpt>
      <trkpt lat="46.199409691616893" lon="10.858772657811642">
        <ele>1859.8099999999999</ele>
        <time>2018-09-08T10:10:31Z</time>
      </trkpt>
      <trkpt lat="46.199335511773825" lon="10.858735106885433">
        <ele>1861.25</ele>
        <time>2018-09-08T10:10:43Z</time>
      </trkpt>
      <trkpt lat="46.199286393821239" lon="10.858720941469073">
        <ele>1862.6900000000001</ele>
        <time>2018-09-08T10:10:56Z</time>
      </trkpt>
      <trkpt lat="46.199225876480341" lon="10.85871197283268">
        <ele>1864.6099999999999</ele>
        <time>2018-09-08T10:11:09Z</time>
      </trkpt>
      <trkpt lat="46.199172902852297" lon="10.858702082186937">
        <ele>1866.54</ele>
        <time>2018-09-08T10:11:21Z</time>
      </trkpt>
      <trkpt lat="46.199111044406891" lon="10.858694706112146">
        <ele>1868.46</ele>
        <time>2018-09-08T10:11:33Z</time>
      </trkpt>
      <trkpt lat="46.199072655290365" lon="10.858707027509809">
        <ele>1869.4200000000001</ele>
        <time>2018-09-08T10:11:41Z</time>
      </trkpt>
      <trkpt lat="46.199046168476343" lon="10.858712559565902">
        <ele>1869.9000000000001</ele>
        <time>2018-09-08T10:11:44Z</time>
      </trkpt>
      <trkpt lat="46.199016245082021" lon="10.858770813792944">
        <ele>1871.3399999999999</ele>
        <time>2018-09-08T10:11:55Z</time>
      </trkpt>
      <trkpt lat="46.198989758267999" lon="10.85882093757391">
        <ele>1873.27</ele>
        <time>2018-09-08T10:12:06Z</time>
      </trkpt>
      <trkpt lat="46.198968719691038" lon="10.858857985585928">
        <ele>1874.71</ele>
        <time>2018-09-08T10:12:16Z</time>
      </trkpt>
      <trkpt lat="46.198939047753811" lon="10.858829319477081">
        <ele>1876.1500000000001</ele>
        <time>2018-09-08T10:12:26Z</time>
      </trkpt>
      <trkpt lat="46.198895713314414" lon="10.858851866796613">
        <ele>1878.0699999999999</ele>
        <time>2018-09-08T10:12:39Z</time>
      </trkpt>
      <trkpt lat="46.198850786313415" lon="10.858788918703794">
        <ele>1879.51</ele>
        <time>2018-09-08T10:12:49Z</time>
      </trkpt>
      <trkpt lat="46.198798147961497" lon="10.858747344464064">
        <ele>1880.96</ele>
        <time>2018-09-08T10:13:01Z</time>
      </trkpt>
      <trkpt lat="46.198735535144806" lon="10.858705518767238">
        <ele>1882.4000000000001</ele>
        <time>2018-09-08T10:13:14Z</time>
      </trkpt>
      <trkpt lat="46.198677616193891" lon="10.858768047764897">
        <ele>1884.3199999999999</ele>
        <time>2018-09-08T10:13:25Z</time>
      </trkpt>
      <trkpt lat="46.198678622022271" lon="10.858791517093778">
        <ele>1885.28</ele>
        <time>2018-09-08T10:13:34Z</time>
      </trkpt>
      <trkpt lat="46.198660433292389" lon="10.858844155445695">
        <ele>1887.21</ele>
        <time>2018-09-08T10:13:45Z</time>
      </trkpt>
      <trkpt lat="46.198618607595563" lon="10.858888328075409">
        <ele>1889.1300000000001</ele>
        <time>2018-09-08T10:13:57Z</time>
      </trkpt>
      <trkpt lat="46.198557587340474" lon="10.858914395794272">
        <ele>1890.5699999999999</ele>
        <time>2018-09-08T10:14:06Z</time>
      </trkpt>
      <trkpt lat="46.198566053062677" lon="10.858957478776574">
        <ele>1891.53</ele>
        <time>2018-09-08T10:14:15Z</time>
      </trkpt>
      <trkpt lat="46.19857594370842" lon="10.859026713296771">
        <ele>1892.97</ele>
        <time>2018-09-08T10:14:25Z</time>
      </trkpt>
      <trkpt lat="46.198563622310758" lon="10.859084632247686">
        <ele>1894.4200000000001</ele>
        <time>2018-09-08T10:14:35Z</time>
      </trkpt>
      <trkpt lat="46.198549708351493" lon="10.859129475429654">
        <ele>1895.3800000000001</ele>
        <time>2018-09-08T10:14:44Z</time>
      </trkpt>
      <trkpt lat="46.198540404438972" lon="10.859180437400937">
        <ele>1896.3399999999999</ele>
        <time>2018-09-08T10:14:54Z</time>
      </trkpt>
      <trkpt lat="46.198539147153497" lon="10.859212204813957">
        <ele>1898.26</ele>
        <time>2018-09-08T10:15:04Z</time>
      </trkpt>
      <trkpt lat="46.198534285649657" lon="10.859286049380898">
        <ele>1899.22</ele>
        <time>2018-09-08T10:15:13Z</time>
      </trkpt>
      <trkpt lat="46.198511905968189" lon="10.859345057979226">
        <ele>1900.6600000000001</ele>
        <time>2018-09-08T10:15:24Z</time>
      </trkpt>
      <trkpt lat="46.198503859341145" lon="10.859376071020961">
        <ele>1901.6300000000001</ele>
        <time>2018-09-08T10:15:37Z</time>
      </trkpt>
      <trkpt lat="46.198494052514434" lon="10.859427871182561">
        <ele>1902.5899999999999</ele>
        <time>2018-09-08T10:15:46Z</time>
      </trkpt>
      <trkpt lat="46.198472762480378" lon="10.859478916972876">
        <ele>1904.03</ele>
        <time>2018-09-08T10:15:54Z</time>
      </trkpt>
      <trkpt lat="46.198461530730128" lon="10.859517557546496">
        <ele>1905.47</ele>
        <time>2018-09-08T10:16:04Z</time>
      </trkpt>
      <trkpt lat="46.198409562930465" lon="10.859572123736143">
        <ele>1906.9100000000001</ele>
        <time>2018-09-08T10:16:16Z</time>
      </trkpt>
      <trkpt lat="46.198358181864023" lon="10.859669856727123">
        <ele>1908.8299999999999</ele>
        <time>2018-09-08T10:16:30Z</time>
      </trkpt>
      <trkpt lat="46.198302190750837" lon="10.859728697687387">
        <ele>1909.8</ele>
        <time>2018-09-08T10:16:40Z</time>
      </trkpt>
      <trkpt lat="46.198256509378552" lon="10.859784772619605">
        <ele>1910.76</ele>
        <time>2018-09-08T10:16:52Z</time>
      </trkpt>
      <trkpt lat="46.198208145797253" lon="10.859843278303742">
        <ele>1911.72</ele>
        <time>2018-09-08T10:17:05Z</time>
      </trkpt>
      <trkpt lat="46.198189789429307" lon="10.859883846715093">
        <ele>1913.6400000000001</ele>
        <time>2018-09-08T10:17:11Z</time>
      </trkpt>
      <trkpt lat="46.198177635669708" lon="10.859885774552822">
        <ele>1913.6400000000001</ele>
        <time>2018-09-08T10:17:29Z</time>
      </trkpt>
      <trkpt lat="46.198158944025636" lon="10.859935898333788">
        <ele>1914.1199999999999</ele>
        <time>2018-09-08T10:17:43Z</time>
      </trkpt>
      <trkpt lat="46.19814838282764" lon="10.859983591362834">
        <ele>1915.0799999999999</ele>
        <time>2018-09-08T10:17:53Z</time>
      </trkpt>
      <trkpt lat="46.198169253766537" lon="10.859965067356825">
        <ele>1916.53</ele>
        <time>2018-09-08T10:18:03Z</time>
      </trkpt>
      <trkpt lat="46.198167493566871" lon="10.859972108155489">
        <ele>1917.01</ele>
        <time>2018-09-08T10:18:22Z</time>
      </trkpt>
      <trkpt lat="46.198153160512447" lon="10.860008401796222">
        <ele>1917.01</ele>
        <time>2018-09-08T10:18:34Z</time>
      </trkpt>
      <trkpt lat="46.198137570172548" lon="10.860040001571178">
        <ele>1917.49</ele>
        <time>2018-09-08T10:18:44Z</time>
      </trkpt>
      <trkpt lat="46.198104461655021" lon="10.860097669064999">
        <ele>1917.97</ele>
        <time>2018-09-08T10:18:55Z</time>
      </trkpt>
      <trkpt lat="46.198104713112116" lon="10.860083168372512">
        <ele>1917.49</ele>
        <time>2018-09-08T10:19:16Z</time>
      </trkpt>
      <trkpt lat="46.198104126378894" lon="10.860095322132111">
        <ele>1918.45</ele>
        <time>2018-09-08T10:19:29Z</time>
      </trkpt>
      <trkpt lat="46.198063138872385" lon="10.860198000445962">
        <ele>1918.9300000000001</ele>
        <time>2018-09-08T10:19:40Z</time>
      </trkpt>
      <trkpt lat="46.198036232963204" lon="10.860279891639948">
        <ele>1920.8499999999999</ele>
        <time>2018-09-08T10:19:51Z</time>
      </trkpt>
      <trkpt lat="46.19797445833683" lon="10.860328506678343">
        <ele>1921.3299999999999</ele>
        <time>2018-09-08T10:19:58Z</time>
      </trkpt>
      <trkpt lat="46.19789918884635" lon="10.860417019575834">
        <ele>1922.77</ele>
        <time>2018-09-08T10:20:10Z</time>
      </trkpt>
      <trkpt lat="46.197826182469726" lon="10.860472591593862">
        <ele>1924.22</ele>
        <time>2018-09-08T10:20:21Z</time>
      </trkpt>
      <trkpt lat="46.197761222720146" lon="10.860512489452958">
        <ele>1925.6600000000001</ele>
        <time>2018-09-08T10:20:30Z</time>
      </trkpt>
      <trkpt lat="46.197700537741184" lon="10.860529504716396">
        <ele>1926.6199999999999</ele>
        <time>2018-09-08T10:20:41Z</time>
      </trkpt>
      <trkpt lat="46.197687461972237" lon="10.860494803637266">
        <ele>1926.6199999999999</ele>
        <time>2018-09-08T10:20:56Z</time>
      </trkpt>
      <trkpt lat="46.197600206360221" lon="10.860623549669981">
        <ele>1928.0599999999999</ele>
        <time>2018-09-08T10:21:09Z</time>
      </trkpt>
      <trkpt lat="46.197537425905466" lon="10.860673924908042">
        <ele>1930.46</ele>
        <time>2018-09-08T10:21:20Z</time>
      </trkpt>
      <trkpt lat="46.197505742311478" lon="10.860695550218225">
        <ele>1931.9100000000001</ele>
        <time>2018-09-08T10:21:28Z</time>
      </trkpt>
      <trkpt lat="46.197445476427674" lon="10.860736789181828">
        <ele>1933.3499999999999</ele>
        <time>2018-09-08T10:21:38Z</time>
      </trkpt>
      <trkpt lat="46.197376828640699" lon="10.860771406441927">
        <ele>1934.79</ele>
        <time>2018-09-08T10:21:48Z</time>
      </trkpt>
      <trkpt lat="46.197306336835027" lon="10.860839048400521">
        <ele>1936.23</ele>
        <time>2018-09-08T10:21:58Z</time>
      </trkpt>
      <trkpt lat="46.19724540039897" lon="10.860878024250269">
        <ele>1938.1600000000001</ele>
        <time>2018-09-08T10:22:10Z</time>
      </trkpt>
      <trkpt lat="46.1971765011549" lon="10.860932087525725">
        <ele>1939.1199999999999</ele>
        <time>2018-09-08T10:22:21Z</time>
      </trkpt>
      <trkpt lat="46.197129813954234" lon="10.860935943201184">
        <ele>1939.5999999999999</ele>
        <time>2018-09-08T10:22:30Z</time>
      </trkpt>
      <trkpt lat="46.197061501443386" lon="10.861007776111364">
        <ele>1941.04</ele>
        <time>2018-09-08T10:22:40Z</time>
      </trkpt>
      <trkpt lat="46.196993524208665" lon="10.861079189926386">
        <ele>1942</ele>
        <time>2018-09-08T10:22:50Z</time>
      </trkpt>
      <trkpt lat="46.196904424577951" lon="10.861143562942743">
        <ele>1943.4400000000001</ele>
        <time>2018-09-08T10:23:03Z</time>
      </trkpt>
      <trkpt lat="46.196840805932879" lon="10.86116636171937">
        <ele>1943.9200000000001</ele>
        <time>2018-09-08T10:23:15Z</time>
      </trkpt>
      <trkpt lat="46.196785066276789" lon="10.861215982586145">
        <ele>1945.3599999999999</ele>
        <time>2018-09-08T10:23:25Z</time>
      </trkpt>
      <trkpt lat="46.196751119568944" lon="10.861293263733387">
        <ele>1947.29</ele>
        <time>2018-09-08T10:23:35Z</time>
      </trkpt>
      <trkpt lat="46.19673234410584" lon="10.861340453848243">
        <ele>1947.77</ele>
        <time>2018-09-08T10:23:46Z</time>
      </trkpt>
      <trkpt lat="46.196666462346911" lon="10.861406503245234">
        <ele>1949.21</ele>
        <time>2018-09-08T10:23:58Z</time>
      </trkpt>
      <trkpt lat="46.196618434041739" lon="10.861467439681292">
        <ele>1950.6500000000001</ele>
        <time>2018-09-08T10:24:09Z</time>
      </trkpt>
      <trkpt lat="46.196563616394997" lon="10.8615343272686">
        <ele>1952.5699999999999</ele>
        <time>2018-09-08T10:24:21Z</time>
      </trkpt>
      <trkpt lat="46.196512822061777" lon="10.86159685626626">
        <ele>1954.02</ele>
        <time>2018-09-08T10:24:32Z</time>
      </trkpt>
      <trkpt lat="46.196487173438072" lon="10.861586127430201">
        <ele>1954.5</ele>
        <time>2018-09-08T10:24:41Z</time>
      </trkpt>
      <trkpt lat="46.196443922817707" lon="10.861640023067594">
        <ele>1954.98</ele>
        <time>2018-09-08T10:24:52Z</time>
      </trkpt>
      <trkpt lat="46.196362031623721" lon="10.861700959503651">
        <ele>1956.9000000000001</ele>
        <time>2018-09-08T10:25:04Z</time>
      </trkpt>
      <trkpt lat="46.196290031075478" lon="10.86174638941884">
        <ele>1958.3399999999999</ele>
        <time>2018-09-08T10:25:16Z</time>
      </trkpt>
      <trkpt lat="46.196204368025064" lon="10.861827274784446">
        <ele>1960.27</ele>
        <time>2018-09-08T10:25:29Z</time>
      </trkpt>
      <trkpt lat="46.196143431589007" lon="10.861882595345378">
        <ele>1961.23</ele>
        <time>2018-09-08T10:25:41Z</time>
      </trkpt>
      <trkpt lat="46.19604829698801" lon="10.861914614215493">
        <ele>1962.6700000000001</ele>
        <time>2018-09-08T10:25:54Z</time>
      </trkpt>
      <trkpt lat="46.19598526507616" lon="10.861950404942036">
        <ele>1964.5899999999999</ele>
        <time>2018-09-08T10:26:07Z</time>
      </trkpt>
      <trkpt lat="46.195906475186348" lon="10.862003546208143">
        <ele>1966.03</ele>
        <time>2018-09-08T10:26:19Z</time>
      </trkpt>
      <trkpt lat="46.195852998644114" lon="10.862060459330678">
        <ele>1967.48</ele>
        <time>2018-09-08T10:26:31Z</time>
      </trkpt>
      <trkpt lat="46.195762138813734" lon="10.862141512334347">
        <ele>1969.4000000000001</ele>
        <time>2018-09-08T10:26:44Z</time>
      </trkpt>
      <trkpt lat="46.195717630907893" lon="10.862180320546031">
        <ele>1970.8399999999999</ele>
        <time>2018-09-08T10:26:55Z</time>
      </trkpt>
      <trkpt lat="46.195659125223756" lon="10.86224720813334">
        <ele>1972.28</ele>
        <time>2018-09-08T10:27:07Z</time>
      </trkpt>
      <trkpt lat="46.195624507963657" lon="10.8622907102108">
        <ele>1974.2</ele>
        <time>2018-09-08T10:27:18Z</time>
      </trkpt>
      <trkpt lat="46.195578658953309" lon="10.862342342734337">
        <ele>1976.1300000000001</ele>
        <time>2018-09-08T10:27:28Z</time>
      </trkpt>
      <trkpt lat="46.19551713578403" lon="10.862409817054868">
        <ele>1977.0899999999999</ele>
        <time>2018-09-08T10:27:38Z</time>
      </trkpt>
      <trkpt lat="46.195472208783031" lon="10.862461281940341">
        <ele>1978.05</ele>
        <time>2018-09-08T10:27:48Z</time>
      </trkpt>
      <trkpt lat="46.195429125800729" lon="10.86251400411129">
        <ele>1979.49</ele>
        <time>2018-09-08T10:27:58Z</time>
      </trkpt>
      <trkpt lat="46.195358466356993" lon="10.86260243318975">
        <ele>1980.9300000000001</ele>
        <time>2018-09-08T10:28:11Z</time>
      </trkpt>
      <trkpt lat="46.195314293727279" lon="10.862700920552015">
        <ele>1982.3800000000001</ele>
        <time>2018-09-08T10:28:22Z</time>
      </trkpt>
      <trkpt lat="46.195266013965011" lon="10.862781973555684">
        <ele>1982.8599999999999</ele>
        <time>2018-09-08T10:28:32Z</time>
      </trkpt>
      <trkpt lat="46.195225110277534" lon="10.862841568887234">
        <ele>1984.3</ele>
        <time>2018-09-08T10:28:40Z</time>
      </trkpt>
      <trkpt lat="46.195145817473531" lon="10.862943409010768">
        <ele>1984.78</ele>
        <time>2018-09-08T10:28:54Z</time>
      </trkpt>
      <trkpt lat="46.195104410871863" lon="10.863004010170698">
        <ele>1986.7</ele>
        <time>2018-09-08T10:29:07Z</time>
      </trkpt>
      <trkpt lat="46.195055712014437" lon="10.863095289096236">
        <ele>1987.6600000000001</ele>
        <time>2018-09-08T10:29:19Z</time>
      </trkpt>
      <trkpt lat="46.194974072277546" lon="10.863165613263845">
        <ele>1989.0999999999999</ele>
        <time>2018-09-08T10:29:32Z</time>
      </trkpt>
      <trkpt lat="46.194921601563692" lon="10.863235266879201">
        <ele>1990.55</ele>
        <time>2018-09-08T10:29:42Z</time>
      </trkpt>
      <trkpt lat="46.194899389520288" lon="10.863301819190383">
        <ele>1991.51</ele>
        <time>2018-09-08T10:29:52Z</time>
      </trkpt>
      <trkpt lat="46.194848176091909" lon="10.86338572204113">
        <ele>1992.95</ele>
        <time>2018-09-08T10:30:02Z</time>
      </trkpt>
      <trkpt lat="46.194775672629476" lon="10.863456800580025">
        <ele>1993.4300000000001</ele>
        <time>2018-09-08T10:30:11Z</time>
      </trkpt>
      <trkpt lat="46.194727309048176" lon="10.863512624055147">
        <ele>1994.8699999999999</ele>
        <time>2018-09-08T10:30:23Z</time>
      </trkpt>
      <trkpt lat="46.19466352276504" lon="10.863575488328934">
        <ele>1996.3199999999999</ele>
        <time>2018-09-08T10:30:33Z</time>
      </trkpt>
      <trkpt lat="46.194612812250853" lon="10.863642711192369">
        <ele>1997.28</ele>
        <time>2018-09-08T10:30:43Z</time>
      </trkpt>
      <trkpt lat="46.194575093686581" lon="10.863668527454138">
        <ele>1998.72</ele>
        <time>2018-09-08T10:30:53Z</time>
      </trkpt>
      <trkpt lat="46.194561598822474" lon="10.863647237420082">
        <ele>1998.72</ele>
        <time>2018-09-08T10:31:06Z</time>
      </trkpt>
      <trkpt lat="46.194498902186751" lon="10.863691242411733">
        <ele>1999.2</ele>
        <time>2018-09-08T10:31:19Z</time>
      </trkpt>
      <trkpt lat="46.194426734000444" lon="10.863751927390695">
        <ele>2000.1600000000001</ele>
        <time>2018-09-08T10:31:30Z</time>
      </trkpt>
      <trkpt lat="46.19436546228826" lon="10.863814204931259">
        <ele>2001.1199999999999</ele>
        <time>2018-09-08T10:31:41Z</time>
      </trkpt>
      <trkpt lat="46.19430435821414" lon="10.863890899345279">
        <ele>2002.5599999999999</ele>
        <time>2018-09-08T10:31:51Z</time>
      </trkpt>
      <trkpt lat="46.194258173927665" lon="10.863949237391353">
        <ele>2003.52</ele>
        <time>2018-09-08T10:32:01Z</time>
      </trkpt>
      <trkpt lat="46.194204278290272" lon="10.863979998975992">
        <ele>2004.49</ele>
        <time>2018-09-08T10:32:10Z</time>
      </trkpt>
      <trkpt lat="46.194133870303631" lon="10.864025512710214">
        <ele>2006.4100000000001</ele>
        <time>2018-09-08T10:32:23Z</time>
      </trkpt>
      <trkpt lat="46.194052817299962" lon="10.864086365327239">
        <ele>2007.3699999999999</ele>
        <time>2018-09-08T10:32:35Z</time>
      </trkpt>
      <trkpt lat="46.193978218361735" lon="10.864140680059791">
        <ele>2008.3299999999999</ele>
        <time>2018-09-08T10:32:44Z</time>
      </trkpt>
      <trkpt lat="46.193898255005479" lon="10.864162556827068">
        <ele>2009.29</ele>
        <time>2018-09-08T10:32:55Z</time>
      </trkpt>
      <trkpt lat="46.193832373246551" lon="10.864195832982659">
        <ele>2011.22</ele>
        <time>2018-09-08T10:33:06Z</time>
      </trkpt>
      <trkpt lat="46.193818375468254" lon="10.864195162430406">
        <ele>2011.7</ele>
        <time>2018-09-08T10:33:15Z</time>
      </trkpt>
      <trkpt lat="46.193766575306654" lon="10.864238748326898">
        <ele>2012.6600000000001</ele>
        <time>2018-09-08T10:33:27Z</time>
      </trkpt>
      <trkpt lat="46.193684348836541" lon="10.864287195727229">
        <ele>2013.1400000000001</ele>
        <time>2018-09-08T10:33:39Z</time>
      </trkpt>
      <trkpt lat="46.193611845374107" lon="10.864282669499516">
        <ele>2015.54</ele>
        <time>2018-09-08T10:33:50Z</time>
      </trkpt>
      <trkpt lat="46.193550741299987" lon="10.864362716674805">
        <ele>2016.98</ele>
        <time>2018-09-08T10:34:01Z</time>
      </trkpt>
      <trkpt lat="46.193483769893646" lon="10.864419797435403">
        <ele>2018.9100000000001</ele>
        <time>2018-09-08T10:34:12Z</time>
      </trkpt>
      <trkpt lat="46.193426353856921" lon="10.864456929266453">
        <ele>2019.8699999999999</ele>
        <time>2018-09-08T10:34:22Z</time>
      </trkpt>
      <trkpt lat="46.193369776010513" lon="10.864495653659105">
        <ele>2021.79</ele>
        <time>2018-09-08T10:34:32Z</time>
      </trkpt>
      <trkpt lat="46.193323088809848" lon="10.86458676494658">
        <ele>2022.75</ele>
        <time>2018-09-08T10:34:43Z</time>
      </trkpt>
      <trkpt lat="46.193283023312688" lon="10.864655328914523">
        <ele>2023.71</ele>
        <time>2018-09-08T10:34:52Z</time>
      </trkpt>
      <trkpt lat="46.193234995007515" lon="10.864708973094821">
        <ele>2025.1500000000001</ele>
        <time>2018-09-08T10:35:02Z</time>
      </trkpt>
      <trkpt lat="46.193222338333726" lon="10.864741830155253">
        <ele>2025.6400000000001</ele>
        <time>2018-09-08T10:35:06Z</time>
      </trkpt>
      <trkpt lat="46.19318000972271" lon="10.864820368587971">
        <ele>2027.0799999999999</ele>
        <time>2018-09-08T10:35:16Z</time>
      </trkpt>
      <trkpt lat="46.193127371370792" lon="10.864854985848069">
        <ele>2028.52</ele>
        <time>2018-09-08T10:35:27Z</time>
      </trkpt>
      <trkpt lat="46.193061489611864" lon="10.864884071052074">
        <ele>2029.48</ele>
        <time>2018-09-08T10:35:36Z</time>
      </trkpt>
      <trkpt lat="46.193043887615204" lon="10.864877952262759">
        <ele>2030.4400000000001</ele>
        <time>2018-09-08T10:35:45Z</time>
      </trkpt>
      <trkpt lat="46.193003989756107" lon="10.864921370521188">
        <ele>2031.8800000000001</ele>
        <time>2018-09-08T10:35:54Z</time>
      </trkpt>
      <trkpt lat="46.192937856540084" lon="10.864946432411671">
        <ele>2032.3599999999999</ele>
        <time>2018-09-08T10:36:03Z</time>
      </trkpt>
      <trkpt lat="46.192877842113376" lon="10.865030502900481">
        <ele>2033.3299999999999</ele>
        <time>2018-09-08T10:36:14Z</time>
      </trkpt>
      <trkpt lat="46.192833418026567" lon="10.865080039948225">
        <ele>2034.29</ele>
        <time>2018-09-08T10:36:25Z</time>
      </trkpt>
      <trkpt lat="46.192757897078991" lon="10.865109544247389">
        <ele>2035.73</ele>
        <time>2018-09-08T10:36:36Z</time>
      </trkpt>
      <trkpt lat="46.192695535719395" lon="10.865082135424018">
        <ele>2037.1700000000001</ele>
        <time>2018-09-08T10:36:48Z</time>
      </trkpt>
      <trkpt lat="46.192625295370817" lon="10.865083644166589">
        <ele>2038.1300000000001</ele>
        <time>2018-09-08T10:36:59Z</time>
      </trkpt>
      <trkpt lat="46.192549522966146" lon="10.865131421014667">
        <ele>2039.0899999999999</ele>
        <time>2018-09-08T10:37:09Z</time>
      </trkpt>
      <trkpt lat="46.192511385306716" lon="10.865138461813331">
        <ele>2039.5699999999999</ele>
        <time>2018-09-08T10:37:14Z</time>
      </trkpt>
      <trkpt lat="46.192435696721077" lon="10.865163439884782">
        <ele>2040.05</ele>
        <time>2018-09-08T10:37:24Z</time>
      </trkpt>
      <trkpt lat="46.192413819953799" lon="10.865166625007987">
        <ele>2041.02</ele>
        <time>2018-09-08T10:37:34Z</time>
      </trkpt>
      <trkpt lat="46.192408706992865" lon="10.865167798474431">
        <ele>2040.54</ele>
        <time>2018-09-08T10:37:41Z</time>
      </trkpt>
      <trkpt lat="46.192351039499044" lon="10.865216162055731">
        <ele>2041.02</ele>
        <time>2018-09-08T10:37:48Z</time>
      </trkpt>
      <trkpt lat="46.192327402532101" lon="10.865306351333857">
        <ele>2041.5</ele>
        <time>2018-09-08T10:37:56Z</time>
      </trkpt>
      <trkpt lat="46.192299323156476" lon="10.865430571138859">
        <ele>2042.46</ele>
        <time>2018-09-08T10:38:06Z</time>
      </trkpt>
      <trkpt lat="46.192298820242286" lon="10.86544381454587">
        <ele>2042.46</ele>
        <time>2018-09-08T10:38:07Z</time>
      </trkpt>
      <trkpt lat="46.192294713109732" lon="10.865559820085764">
        <ele>2042.46</ele>
        <time>2018-09-08T10:38:16Z</time>
      </trkpt>
      <trkpt lat="46.192289600148797" lon="10.865618074312806">
        <ele>2042.46</ele>
        <time>2018-09-08T10:38:20Z</time>
      </trkpt>
      <trkpt lat="46.192245930433273" lon="10.865760063752532">
        <ele>2042.9400000000001</ele>
        <time>2018-09-08T10:38:31Z</time>
      </trkpt>
      <trkpt lat="46.192190693691373" lon="10.865871207788587">
        <ele>2042.9400000000001</ele>
        <time>2018-09-08T10:38:42Z</time>
      </trkpt>
      <trkpt lat="46.192119363695383" lon="10.865921499207616">
        <ele>2043.9000000000001</ele>
        <time>2018-09-08T10:38:51Z</time>
      </trkpt>
      <trkpt lat="46.192073011770844" lon="10.865972461178899">
        <ele>2044.3800000000001</ele>
        <time>2018-09-08T10:38:59Z</time>
      </trkpt>
      <trkpt lat="46.192009476944804" lon="10.866056615486741">
        <ele>2045.8199999999999</ele>
        <time>2018-09-08T10:39:10Z</time>
      </trkpt>
      <trkpt lat="46.191958598792553" lon="10.866130795329809">
        <ele>2047.75</ele>
        <time>2018-09-08T10:39:20Z</time>
      </trkpt>
      <trkpt lat="46.19191350415349" lon="10.866232300177217">
        <ele>2047.26</ele>
        <time>2018-09-08T10:39:31Z</time>
      </trkpt>
      <trkpt lat="46.191897578537464" lon="10.866286028176546">
        <ele>2046.78</ele>
        <time>2018-09-08T10:39:40Z</time>
      </trkpt>
      <trkpt lat="46.191887352615595" lon="10.866275886073709">
        <ele>2046.78</ele>
        <time>2018-09-08T10:39:50Z</time>
      </trkpt>
      <trkpt lat="46.19189590215683" lon="10.866272114217281">
        <ele>2046.78</ele>
        <time>2018-09-08T10:40:03Z</time>
      </trkpt>
      <trkpt lat="46.191896321251988" lon="10.866291560232639">
        <ele>2046.78</ele>
        <time>2018-09-08T10:40:12Z</time>
      </trkpt>
      <trkpt lat="46.191897243261337" lon="10.866264654323459">
        <ele>2046.78</ele>
        <time>2018-09-08T10:40:29Z</time>
      </trkpt>
      <trkpt lat="46.191915767267346" lon="10.866230707615614">
        <ele>2047.26</ele>
        <time>2018-09-08T10:40:38Z</time>
      </trkpt>
      <trkpt lat="46.191902440041304" lon="10.866263899952173">
        <ele>2046.78</ele>
        <time>2018-09-08T10:40:51Z</time>
      </trkpt>
      <trkpt lat="46.191864553838968" lon="10.866310084238648">
        <ele>2047.26</ele>
        <time>2018-09-08T10:40:59Z</time>
      </trkpt>
      <trkpt lat="46.191837731748819" lon="10.866300612688065">
        <ele>2047.26</ele>
        <time>2018-09-08T10:41:03Z</time>
      </trkpt>
      <trkpt lat="46.191794816404581" lon="10.866323076188564">
        <ele>2047.26</ele>
        <time>2018-09-08T10:41:08Z</time>
      </trkpt>
      <trkpt lat="46.191765060648322" lon="10.86637219414115">
        <ele>2047.75</ele>
        <time>2018-09-08T10:41:13Z</time>
      </trkpt>
      <trkpt lat="46.191720804199576" lon="10.866434639319777">
        <ele>2048.71</ele>
        <time>2018-09-08T10:41:21Z</time>
      </trkpt>
      <trkpt lat="46.191648384556174" lon="10.866508986800909">
        <ele>2049.6700000000001</ele>
        <time>2018-09-08T10:41:31Z</time>
      </trkpt>
      <trkpt lat="46.191590214148164" lon="10.866545783355832">
        <ele>2050.1500000000001</ele>
        <time>2018-09-08T10:41:37Z</time>
      </trkpt>
      <trkpt lat="46.191483680158854" lon="10.866614514961839">
        <ele>2049.6700000000001</ele>
        <time>2018-09-08T10:41:47Z</time>
      </trkpt>
      <trkpt lat="46.191416792571545" lon="10.86658576503396">
        <ele>2049.1900000000001</ele>
        <time>2018-09-08T10:41:55Z</time>
      </trkpt>
      <trkpt lat="46.191284274682403" lon="10.866566989570856">
        <ele>2048.23</ele>
        <time>2018-09-08T10:42:06Z</time>
      </trkpt>
      <trkpt lat="46.191261895000935" lon="10.866565648466349">
        <ele>2048.23</ele>
        <time>2018-09-08T10:42:08Z</time>
      </trkpt>
      <trkpt lat="46.191123425960541" lon="10.866548046469688">
        <ele>2047.26</ele>
        <time>2018-09-08T10:42:20Z</time>
      </trkpt>
      <trkpt lat="46.191036757081747" lon="10.866526588797569">
        <ele>2046.3</ele>
        <time>2018-09-08T10:42:30Z</time>
      </trkpt>
      <trkpt lat="46.191024100407958" lon="10.866521475836635">
        <ele>2045.8199999999999</ele>
        <time>2018-09-08T10:42:31Z</time>
      </trkpt>
      <trkpt lat="46.190984454005957" lon="10.866529354825616">
        <ele>2045.8199999999999</ele>
        <time>2018-09-08T10:42:35Z</time>
      </trkpt>
      <trkpt lat="46.190830143168569" lon="10.866535389795899">
        <ele>2043.9000000000001</ele>
        <time>2018-09-08T10:42:47Z</time>
      </trkpt>
      <trkpt lat="46.190729644149542" lon="10.866578388959169">
        <ele>2042.9400000000001</ele>
        <time>2018-09-08T10:42:56Z</time>
      </trkpt>
      <trkpt lat="46.190664600580931" lon="10.866553829982877">
        <ele>2042.9400000000001</ele>
        <time>2018-09-08T10:43:02Z</time>
      </trkpt>
      <trkpt lat="46.19058103300631" lon="10.866492809727788">
        <ele>2043.4200000000001</ele>
        <time>2018-09-08T10:43:11Z</time>
      </trkpt>
      <trkpt lat="46.190490340813994" lon="10.866502951830626">
        <ele>2044.8599999999999</ele>
        <time>2018-09-08T10:43:21Z</time>
      </trkpt>
      <trkpt lat="46.190390596166253" lon="10.866531785577536">
        <ele>2045.8199999999999</ele>
        <time>2018-09-08T10:43:32Z</time>
      </trkpt>
      <trkpt lat="46.190334437415004" lon="10.866518625989556">
        <ele>2047.26</ele>
        <time>2018-09-08T10:43:40Z</time>
      </trkpt>
      <trkpt lat="46.190268052741885" lon="10.866524409502745">
        <ele>2048.23</ele>
        <time>2018-09-08T10:43:49Z</time>
      </trkpt>
      <trkpt lat="46.190188005566597" lon="10.866538742557168">
        <ele>2049.1900000000001</ele>
        <time>2018-09-08T10:43:59Z</time>
      </trkpt>
      <trkpt lat="46.190107958391309" lon="10.866457857191563">
        <ele>2050.1500000000001</ele>
        <time>2018-09-08T10:44:11Z</time>
      </trkpt>
      <trkpt lat="46.190099911764264" lon="10.866450062021613">
        <ele>2050.1500000000001</ele>
        <time>2018-09-08T10:44:12Z</time>
      </trkpt>
      <trkpt lat="46.190060097724199" lon="10.866389963775873">
        <ele>2050.6300000000001</ele>
        <time>2018-09-08T10:44:18Z</time>
      </trkpt>
      <trkpt lat="46.189936045557261" lon="10.866293404251337">
        <ele>2050.6300000000001</ele>
        <time>2018-09-08T10:44:31Z</time>
      </trkpt>
      <trkpt lat="46.189849209040403" lon="10.866234144195914">
        <ele>2051.1100000000001</ele>
        <time>2018-09-08T10:44:42Z</time>
      </trkpt>
      <trkpt lat="46.189817609265447" lon="10.866209752857685">
        <ele>2051.5900000000001</ele>
        <time>2018-09-08T10:44:46Z</time>
      </trkpt>
      <trkpt lat="46.189762288704515" lon="10.86615476757288">
        <ele>2052.5500000000002</ele>
        <time>2018-09-08T10:44:54Z</time>
      </trkpt>
      <trkpt lat="46.189752817153931" lon="10.866129286587238">
        <ele>2052.5500000000002</ele>
        <time>2018-09-08T10:44:56Z</time>
      </trkpt>
      <trkpt lat="46.189672686159611" lon="10.865996265783906">
        <ele>2053.0300000000002</ele>
        <time>2018-09-08T10:45:08Z</time>
      </trkpt>
      <trkpt lat="46.189600098878145" lon="10.865900879725814">
        <ele>2053.9899999999998</ele>
        <time>2018-09-08T10:45:18Z</time>
      </trkpt>
      <trkpt lat="46.189573360607028" lon="10.865865256637335">
        <ele>2054.4699999999998</ele>
        <time>2018-09-08T10:45:22Z</time>
      </trkpt>
      <trkpt lat="46.189537486061454" lon="10.86582887917757">
        <ele>2054.96</ele>
        <time>2018-09-08T10:45:26Z</time>
      </trkpt>
      <trkpt lat="46.18943564593792" lon="10.865735001862049">
        <ele>2055.4400000000001</ele>
        <time>2018-09-08T10:45:38Z</time>
      </trkpt>
      <trkpt lat="46.189352413639426" lon="10.865667946636677">
        <ele>2055.4400000000001</ele>
        <time>2018-09-08T10:45:47Z</time>
      </trkpt>
      <trkpt lat="46.189298685640097" lon="10.865597454831004">
        <ele>2056.4000000000001</ele>
        <time>2018-09-08T10:45:55Z</time>
      </trkpt>
      <trkpt lat="46.1892104241997" lon="10.865534171462059">
        <ele>2058.3200000000002</ele>
        <time>2018-09-08T10:46:07Z</time>
      </trkpt>
      <trkpt lat="46.189133478328586" lon="10.865450603887439">
        <ele>2059.2800000000002</ele>
        <time>2018-09-08T10:46:17Z</time>
      </trkpt>
      <trkpt lat="46.18903205730021" lon="10.865361001342535">
        <ele>2058.8000000000002</ele>
        <time>2018-09-08T10:46:27Z</time>
      </trkpt>
      <trkpt lat="46.188926780596375" lon="10.865299645811319">
        <ele>2059.2800000000002</ele>
        <time>2018-09-08T10:46:38Z</time>
      </trkpt>
      <trkpt lat="46.188871962949634" lon="10.865245247259736">
        <ele>2059.7600000000002</ele>
        <time>2018-09-08T10:46:45Z</time>
      </trkpt>
      <trkpt lat="46.188856204971671" lon="10.865226974710822">
        <ele>2060.2399999999998</ele>
        <time>2018-09-08T10:46:47Z</time>
      </trkpt>
      <trkpt lat="46.18882636539638" lon="10.865229154005647">
        <ele>2060.7199999999998</ele>
        <time>2018-09-08T10:46:57Z</time>
      </trkpt>
      <trkpt lat="46.188791496679187" lon="10.865213982760906">
        <ele>2062.1700000000001</ele>
        <time>2018-09-08T10:47:03Z</time>
      </trkpt>
      <trkpt lat="46.188707845285535" lon="10.865131504833698">
        <ele>2063.1300000000001</ele>
        <time>2018-09-08T10:47:14Z</time>
      </trkpt>
      <trkpt lat="46.188660487532616" lon="10.865110214799643">
        <ele>2064.5700000000002</ele>
        <time>2018-09-08T10:47:21Z</time>
      </trkpt>
      <trkpt lat="46.188567616045475" lon="10.865031508728862">
        <ele>2066.0100000000002</ele>
        <time>2018-09-08T10:47:32Z</time>
      </trkpt>
      <trkpt lat="46.188513217493892" lon="10.864994460716844">
        <ele>2066.4899999999998</ele>
        <time>2018-09-08T10:47:41Z</time>
      </trkpt>
      <trkpt lat="46.188436103984714" lon="10.864999322220683">
        <ele>2067.9299999999998</ele>
        <time>2018-09-08T10:47:51Z</time>
      </trkpt>
      <trkpt lat="46.188389416784048" lon="10.865058330819011">
        <ele>2069.3800000000001</ele>
        <time>2018-09-08T10:48:01Z</time>
      </trkpt>
      <trkpt lat="46.188372736796737" lon="10.86511155590415">
        <ele>2069.3800000000001</ele>
        <time>2018-09-08T10:48:11Z</time>
      </trkpt>
      <trkpt lat="46.188337616622448" lon="10.86512085981667">
        <ele>2068.4099999999999</ele>
        <time>2018-09-08T10:48:15Z</time>
      </trkpt>
      <trkpt lat="46.188298054039478" lon="10.865105940029025">
        <ele>2067.4499999999998</ele>
        <time>2018-09-08T10:48:20Z</time>
      </trkpt>
      <trkpt lat="46.188177857547998" lon="10.865094373002648">
        <ele>2065.5300000000002</ele>
        <time>2018-09-08T10:48:32Z</time>
      </trkpt>
      <trkpt lat="46.188168218359351" lon="10.865099150687456">
        <ele>2065.5300000000002</ele>
        <time>2018-09-08T10:48:33Z</time>
      </trkpt>
      <trkpt lat="46.188130667433143" lon="10.865087583661079">
        <ele>2065.0500000000002</ele>
        <time>2018-09-08T10:48:44Z</time>
      </trkpt>
      <trkpt lat="46.188124716281891" lon="10.865092193707824">
        <ele>2064.5700000000002</ele>
        <time>2018-09-08T10:48:46Z</time>
      </trkpt>
      <trkpt lat="46.188107030466199" lon="10.865084314718843">
        <ele>2064.0900000000001</ele>
        <time>2018-09-08T10:48:48Z</time>
      </trkpt>
      <trkpt lat="46.187989516183734" lon="10.865158746019006">
        <ele>2061.1999999999998</ele>
        <time>2018-09-08T10:48:59Z</time>
      </trkpt>
      <trkpt lat="46.187903182581067" lon="10.865183472633362">
        <ele>2060.7199999999998</ele>
        <time>2018-09-08T10:49:08Z</time>
      </trkpt>
      <trkpt lat="46.187779884785414" lon="10.865192273631692">
        <ele>2059.7600000000002</ele>
        <time>2018-09-08T10:49:20Z</time>
      </trkpt>
      <trkpt lat="46.187675697728992" lon="10.865089762955904">
        <ele>2059.2800000000002</ele>
        <time>2018-09-08T10:49:32Z</time>
      </trkpt>
      <trkpt lat="46.187636386603117" lon="10.865116668865085">
        <ele>2058.8000000000002</ele>
        <time>2018-09-08T10:49:40Z</time>
      </trkpt>
      <trkpt lat="46.187578216195107" lon="10.865192525088787">
        <ele>2055.9200000000001</ele>
        <time>2018-09-08T10:49:50Z</time>
      </trkpt>
      <trkpt lat="46.187489619478583" lon="10.865303250029683">
        <ele>2053.0300000000002</ele>
        <time>2018-09-08T10:50:04Z</time>
      </trkpt>
      <trkpt lat="46.187491212040186" lon="10.865393271669745">
        <ele>2053.0300000000002</ele>
        <time>2018-09-08T10:50:14Z</time>
      </trkpt>
      <trkpt lat="46.187491212040186" lon="10.865428224205971">
        <ele>2053.0300000000002</ele>
        <time>2018-09-08T10:50:17Z</time>
      </trkpt>
      <trkpt lat="46.187485177069902" lon="10.865468205884099">
        <ele>2052.5500000000002</ele>
        <time>2018-09-08T10:50:21Z</time>
      </trkpt>
      <trkpt lat="46.187464809045196" lon="10.865528807044029">
        <ele>2051.1100000000001</ele>
        <time>2018-09-08T10:50:25Z</time>
      </trkpt>
      <trkpt lat="46.187528427690268" lon="10.865692840889096">
        <ele>2048.71</ele>
        <time>2018-09-08T10:50:37Z</time>
      </trkpt>
      <trkpt lat="46.187560111284256" lon="10.865752100944519">
        <ele>2048.23</ele>
        <time>2018-09-08T10:50:41Z</time>
      </trkpt>
      <trkpt lat="46.187568325549364" lon="10.86579711176455">
        <ele>2048.23</ele>
        <time>2018-09-08T10:50:44Z</time>
      </trkpt>
      <trkpt lat="46.1875353846699" lon="10.865856958553195">
        <ele>2049.1900000000001</ele>
        <time>2018-09-08T10:50:52Z</time>
      </trkpt>
      <trkpt lat="46.187520464882255" lon="10.865870621055365">
        <ele>2049.6700000000001</ele>
        <time>2018-09-08T10:50:54Z</time>
      </trkpt>
      <trkpt lat="46.18744301609695" lon="10.865914458408952">
        <ele>2047.75</ele>
        <time>2018-09-08T10:51:02Z</time>
      </trkpt>
      <trkpt lat="46.187414852902293" lon="10.865986123681068">
        <ele>2046.78</ele>
        <time>2018-09-08T10:51:07Z</time>
      </trkpt>
      <trkpt lat="46.187379062175751" lon="10.866088718175888">
        <ele>2046.3</ele>
        <time>2018-09-08T10:51:13Z</time>
      </trkpt>
      <trkpt lat="46.187340253964067" lon="10.866125179454684">
        <ele>2046.78</ele>
        <time>2018-09-08T10:51:17Z</time>
      </trkpt>
      <trkpt lat="46.187223494052887" lon="10.866259373724461">
        <ele>2044.8599999999999</ele>
        <time>2018-09-08T10:51:29Z</time>
      </trkpt>
      <trkpt lat="46.187123330309987" lon="10.866391807794571">
        <ele>2044.3800000000001</ele>
        <time>2018-09-08T10:51:41Z</time>
      </trkpt>
      <trkpt lat="46.18707756511867" lon="10.866469759494066">
        <ele>2044.8599999999999</ele>
        <time>2018-09-08T10:51:51Z</time>
      </trkpt>
      <trkpt lat="46.187019813805819" lon="10.866519799456">
        <ele>2045.8199999999999</ele>
        <time>2018-09-08T10:52:00Z</time>
      </trkpt>
      <trkpt lat="46.186956446617842" lon="10.866564055904746">
        <ele>2048.23</ele>
        <time>2018-09-08T10:52:10Z</time>
      </trkpt>
      <trkpt lat="46.18691336363554" lon="10.866590542718768">
        <ele>2049.1900000000001</ele>
        <time>2018-09-08T10:52:19Z</time>
      </trkpt>
      <trkpt lat="46.186878997832537" lon="10.86663169786334">
        <ele>2051.1100000000001</ele>
        <time>2018-09-08T10:52:28Z</time>
      </trkpt>
      <trkpt lat="46.186850666999817" lon="10.866576125845313">
        <ele>2052.5500000000002</ele>
        <time>2018-09-08T10:52:38Z</time>
      </trkpt>
      <trkpt lat="46.186833148822188" lon="10.866545615717769">
        <ele>2052.0700000000002</ele>
        <time>2018-09-08T10:52:54Z</time>
      </trkpt>
      <trkpt lat="46.186876399442554" lon="10.866543771699071">
        <ele>2052.5500000000002</ele>
        <time>2018-09-08T10:53:16Z</time>
      </trkpt>
      <trkpt lat="46.186817307025194" lon="10.866540083661675">
        <ele>2052.5500000000002</ele>
        <time>2018-09-08T10:53:33Z</time>
      </trkpt>
      <trkpt lat="46.186800459399819" lon="10.866530360653996">
        <ele>2052.5500000000002</ele>
        <time>2018-09-08T10:53:46Z</time>
      </trkpt>
      <trkpt lat="46.186789982020855" lon="10.866515524685383">
        <ele>2052.5500000000002</ele>
        <time>2018-09-08T10:54:08Z</time>
      </trkpt>
      <trkpt lat="46.186764584854245" lon="10.866553913801908">
        <ele>2053.5100000000002</ele>
        <time>2018-09-08T10:54:18Z</time>
      </trkpt>
      <trkpt lat="46.186718735843897" lon="10.866609150543809">
        <ele>2055.4400000000001</ele>
        <time>2018-09-08T10:54:28Z</time>
      </trkpt>
      <trkpt lat="46.186650339514017" lon="10.866649718955159">
        <ele>2057.3600000000001</ele>
        <time>2018-09-08T10:54:40Z</time>
      </trkpt>
      <trkpt lat="46.186590241268277" lon="10.866682073101401">
        <ele>2059.7600000000002</ele>
        <time>2018-09-08T10:54:52Z</time>
      </trkpt>
      <trkpt lat="46.186546320095658" lon="10.866735130548477">
        <ele>2061.1999999999998</ele>
        <time>2018-09-08T10:55:03Z</time>
      </trkpt>
      <trkpt lat="46.186496363952756" lon="10.866738148033619">
        <ele>2063.1300000000001</ele>
        <time>2018-09-08T10:55:11Z</time>
      </trkpt>
      <trkpt lat="46.186466440558434" lon="10.866747871041298">
        <ele>2064.5700000000002</ele>
        <time>2018-09-08T10:55:20Z</time>
      </trkpt>
      <trkpt lat="46.186426542699337" lon="10.866747787222266">
        <ele>2066.0100000000002</ele>
        <time>2018-09-08T10:55:30Z</time>
      </trkpt>
      <trkpt lat="46.186387399211526" lon="10.86676605977118">
        <ele>2067.9299999999998</ele>
        <time>2018-09-08T10:55:40Z</time>
      </trkpt>
      <trkpt lat="46.186367198824883" lon="10.866782572120428">
        <ele>2067.9299999999998</ele>
        <time>2018-09-08T10:55:44Z</time>
      </trkpt>
      <trkpt lat="46.186326881870627" lon="10.86680662818253">
        <ele>2067.9299999999998</ele>
        <time>2018-09-08T10:55:48Z</time>
      </trkpt>
      <trkpt lat="46.186263933777809" lon="10.866873851045966">
        <ele>2068.8899999999999</ele>
        <time>2018-09-08T10:55:58Z</time>
      </trkpt>
      <trkpt lat="46.186180366203189" lon="10.866873767226934">
        <ele>2069.8600000000001</ele>
        <time>2018-09-08T10:56:10Z</time>
      </trkpt>
      <trkpt lat="46.186169888824224" lon="10.866871168836951">
        <ele>2069.8600000000001</ele>
        <time>2018-09-08T10:56:11Z</time>
      </trkpt>
      <trkpt lat="46.186079448089004" lon="10.866875778883696">
        <ele>2070.3400000000001</ele>
        <time>2018-09-08T10:56:22Z</time>
      </trkpt>
      <trkpt lat="46.186001412570477" lon="10.866899080574512">
        <ele>2071.3000000000002</ele>
        <time>2018-09-08T10:56:33Z</time>
      </trkpt>
      <trkpt lat="46.185913486406207" lon="10.866906624287367">
        <ele>2071.7800000000002</ele>
        <time>2018-09-08T10:56:43Z</time>
      </trkpt>
      <trkpt lat="46.18583008646965" lon="10.866911401972175">
        <ele>2071.7800000000002</ele>
        <time>2018-09-08T10:56:53Z</time>
      </trkpt>
      <trkpt lat="46.18581592105329" lon="10.86691458709538">
        <ele>2071.7800000000002</ele>
        <time>2018-09-08T10:56:55Z</time>
      </trkpt>
      <trkpt lat="46.185796977952123" lon="10.866909306496382">
        <ele>2071.7800000000002</ele>
        <time>2018-09-08T10:56:57Z</time>
      </trkpt>
      <trkpt lat="46.185779627412558" lon="10.866912323981524">
        <ele>2071.7800000000002</ele>
        <time>2018-09-08T10:56:59Z</time>
      </trkpt>
      <trkpt lat="46.185708632692695" lon="10.86690092459321">
        <ele>2072.7399999999998</ele>
        <time>2018-09-08T10:57:10Z</time>
      </trkpt>
      <trkpt lat="46.185725228860974" lon="10.866902181878686">
        <ele>2072.2600000000002</ele>
        <time>2018-09-08T10:57:20Z</time>
      </trkpt>
      <trkpt lat="46.185709638521075" lon="10.866902936249971">
        <ele>2072.2600000000002</ele>
        <time>2018-09-08T10:57:32Z</time>
      </trkpt>
      <trkpt lat="46.185597153380513" lon="10.86690042167902">
        <ele>2073.2199999999998</ele>
        <time>2018-09-08T10:57:45Z</time>
      </trkpt>
      <trkpt lat="46.185559183359146" lon="10.866939229890704">
        <ele>2075.1399999999999</ele>
        <time>2018-09-08T10:57:55Z</time>
      </trkpt>
      <trkpt lat="46.185519704595208" lon="10.867013074457645">
        <ele>2075.6199999999999</ele>
        <time>2018-09-08T10:58:06Z</time>
      </trkpt>
      <trkpt lat="46.185478549450636" lon="10.867067389190197">
        <ele>2077.0700000000002</ele>
        <time>2018-09-08T10:58:14Z</time>
      </trkpt>
      <trkpt lat="46.185403866693377" lon="10.867120698094368">
        <ele>2078.5100000000002</ele>
        <time>2018-09-08T10:58:25Z</time>
      </trkpt>
      <trkpt lat="46.185365561395884" lon="10.867173336446285">
        <ele>2079.9499999999998</ele>
        <time>2018-09-08T10:58:34Z</time>
      </trkpt>
      <trkpt lat="46.185343097895384" lon="10.867236033082008">
        <ele>2081.8699999999999</ele>
        <time>2018-09-08T10:58:44Z</time>
      </trkpt>
      <trkpt lat="46.18529942817986" lon="10.867289006710052">
        <ele>2083.3099999999999</ele>
        <time>2018-09-08T10:58:53Z</time>
      </trkpt>
      <trkpt lat="46.185270510613918" lon="10.867344997823238">
        <ele>2084.7600000000002</ele>
        <time>2018-09-08T10:59:03Z</time>
      </trkpt>
      <trkpt lat="46.18526816368103" lon="10.867363102734089">
        <ele>2085.2399999999998</ele>
        <time>2018-09-08T10:59:05Z</time>
      </trkpt>
      <trkpt lat="46.185232289135456" lon="10.867412723600864">
        <ele>2086.1999999999998</ele>
        <time>2018-09-08T10:59:13Z</time>
      </trkpt>
      <trkpt lat="46.18520462885499" lon="10.867466200143099">
        <ele>2088.1199999999999</ele>
        <time>2018-09-08T10:59:23Z</time>
      </trkpt>
      <trkpt lat="46.185159115120769" lon="10.86753074079752">
        <ele>2089.5599999999999</ele>
        <time>2018-09-08T10:59:34Z</time>
      </trkpt>
      <trkpt lat="46.185114188119769" lon="10.86759771220386">
        <ele>2090.52</ele>
        <time>2018-09-08T10:59:44Z</time>
      </trkpt>
      <trkpt lat="46.185081666335464" lon="10.867657223716378">
        <ele>2091.9699999999998</ele>
        <time>2018-09-08T10:59:55Z</time>
      </trkpt>
      <trkpt lat="46.185007905587554" lon="10.86771153844893">
        <ele>2092.9299999999998</ele>
        <time>2018-09-08T11:00:06Z</time>
      </trkpt>
      <trkpt lat="46.184933558106422" lon="10.867728721350431">
        <ele>2094.3699999999999</ele>
        <time>2018-09-08T11:00:18Z</time>
      </trkpt>
      <trkpt lat="46.184877650812268" lon="10.86774967610836">
        <ele>2095.8099999999999</ele>
        <time>2018-09-08T11:00:28Z</time>
      </trkpt>
      <trkpt lat="46.184835406020284" lon="10.867807678878307">
        <ele>2096.77</ele>
        <time>2018-09-08T11:00:39Z</time>
      </trkpt>
      <trkpt lat="46.184822833165526" lon="10.86783810518682">
        <ele>2097.73</ele>
        <time>2018-09-08T11:00:44Z</time>
      </trkpt>
      <trkpt lat="46.184799196198583" lon="10.867870124056935">
        <ele>2097.73</ele>
        <time>2018-09-08T11:00:55Z</time>
      </trkpt>
      <trkpt lat="46.184736751019955" lon="10.867892419919372">
        <ele>2097.73</ele>
        <time>2018-09-08T11:01:05Z</time>
      </trkpt>
      <trkpt lat="46.184717724099755" lon="10.867907842621207">
        <ele>2097.73</ele>
        <time>2018-09-08T11:01:08Z</time>
      </trkpt>
      <trkpt lat="46.184655530378222" lon="10.867989985272288">
        <ele>2099.1799999999998</ele>
        <time>2018-09-08T11:01:18Z</time>
      </trkpt>
      <trkpt lat="46.184631390497088" lon="10.868032481521368">
        <ele>2100.6199999999999</ele>
        <time>2018-09-08T11:01:29Z</time>
      </trkpt>
      <trkpt lat="46.184623679146171" lon="10.86805259808898">
        <ele>2102.0599999999999</ele>
        <time>2018-09-08T11:01:38Z</time>
      </trkpt>
      <trkpt lat="46.184597611427307" lon="10.868037007749081">
        <ele>2101.0999999999999</ele>
        <time>2018-09-08T11:01:58Z</time>
      </trkpt>
      <trkpt lat="46.18458017706871" lon="10.868027033284307">
        <ele>2100.6199999999999</ele>
        <time>2018-09-08T11:02:24Z</time>
      </trkpt>
      <trkpt lat="46.184565089643002" lon="10.868048910051584">
        <ele>2101.0999999999999</ele>
        <time>2018-09-08T11:02:34Z</time>
      </trkpt>
      <trkpt lat="46.184517480432987" lon="10.868108505383134">
        <ele>2102.54</ele>
        <time>2018-09-08T11:02:45Z</time>
      </trkpt>
      <trkpt lat="46.184465931728482" lon="10.86816449649632">
        <ele>2104.46</ele>
        <time>2018-09-08T11:02:55Z</time>
      </trkpt>
      <trkpt lat="46.184400385245681" lon="10.868206825107336">
        <ele>2106.3899999999999</ele>
        <time>2018-09-08T11:03:06Z</time>
      </trkpt>
      <trkpt lat="46.184343053027987" lon="10.868258122354746">
        <ele>2107.3499999999999</ele>
        <time>2018-09-08T11:03:17Z</time>
      </trkpt>
      <trkpt lat="46.184284798800945" lon="10.868316125124693">
        <ele>2109.27</ele>
        <time>2018-09-08T11:03:28Z</time>
      </trkpt>
      <trkpt lat="46.184215983375907" lon="10.868382006883621">
        <ele>2111.1900000000001</ele>
        <time>2018-09-08T11:03:39Z</time>
      </trkpt>
      <trkpt lat="46.184152867645025" lon="10.868425760418177">
        <ele>2113.1199999999999</ele>
        <time>2018-09-08T11:03:52Z</time>
      </trkpt>
      <trkpt lat="46.184114813804626" lon="10.868499269708991">
        <ele>2115.04</ele>
        <time>2018-09-08T11:04:03Z</time>
      </trkpt>
      <trkpt lat="46.184063097462058" lon="10.868525672703981">
        <ele>2116.48</ele>
        <time>2018-09-08T11:04:14Z</time>
      </trkpt>
      <trkpt lat="46.184016158804297" lon="10.868532294407487">
        <ele>2117.9200000000001</ele>
        <time>2018-09-08T11:04:22Z</time>
      </trkpt>
      <trkpt lat="46.183978021144867" lon="10.868595913052559">
        <ele>2119.3600000000001</ele>
        <time>2018-09-08T11:04:33Z</time>
      </trkpt>
      <trkpt lat="46.183958491310477" lon="10.868581999093294">
        <ele>2120.3200000000002</ele>
        <time>2018-09-08T11:04:44Z</time>
      </trkpt>
      <trkpt lat="46.183949271216989" lon="10.868636816740036">
        <ele>2120.8099999999999</ele>
        <time>2018-09-08T11:04:54Z</time>
      </trkpt>
      <trkpt lat="46.183939129114151" lon="10.868713846430182">
        <ele>2120.8099999999999</ele>
        <time>2018-09-08T11:05:00Z</time>
      </trkpt>
      <trkpt lat="46.183907445520163" lon="10.868761539459229">
        <ele>2120.3200000000002</ele>
        <time>2018-09-08T11:05:04Z</time>
      </trkpt>
      <trkpt lat="46.183837708085775" lon="10.868779979646206">
        <ele>2120.3200000000002</ele>
        <time>2018-09-08T11:05:14Z</time>
      </trkpt>
      <trkpt lat="46.18381155654788" lon="10.868783416226506">
        <ele>2120.3200000000002</ele>
        <time>2018-09-08T11:05:26Z</time>
      </trkpt>
      <trkpt lat="46.183731257915497" lon="10.868810992687941">
        <ele>2120.8099999999999</ele>
        <time>2018-09-08T11:05:35Z</time>
      </trkpt>
      <trkpt lat="46.18154626339674" lon="10.869425470009446">
        <ele>2093.8899999999999</ele>
        <time>2018-09-08T11:17:41Z</time>
      </trkpt>
      <trkpt lat="46.18178372271359" lon="10.869657397270203">
        <ele>2093.8899999999999</ele>
        <time>2018-09-08T11:18:01Z</time>
      </trkpt>
      <trkpt lat="46.181754386052489" lon="10.869630994275212">
        <ele>2094.3699999999999</ele>
        <time>2018-09-08T11:18:13Z</time>
      </trkpt>
      <trkpt lat="46.18179545737803" lon="10.869689835235476">
        <ele>2094.3699999999999</ele>
        <time>2018-09-08T11:18:29Z</time>
      </trkpt>
      <trkpt lat="46.181820100173354" lon="10.869690421968699">
        <ele>2094.8499999999999</ele>
        <time>2018-09-08T11:18:47Z</time>
      </trkpt>
      <trkpt lat="46.18177198804915" lon="10.869712382555008">
        <ele>2095.3299999999999</ele>
        <time>2018-09-08T11:19:11Z</time>
      </trkpt>
      <trkpt lat="46.181762600317597" lon="10.869723279029131">
        <ele>2096.29</ele>
        <time>2018-09-08T11:19:17Z</time>
      </trkpt>
      <trkpt lat="46.181892603635788" lon="10.869658151641488">
        <ele>2096.77</ele>
        <time>2018-09-08T11:19:38Z</time>
      </trkpt>
      <trkpt lat="46.181729407981038" lon="10.869281301274896">
        <ele>2095.3299999999999</ele>
        <time>2018-09-08T11:19:46Z</time>
      </trkpt>
      <trkpt lat="46.181704932823777" lon="10.869071502238512">
        <ele>2094.8499999999999</ele>
        <time>2018-09-08T11:19:55Z</time>
      </trkpt>
      <trkpt lat="46.181724797934294" lon="10.869049290195107">
        <ele>2098.6999999999998</ele>
        <time>2018-09-08T11:20:01Z</time>
      </trkpt>
      <trkpt lat="46.181753799319267" lon="10.869048954918981">
        <ele>2102.0599999999999</ele>
        <time>2018-09-08T11:20:06Z</time>
      </trkpt>
      <trkpt lat="46.181759834289551" lon="10.869034118950367">
        <ele>2103.98</ele>
        <time>2018-09-08T11:20:12Z</time>
      </trkpt>
      <trkpt lat="46.181833511218429" lon="10.86903277784586">
        <ele>2106.8699999999999</ele>
        <time>2018-09-08T11:20:19Z</time>
      </trkpt>
      <trkpt lat="46.181910540908575" lon="10.8690738491714">
        <ele>2109.75</ele>
        <time>2018-09-08T11:20:27Z</time>
      </trkpt>
      <trkpt lat="46.182041466236115" lon="10.869113244116306">
        <ele>2110.23</ele>
        <time>2018-09-08T11:20:36Z</time>
      </trkpt>
      <trkpt lat="46.182088237255812" lon="10.869134617969394">
        <ele>2111.1900000000001</ele>
        <time>2018-09-08T11:20:40Z</time>
      </trkpt>
      <trkpt lat="46.182150179520249" lon="10.869136629626155">
        <ele>2111.6700000000001</ele>
        <time>2018-09-08T11:20:45Z</time>
      </trkpt>
      <trkpt lat="46.182224946096539" lon="10.869175521656871">
        <ele>2112.1500000000001</ele>
        <time>2018-09-08T11:20:51Z</time>
      </trkpt>
      <trkpt lat="46.18227087892592" lon="10.86921114474535">
        <ele>2112.6300000000001</ele>
        <time>2018-09-08T11:20:57Z</time>
      </trkpt>
      <trkpt lat="46.182343466207385" lon="10.8692776132375">
        <ele>2115.04</ele>
        <time>2018-09-08T11:21:09Z</time>
      </trkpt>
      <trkpt lat="46.182354781776667" lon="10.869278954342008">
        <ele>2115.04</ele>
        <time>2018-09-08T11:21:10Z</time>
      </trkpt>
      <trkpt lat="46.182380430400372" lon="10.869296975433826">
        <ele>2116.48</ele>
        <time>2018-09-08T11:21:15Z</time>
      </trkpt>
      <trkpt lat="46.182423764839768" lon="10.869297562167048">
        <ele>2117.9200000000001</ele>
        <time>2018-09-08T11:21:26Z</time>
      </trkpt>
      <trkpt lat="46.182482354342937" lon="10.869283396750689">
        <ele>2120.3200000000002</ele>
        <time>2018-09-08T11:21:36Z</time>
      </trkpt>
      <trkpt lat="46.182494005188346" lon="10.869251126423478">
        <ele>2121.77</ele>
        <time>2018-09-08T11:21:43Z</time>
      </trkpt>
      <trkpt lat="46.182500291615725" lon="10.869238050654531">
        <ele>2122.73</ele>
        <time>2018-09-08T11:21:54Z</time>
      </trkpt>
      <trkpt lat="46.18250884115696" lon="10.869195302948356">
        <ele>2123.6900000000001</ele>
        <time>2018-09-08T11:21:58Z</time>
      </trkpt>
      <trkpt lat="46.182523258030415" lon="10.869131265208125">
        <ele>2124.6500000000001</ele>
        <time>2018-09-08T11:22:05Z</time>
      </trkpt>
      <trkpt lat="46.182515043765306" lon="10.869069071486592">
        <ele>2125.1300000000001</ele>
        <time>2018-09-08T11:22:10Z</time>
      </trkpt>
      <trkpt lat="46.18252107873559" lon="10.869038142263889">
        <ele>2125.1300000000001</ele>
        <time>2018-09-08T11:22:14Z</time>
      </trkpt>
      <trkpt lat="46.182547314092517" lon="10.86901081725955">
        <ele>2125.1300000000001</ele>
        <time>2018-09-08T11:22:17Z</time>
      </trkpt>
      <trkpt lat="46.182575142011046" lon="10.868922472000122">
        <ele>2126.5700000000002</ele>
        <time>2018-09-08T11:22:26Z</time>
      </trkpt>
      <trkpt lat="46.182607412338257" lon="10.868908558040857">
        <ele>2126.5700000000002</ele>
        <time>2018-09-08T11:22:29Z</time>
      </trkpt>
      <trkpt lat="46.182704977691174" lon="10.868934625759721">
        <ele>2127.0500000000002</ele>
        <time>2018-09-08T11:22:35Z</time>
      </trkpt>
      <trkpt lat="46.18271604180336" lon="10.868936218321323">
        <ele>2127.0500000000002</ele>
        <time>2018-09-08T11:22:36Z</time>
      </trkpt>
      <trkpt lat="46.182750491425395" lon="10.868929345160723">
        <ele>2126.0900000000001</ele>
        <time>2018-09-08T11:22:39Z</time>
      </trkpt>
      <trkpt lat="46.182780750095844" lon="10.868924902752042">
        <ele>2126.0900000000001</ele>
        <time>2018-09-08T11:22:49Z</time>
      </trkpt>
      <trkpt lat="46.182819977402687" lon="10.868920460343361">
        <ele>2125.6100000000001</ele>
        <time>2018-09-08T11:22:54Z</time>
      </trkpt>
      <trkpt lat="46.182848978787661" lon="10.868933536112309">
        <ele>2125.6100000000001</ele>
        <time>2018-09-08T11:23:02Z</time>
      </trkpt>
      <trkpt lat="46.182834226638079" lon="10.868940073996782">
        <ele>2125.1300000000001</ele>
        <time>2018-09-08T11:23:13Z</time>
      </trkpt>
      <trkpt lat="46.182822240516543" lon="10.868944684043527">
        <ele>2124.6500000000001</ele>
        <time>2018-09-08T11:23:40Z</time>
      </trkpt>
      <trkpt lat="46.182818803936243" lon="10.868941666558385">
        <ele>2125.1300000000001</ele>
        <time>2018-09-08T11:23:59Z</time>
      </trkpt>
      <trkpt lat="46.182815451174974" lon="10.868930853903294">
        <ele>2125.1300000000001</ele>
        <time>2018-09-08T11:24:23Z</time>
      </trkpt>
      <trkpt lat="46.182811427861452" lon="10.868942337110639">
        <ele>2125.1300000000001</ele>
        <time>2018-09-08T11:24:54Z</time>
      </trkpt>
      <trkpt lat="46.182812601327896" lon="10.868944181129336">
        <ele>2125.1300000000001</ele>
        <time>2018-09-08T11:25:20Z</time>
      </trkpt>
      <trkpt lat="46.182827102020383" lon="10.86894191801548">
        <ele>2124.6500000000001</ele>
        <time>2018-09-08T11:25:46Z</time>
      </trkpt>
      <trkpt lat="46.182816624641418" lon="10.868926411494613">
        <ele>2124.6500000000001</ele>
        <time>2018-09-08T11:26:13Z</time>
      </trkpt>
      <trkpt lat="46.182825341820717" lon="10.868938565254211">
        <ele>2124.6500000000001</ele>
        <time>2018-09-08T11:26:44Z</time>
      </trkpt>
      <trkpt lat="46.182821737602353" lon="10.868940325453877">
        <ele>2124.1700000000001</ele>
        <time>2018-09-08T11:27:18Z</time>
      </trkpt>
      <trkpt lat="46.182831460610032" lon="10.868946528062224">
        <ele>2124.1700000000001</ele>
        <time>2018-09-08T11:27:50Z</time>
      </trkpt>
      <trkpt lat="46.182837579399347" lon="10.868950635194778">
        <ele>2124.1700000000001</ele>
        <time>2018-09-08T11:28:19Z</time>
      </trkpt>
      <trkpt lat="46.182831963524222" lon="10.868938062340021">
        <ele>2124.1700000000001</ele>
        <time>2018-09-08T11:28:43Z</time>
      </trkpt>
      <trkpt lat="46.182828694581985" lon="10.868944684043527">
        <ele>2124.1700000000001</ele>
        <time>2018-09-08T11:29:11Z</time>
      </trkpt>
      <trkpt lat="46.182837327942252" lon="10.8689443487674">
        <ele>2124.6500000000001</ele>
        <time>2018-09-08T11:29:51Z</time>
      </trkpt>
      <trkpt lat="46.18283573538065" lon="10.868938816711307">
        <ele>2124.6500000000001</ele>
        <time>2018-09-08T11:30:30Z</time>
      </trkpt>
      <trkpt lat="46.182832550257444" lon="10.868942588567734">
        <ele>2125.1300000000001</ele>
        <time>2018-09-08T11:31:07Z</time>
      </trkpt>
      <trkpt lat="46.182831460610032" lon="10.868943510577083">
        <ele>2125.1300000000001</ele>
        <time>2018-09-08T11:31:40Z</time>
      </trkpt>
      <trkpt lat="46.182823916897178" lon="10.868941163644195">
        <ele>2125.1300000000001</ele>
        <time>2018-09-08T11:32:10Z</time>
      </trkpt>
      <trkpt lat="46.182832214981318" lon="10.868928423151374">
        <ele>2124.6500000000001</ele>
        <time>2018-09-08T11:32:39Z</time>
      </trkpt>
      <trkpt lat="46.182842440903187" lon="10.868945019319654">
        <ele>2125.1300000000001</ele>
        <time>2018-09-08T11:33:10Z</time>
      </trkpt>
      <trkpt lat="46.182837495580316" lon="10.86893898434937">
        <ele>2125.1300000000001</ele>
        <time>2018-09-08T11:33:38Z</time>
      </trkpt>
      <trkpt lat="46.182827856391668" lon="10.868933284655213">
        <ele>2125.1300000000001</ele>
        <time>2018-09-08T11:34:11Z</time>
      </trkpt>
      <trkpt lat="46.182827353477478" lon="10.86894677951932">
        <ele>2125.1300000000001</ele>
        <time>2018-09-08T11:34:36Z</time>
      </trkpt>
      <trkpt lat="46.182831795886159" lon="10.86895021609962">
        <ele>2125.1300000000001</ele>
        <time>2018-09-08T11:34:57Z</time>
      </trkpt>
      <trkpt lat="46.182843614369631" lon="10.868956837803125">
        <ele>2125.6100000000001</ele>
        <time>2018-09-08T11:35:25Z</time>
      </trkpt>
      <trkpt lat="46.182871190831065" lon="10.868976702913642">
        <ele>2125.6100000000001</ele>
        <time>2018-09-08T11:35:57Z</time>
      </trkpt>
      <trkpt lat="46.182849146425724" lon="10.868950467556715">
        <ele>2125.6100000000001</ele>
        <time>2018-09-08T11:36:19Z</time>
      </trkpt>
      <trkpt lat="46.182843698188663" lon="10.868937224149704">
        <ele>2125.6100000000001</ele>
        <time>2018-09-08T11:36:46Z</time>
      </trkpt>
      <trkpt lat="46.182825593277812" lon="10.868919957429171">
        <ele>2125.6100000000001</ele>
        <time>2018-09-08T11:37:16Z</time>
      </trkpt>
      <trkpt lat="46.182836322113872" lon="10.868953568860888">
        <ele>2125.6100000000001</ele>
        <time>2018-09-08T11:37:45Z</time>
      </trkpt>
      <trkpt lat="46.182839088141918" lon="10.868938062340021">
        <ele>2125.6100000000001</ele>
        <time>2018-09-08T11:38:10Z</time>
      </trkpt>
      <trkpt lat="46.182829532772303" lon="10.868940241634846">
        <ele>2126.0900000000001</ele>
        <time>2018-09-08T11:38:36Z</time>
      </trkpt>
      <trkpt lat="46.182815618813038" lon="10.868937643244863">
        <ele>2125.6100000000001</ele>
        <time>2018-09-08T11:39:01Z</time>
      </trkpt>
      <trkpt lat="46.182815870270133" lon="10.868948036804795">
        <ele>2126.0900000000001</ele>
        <time>2018-09-08T11:39:22Z</time>
      </trkpt>
      <trkpt lat="46.182837998494506" lon="10.868952227756381">
        <ele>2126.0900000000001</ele>
        <time>2018-09-08T11:39:55Z</time>
      </trkpt>
      <trkpt lat="46.182843949645758" lon="10.868953485041857">
        <ele>2126.0900000000001</ele>
        <time>2018-09-08T11:40:28Z</time>
      </trkpt>
      <trkpt lat="46.182853924110532" lon="10.868964213877916">
        <ele>2126.0900000000001</ele>
        <time>2018-09-08T11:41:01Z</time>
      </trkpt>
      <trkpt lat="46.182852583006024" lon="10.868959184736013">
        <ele>2125.6100000000001</ele>
        <time>2018-09-08T11:41:37Z</time>
      </trkpt>
      <trkpt lat="46.182848811149597" lon="10.868961196392775">
        <ele>2125.6100000000001</ele>
        <time>2018-09-08T11:42:05Z</time>
      </trkpt>
      <trkpt lat="46.182837411761284" lon="10.868951641023159">
        <ele>2126.0900000000001</ele>
        <time>2018-09-08T11:42:32Z</time>
      </trkpt>
      <trkpt lat="46.182848056778312" lon="10.868965806439519">
        <ele>2126.0900000000001</ele>
        <time>2018-09-08T11:43:04Z</time>
      </trkpt>
      <trkpt lat="46.182841267436743" lon="10.86895365267992">
        <ele>2126.0900000000001</ele>
        <time>2018-09-08T11:43:31Z</time>
      </trkpt>
      <trkpt lat="46.182847889140248" lon="10.868958765640855">
        <ele>2126.0900000000001</ele>
        <time>2018-09-08T11:43:54Z</time>
      </trkpt>
      <trkpt lat="46.182839842513204" lon="10.868953904137015">
        <ele>2126.0900000000001</ele>
        <time>2018-09-08T11:44:27Z</time>
      </trkpt>
      <trkpt lat="46.182847134768963" lon="10.868963627144694">
        <ele>2126.0900000000001</ele>
        <time>2018-09-08T11:44:53Z</time>
      </trkpt>
      <trkpt lat="46.182850068435073" lon="10.868966057896614">
        <ele>2126.0900000000001</ele>
        <time>2018-09-08T11:45:18Z</time>
      </trkpt>
      <trkpt lat="46.182841267436743" lon="10.86895415559411">
        <ele>2127.0500000000002</ele>
        <time>2018-09-08T11:45:49Z</time>
      </trkpt>
      <trkpt lat="46.182845961302519" lon="10.868964716792107">
        <ele>2127.5300000000002</ele>
        <time>2018-09-08T11:45:58Z</time>
      </trkpt>
      <trkpt lat="46.182857444509864" lon="10.868947533890605">
        <ele>2127.5300000000002</ele>
        <time>2018-09-08T11:46:14Z</time>
      </trkpt>
      <trkpt lat="46.182837411761284" lon="10.868938313797116">
        <ele>2127.5300000000002</ele>
        <time>2018-09-08T11:46:27Z</time>
      </trkpt>
      <trkpt lat="46.182811427861452" lon="10.868938062340021">
        <ele>2127.5300000000002</ele>
        <time>2018-09-08T11:46:37Z</time>
      </trkpt>
      <trkpt lat="46.182831795886159" lon="10.868902606889606">
        <ele>2127.5300000000002</ele>
        <time>2018-09-08T11:46:46Z</time>
      </trkpt>
      <trkpt lat="46.182858953252435" lon="10.868922974914312">
        <ele>2127.0500000000002</ele>
        <time>2018-09-08T11:47:05Z</time>
      </trkpt>
      <trkpt lat="46.182852499186993" lon="10.868925992399454">
        <ele>2126.0900000000001</ele>
        <time>2018-09-08T11:47:20Z</time>
      </trkpt>
      <trkpt lat="46.182850990444422" lon="10.86893655359745">
        <ele>2126.5700000000002</ele>
        <time>2018-09-08T11:47:36Z</time>
      </trkpt>
      <trkpt lat="46.182896504178643" lon="10.868918364867568">
        <ele>2126.0900000000001</ele>
        <time>2018-09-08T11:47:49Z</time>
      </trkpt>
      <trkpt lat="46.182981412857771" lon="10.868920627981424">
        <ele>2125.6100000000001</ele>
        <time>2018-09-08T11:47:57Z</time>
      </trkpt>
      <trkpt lat="46.183064477518201" lon="10.868909563869238">
        <ele>2125.1300000000001</ele>
        <time>2018-09-08T11:48:07Z</time>
      </trkpt>
      <trkpt lat="46.183174112811685" lon="10.868958262726665">
        <ele>2124.6500000000001</ele>
        <time>2018-09-08T11:48:17Z</time>
      </trkpt>
      <trkpt lat="46.183239994570613" lon="10.868930099532008">
        <ele>2124.1700000000001</ele>
        <time>2018-09-08T11:48:24Z</time>
      </trkpt>
      <trkpt lat="46.183250723406672" lon="10.868928506970406">
        <ele>2124.1700000000001</ele>
        <time>2018-09-08T11:48:25Z</time>
      </trkpt>
      <trkpt lat="46.183259608224034" lon="10.868929764255881">
        <ele>2123.6900000000001</ele>
        <time>2018-09-08T11:48:26Z</time>
      </trkpt>
      <trkpt lat="46.183278048411012" lon="10.868925908580422">
        <ele>2123.6900000000001</ele>
        <time>2018-09-08T11:48:28Z</time>
      </trkpt>
      <trkpt lat="46.1832872685045" lon="10.868922723457217">
        <ele>2123.21</ele>
        <time>2018-09-08T11:48:29Z</time>
      </trkpt>
      <trkpt lat="46.183299506083131" lon="10.868922639638186">
        <ele>2123.6900000000001</ele>
        <time>2018-09-08T11:48:30Z</time>
      </trkpt>
      <trkpt lat="46.183367315679789" lon="10.86891015060246">
        <ele>2123.21</ele>
        <time>2018-09-08T11:48:39Z</time>
      </trkpt>
      <trkpt lat="46.183383073657751" lon="10.86890378035605">
        <ele>2122.25</ele>
        <time>2018-09-08T11:48:41Z</time>
      </trkpt>
      <trkpt lat="46.183393383398652" lon="10.868897996842861">
        <ele>2122.25</ele>
        <time>2018-09-08T11:48:42Z</time>
      </trkpt>
      <trkpt lat="46.183486757799983" lon="10.86885005235672">
        <ele>2123.21</ele>
        <time>2018-09-08T11:48:52Z</time>
      </trkpt>
      <trkpt lat="46.183564374223351" lon="10.868810154497623">
        <ele>2124.6500000000001</ele>
        <time>2018-09-08T11:49:03Z</time>
      </trkpt>
      <trkpt lat="46.183623466640711" lon="10.868791546672583">
        <ele>2125.6100000000001</ele>
        <time>2018-09-08T11:49:13Z</time>
      </trkpt>
      <trkpt lat="46.183706196025014" lon="10.868788529187441">
        <ele>2126.5700000000002</ele>
        <time>2018-09-08T11:49:22Z</time>
      </trkpt>
      <trkpt lat="46.183750201016665" lon="10.868791546672583">
        <ele>2126.0900000000001</ele>
        <time>2018-09-08T11:49:26Z</time>
      </trkpt>
      <trkpt lat="46.18385941721499" lon="10.868766568601131">
        <ele>2125.6100000000001</ele>
        <time>2018-09-08T11:49:38Z</time>
      </trkpt>
      <trkpt lat="46.18392831645906" lon="10.868728598579764">
        <ele>2125.6100000000001</ele>
        <time>2018-09-08T11:49:46Z</time>
      </trkpt>
      <trkpt lat="46.183955138549209" lon="10.868687611073256">
        <ele>2125.6100000000001</ele>
        <time>2018-09-08T11:49:50Z</time>
      </trkpt>
      <trkpt lat="46.183967795222998" lon="10.868593314662576">
        <ele>2126.0900000000001</ele>
        <time>2018-09-08T11:49:59Z</time>
      </trkpt>
      <trkpt lat="46.183973914012313" lon="10.868583591654897">
        <ele>2125.6100000000001</ele>
        <time>2018-09-08T11:50:00Z</time>
      </trkpt>
      <trkpt lat="46.1840177513659" lon="10.868542101234198">
        <ele>2124.6500000000001</ele>
        <time>2018-09-08T11:50:05Z</time>
      </trkpt>
      <trkpt lat="46.184102911502123" lon="10.868496336042881">
        <ele>2121.77</ele>
        <time>2018-09-08T11:50:15Z</time>
      </trkpt>
      <trkpt lat="46.184178767725825" lon="10.868424838408828">
        <ele>2119.3600000000001</ele>
        <time>2018-09-08T11:50:26Z</time>
      </trkpt>
      <trkpt lat="46.184203578159213" lon="10.868407655507326">
        <ele>2117.9200000000001</ele>
        <time>2018-09-08T11:50:30Z</time>
      </trkpt>
      <trkpt lat="46.184221263974905" lon="10.86839416064322">
        <ele>2117.9200000000001</ele>
        <time>2018-09-08T11:50:32Z</time>
      </trkpt>
      <trkpt lat="46.184228975325823" lon="10.86838343180716">
        <ele>2117.4400000000001</ele>
        <time>2018-09-08T11:50:33Z</time>
      </trkpt>
      <trkpt lat="46.18431631475687" lon="10.868311850354075">
        <ele>2115.04</ele>
        <time>2018-09-08T11:50:43Z</time>
      </trkpt>
      <trkpt lat="46.184330731630325" lon="10.868293829262257">
        <ele>2114.5599999999999</ele>
        <time>2018-09-08T11:50:45Z</time>
      </trkpt>
      <trkpt lat="46.184339532628655" lon="10.868284106254578">
        <ele>2114.5599999999999</ele>
        <time>2018-09-08T11:50:46Z</time>
      </trkpt>
      <trkpt lat="46.184422764927149" lon="10.868201879784465">
        <ele>2111.6700000000001</ele>
        <time>2018-09-08T11:50:58Z</time>
      </trkpt>
      <trkpt lat="46.184517480432987" lon="10.868123425170779">
        <ele>2109.27</ele>
        <time>2018-09-08T11:51:10Z</time>
      </trkpt>
      <trkpt lat="46.184543380513787" lon="10.868081264197826">
        <ele>2107.3499999999999</ele>
        <time>2018-09-08T11:51:15Z</time>
      </trkpt>
      <trkpt lat="46.184558803215623" lon="10.868065254762769">
        <ele>2106.8699999999999</ele>
        <time>2018-09-08T11:51:17Z</time>
      </trkpt>
      <trkpt lat="46.184621080756187" lon="10.868036840111017">
        <ele>2105.4200000000001</ele>
        <time>2018-09-08T11:51:23Z</time>
      </trkpt>
      <trkpt lat="46.184689644724131" lon="10.867954613640904">
        <ele>2104.46</ele>
        <time>2018-09-08T11:51:33Z</time>
      </trkpt>
      <trkpt lat="46.184712359681726" lon="10.867934748530388">
        <ele>2103.98</ele>
        <time>2018-09-08T11:51:36Z</time>
      </trkpt>
      <trkpt lat="46.184726106002927" lon="10.867917984724045">
        <ele>2103.5</ele>
        <time>2018-09-08T11:51:38Z</time>
      </trkpt>
      <trkpt lat="46.184731386601925" lon="10.867906920611858">
        <ele>2103.02</ele>
        <time>2018-09-08T11:51:39Z</time>
      </trkpt>
      <trkpt lat="46.184739517048001" lon="10.867897951975465">
        <ele>2103.02</ele>
        <time>2018-09-08T11:51:40Z</time>
      </trkpt>
      <trkpt lat="46.184750162065029" lon="10.867889067158103">
        <ele>2103.02</ele>
        <time>2018-09-08T11:51:41Z</time>
      </trkpt>
      <trkpt lat="46.184804979711771" lon="10.867867274209857">
        <ele>2103.02</ele>
        <time>2018-09-08T11:51:48Z</time>
      </trkpt>
      <trkpt lat="46.184837417677045" lon="10.867820335552096">
        <ele>2103.02</ele>
        <time>2018-09-08T11:51:58Z</time>
      </trkpt>
      <trkpt lat="46.184834400191903" lon="10.86780147626996">
        <ele>2103.5</ele>
        <time>2018-09-08T11:52:01Z</time>
      </trkpt>
      <trkpt lat="46.184837250038981" lon="10.867790076881647">
        <ele>2103.02</ele>
        <time>2018-09-08T11:52:02Z</time>
      </trkpt>
      <trkpt lat="46.184853008016944" lon="10.867774235084653">
        <ele>2102.54</ele>
        <time>2018-09-08T11:52:04Z</time>
      </trkpt>
      <trkpt lat="46.184889217838645" lon="10.867733415216208">
        <ele>2102.0599999999999</ele>
        <time>2018-09-08T11:52:15Z</time>
      </trkpt>
      <trkpt lat="46.184947555884719" lon="10.86771841160953">
        <ele>2100.6199999999999</ele>
        <time>2018-09-08T11:52:23Z</time>
      </trkpt>
      <trkpt lat="46.184972114861012" lon="10.867717238143086">
        <ele>2099.6599999999999</ele>
        <time>2018-09-08T11:52:32Z</time>
      </trkpt>
      <trkpt lat="46.185021232813597" lon="10.867710951715708">
        <ele>2099.1799999999998</ele>
        <time>2018-09-08T11:52:42Z</time>
      </trkpt>
      <trkpt lat="46.185042187571526" lon="10.867697289213538">
        <ele>2098.21</ele>
        <time>2018-09-08T11:52:44Z</time>
      </trkpt>
      <trkpt lat="46.185119636356831" lon="10.867642052471638">
        <ele>2097.73</ele>
        <time>2018-09-08T11:52:55Z</time>
      </trkpt>
      <trkpt lat="46.185145704075694" lon="10.867580026388168">
        <ele>2095.8099999999999</ele>
        <time>2018-09-08T11:53:06Z</time>
      </trkpt>
      <trkpt lat="46.185162300243974" lon="10.867539206519723">
        <ele>2094.8499999999999</ele>
        <time>2018-09-08T11:53:11Z</time>
      </trkpt>
      <trkpt lat="46.18519046343863" lon="10.867499895393848">
        <ele>2094.3699999999999</ele>
        <time>2018-09-08T11:53:19Z</time>
      </trkpt>
      <trkpt lat="46.185203371569514" lon="10.867487657815218">
        <ele>2094.3699999999999</ele>
        <time>2018-09-08T11:53:21Z</time>
      </trkpt>
      <trkpt lat="46.185238659381866" lon="10.867434097453952">
        <ele>2092.9299999999998</ele>
        <time>2018-09-08T11:53:31Z</time>
      </trkpt>
      <trkpt lat="46.185268498957157" lon="10.867382297292352">
        <ele>2091.4899999999998</ele>
        <time>2018-09-08T11:53:36Z</time>
      </trkpt>
      <trkpt lat="46.185271767899394" lon="10.867367964237928">
        <ele>2091</ele>
        <time>2018-09-08T11:53:37Z</time>
      </trkpt>
      <trkpt lat="46.18528232909739" lon="10.867314655333757">
        <ele>2089.5599999999999</ele>
        <time>2018-09-08T11:53:41Z</time>
      </trkpt>
      <trkpt lat="46.185291968286037" lon="10.867303758859634">
        <ele>2089.0799999999999</ele>
        <time>2018-09-08T11:53:42Z</time>
      </trkpt>
      <trkpt lat="46.185345696285367" lon="10.86724097840488">
        <ele>2087.1599999999999</ele>
        <time>2018-09-08T11:53:50Z</time>
      </trkpt>
      <trkpt lat="46.185379810631275" lon="10.867161937057972">
        <ele>2085.7199999999998</ele>
        <time>2018-09-08T11:53:58Z</time>
      </trkpt>
      <trkpt lat="46.185405626893044" lon="10.867119021713734">
        <ele>2084.2800000000002</ele>
        <time>2018-09-08T11:54:05Z</time>
      </trkpt>
      <trkpt lat="46.185419289395213" lon="10.867112316191196">
        <ele>2083.79</ele>
        <time>2018-09-08T11:54:06Z</time>
      </trkpt>
      <trkpt lat="46.185490619391203" lon="10.86706705391407">
        <ele>2082.3499999999999</ele>
        <time>2018-09-08T11:54:15Z</time>
      </trkpt>
      <trkpt lat="46.185521632432938" lon="10.867060516029596">
        <ele>2082.3499999999999</ele>
        <time>2018-09-08T11:54:24Z</time>
      </trkpt>
      <trkpt lat="46.18556815199554" lon="10.866967393085361">
        <ele>2079.9499999999998</ele>
        <time>2018-09-08T11:54:37Z</time>
      </trkpt>
      <trkpt lat="46.185571504756808" lon="10.866954401135445">
        <ele>2079.9499999999998</ele>
        <time>2018-09-08T11:54:39Z</time>
      </trkpt>
      <trkpt lat="46.185578377917409" lon="10.866940822452307">
        <ele>2079.9499999999998</ele>
        <time>2018-09-08T11:54:40Z</time>
      </trkpt>
      <trkpt lat="46.185589525848627" lon="10.866930261254311">
        <ele>2079.4699999999998</ele>
        <time>2018-09-08T11:54:41Z</time>
      </trkpt>
      <trkpt lat="46.185602014884353" lon="10.866922298446298">
        <ele>2080.4299999999998</ele>
        <time>2018-09-08T11:54:42Z</time>
      </trkpt>
      <trkpt lat="46.185613246634603" lon="10.86691509000957">
        <ele>2079.4699999999998</ele>
        <time>2018-09-08T11:54:43Z</time>
      </trkpt>
      <trkpt lat="46.185635207220912" lon="10.866907294839621">
        <ele>2078.5100000000002</ele>
        <time>2018-09-08T11:54:45Z</time>
      </trkpt>
      <trkpt lat="46.18564828298986" lon="10.866907881572843">
        <ele>2078.5100000000002</ele>
        <time>2018-09-08T11:54:46Z</time>
      </trkpt>
      <trkpt lat="46.185757666826248" lon="10.866922968998551">
        <ele>2077.0700000000002</ele>
        <time>2018-09-08T11:54:55Z</time>
      </trkpt>
      <trkpt lat="46.185768814757466" lon="10.866919783875346">
        <ele>2076.5900000000001</ele>
        <time>2018-09-08T11:54:56Z</time>
      </trkpt>
      <trkpt lat="46.185780046507716" lon="10.866920370608568">
        <ele>2076.5900000000001</ele>
        <time>2018-09-08T11:54:57Z</time>
      </trkpt>
      <trkpt lat="46.185789769515395" lon="10.866923555731773">
        <ele>2076.0999999999999</ele>
        <time>2018-09-08T11:54:58Z</time>
      </trkpt>
      <trkpt lat="46.185807287693024" lon="10.866922130808234">
        <ele>2076.5900000000001</ele>
        <time>2018-09-08T11:55:00Z</time>
      </trkpt>
      <trkpt lat="46.185817932710052" lon="10.866918107494712">
        <ele>2076.0999999999999</ele>
        <time>2018-09-08T11:55:01Z</time>
      </trkpt>
      <trkpt lat="46.185904769226909" lon="10.866898661479354">
        <ele>2076.0999999999999</ele>
        <time>2018-09-08T11:55:09Z</time>
      </trkpt>
      <trkpt lat="46.185914576053619" lon="10.866895308718085">
        <ele>2076.0999999999999</ele>
        <time>2018-09-08T11:55:10Z</time>
      </trkpt>
      <trkpt lat="46.185993365943432" lon="10.866910647600889">
        <ele>2076.0999999999999</ele>
        <time>2018-09-08T11:55:18Z</time>
      </trkpt>
      <trkpt lat="46.186035946011543" lon="10.866905869916081">
        <ele>2075.6199999999999</ele>
        <time>2018-09-08T11:55:23Z</time>
      </trkpt>
      <trkpt lat="46.186051871627569" lon="10.866912575438619">
        <ele>2075.6199999999999</ele>
        <time>2018-09-08T11:55:32Z</time>
      </trkpt>
      <trkpt lat="46.186059163883328" lon="10.866909474134445">
        <ele>2075.1399999999999</ele>
        <time>2018-09-08T11:55:44Z</time>
      </trkpt>
      <trkpt lat="46.18611004203558" lon="10.866879718378186">
        <ele>2075.1399999999999</ele>
        <time>2018-09-08T11:55:50Z</time>
      </trkpt>
      <trkpt lat="46.186136696487665" lon="10.866865301504731">
        <ele>2074.6599999999999</ele>
        <time>2018-09-08T11:55:53Z</time>
      </trkpt>
      <trkpt lat="46.186146838590503" lon="10.866859517991543">
        <ele>2074.1799999999998</ele>
        <time>2018-09-08T11:55:54Z</time>
      </trkpt>
      <trkpt lat="46.186166787520051" lon="10.866857003420591">
        <ele>2074.1799999999998</ele>
        <time>2018-09-08T11:55:56Z</time>
      </trkpt>
      <trkpt lat="46.18624591268599" lon="10.866855410858989">
        <ele>2074.1799999999998</ele>
        <time>2018-09-08T11:56:06Z</time>
      </trkpt>
      <trkpt lat="46.186312213540077" lon="10.866821464151144">
        <ele>2073.2199999999998</ele>
        <time>2018-09-08T11:56:17Z</time>
      </trkpt>
      <trkpt lat="46.186392260715365" lon="10.866764970123768">
        <ele>2072.2600000000002</ele>
        <time>2018-09-08T11:56:29Z</time>
      </trkpt>
      <trkpt lat="46.186396786943078" lon="10.866758013144135">
        <ele>2072.2600000000002</ele>
        <time>2018-09-08T11:56:30Z</time>
      </trkpt>
      <trkpt lat="46.18644967675209" lon="10.866741249337792">
        <ele>2070.8200000000002</ele>
        <time>2018-09-08T11:56:41Z</time>
      </trkpt>
      <trkpt lat="46.186494939029217" lon="10.86672599427402">
        <ele>2069.3800000000001</ele>
        <time>2018-09-08T11:56:47Z</time>
      </trkpt>
      <trkpt lat="46.186552522704005" lon="10.866691544651985">
        <ele>2067.4499999999998</ele>
        <time>2018-09-08T11:56:56Z</time>
      </trkpt>
      <trkpt lat="46.18662410415709" lon="10.866672098636627">
        <ele>2064.5700000000002</ele>
        <time>2018-09-08T11:57:06Z</time>
      </trkpt>
      <trkpt lat="46.186681436374784" lon="10.866645108908415">
        <ele>2062.6500000000001</ele>
        <time>2018-09-08T11:57:16Z</time>
      </trkpt>
      <trkpt lat="46.18674136698246" lon="10.866610826924443">
        <ele>2060.7199999999998</ele>
        <time>2018-09-08T11:57:27Z</time>
      </trkpt>
      <trkpt lat="46.186821917071939" lon="10.866588531062007">
        <ele>2057.8400000000001</ele>
        <time>2018-09-08T11:57:37Z</time>
      </trkpt>
      <trkpt lat="46.186901880428195" lon="10.866581071168184">
        <ele>2055.9200000000001</ele>
        <time>2018-09-08T11:57:46Z</time>
      </trkpt>
      <trkpt lat="46.186971282586455" lon="10.866547795012593">
        <ele>2053.5100000000002</ele>
        <time>2018-09-08T11:57:57Z</time>
      </trkpt>
      <trkpt lat="46.187021154910326" lon="10.866533797234297">
        <ele>2052.0700000000002</ele>
        <time>2018-09-08T11:58:03Z</time>
      </trkpt>
      <trkpt lat="46.187030458822846" lon="10.86652809754014">
        <ele>2051.5900000000001</ele>
        <time>2018-09-08T11:58:04Z</time>
      </trkpt>
      <trkpt lat="46.187095334753394" lon="10.866507897153497">
        <ele>2050.1500000000001</ele>
        <time>2018-09-08T11:58:11Z</time>
      </trkpt>
      <trkpt lat="46.187103968113661" lon="10.86649339646101">
        <ele>2049.6700000000001</ele>
        <time>2018-09-08T11:58:12Z</time>
      </trkpt>
      <trkpt lat="46.187112769111991" lon="10.86647872813046">
        <ele>2049.1900000000001</ele>
        <time>2018-09-08T11:58:13Z</time>
      </trkpt>
      <trkpt lat="46.187122156843543" lon="10.8664645627141">
        <ele>2049.1900000000001</ele>
        <time>2018-09-08T11:58:14Z</time>
      </trkpt>
      <trkpt lat="46.187130203470588" lon="10.866450229659677">
        <ele>2049.1900000000001</ele>
        <time>2018-09-08T11:58:15Z</time>
      </trkpt>
      <trkpt lat="46.187199773266912" lon="10.866348640993237">
        <ele>2049.1900000000001</ele>
        <time>2018-09-08T11:58:24Z</time>
      </trkpt>
      <trkpt lat="46.187238749116659" lon="10.866250908002257">
        <ele>2049.6700000000001</ele>
        <time>2018-09-08T11:58:32Z</time>
      </trkpt>
      <trkpt lat="46.187248472124338" lon="10.866238418966532">
        <ele>2049.6700000000001</ele>
        <time>2018-09-08T11:58:33Z</time>
      </trkpt>
      <trkpt lat="46.187257692217827" lon="10.866228695958853">
        <ele>2050.1500000000001</ele>
        <time>2018-09-08T11:58:34Z</time>
      </trkpt>
      <trkpt lat="46.187318293377757" lon="10.866155186668038">
        <ele>2050.6300000000001</ele>
        <time>2018-09-08T11:58:42Z</time>
      </trkpt>
      <trkpt lat="46.187346959486604" lon="10.86612056940794">
        <ele>2051.5900000000001</ele>
        <time>2018-09-08T11:58:46Z</time>
      </trkpt>
      <trkpt lat="46.187410997226834" lon="10.866021830588579">
        <ele>2051.5900000000001</ele>
        <time>2018-09-08T11:58:55Z</time>
      </trkpt>
      <trkpt lat="46.187431365251541" lon="10.865975311025977">
        <ele>2051.5900000000001</ele>
        <time>2018-09-08T11:59:00Z</time>
      </trkpt>
      <trkpt lat="46.187450895085931" lon="10.865912027657032">
        <ele>2052.0700000000002</ele>
        <time>2018-09-08T11:59:05Z</time>
      </trkpt>
      <trkpt lat="46.187489116564393" lon="10.865866849198937">
        <ele>2053.5100000000002</ele>
        <time>2018-09-08T11:59:11Z</time>
      </trkpt>
      <trkpt lat="46.187518453225493" lon="10.865848073735833">
        <ele>2054.96</ele>
        <time>2018-09-08T11:59:15Z</time>
      </trkpt>
      <trkpt lat="46.187530271708965" lon="10.865847989916801">
        <ele>2054.96</ele>
        <time>2018-09-08T11:59:16Z</time>
      </trkpt>
      <trkpt lat="46.18755248375237" lon="10.865813959389925">
        <ele>2054.4699999999998</ele>
        <time>2018-09-08T11:59:20Z</time>
      </trkpt>
      <trkpt lat="46.187539910897613" lon="10.865707341581583">
        <ele>2053.5100000000002</ele>
        <time>2018-09-08T11:59:28Z</time>
      </trkpt>
      <trkpt lat="46.187503701075912" lon="10.865638609975576">
        <ele>2053.5100000000002</ele>
        <time>2018-09-08T11:59:36Z</time>
      </trkpt>
      <trkpt lat="46.187451230362058" lon="10.86557968519628">
        <ele>2054.96</ele>
        <time>2018-09-08T11:59:45Z</time>
      </trkpt>
      <trkpt lat="46.187449218705297" lon="10.865515898913145">
        <ele>2056.4000000000001</ele>
        <time>2018-09-08T11:59:52Z</time>
      </trkpt>
      <trkpt lat="46.18746598251164" lon="10.865434929728508">
        <ele>2057.3600000000001</ele>
        <time>2018-09-08T12:00:01Z</time>
      </trkpt>
      <trkpt lat="46.187471766024828" lon="10.865411208942533">
        <ele>2057.8400000000001</ele>
        <time>2018-09-08T12:00:11Z</time>
      </trkpt>
      <trkpt lat="46.187470089644194" lon="10.865350859239697">
        <ele>2057.8400000000001</ele>
        <time>2018-09-08T12:00:17Z</time>
      </trkpt>
      <trkpt lat="46.187539324164391" lon="10.865255892276764">
        <ele>2058.8000000000002</ele>
        <time>2018-09-08T12:00:29Z</time>
      </trkpt>
      <trkpt lat="46.187593303620815" lon="10.865181628614664">
        <ele>2060.2399999999998</ele>
        <time>2018-09-08T12:00:40Z</time>
      </trkpt>
      <trkpt lat="46.187631189823151" lon="10.865141479298472">
        <ele>2062.1700000000001</ele>
        <time>2018-09-08T12:00:49Z</time>
      </trkpt>
      <trkpt lat="46.187714086845517" lon="10.865105940029025">
        <ele>2063.6100000000001</ele>
        <time>2018-09-08T12:01:02Z</time>
      </trkpt>
      <trkpt lat="46.187745183706284" lon="10.865134270861745">
        <ele>2063.6100000000001</ele>
        <time>2018-09-08T12:01:06Z</time>
      </trkpt>
      <trkpt lat="46.187787344679236" lon="10.865192692726851">
        <ele>2063.6100000000001</ele>
        <time>2018-09-08T12:01:14Z</time>
      </trkpt>
      <trkpt lat="46.187877114862204" lon="10.865208366885781">
        <ele>2064.0900000000001</ele>
        <time>2018-09-08T12:01:24Z</time>
      </trkpt>
      <trkpt lat="46.187971914187074" lon="10.86526108905673">
        <ele>2065.5300000000002</ele>
        <time>2018-09-08T12:01:36Z</time>
      </trkpt>
      <trkpt lat="46.188010890036821" lon="10.865262597799301">
        <ele>2066.0100000000002</ele>
        <time>2018-09-08T12:01:41Z</time>
      </trkpt>
      <trkpt lat="46.188058750703931" lon="10.865205433219671">
        <ele>2066.4899999999998</ele>
        <time>2018-09-08T12:01:50Z</time>
      </trkpt>
      <trkpt lat="46.18810074403882" lon="10.865170145407319">
        <ele>2068.4099999999999</ele>
        <time>2018-09-08T12:01:59Z</time>
      </trkpt>
      <trkpt lat="46.188147431239486" lon="10.86512915790081">
        <ele>2069.3800000000001</ele>
        <time>2018-09-08T12:02:09Z</time>
      </trkpt>
      <trkpt lat="46.188202165067196" lon="10.865124296396971">
        <ele>2070.3400000000001</ele>
        <time>2018-09-08T12:02:19Z</time>
      </trkpt>
      <trkpt lat="46.188289672136307" lon="10.865136198699474">
        <ele>2070.8200000000002</ele>
        <time>2018-09-08T12:02:29Z</time>
      </trkpt>
      <trkpt lat="46.188353290781379" lon="10.865110717713833">
        <ele>2072.7399999999998</ele>
        <time>2018-09-08T12:02:40Z</time>
      </trkpt>
      <trkpt lat="46.188403414562345" lon="10.865084985271096">
        <ele>2074.1799999999998</ele>
        <time>2018-09-08T12:02:50Z</time>
      </trkpt>
      <trkpt lat="46.188415484502912" lon="10.865047434344888">
        <ele>2074.1799999999998</ele>
        <time>2018-09-08T12:03:02Z</time>
      </trkpt>
      <trkpt lat="46.188458986580372" lon="10.865031257271767">
        <ele>2073.2199999999998</ele>
        <time>2018-09-08T12:03:10Z</time>
      </trkpt>
      <trkpt lat="46.188482707366347" lon="10.865014158189297">
        <ele>2073.2199999999998</ele>
        <time>2018-09-08T12:03:16Z</time>
      </trkpt>
      <trkpt lat="46.188494358211756" lon="10.865017594769597">
        <ele>2072.7399999999998</ele>
        <time>2018-09-08T12:03:17Z</time>
      </trkpt>
      <trkpt lat="46.188524197787046" lon="10.865015750750899">
        <ele>2071.7800000000002</ele>
        <time>2018-09-08T12:03:20Z</time>
      </trkpt>
      <trkpt lat="46.188537525013089" lon="10.865015583112836">
        <ele>2071.3000000000002</ele>
        <time>2018-09-08T12:03:21Z</time>
      </trkpt>
      <trkpt lat="46.188634252175689" lon="10.865060174837708">
        <ele>2070.3400000000001</ele>
        <time>2018-09-08T12:03:31Z</time>
      </trkpt>
      <trkpt lat="46.188655039295554" lon="10.865081967785954">
        <ele>2069.8600000000001</ele>
        <time>2018-09-08T12:03:33Z</time>
      </trkpt>
      <trkpt lat="46.188771463930607" lon="10.865169474855065">
        <ele>2067.4499999999998</ele>
        <time>2018-09-08T12:03:45Z</time>
      </trkpt>
      <trkpt lat="46.188844554126263" lon="10.865218508988619">
        <ele>2066.0100000000002</ele>
        <time>2018-09-08T12:03:55Z</time>
      </trkpt>
      <trkpt lat="46.188869616016746" lon="10.865226974710822">
        <ele>2065.0500000000002</ele>
        <time>2018-09-08T12:03:58Z</time>
      </trkpt>
      <trkpt lat="46.188879422843456" lon="10.865230495110154">
        <ele>2064.5700000000002</ele>
        <time>2018-09-08T12:03:59Z</time>
      </trkpt>
      <trkpt lat="46.188888475298882" lon="10.865238709375262">
        <ele>2065.0500000000002</ele>
        <time>2018-09-08T12:04:00Z</time>
      </trkpt>
      <trkpt lat="46.188931809738278" lon="10.865302328020334">
        <ele>2064.5700000000002</ele>
        <time>2018-09-08T12:04:11Z</time>
      </trkpt>
      <trkpt lat="46.188941532745957" lon="10.865292605012655">
        <ele>2064.0900000000001</ele>
        <time>2018-09-08T12:04:19Z</time>
      </trkpt>
      <trkpt lat="46.188962403684855" lon="10.86530651897192">
        <ele>2064.0900000000001</ele>
        <time>2018-09-08T12:04:21Z</time>
      </trkpt>
      <trkpt lat="46.188973300158978" lon="10.865315236151218">
        <ele>2064.0900000000001</ele>
        <time>2018-09-08T12:04:22Z</time>
      </trkpt>
      <trkpt lat="46.188985370099545" lon="10.865322025492787">
        <ele>2064.0900000000001</ele>
        <time>2018-09-08T12:04:23Z</time>
      </trkpt>
      <trkpt lat="46.189037337899208" lon="10.865355469286442">
        <ele>2063.6100000000001</ele>
        <time>2018-09-08T12:04:28Z</time>
      </trkpt>
      <trkpt lat="46.189047312363982" lon="10.865367036312819">
        <ele>2063.6100000000001</ele>
        <time>2018-09-08T12:04:29Z</time>
      </trkpt>
      <trkpt lat="46.189059130847454" lon="10.865381117910147">
        <ele>2063.6100000000001</ele>
        <time>2018-09-08T12:04:30Z</time>
      </trkpt>
      <trkpt lat="46.189069272950292" lon="10.865386398509145">
        <ele>2063.6100000000001</ele>
        <time>2018-09-08T12:04:31Z</time>
      </trkpt>
      <trkpt lat="46.189079079777002" lon="10.865391595289111">
        <ele>2063.6100000000001</ele>
        <time>2018-09-08T12:04:32Z</time>
      </trkpt>
      <trkpt lat="46.189088886603713" lon="10.865397714078426">
        <ele>2063.6100000000001</ele>
        <time>2018-09-08T12:04:33Z</time>
      </trkpt>
      <trkpt lat="46.189098861068487" lon="10.865403832867742">
        <ele>2063.6100000000001</ele>
        <time>2018-09-08T12:04:34Z</time>
      </trkpt>
      <trkpt lat="46.189108332619071" lon="10.865413807332516">
        <ele>2063.6100000000001</ele>
        <time>2018-09-08T12:04:35Z</time>
      </trkpt>
      <trkpt lat="46.189117049798369" lon="10.86542378179729">
        <ele>2063.6100000000001</ele>
        <time>2018-09-08T12:04:36Z</time>
      </trkpt>
      <trkpt lat="46.189236240461469" lon="10.865538027137518">
        <ele>2063.1300000000001</ele>
        <time>2018-09-08T12:04:49Z</time>
      </trkpt>
      <trkpt lat="46.189266247674823" lon="10.865555293858051">
        <ele>2062.6500000000001</ele>
        <time>2018-09-08T12:04:54Z</time>
      </trkpt>
      <trkpt lat="46.189276976510882" lon="10.865563927218318">
        <ele>2062.6500000000001</ele>
        <time>2018-09-08T12:04:55Z</time>
      </trkpt>
      <trkpt lat="46.189289297908545" lon="10.865568285807967">
        <ele>2062.1700000000001</ele>
        <time>2018-09-08T12:04:56Z</time>
      </trkpt>
      <trkpt lat="46.189303044229746" lon="10.865576080977917">
        <ele>2062.1700000000001</ele>
        <time>2018-09-08T12:04:57Z</time>
      </trkpt>
      <trkpt lat="46.189313940703869" lon="10.865584965795279">
        <ele>2061.6799999999998</ele>
        <time>2018-09-08T12:04:58Z</time>
      </trkpt>
      <trkpt lat="46.18936138227582" lon="10.865643303841352">
        <ele>2060.7199999999998</ele>
        <time>2018-09-08T12:05:04Z</time>
      </trkpt>
      <trkpt lat="46.18937118910253" lon="10.865655038505793">
        <ele>2060.7199999999998</ele>
        <time>2018-09-08T12:05:05Z</time>
      </trkpt>
      <trkpt lat="46.189517704769969" lon="10.865795100107789">
        <ele>2059.7600000000002</ele>
        <time>2018-09-08T12:05:19Z</time>
      </trkpt>
      <trkpt lat="46.189526673406363" lon="10.865808678790927">
        <ele>2059.7600000000002</ele>
        <time>2018-09-08T12:05:20Z</time>
      </trkpt>
      <trkpt lat="46.189536228775978" lon="10.865821503102779">
        <ele>2059.7600000000002</ele>
        <time>2018-09-08T12:05:21Z</time>
      </trkpt>
      <trkpt lat="46.189547209069133" lon="10.865832148119807">
        <ele>2059.7600000000002</ele>
        <time>2018-09-08T12:05:22Z</time>
      </trkpt>
      <trkpt lat="46.189557183533907" lon="10.865840865299106">
        <ele>2059.7600000000002</ele>
        <time>2018-09-08T12:05:23Z</time>
      </trkpt>
      <trkpt lat="46.189617114141583" lon="10.865911021828651">
        <ele>2058.8000000000002</ele>
        <time>2018-09-08T12:05:32Z</time>
      </trkpt>
      <trkpt lat="46.189666735008359" lon="10.865958547219634">
        <ele>2058.3200000000002</ele>
        <time>2018-09-08T12:05:46Z</time>
      </trkpt>
      <trkpt lat="46.189670590683818" lon="10.865970617160201">
        <ele>2058.3200000000002</ele>
        <time>2018-09-08T12:05:47Z</time>
      </trkpt>
      <trkpt lat="46.189675200730562" lon="10.865984195843339">
        <ele>2058.3200000000002</ele>
        <time>2018-09-08T12:05:48Z</time>
      </trkpt>
      <trkpt lat="46.189682576805353" lon="10.865997690707445">
        <ele>2058.3200000000002</ele>
        <time>2018-09-08T12:05:49Z</time>
      </trkpt>
      <trkpt lat="46.189687689766288" lon="10.866009928286076">
        <ele>2057.8400000000001</ele>
        <time>2018-09-08T12:05:50Z</time>
      </trkpt>
      <trkpt lat="46.189787099137902" lon="10.866169100627303">
        <ele>2057.3600000000001</ele>
        <time>2018-09-08T12:06:04Z</time>
      </trkpt>
      <trkpt lat="46.189892878755927" lon="10.866241687908769">
        <ele>2056.4000000000001</ele>
        <time>2018-09-08T12:06:16Z</time>
      </trkpt>
      <trkpt lat="46.189987510442734" lon="10.866306899115443">
        <ele>2055.4400000000001</ele>
        <time>2018-09-08T12:06:27Z</time>
      </trkpt>
      <trkpt lat="46.190085327252746" lon="10.86637906730175">
        <ele>2055.4400000000001</ele>
        <time>2018-09-08T12:06:37Z</time>
      </trkpt>
      <trkpt lat="46.190092787146568" lon="10.866391556337476">
        <ele>2055.4400000000001</ele>
        <time>2018-09-08T12:06:38Z</time>
      </trkpt>
      <trkpt lat="46.190175265073776" lon="10.86648459546268">
        <ele>2055.4400000000001</ele>
        <time>2018-09-08T12:06:47Z</time>
      </trkpt>
      <trkpt lat="46.190186413004994" lon="10.866490043699741">
        <ele>2055.4400000000001</ele>
        <time>2018-09-08T12:06:48Z</time>
      </trkpt>
      <trkpt lat="46.190254725515842" lon="10.866494653746486">
        <ele>2053.5100000000002</ele>
        <time>2018-09-08T12:06:54Z</time>
      </trkpt>
      <trkpt lat="46.190264532342553" lon="10.866497168317437">
        <ele>2053.5100000000002</ele>
        <time>2018-09-08T12:06:55Z</time>
      </trkpt>
      <trkpt lat="46.190348686650395" lon="10.866480320692062">
        <ele>2051.5900000000001</ele>
        <time>2018-09-08T12:07:04Z</time>
      </trkpt>
      <trkpt lat="46.190463099628687" lon="10.866504209116101">
        <ele>2049.6700000000001</ele>
        <time>2018-09-08T12:07:14Z</time>
      </trkpt>
      <trkpt lat="46.19060349650681" lon="10.866492977365851">
        <ele>2049.1900000000001</ele>
        <time>2018-09-08T12:07:26Z</time>
      </trkpt>
      <trkpt lat="46.190656302496791" lon="10.86650705896318">
        <ele>2048.23</ele>
        <time>2018-09-08T12:07:31Z</time>
      </trkpt>
      <trkpt lat="46.190666193142533" lon="10.866518290713429">
        <ele>2047.75</ele>
        <time>2018-09-08T12:07:32Z</time>
      </trkpt>
      <trkpt lat="46.190707767382264" lon="10.866551483049989">
        <ele>2047.75</ele>
        <time>2018-09-08T12:07:36Z</time>
      </trkpt>
      <trkpt lat="46.190721094608307" lon="10.866552656516433">
        <ele>2047.75</ele>
        <time>2018-09-08T12:07:37Z</time>
      </trkpt>
      <trkpt lat="46.190732577815652" lon="10.866549219936132">
        <ele>2047.75</ele>
        <time>2018-09-08T12:07:38Z</time>
      </trkpt>
      <trkpt lat="46.190743893384933" lon="10.866546621546149">
        <ele>2047.75</ele>
        <time>2018-09-08T12:07:39Z</time>
      </trkpt>
      <trkpt lat="46.19075546041131" lon="10.866549722850323">
        <ele>2047.75</ele>
        <time>2018-09-08T12:07:40Z</time>
      </trkpt>
      <trkpt lat="46.190767278894782" lon="10.866550141945481">
        <ele>2047.75</ele>
        <time>2018-09-08T12:07:41Z</time>
      </trkpt>
      <trkpt lat="46.190831903368235" lon="10.866511501371861">
        <ele>2048.23</ele>
        <time>2018-09-08T12:07:48Z</time>
      </trkpt>
      <trkpt lat="46.190841542556882" lon="10.866508986800909">
        <ele>2048.71</ele>
        <time>2018-09-08T12:07:49Z</time>
      </trkpt>
      <trkpt lat="46.190851349383593" lon="10.866504712030292">
        <ele>2048.23</ele>
        <time>2018-09-08T12:07:50Z</time>
      </trkpt>
      <trkpt lat="46.190861575305462" lon="10.866501862183213">
        <ele>2048.23</ele>
        <time>2018-09-08T12:07:51Z</time>
      </trkpt>
      <trkpt lat="46.19091329164803" lon="10.866494234651327">
        <ele>2049.1900000000001</ele>
        <time>2018-09-08T12:07:56Z</time>
      </trkpt>
      <trkpt lat="46.190995685756207" lon="10.866502616554499">
        <ele>2049.6700000000001</ele>
        <time>2018-09-08T12:08:04Z</time>
      </trkpt>
      <trkpt lat="46.191016975790262" lon="10.866509908810258">
        <ele>2050.1500000000001</ele>
        <time>2018-09-08T12:08:06Z</time>
      </trkpt>
      <trkpt lat="46.191082438454032" lon="10.866517955437303">
        <ele>2051.1100000000001</ele>
        <time>2018-09-08T12:08:13Z</time>
      </trkpt>
      <trkpt lat="46.191168185323477" lon="10.866522816941142">
        <ele>2052.0700000000002</ele>
        <time>2018-09-08T12:08:23Z</time>
      </trkpt>
      <trkpt lat="46.191242029890418" lon="10.866547795012593">
        <ele>2053.0300000000002</ele>
        <time>2018-09-08T12:08:32Z</time>
      </trkpt>
      <trkpt lat="46.191327860578895" lon="10.8665681630373">
        <ele>2053.5100000000002</ele>
        <time>2018-09-08T12:08:43Z</time>
      </trkpt>
      <trkpt lat="46.19142341427505" lon="10.866559697315097">
        <ele>2053.9899999999998</ele>
        <time>2018-09-08T12:08:53Z</time>
      </trkpt>
      <trkpt lat="46.191496504470706" lon="10.866586100310087">
        <ele>2054.4699999999998</ele>
        <time>2018-09-08T12:09:01Z</time>
      </trkpt>
      <trkpt lat="46.191586190834641" lon="10.866522146388888">
        <ele>2054.96</ele>
        <time>2018-09-08T12:09:11Z</time>
      </trkpt>
      <trkpt lat="46.191653832793236" lon="10.866471184417605">
        <ele>2054.96</ele>
        <time>2018-09-08T12:09:19Z</time>
      </trkpt>
      <trkpt lat="46.1916608735919" lon="10.866458360105753">
        <ele>2054.96</ele>
        <time>2018-09-08T12:09:20Z</time>
      </trkpt>
      <trkpt lat="46.191669004037976" lon="10.866446457803249">
        <ele>2054.4699999999998</ele>
        <time>2018-09-08T12:09:21Z</time>
      </trkpt>
      <trkpt lat="46.191676631569862" lon="10.866433633491397">
        <ele>2054.4699999999998</ele>
        <time>2018-09-08T12:09:22Z</time>
      </trkpt>
      <trkpt lat="46.191682750359178" lon="10.866414774209261">
        <ele>2053.9899999999998</ele>
        <time>2018-09-08T12:09:23Z</time>
      </trkpt>
      <trkpt lat="46.191691216081381" lon="10.866401782259345">
        <ele>2053.9899999999998</ele>
        <time>2018-09-08T12:09:24Z</time>
      </trkpt>
      <trkpt lat="46.191702028736472" lon="10.866393651813269">
        <ele>2053.9899999999998</ele>
        <time>2018-09-08T12:09:25Z</time>
      </trkpt>
      <trkpt lat="46.191714936867356" lon="10.866394992917776">
        <ele>2053.9899999999998</ele>
        <time>2018-09-08T12:09:26Z</time>
      </trkpt>
      <trkpt lat="46.191770425066352" lon="10.866363393142819">
        <ele>2053.0300000000002</ele>
        <time>2018-09-08T12:09:31Z</time>
      </trkpt>
      <trkpt lat="46.19177914224565" lon="10.866349898278713">
        <ele>2053.0300000000002</ele>
        <time>2018-09-08T12:09:32Z</time>
      </trkpt>
      <trkpt lat="46.191785596311092" lon="10.866337828338146">
        <ele>2052.5500000000002</ele>
        <time>2018-09-08T12:09:33Z</time>
      </trkpt>
      <trkpt lat="46.191790625452995" lon="10.866326596587896">
        <ele>2052.5500000000002</ele>
        <time>2018-09-08T12:09:34Z</time>
      </trkpt>
      <trkpt lat="46.191796995699406" lon="10.866314275190234">
        <ele>2052.5500000000002</ele>
        <time>2018-09-08T12:09:35Z</time>
      </trkpt>
      <trkpt lat="46.191805629059672" lon="10.866304049268365">
        <ele>2052.5500000000002</ele>
        <time>2018-09-08T12:09:36Z</time>
      </trkpt>
      <trkpt lat="46.191865056753159" lon="10.866273790597916">
        <ele>2052.5500000000002</ele>
        <time>2018-09-08T12:09:48Z</time>
      </trkpt>
      <trkpt lat="46.191903026774526" lon="10.866363728418946">
        <ele>2052.0700000000002</ele>
        <time>2018-09-08T12:09:59Z</time>
      </trkpt>
      <trkpt lat="46.191895650699735" lon="10.866325506940484">
        <ele>2052.0700000000002</ele>
        <time>2018-09-08T12:10:12Z</time>
      </trkpt>
      <trkpt lat="46.191880227997899" lon="10.866345372051001">
        <ele>2051.1100000000001</ele>
        <time>2018-09-08T12:10:23Z</time>
      </trkpt>
      <trkpt lat="46.191891292110085" lon="10.866350149735808">
        <ele>2050.6300000000001</ele>
        <time>2018-09-08T12:10:46Z</time>
      </trkpt>
      <trkpt lat="46.191894561052322" lon="10.86634092964232">
        <ele>2050.6300000000001</ele>
        <time>2018-09-08T12:11:11Z</time>
      </trkpt>
      <trkpt lat="46.191886346787214" lon="10.8663384988904">
        <ele>2051.1100000000001</ele>
        <time>2018-09-08T12:11:32Z</time>
      </trkpt>
      <trkpt lat="46.191874528303742" lon="10.866333218291402">
        <ele>2051.1100000000001</ele>
        <time>2018-09-08T12:12:05Z</time>
      </trkpt>
      <trkpt lat="46.19188760407269" lon="10.866328440606594">
        <ele>2052.0700000000002</ele>
        <time>2018-09-08T12:12:22Z</time>
      </trkpt>
      <trkpt lat="46.191912833601236" lon="10.866353083401918">
        <ele>2052.0700000000002</ele>
        <time>2018-09-08T12:12:33Z</time>
      </trkpt>
      <trkpt lat="46.191913168877363" lon="10.866343779489398">
        <ele>2052.0700000000002</ele>
        <time>2018-09-08T12:12:47Z</time>
      </trkpt>
      <trkpt lat="46.191919539123774" lon="10.866346126422286">
        <ele>2052.0700000000002</ele>
        <time>2018-09-08T12:13:00Z</time>
      </trkpt>
      <trkpt lat="46.191928843036294" lon="10.866374541074038">
        <ele>2052.0700000000002</ele>
        <time>2018-09-08T12:13:15Z</time>
      </trkpt>
      <trkpt lat="46.191925574094057" lon="10.866374792531133">
        <ele>2052.0700000000002</ele>
        <time>2018-09-08T12:13:31Z</time>
      </trkpt>
      <trkpt lat="46.191911743953824" lon="10.866368673741817">
        <ele>2052.0700000000002</ele>
        <time>2018-09-08T12:13:44Z</time>
      </trkpt>
      <trkpt lat="46.191911324858665" lon="10.866386443376541">
        <ele>2052.0700000000002</ele>
        <time>2018-09-08T12:13:59Z</time>
      </trkpt>
      <trkpt lat="46.19192129932344" lon="10.866407984867692">
        <ele>2052.0700000000002</ele>
        <time>2018-09-08T12:14:03Z</time>
      </trkpt>
      <trkpt lat="46.191926663741469" lon="10.866488451138139">
        <ele>2052.5500000000002</ele>
        <time>2018-09-08T12:14:12Z</time>
      </trkpt>
      <trkpt lat="46.191923059523106" lon="10.86649976670742">
        <ele>2052.5500000000002</ele>
        <time>2018-09-08T12:14:13Z</time>
      </trkpt>
      <trkpt lat="46.191874947398901" lon="10.866684420034289">
        <ele>2051.1100000000001</ele>
        <time>2018-09-08T12:14:26Z</time>
      </trkpt>
      <trkpt lat="46.191872768104076" lon="10.86675675585866">
        <ele>2049.1900000000001</ele>
        <time>2018-09-08T12:14:31Z</time>
      </trkpt>
      <trkpt lat="46.191876539960504" lon="10.866771340370178">
        <ele>2049.1900000000001</ele>
        <time>2018-09-08T12:14:32Z</time>
      </trkpt>
      <trkpt lat="46.191870337352157" lon="10.866834791377187">
        <ele>2049.1900000000001</ele>
        <time>2018-09-08T12:14:38Z</time>
      </trkpt>
      <trkpt lat="46.191864218562841" lon="10.866836635395885">
        <ele>2049.1900000000001</ele>
        <time>2018-09-08T12:14:49Z</time>
      </trkpt>
      <trkpt lat="46.191876456141472" lon="10.86687401868403">
        <ele>2049.6700000000001</ele>
        <time>2018-09-08T12:14:53Z</time>
      </trkpt>
      <trkpt lat="46.191878551617265" lon="10.866937888786197">
        <ele>2049.1900000000001</ele>
        <time>2018-09-08T12:14:57Z</time>
      </trkpt>
      <trkpt lat="46.191932447254658" lon="10.867027156054974">
        <ele>2051.5900000000001</ele>
        <time>2018-09-08T12:15:08Z</time>
      </trkpt>
      <trkpt lat="46.191934458911419" lon="10.867128493264318">
        <ele>2053.0300000000002</ele>
        <time>2018-09-08T12:15:19Z</time>
      </trkpt>
      <trkpt lat="46.191955665126443" lon="10.867206528782845">
        <ele>2054.4699999999998</ele>
        <time>2018-09-08T12:15:29Z</time>
      </trkpt>
      <trkpt lat="46.191960945725441" lon="10.867290599271655">
        <ele>2055.9200000000001</ele>
        <time>2018-09-08T12:15:39Z</time>
      </trkpt>
      <trkpt lat="46.192025989294052" lon="10.867335693910718">
        <ele>2057.3600000000001</ele>
        <time>2018-09-08T12:15:51Z</time>
      </trkpt>
      <trkpt lat="46.192046944051981" lon="10.867441389709711">
        <ele>2058.8000000000002</ele>
        <time>2018-09-08T12:16:03Z</time>
      </trkpt>
      <trkpt lat="46.19204493239522" lon="10.867499057203531">
        <ele>2060.7199999999998</ele>
        <time>2018-09-08T12:16:12Z</time>
      </trkpt>
      <trkpt lat="46.192010147497058" lon="10.867529064416885">
        <ele>2062.1700000000001</ele>
        <time>2018-09-08T12:16:21Z</time>
      </trkpt>
      <trkpt lat="46.192050715908408" lon="10.86756887845695">
        <ele>2063.6100000000001</ele>
        <time>2018-09-08T12:16:33Z</time>
      </trkpt>
      <trkpt lat="46.192079298198223" lon="10.867653619498014">
        <ele>2065.0500000000002</ele>
        <time>2018-09-08T12:16:43Z</time>
      </trkpt>
      <trkpt lat="46.192112993448973" lon="10.867745988070965">
        <ele>2066.4899999999998</ele>
        <time>2018-09-08T12:16:55Z</time>
      </trkpt>
      <trkpt lat="46.192157249897718" lon="10.867792591452599">
        <ele>2067.9299999999998</ele>
        <time>2018-09-08T12:17:07Z</time>
      </trkpt>
      <trkpt lat="46.192168984562159" lon="10.867773313075304">
        <ele>2068.4099999999999</ele>
        <time>2018-09-08T12:17:11Z</time>
      </trkpt>
      <trkpt lat="46.192175941541791" lon="10.867764847353101">
        <ele>2068.4099999999999</ele>
        <time>2018-09-08T12:17:12Z</time>
      </trkpt>
      <trkpt lat="46.19222229346633" lon="10.867722854018211">
        <ele>2068.8899999999999</ele>
        <time>2018-09-08T12:17:21Z</time>
      </trkpt>
      <trkpt lat="46.192288594320416" lon="10.867678429931402">
        <ele>2070.8200000000002</ele>
        <time>2018-09-08T12:17:34Z</time>
      </trkpt>
      <trkpt lat="46.192335365340114" lon="10.867694104090333">
        <ele>2072.7399999999998</ele>
        <time>2018-09-08T12:17:46Z</time>
      </trkpt>
      <trkpt lat="46.192339556291699" lon="10.867787646129727">
        <ele>2074.1799999999998</ele>
        <time>2018-09-08T12:17:57Z</time>
      </trkpt>
      <trkpt lat="46.192288342863321" lon="10.867865597829223">
        <ele>2076.5900000000001</ele>
        <time>2018-09-08T12:18:09Z</time>
      </trkpt>
      <trkpt lat="46.192276692017913" lon="10.867921924218535">
        <ele>2078.0300000000002</ele>
        <time>2018-09-08T12:18:18Z</time>
      </trkpt>
      <trkpt lat="46.192263951525092" lon="10.86800180375576">
        <ele>2079.4699999999998</ele>
        <time>2018-09-08T12:18:29Z</time>
      </trkpt>
      <trkpt lat="46.192256743088365" lon="10.868063494563103">
        <ele>2081.3899999999999</ele>
        <time>2018-09-08T12:18:40Z</time>
      </trkpt>
      <trkpt lat="46.192257413640618" lon="10.868139350786805">
        <ele>2083.3099999999999</ele>
        <time>2018-09-08T12:18:52Z</time>
      </trkpt>
      <trkpt lat="46.192268058657646" lon="10.868191905319691">
        <ele>2084.7600000000002</ele>
        <time>2018-09-08T12:19:05Z</time>
      </trkpt>
      <trkpt lat="46.192249786108732" lon="10.868275975808501">
        <ele>2085.7199999999998</ele>
        <time>2018-09-08T12:19:16Z</time>
      </trkpt>
      <trkpt lat="46.192233609035611" lon="10.868357699364424">
        <ele>2087.6399999999999</ele>
        <time>2018-09-08T12:19:28Z</time>
      </trkpt>
      <trkpt lat="46.192211899906397" lon="10.868444368243217">
        <ele>2089.5599999999999</ele>
        <time>2018-09-08T12:19:38Z</time>
      </trkpt>
      <trkpt lat="46.192216677591205" lon="10.868535814806819">
        <ele>2091.9699999999998</ele>
        <time>2018-09-08T12:19:51Z</time>
      </trkpt>
      <trkpt lat="46.19218859821558" lon="10.868624411523342">
        <ele>2093.4099999999999</ele>
        <time>2018-09-08T12:20:01Z</time>
      </trkpt>
      <trkpt lat="46.192169571295381" lon="10.868680737912655">
        <ele>2094.3699999999999</ele>
        <time>2018-09-08T12:20:12Z</time>
      </trkpt>
      <trkpt lat="46.192152136936784" lon="10.868744105100632">
        <ele>2095.8099999999999</ele>
        <time>2018-09-08T12:20:22Z</time>
      </trkpt>
      <trkpt lat="46.192147275432944" lon="10.868816273286939">
        <ele>2097.73</ele>
        <time>2018-09-08T12:20:32Z</time>
      </trkpt>
      <trkpt lat="46.192158591002226" lon="10.868856171146035">
        <ele>2099.6599999999999</ele>
        <time>2018-09-08T12:20:41Z</time>
      </trkpt>
      <trkpt lat="46.192154735326767" lon="10.868917275220156">
        <ele>2100.6199999999999</ele>
        <time>2018-09-08T12:20:50Z</time>
      </trkpt>
      <trkpt lat="46.192146018147469" lon="10.868955748155713">
        <ele>2102.0599999999999</ele>
        <time>2018-09-08T12:20:59Z</time>
      </trkpt>
      <trkpt lat="46.192112658172846" lon="10.869008051231503">
        <ele>2103.02</ele>
        <time>2018-09-08T12:21:08Z</time>
      </trkpt>
      <trkpt lat="46.192103354260325" lon="10.869092624634504">
        <ele>2104.9400000000001</ele>
        <time>2018-09-08T12:21:19Z</time>
      </trkpt>
      <trkpt lat="46.192131685093045" lon="10.869155153632164">
        <ele>2107.3499999999999</ele>
        <time>2018-09-08T12:21:30Z</time>
      </trkpt>
      <trkpt lat="46.19211433455348" lon="10.869235871359706">
        <ele>2108.79</ele>
        <time>2018-09-08T12:21:42Z</time>
      </trkpt>
      <trkpt lat="46.192121962085366" lon="10.869317259639502">
        <ele>2109.75</ele>
        <time>2018-09-08T12:21:53Z</time>
      </trkpt>
      <trkpt lat="46.192129505798221" lon="10.869388924911618">
        <ele>2111.1900000000001</ele>
        <time>2018-09-08T12:22:03Z</time>
      </trkpt>
      <trkpt lat="46.192136965692043" lon="10.869442149996758">
        <ele>2113.5999999999999</ele>
        <time>2018-09-08T12:22:14Z</time>
      </trkpt>
      <trkpt lat="46.192131517454982" lon="10.869531752541661">
        <ele>2115.04</ele>
        <time>2018-09-08T12:22:24Z</time>
      </trkpt>
      <trkpt lat="46.192149370908737" lon="10.869611045345664">
        <ele>2117.4400000000001</ele>
        <time>2018-09-08T12:22:37Z</time>
      </trkpt>
      <trkpt lat="46.192207960411906" lon="10.869649350643158">
        <ele>2118.8800000000001</ele>
        <time>2018-09-08T12:22:47Z</time>
      </trkpt>
      <trkpt lat="46.192239141091704" lon="10.8697300683707">
        <ele>2119.3600000000001</ele>
        <time>2018-09-08T12:22:57Z</time>
      </trkpt>
      <trkpt lat="46.192264789715409" lon="10.869778264313936">
        <ele>2119.8400000000001</ele>
        <time>2018-09-08T12:23:08Z</time>
      </trkpt>
      <trkpt lat="46.192290019243956" lon="10.869882116094232">
        <ele>2120.8099999999999</ele>
        <time>2018-09-08T12:23:19Z</time>
      </trkpt>
      <trkpt lat="46.192276775836945" lon="10.870010023936629">
        <ele>2120.3200000000002</ele>
        <time>2018-09-08T12:23:31Z</time>
      </trkpt>
      <trkpt lat="46.192271579056978" lon="10.870046569034457">
        <ele>2121.77</ele>
        <time>2018-09-08T12:23:35Z</time>
      </trkpt>
      <trkpt lat="46.19225456379354" lon="10.870159054175019">
        <ele>2124.1700000000001</ele>
        <time>2018-09-08T12:23:47Z</time>
      </trkpt>
      <trkpt lat="46.19224039837718" lon="10.870212279260159">
        <ele>2124.6500000000001</ele>
        <time>2018-09-08T12:23:53Z</time>
      </trkpt>
      <trkpt lat="46.19222916662693" lon="10.87030665948987">
        <ele>2126.5700000000002</ele>
        <time>2018-09-08T12:24:04Z</time>
      </trkpt>
      <trkpt lat="46.192221706733108" lon="10.870398776605725">
        <ele>2128.02</ele>
        <time>2018-09-08T12:24:14Z</time>
      </trkpt>
      <trkpt lat="46.19220083579421" lon="10.87047228589654">
        <ele>2129.9400000000001</ele>
        <time>2018-09-08T12:24:25Z</time>
      </trkpt>
      <trkpt lat="46.192179545760155" lon="10.870551243424416">
        <ele>2131.8600000000001</ele>
        <time>2018-09-08T12:24:36Z</time>
      </trkpt>
      <trkpt lat="46.192142078652978" lon="10.870631290599704">
        <ele>2132.8200000000002</ele>
        <time>2018-09-08T12:24:47Z</time>
      </trkpt>
      <trkpt lat="46.192138642072678" lon="10.870699770748615">
        <ele>2134.2600000000002</ele>
        <time>2018-09-08T12:24:57Z</time>
      </trkpt>
      <trkpt lat="46.192109556868672" lon="10.870797839015722">
        <ele>2134.7399999999998</ele>
        <time>2018-09-08T12:25:08Z</time>
      </trkpt>
      <trkpt lat="46.19211039505899" lon="10.870918706059456">
        <ele>2136.1900000000001</ele>
        <time>2018-09-08T12:25:19Z</time>
      </trkpt>
      <trkpt lat="46.192100839689374" lon="10.871023144572973">
        <ele>2138.1100000000001</ele>
        <time>2018-09-08T12:25:31Z</time>
      </trkpt>
      <trkpt lat="46.192082231864333" lon="10.871024150401354">
        <ele>2138.1100000000001</ele>
        <time>2018-09-08T12:25:40Z</time>
      </trkpt>
      <trkpt lat="46.192069575190544" lon="10.871115429326892">
        <ele>2138.5900000000001</ele>
        <time>2018-09-08T12:25:51Z</time>
      </trkpt>
      <trkpt lat="46.192039065063" lon="10.871165134012699">
        <ele>2139.5500000000002</ele>
        <time>2018-09-08T12:26:02Z</time>
      </trkpt>
      <trkpt lat="46.192029928788543" lon="10.871187765151262">
        <ele>2139.0700000000002</ele>
        <time>2018-09-08T12:26:12Z</time>
      </trkpt>
      <trkpt lat="46.1920131649822" lon="10.871183071285486">
        <ele>2139.0700000000002</ele>
        <time>2018-09-08T12:26:26Z</time>
      </trkpt>
      <trkpt lat="46.192029090598226" lon="10.871184328570962">
        <ele>2139.0700000000002</ele>
        <time>2018-09-08T12:26:42Z</time>
      </trkpt>
      <trkpt lat="46.1920131649822" lon="10.871211737394333">
        <ele>2139.0700000000002</ele>
        <time>2018-09-08T12:26:58Z</time>
      </trkpt>
      <trkpt lat="46.192007549107075" lon="10.871337968856096">
        <ele>2138.5900000000001</ele>
        <time>2018-09-08T12:27:08Z</time>
      </trkpt>
      <trkpt lat="46.192003358155489" lon="10.871403599157929">
        <ele>2139.0700000000002</ele>
        <time>2018-09-08T12:27:13Z</time>
      </trkpt>
      <trkpt lat="46.191997239366174" lon="10.871417680755258">
        <ele>2139.0700000000002</ele>
        <time>2018-09-08T12:27:14Z</time>
      </trkpt>
      <trkpt lat="46.191966310143471" lon="10.871564615517855">
        <ele>2138.5900000000001</ele>
        <time>2018-09-08T12:27:24Z</time>
      </trkpt>
      <trkpt lat="46.191969076171517" lon="10.871578026562929">
        <ele>2138.1100000000001</ele>
        <time>2018-09-08T12:27:25Z</time>
      </trkpt>
      <trkpt lat="46.192017272114754" lon="10.871713561937213">
        <ele>2138.1100000000001</ele>
        <time>2018-09-08T12:27:36Z</time>
      </trkpt>
      <trkpt lat="46.192055577412248" lon="10.871742563322186">
        <ele>2138.5900000000001</ele>
        <time>2018-09-08T12:27:41Z</time>
      </trkpt>
      <trkpt lat="46.192118609324098" lon="10.871785311028361">
        <ele>2140.5100000000002</ele>
        <time>2018-09-08T12:27:51Z</time>
      </trkpt>
      <trkpt lat="46.19213629513979" lon="10.871884804219007">
        <ele>2141.4699999999998</ele>
        <time>2018-09-08T12:28:00Z</time>
      </trkpt>
      <trkpt lat="46.192164458334446" lon="10.871976921334863">
        <ele>2142.4400000000001</ele>
        <time>2018-09-08T12:28:09Z</time>
      </trkpt>
      <trkpt lat="46.192213324829936" lon="10.872049676254392">
        <ele>2144.3600000000001</ele>
        <time>2018-09-08T12:28:20Z</time>
      </trkpt>
      <trkpt lat="46.192221622914076" lon="10.87206032127142">
        <ele>2144.3600000000001</ele>
        <time>2018-09-08T12:28:21Z</time>
      </trkpt>
      <trkpt lat="46.192228747531772" lon="10.872073816135526">
        <ele>2143.8800000000001</ele>
        <time>2018-09-08T12:28:22Z</time>
      </trkpt>
      <trkpt lat="46.192235872149467" lon="10.872172471135855">
        <ele>2145.3200000000002</ele>
        <time>2018-09-08T12:28:32Z</time>
      </trkpt>
      <trkpt lat="46.192225897684693" lon="10.872274814173579">
        <ele>2146.7600000000002</ele>
        <time>2018-09-08T12:28:43Z</time>
      </trkpt>
      <trkpt lat="46.192194130271673" lon="10.872370367869735">
        <ele>2148.1999999999998</ele>
        <time>2018-09-08T12:28:55Z</time>
      </trkpt>
      <trkpt lat="46.192109808325768" lon="10.872438931837678">
        <ele>2150.1300000000001</ele>
        <time>2018-09-08T12:29:09Z</time>
      </trkpt>
      <trkpt lat="46.192052811384201" lon="10.872494336217642">
        <ele>2152.0500000000002</ele>
        <time>2018-09-08T12:29:22Z</time>
      </trkpt>
      <trkpt lat="46.19197946973145" lon="10.872517889365554">
        <ele>2153.4899999999998</ele>
        <time>2018-09-08T12:29:33Z</time>
      </trkpt>
      <trkpt lat="46.191923646256328" lon="10.872546974569559">
        <ele>2154.4499999999998</ele>
        <time>2018-09-08T12:29:43Z</time>
      </trkpt>
      <trkpt lat="46.191889280453324" lon="10.872527444735169">
        <ele>2155.8899999999999</ele>
        <time>2018-09-08T12:29:55Z</time>
      </trkpt>
      <trkpt lat="46.19187000207603" lon="10.872547477483749">
        <ele>2155.8899999999999</ele>
        <time>2018-09-08T12:30:06Z</time>
      </trkpt>
      <trkpt lat="46.191865224391222" lon="10.872609503567219">
        <ele>2157.3400000000001</ele>
        <time>2018-09-08T12:30:16Z</time>
      </trkpt>
      <trkpt lat="46.191871762275696" lon="10.872708829119802">
        <ele>2158.7800000000002</ele>
        <time>2018-09-08T12:30:28Z</time>
      </trkpt>
      <trkpt lat="46.191891543567181" lon="10.872805304825306">
        <ele>2160.2199999999998</ele>
        <time>2018-09-08T12:30:39Z</time>
      </trkpt>
      <trkpt lat="46.191869666799903" lon="10.872902786359191">
        <ele>2161.6599999999999</ele>
        <time>2018-09-08T12:30:51Z</time>
      </trkpt>
      <trkpt lat="46.19183043949306" lon="10.872998675331473">
        <ele>2163.0999999999999</ele>
        <time>2018-09-08T12:31:03Z</time>
      </trkpt>
      <trkpt lat="46.191762294620275" lon="10.873112333938479">
        <ele>2165.0300000000002</ele>
        <time>2018-09-08T12:31:17Z</time>
      </trkpt>
      <trkpt lat="46.191721390932798" lon="10.873223645612597">
        <ele>2166.9499999999998</ele>
        <time>2018-09-08T12:31:30Z</time>
      </trkpt>
      <trkpt lat="46.191682834178209" lon="10.873307716101408">
        <ele>2168.3899999999999</ele>
        <time>2018-09-08T12:31:41Z</time>
      </trkpt>
      <trkpt lat="46.191673697903752" lon="10.873321127146482">
        <ele>2168.3899999999999</ele>
        <time>2018-09-08T12:31:43Z</time>
      </trkpt>
      <trkpt lat="46.191615862771869" lon="10.873393127694726">
        <ele>2170.3099999999999</ele>
        <time>2018-09-08T12:31:54Z</time>
      </trkpt>
      <trkpt lat="46.191551657393575" lon="10.873418776318431">
        <ele>2171.7600000000002</ele>
        <time>2018-09-08T12:32:03Z</time>
      </trkpt>
      <trkpt lat="46.191545119509101" lon="10.873503517359495">
        <ele>2173.1999999999998</ele>
        <time>2018-09-08T12:32:13Z</time>
      </trkpt>
      <trkpt lat="46.191512597724795" lon="10.873564956709743">
        <ele>2175.1199999999999</ele>
        <time>2018-09-08T12:32:23Z</time>
      </trkpt>
      <trkpt lat="46.191471861675382" lon="10.873637963086367">
        <ele>2176.0799999999999</ele>
        <time>2018-09-08T12:32:33Z</time>
      </trkpt>
      <trkpt lat="46.191454259678721" lon="10.873706359416246">
        <ele>2177.04</ele>
        <time>2018-09-08T12:32:42Z</time>
      </trkpt>
      <trkpt lat="46.191429197788239" lon="10.873808953911066">
        <ele>2178.48</ele>
        <time>2018-09-08T12:32:53Z</time>
      </trkpt>
      <trkpt lat="46.191443782299757" lon="10.873911380767822">
        <ele>2179.9299999999998</ele>
        <time>2018-09-08T12:33:03Z</time>
      </trkpt>
      <trkpt lat="46.19143414311111" lon="10.873926132917404">
        <ele>2179.9299999999998</ele>
        <time>2018-09-08T12:33:05Z</time>
      </trkpt>
      <trkpt lat="46.191414194181561" lon="10.873945746570826">
        <ele>2180.4099999999999</ele>
        <time>2018-09-08T12:33:12Z</time>
      </trkpt>
      <trkpt lat="46.19142341427505" lon="10.873963264748454">
        <ele>2180.4099999999999</ele>
        <time>2018-09-08T12:33:14Z</time>
      </trkpt>
      <trkpt lat="46.191428946331143" lon="10.873971311375499">
        <ele>2180.4099999999999</ele>
        <time>2018-09-08T12:33:15Z</time>
      </trkpt>
      <trkpt lat="46.191433724015951" lon="10.8740143943578">
        <ele>2180.8899999999999</ele>
        <time>2018-09-08T12:33:24Z</time>
      </trkpt>
      <trkpt lat="46.191428443416953" lon="10.874060411006212">
        <ele>2181.3699999999999</ele>
        <time>2018-09-08T12:33:28Z</time>
      </trkpt>
      <trkpt lat="46.191394999623299" lon="10.874171135947108">
        <ele>2181.3699999999999</ele>
        <time>2018-09-08T12:33:37Z</time>
      </trkpt>
      <trkpt lat="46.191390557214618" lon="10.874213213101029">
        <ele>2181.3699999999999</ele>
        <time>2018-09-08T12:33:40Z</time>
      </trkpt>
      <trkpt lat="46.191387372091413" lon="10.874254871159792">
        <ele>2181.8499999999999</ele>
        <time>2018-09-08T12:33:43Z</time>
      </trkpt>
      <trkpt lat="46.191387455910444" lon="10.874366769567132">
        <ele>2183.29</ele>
        <time>2018-09-08T12:33:53Z</time>
      </trkpt>
      <trkpt lat="46.191423833370209" lon="10.87444044649601">
        <ele>2184.73</ele>
        <time>2018-09-08T12:34:03Z</time>
      </trkpt>
      <trkpt lat="46.191444452852011" lon="10.874480428174138">
        <ele>2185.21</ele>
        <time>2018-09-08T12:34:11Z</time>
      </trkpt>
      <trkpt lat="46.191453421488404" lon="10.874495431780815">
        <ele>2185.21</ele>
        <time>2018-09-08T12:34:12Z</time>
      </trkpt>
      <trkpt lat="46.191457360982895" lon="10.874509513378143">
        <ele>2184.73</ele>
        <time>2018-09-08T12:34:13Z</time>
      </trkpt>
      <trkpt lat="46.191458282992244" lon="10.874523762613535">
        <ele>2185.21</ele>
        <time>2018-09-08T12:34:14Z</time>
      </trkpt>
      <trkpt lat="46.191464317962527" lon="10.874657034873962">
        <ele>2184.73</ele>
        <time>2018-09-08T12:34:23Z</time>
      </trkpt>
      <trkpt lat="46.19146297685802" lon="10.874691903591156">
        <ele>2184.73</ele>
        <time>2018-09-08T12:34:25Z</time>
      </trkpt>
      <trkpt lat="46.191467167809606" lon="10.874703638255596">
        <ele>2184.73</ele>
        <time>2018-09-08T12:34:26Z</time>
      </trkpt>
      <trkpt lat="46.191470939666033" lon="10.874718138948083">
        <ele>2184.25</ele>
        <time>2018-09-08T12:34:27Z</time>
      </trkpt>
      <trkpt lat="46.191473705694079" lon="10.874734735116363">
        <ele>2184.25</ele>
        <time>2018-09-08T12:34:28Z</time>
      </trkpt>
      <trkpt lat="46.191501952707767" lon="10.874781673774123">
        <ele>2184.73</ele>
        <time>2018-09-08T12:34:36Z</time>
      </trkpt>
      <trkpt lat="46.191559033468366" lon="10.874879909679294">
        <ele>2185.6900000000001</ele>
        <time>2018-09-08T12:34:45Z</time>
      </trkpt>
      <trkpt lat="46.191609827801585" lon="10.87494227103889">
        <ele>2187.6199999999999</ele>
        <time>2018-09-08T12:34:55Z</time>
      </trkpt>
      <trkpt lat="46.191629273816943" lon="10.875018462538719">
        <ele>2189.0599999999999</ele>
        <time>2018-09-08T12:35:04Z</time>
      </trkpt>
      <trkpt lat="46.191677553579211" lon="10.875034807249904">
        <ele>2190.5</ele>
        <time>2018-09-08T12:35:15Z</time>
      </trkpt>
      <trkpt lat="46.191722229123116" lon="10.875034471973777">
        <ele>2191.9400000000001</ele>
        <time>2018-09-08T12:35:24Z</time>
      </trkpt>
      <trkpt lat="46.191772352904081" lon="10.875045703724027">
        <ele>2193.3899999999999</ele>
        <time>2018-09-08T12:35:34Z</time>
      </trkpt>
      <trkpt lat="46.191781656816602" lon="10.875136647373438">
        <ele>2194.8299999999999</ele>
        <time>2018-09-08T12:35:45Z</time>
      </trkpt>
      <trkpt lat="46.191769754514098" lon="10.875220717862248">
        <ele>2196.27</ele>
        <time>2018-09-08T12:35:54Z</time>
      </trkpt>
      <trkpt lat="46.191761121153831" lon="10.875227926298976">
        <ele>2196.75</ele>
        <time>2018-09-08T12:35:55Z</time>
      </trkpt>
      <trkpt lat="46.191722732037306" lon="10.875250808894634">
        <ele>2198.1900000000001</ele>
        <time>2018-09-08T12:36:04Z</time>
      </trkpt>
      <trkpt lat="46.191688366234303" lon="10.875307219102979">
        <ele>2198.6700000000001</ele>
        <time>2018-09-08T12:36:13Z</time>
      </trkpt>
      <trkpt lat="46.191653748974204" lon="10.875400928780437">
        <ele>2199.1500000000001</ele>
        <time>2018-09-08T12:36:22Z</time>
      </trkpt>
      <trkpt lat="46.191587029024959" lon="10.875431774184108">
        <ele>2200.5900000000001</ele>
        <time>2018-09-08T12:36:33Z</time>
      </trkpt>
      <trkpt lat="46.191533301025629" lon="10.875433869659901">
        <ele>2201.0799999999999</ele>
        <time>2018-09-08T12:36:42Z</time>
      </trkpt>
      <trkpt lat="46.191479908302426" lon="10.875491872429848">
        <ele>2201.0799999999999</ele>
        <time>2018-09-08T12:36:51Z</time>
      </trkpt>
      <trkpt lat="46.191453840583563" lon="10.87558776140213">
        <ele>2203</ele>
        <time>2018-09-08T12:37:03Z</time>
      </trkpt>
      <trkpt lat="46.191451409831643" lon="10.875589605420828">
        <ele>2203</ele>
        <time>2018-09-08T12:37:04Z</time>
      </trkpt>
      <trkpt lat="46.191391563042998" lon="10.875622713938355">
        <ele>2203.48</ele>
        <time>2018-09-08T12:37:21Z</time>
      </trkpt>
      <trkpt lat="46.191397849470377" lon="10.875733774155378">
        <ele>2203</ele>
        <time>2018-09-08T12:37:33Z</time>
      </trkpt>
      <trkpt lat="46.191440932452679" lon="10.875799739733338">
        <ele>2204.4400000000001</ele>
        <time>2018-09-08T12:37:43Z</time>
      </trkpt>
      <trkpt lat="46.191441686823964" lon="10.875881966203451">
        <ele>2205.8800000000001</ele>
        <time>2018-09-08T12:37:52Z</time>
      </trkpt>
      <trkpt lat="46.191448895260692" lon="10.875884899869561">
        <ele>2205.8800000000001</ele>
        <time>2018-09-08T12:38:03Z</time>
      </trkpt>
      <trkpt lat="46.191458450630307" lon="10.87591708637774">
        <ele>2205.4000000000001</ele>
        <time>2018-09-08T12:38:13Z</time>
      </trkpt>
      <trkpt lat="46.191468592733145" lon="10.875946674495935">
        <ele>2204.9200000000001</ele>
        <time>2018-09-08T12:38:16Z</time>
      </trkpt>
      <trkpt lat="46.191510334610939" lon="10.87604658678174">
        <ele>2204.9200000000001</ele>
        <time>2018-09-08T12:38:25Z</time>
      </trkpt>
      <trkpt lat="46.191562218591571" lon="10.876112217083573">
        <ele>2204.4400000000001</ele>
        <time>2018-09-08T12:38:34Z</time>
      </trkpt>
      <trkpt lat="46.191572193056345" lon="10.876152450218797">
        <ele>2204.4400000000001</ele>
        <time>2018-09-08T12:38:38Z</time>
      </trkpt>
      <trkpt lat="46.191550148651004" lon="10.876228809356689">
        <ele>2205.4000000000001</ele>
        <time>2018-09-08T12:38:46Z</time>
      </trkpt>
      <trkpt lat="46.191561799496412" lon="10.876319166272879">
        <ele>2206.3600000000001</ele>
        <time>2018-09-08T12:38:55Z</time>
      </trkpt>
      <trkpt lat="46.191525170579553" lon="10.876427125185728">
        <ele>2207.3200000000002</ele>
        <time>2018-09-08T12:39:07Z</time>
      </trkpt>
      <trkpt lat="46.191514944657683" lon="10.876495940610766">
        <ele>2209.25</ele>
        <time>2018-09-08T12:39:17Z</time>
      </trkpt>
      <trkpt lat="46.191467419266701" lon="10.876555619761348">
        <ele>2210.21</ele>
        <time>2018-09-08T12:39:26Z</time>
      </trkpt>
      <trkpt lat="46.191465491428971" lon="10.876643378287554">
        <ele>2212.1300000000001</ele>
        <time>2018-09-08T12:39:37Z</time>
      </trkpt>
      <trkpt lat="46.191436657682061" lon="10.876730382442474">
        <ele>2213.5700000000002</ele>
        <time>2018-09-08T12:39:48Z</time>
      </trkpt>
      <trkpt lat="46.191411009058356" lon="10.876792576164007">
        <ele>2214.5300000000002</ele>
        <time>2018-09-08T12:39:57Z</time>
      </trkpt>
      <trkpt lat="46.191421654075384" lon="10.876836413517594">
        <ele>2216.46</ele>
        <time>2018-09-08T12:40:07Z</time>
      </trkpt>
      <trkpt lat="46.191466078162193" lon="10.876843621954322">
        <ele>2218.3800000000001</ele>
        <time>2018-09-08T12:40:18Z</time>
      </trkpt>
      <trkpt lat="46.191509747877717" lon="10.87693146429956">
        <ele>2218.8600000000001</ele>
        <time>2018-09-08T12:40:28Z</time>
      </trkpt>
      <trkpt lat="46.191524919122458" lon="10.877017378807068">
        <ele>2219.8200000000002</ele>
        <time>2018-09-08T12:40:38Z</time>
      </trkpt>
      <trkpt lat="46.191556435078382" lon="10.877065574750304">
        <ele>2220.3000000000002</ele>
        <time>2018-09-08T12:40:46Z</time>
      </trkpt>
      <trkpt lat="46.191551322117448" lon="10.877155093476176">
        <ele>2220.7800000000002</ele>
        <time>2018-09-08T12:40:54Z</time>
      </trkpt>
      <trkpt lat="46.191574539989233" lon="10.877255676314235">
        <ele>2222.71</ele>
        <time>2018-09-08T12:41:05Z</time>
      </trkpt>
      <trkpt lat="46.19154604151845" lon="10.877303704619408">
        <ele>2222.71</ele>
        <time>2018-09-08T12:41:15Z</time>
      </trkpt>
      <trkpt lat="46.191562972962856" lon="10.87736003100872">
        <ele>2224.6300000000001</ele>
        <time>2018-09-08T12:41:24Z</time>
      </trkpt>
      <trkpt lat="46.191574288532138" lon="10.87745726108551">
        <ele>2225.5900000000001</ele>
        <time>2018-09-08T12:41:34Z</time>
      </trkpt>
      <trkpt lat="46.191574288532138" lon="10.877565303817391">
        <ele>2226.5500000000002</ele>
        <time>2018-09-08T12:41:44Z</time>
      </trkpt>
      <trkpt lat="46.19158904068172" lon="10.877622552216053">
        <ele>2227.5100000000002</ele>
        <time>2018-09-08T12:41:53Z</time>
      </trkpt>
      <trkpt lat="46.191651737317443" lon="10.877680135890841">
        <ele>2227.0300000000002</ele>
        <time>2018-09-08T12:42:03Z</time>
      </trkpt>
      <trkpt lat="46.191684175282717" lon="10.877805026248097">
        <ele>2225.5900000000001</ele>
        <time>2018-09-08T12:42:14Z</time>
      </trkpt>
      <trkpt lat="46.191702866926789" lon="10.877851881086826">
        <ele>2225.1100000000001</ele>
        <time>2018-09-08T12:42:18Z</time>
      </trkpt>
      <trkpt lat="46.191740836948156" lon="10.877906195819378">
        <ele>2224.1500000000001</ele>
        <time>2018-09-08T12:42:24Z</time>
      </trkpt>
      <trkpt lat="46.191737819463015" lon="10.877921702340245">
        <ele>2224.1500000000001</ele>
        <time>2018-09-08T12:42:25Z</time>
      </trkpt>
      <trkpt lat="46.191730024293065" lon="10.877939807251096">
        <ele>2223.6700000000001</ele>
        <time>2018-09-08T12:42:26Z</time>
      </trkpt>
      <trkpt lat="46.191713763400912" lon="10.877965372055769">
        <ele>2223.6700000000001</ele>
        <time>2018-09-08T12:42:28Z</time>
      </trkpt>
      <trkpt lat="46.191701358184218" lon="10.877974424511194">
        <ele>2223.1900000000001</ele>
        <time>2018-09-08T12:42:29Z</time>
      </trkpt>
      <trkpt lat="46.191669926047325" lon="10.87807240895927">
        <ele>2222.71</ele>
        <time>2018-09-08T12:42:39Z</time>
      </trkpt>
      <trkpt lat="46.191691383719444" lon="10.878120437264442">
        <ele>2221.2600000000002</ele>
        <time>2018-09-08T12:42:47Z</time>
      </trkpt>
      <trkpt lat="46.191700771450996" lon="10.878121610730886">
        <ele>2221.2600000000002</ele>
        <time>2018-09-08T12:42:48Z</time>
      </trkpt>
      <trkpt lat="46.1917092371732" lon="10.878127478063107">
        <ele>2220.7800000000002</ele>
        <time>2018-09-08T12:42:49Z</time>
      </trkpt>
      <trkpt lat="46.191737400367856" lon="10.878148684278131">
        <ele>2220.7800000000002</ele>
        <time>2018-09-08T12:42:52Z</time>
      </trkpt>
      <trkpt lat="46.191746704280376" lon="10.878151031211019">
        <ele>2220.7800000000002</ele>
        <time>2018-09-08T12:42:53Z</time>
      </trkpt>
      <trkpt lat="46.191757516935468" lon="10.878153629601002">
        <ele>2220.7800000000002</ele>
        <time>2018-09-08T12:42:54Z</time>
      </trkpt>
      <trkpt lat="46.191777465865016" lon="10.878168633207679">
        <ele>2220.7800000000002</ele>
        <time>2018-09-08T12:42:56Z</time>
      </trkpt>
      <trkpt lat="46.191804874688387" lon="10.878299223259091">
        <ele>2220.7800000000002</ele>
        <time>2018-09-08T12:43:07Z</time>
      </trkpt>
      <trkpt lat="46.191829768940806" lon="10.878396620973945">
        <ele>2218.8600000000001</ele>
        <time>2018-09-08T12:43:17Z</time>
      </trkpt>
      <trkpt lat="46.191831361502409" lon="10.878422185778618">
        <ele>2218.3800000000001</ele>
        <time>2018-09-08T12:43:19Z</time>
      </trkpt>
      <trkpt lat="46.191832534968853" lon="10.878510698676109">
        <ele>2218.8600000000001</ele>
        <time>2018-09-08T12:43:28Z</time>
      </trkpt>
      <trkpt lat="46.191843682900071" lon="10.878520756959915">
        <ele>2218.8600000000001</ele>
        <time>2018-09-08T12:43:44Z</time>
      </trkpt>
      <trkpt lat="46.191847203299403" lon="10.878572724759579">
        <ele>2217.9000000000001</ele>
        <time>2018-09-08T12:43:49Z</time>
      </trkpt>
      <trkpt lat="46.191868493333459" lon="10.878705997020006">
        <ele>2215.98</ele>
        <time>2018-09-08T12:44:00Z</time>
      </trkpt>
      <trkpt lat="46.191842257976532" lon="10.878747319802642">
        <ele>2216.9400000000001</ele>
        <time>2018-09-08T12:44:07Z</time>
      </trkpt>
      <trkpt lat="46.191842593252659" lon="10.878817308694124">
        <ele>2218.3800000000001</ele>
        <time>2018-09-08T12:44:16Z</time>
      </trkpt>
      <trkpt lat="46.191851897165179" lon="10.87884932756424">
        <ele>2220.3000000000002</ele>
        <time>2018-09-08T12:44:25Z</time>
      </trkpt>
      <trkpt lat="46.191877461969852" lon="10.878863157704473">
        <ele>2221.2600000000002</ele>
        <time>2018-09-08T12:44:39Z</time>
      </trkpt>
      <trkpt lat="46.19190176948905" lon="10.878851674497128">
        <ele>2222.2199999999998</ele>
        <time>2018-09-08T12:44:47Z</time>
      </trkpt>
      <trkpt lat="46.191933285444975" lon="10.878873467445374">
        <ele>2224.1500000000001</ele>
        <time>2018-09-08T12:44:56Z</time>
      </trkpt>
      <trkpt lat="46.191951390355825" lon="10.878842873498797">
        <ele>2227.5100000000002</ele>
        <time>2018-09-08T12:45:07Z</time>
      </trkpt>
      <trkpt lat="46.191983912140131" lon="10.878788977861404">
        <ele>2226.5500000000002</ele>
        <time>2018-09-08T12:45:16Z</time>
      </trkpt>
      <trkpt lat="46.192011572420597" lon="10.878878077492118">
        <ele>2227.9899999999998</ele>
        <time>2018-09-08T12:45:27Z</time>
      </trkpt>
      <trkpt lat="46.191982235759497" lon="10.878972709178925">
        <ele>2229.4299999999998</ele>
        <time>2018-09-08T12:45:40Z</time>
      </trkpt>
      <trkpt lat="46.191922975704074" lon="10.879041189327836">
        <ele>2230.8800000000001</ele>
        <time>2018-09-08T12:45:50Z</time>
      </trkpt>
      <trkpt lat="46.191890118643641" lon="10.879096845164895">
        <ele>2232.3200000000002</ele>
        <time>2018-09-08T12:46:01Z</time>
      </trkpt>
      <trkpt lat="46.191862290725112" lon="10.879148226231337">
        <ele>2232.8000000000002</ele>
        <time>2018-09-08T12:46:08Z</time>
      </trkpt>
      <trkpt lat="46.191840497776866" lon="10.879237577319145">
        <ele>2233.2800000000002</ele>
        <time>2018-09-08T12:46:15Z</time>
      </trkpt>
      <trkpt lat="46.191830104216933" lon="10.879247970879078">
        <ele>2233.7600000000002</ele>
        <time>2018-09-08T12:46:16Z</time>
      </trkpt>
      <trkpt lat="46.19177863933146" lon="10.87930521927774">
        <ele>2233.2800000000002</ele>
        <time>2018-09-08T12:46:25Z</time>
      </trkpt>
      <trkpt lat="46.191770927980542" lon="10.87932039052248">
        <ele>2233.2800000000002</ele>
        <time>2018-09-08T12:46:26Z</time>
      </trkpt>
      <trkpt lat="46.191763719543815" lon="10.879391971975565">
        <ele>2233.2800000000002</ele>
        <time>2018-09-08T12:46:31Z</time>
      </trkpt>
      <trkpt lat="46.191757852211595" lon="10.87942005135119">
        <ele>2233.2800000000002</ele>
        <time>2018-09-08T12:46:33Z</time>
      </trkpt>
      <trkpt lat="46.19171024300158" lon="10.879547707736492">
        <ele>2234.2399999999998</ele>
        <time>2018-09-08T12:46:44Z</time>
      </trkpt>
      <trkpt lat="46.19168484583497" lon="10.879623144865036">
        <ele>2236.1599999999999</ele>
        <time>2018-09-08T12:46:53Z</time>
      </trkpt>
      <trkpt lat="46.191640505567193" lon="10.879716351628304">
        <ele>2237.1300000000001</ele>
        <time>2018-09-08T12:47:01Z</time>
      </trkpt>
      <trkpt lat="46.191578228026628" lon="10.879767900332808">
        <ele>2234.7199999999998</ele>
        <time>2018-09-08T12:47:13Z</time>
      </trkpt>
      <trkpt lat="46.191561296582222" lon="10.879771169275045">
        <ele>2234.2399999999998</ele>
        <time>2018-09-08T12:47:16Z</time>
      </trkpt>
      <trkpt lat="46.191511172801256" lon="10.879823556169868">
        <ele>2232.8000000000002</ele>
        <time>2018-09-08T12:47:25Z</time>
      </trkpt>
      <trkpt lat="46.191505389288068" lon="10.879838895052671">
        <ele>2232.8000000000002</ele>
        <time>2018-09-08T12:47:28Z</time>
      </trkpt>
      <trkpt lat="46.191518967971206" lon="10.880025643855333">
        <ele>2234.2399999999998</ele>
        <time>2018-09-08T12:47:41Z</time>
      </trkpt>
      <trkpt lat="46.191505137830973" lon="10.880127400159836">
        <ele>2236.1599999999999</ele>
        <time>2018-09-08T12:47:51Z</time>
      </trkpt>
      <trkpt lat="46.191504215821624" lon="10.88018381036818">
        <ele>2237.6100000000001</ele>
        <time>2018-09-08T12:47:59Z</time>
      </trkpt>
      <trkpt lat="46.191523661836982" lon="10.880265785381198">
        <ele>2238.0900000000001</ele>
        <time>2018-09-08T12:48:08Z</time>
      </trkpt>
      <trkpt lat="46.191530702635646" lon="10.880304928869009">
        <ele>2238.0900000000001</ele>
        <time>2018-09-08T12:48:11Z</time>
      </trkpt>
      <trkpt lat="46.19157730601728" lon="10.880401823669672">
        <ele>2238.0900000000001</ele>
        <time>2018-09-08T12:48:22Z</time>
      </trkpt>
      <trkpt lat="46.191585855558515" lon="10.880409199744463">
        <ele>2237.6100000000001</ele>
        <time>2018-09-08T12:48:23Z</time>
      </trkpt>
      <trkpt lat="46.191647881641984" lon="10.880429986864328">
        <ele>2238.0900000000001</ele>
        <time>2018-09-08T12:48:34Z</time>
      </trkpt>
      <trkpt lat="46.191711667925119" lon="10.880440715700388">
        <ele>2238.5700000000002</ele>
        <time>2018-09-08T12:48:43Z</time>
      </trkpt>
      <trkpt lat="46.191760869696736" lon="10.880452785640955">
        <ele>2239.0500000000002</ele>
        <time>2018-09-08T12:48:56Z</time>
      </trkpt>
      <trkpt lat="46.191781908273697" lon="10.880456306040287">
        <ele>2240.0100000000002</ele>
        <time>2018-09-08T12:49:09Z</time>
      </trkpt>
      <trkpt lat="46.19179867208004" lon="10.880450354889035">
        <ele>2239.0500000000002</ele>
        <time>2018-09-08T12:49:19Z</time>
      </trkpt>
      <trkpt lat="46.191842844709754" lon="10.880447756499052">
        <ele>2238.0900000000001</ele>
        <time>2018-09-08T12:49:31Z</time>
      </trkpt>
      <trkpt lat="46.191877294331789" lon="10.880439206957817">
        <ele>2237.6100000000001</ele>
        <time>2018-09-08T12:49:36Z</time>
      </trkpt>
      <trkpt lat="46.191937727853656" lon="10.880396626889706">
        <ele>2237.6100000000001</ele>
        <time>2018-09-08T12:49:45Z</time>
      </trkpt>
      <trkpt lat="46.191994389519095" lon="10.880363350734115">
        <ele>2237.1300000000001</ele>
        <time>2018-09-08T12:49:53Z</time>
      </trkpt>
      <trkpt lat="46.19204493239522" lon="10.880308197811246">
        <ele>2236.1599999999999</ele>
        <time>2018-09-08T12:50:01Z</time>
      </trkpt>
      <trkpt lat="46.192090949043632" lon="10.880275089293718">
        <ele>2235.6799999999998</ele>
        <time>2018-09-08T12:50:05Z</time>
      </trkpt>
      <trkpt lat="46.192168481647968" lon="10.8803088683635">
        <ele>2236.6399999999999</ele>
        <time>2018-09-08T12:50:14Z</time>
      </trkpt>
      <trkpt lat="46.192178539931774" lon="10.88031523860991">
        <ele>2236.6399999999999</ele>
        <time>2018-09-08T12:50:15Z</time>
      </trkpt>
      <trkpt lat="46.19222623296082" lon="10.880371564999223">
        <ele>2239.0500000000002</ele>
        <time>2018-09-08T12:50:25Z</time>
      </trkpt>
      <trkpt lat="46.192228076979518" lon="10.880490001291037">
        <ele>2240.4899999999998</ele>
        <time>2018-09-08T12:50:38Z</time>
      </trkpt>
      <trkpt lat="46.192228579893708" lon="10.880597289651632">
        <ele>2242.4099999999999</ele>
        <time>2018-09-08T12:50:49Z</time>
      </trkpt>
      <trkpt lat="46.192231765016913" lon="10.880694100633264">
        <ele>2243.3699999999999</ele>
        <time>2018-09-08T12:51:00Z</time>
      </trkpt>
      <trkpt lat="46.192227825522423" lon="10.880766771733761">
        <ele>2244.8200000000002</ele>
        <time>2018-09-08T12:51:09Z</time>
      </trkpt>
      <trkpt lat="46.192214079201221" lon="10.880881771445274">
        <ele>2246.7399999999998</ele>
        <time>2018-09-08T12:51:22Z</time>
      </trkpt>
      <trkpt lat="46.19222329929471" lon="10.880967937409878">
        <ele>2248.6599999999999</ele>
        <time>2018-09-08T12:51:33Z</time>
      </trkpt>
      <trkpt lat="46.192242577672005" lon="10.881034657359123">
        <ele>2250.5799999999999</ele>
        <time>2018-09-08T12:51:46Z</time>
      </trkpt>
      <trkpt lat="46.192255150526762" lon="10.881051337346435">
        <ele>2251.0599999999999</ele>
        <time>2018-09-08T12:51:59Z</time>
      </trkpt>
      <trkpt lat="46.1922393925488" lon="10.881035244092345">
        <ele>2251.0599999999999</ele>
        <time>2018-09-08T12:52:07Z</time>
      </trkpt>
      <trkpt lat="46.192231262102723" lon="10.881081847473979">
        <ele>2251.0599999999999</ele>
        <time>2018-09-08T12:52:22Z</time>
      </trkpt>
      <trkpt lat="46.1922393925488" lon="10.881029544398189">
        <ele>2251.0599999999999</ele>
        <time>2018-09-08T12:52:38Z</time>
      </trkpt>
      <trkpt lat="46.192218186333776" lon="10.881062485277653">
        <ele>2251.54</ele>
        <time>2018-09-08T12:52:47Z</time>
      </trkpt>
      <trkpt lat="46.192207960411906" lon="10.881132138893008">
        <ele>2252.5100000000002</ele>
        <time>2018-09-08T12:53:06Z</time>
      </trkpt>
      <trkpt lat="46.192209469154477" lon="10.881216460838914">
        <ele>2253.4699999999998</ele>
        <time>2018-09-08T12:53:16Z</time>
      </trkpt>
      <trkpt lat="46.192191112786531" lon="10.88131251744926">
        <ele>2254.9099999999999</ele>
        <time>2018-09-08T12:53:28Z</time>
      </trkpt>
      <trkpt lat="46.192171666771173" lon="10.88141611777246">
        <ele>2256.8299999999999</ele>
        <time>2018-09-08T12:53:39Z</time>
      </trkpt>
      <trkpt lat="46.19215389713645" lon="10.881554838269949">
        <ele>2258.75</ele>
        <time>2018-09-08T12:53:55Z</time>
      </trkpt>
      <trkpt lat="46.192142078652978" lon="10.881623402237892">
        <ele>2261.1599999999999</ele>
        <time>2018-09-08T12:54:07Z</time>
      </trkpt>
      <trkpt lat="46.192125733941793" lon="10.881731947883964">
        <ele>2262.5999999999999</ele>
        <time>2018-09-08T12:54:19Z</time>
      </trkpt>
      <trkpt lat="46.192054068669677" lon="10.881773270666599">
        <ele>2263.5599999999999</ele>
        <time>2018-09-08T12:54:30Z</time>
      </trkpt>
      <trkpt lat="46.19199707172811" lon="10.881802942603827">
        <ele>2265</ele>
        <time>2018-09-08T12:54:40Z</time>
      </trkpt>
      <trkpt lat="46.19197410531342" lon="10.881896484643221">
        <ele>2266.4499999999998</ele>
        <time>2018-09-08T12:54:52Z</time>
      </trkpt>
      <trkpt lat="46.191958850249648" lon="10.881967144086957">
        <ele>2267.8899999999999</ele>
        <time>2018-09-08T12:55:02Z</time>
      </trkpt>
      <trkpt lat="46.191932866349816" lon="10.882021961733699">
        <ele>2269.8099999999999</ele>
        <time>2018-09-08T12:55:12Z</time>
      </trkpt>
      <trkpt lat="46.191934458911419" lon="10.882047694176435">
        <ele>2271.73</ele>
        <time>2018-09-08T12:55:23Z</time>
      </trkpt>
      <trkpt lat="46.191918784752488" lon="10.882042162120342">
        <ele>2271.73</ele>
        <time>2018-09-08T12:55:41Z</time>
      </trkpt>
      <trkpt lat="46.19193110615015" lon="10.882045347243547">
        <ele>2272.6900000000001</ele>
        <time>2018-09-08T12:55:57Z</time>
      </trkpt>
      <trkpt lat="46.19190520606935" lon="10.882050963118672">
        <ele>2272.21</ele>
        <time>2018-09-08T12:56:20Z</time>
      </trkpt>
      <trkpt lat="46.191902356222272" lon="10.88205867446959">
        <ele>2271.73</ele>
        <time>2018-09-08T12:56:32Z</time>
      </trkpt>
      <trkpt lat="46.191901098936796" lon="10.882085412740707">
        <ele>2271.73</ele>
        <time>2018-09-08T12:56:49Z</time>
      </trkpt>
    </trkseg>
  </trk>

</gpx>